<?xml version="1.0" encoding="UTF-8" standalone="no" ?>
<gpx xmlns="http://www.topografix.com/GPX/1/1" xmlns:xsi="http://www.w3.org/2001/XMLSchema-instance" xsi:schemaLocation="http://www.topografix.com/GPX/1/1 http://www.topografix.com/GPX/1/1/gpx.xsd" version="1.1" creator="VisuGPX - https://www.visugpx.com">
  <metadata>
    <name>De St Remy les Chevreuses au Perray en Yvelines</name>
    <desc><![CDATA[Menée par JJL pour le Rif
Parcours ombragé impeccable en cette saison et paysages au top ]]></desc>
  </metadata>
  <trk>
    <name><![CDATA[SityTrail - De St Remy les Chevreuses au Perray en Yvelines]]></name>
    <desc><![CDATA[Menée par JJL pour le Rif
Parcours ombragé impeccable en cette saison et paysages au top ]]></desc>
    <trkseg>
      <trkpt lat="48.70261" lon="2.07036">
        <ele>81</ele>
        <time>2025-07-04T07:12:49.538Z</time>
      </trkpt>
      <trkpt lat="48.70261" lon="2.07037">
        <ele>81</ele>
        <time>2025-07-04T07:13:04.539Z</time>
      </trkpt>
      <trkpt lat="48.70262" lon="2.07036">
        <ele>81</ele>
        <time>2025-07-04T07:13:10.538Z</time>
      </trkpt>
      <trkpt lat="48.70261" lon="2.07032">
        <ele>81</ele>
        <time>2025-07-04T07:13:15.538Z</time>
      </trkpt>
      <trkpt lat="48.7026" lon="2.07023">
        <ele>81</ele>
        <time>2025-07-04T07:13:20.538Z</time>
      </trkpt>
      <trkpt lat="48.70259" lon="2.07016">
        <ele>81</ele>
        <time>2025-07-04T07:13:25.337Z</time>
      </trkpt>
      <trkpt lat="48.70259" lon="2.07009">
        <ele>80</ele>
        <time>2025-07-04T07:13:29.538Z</time>
      </trkpt>
      <trkpt lat="48.70259" lon="2.07003">
        <ele>80</ele>
        <time>2025-07-04T07:13:34.082Z</time>
      </trkpt>
      <trkpt lat="48.70258" lon="2.06994">
        <ele>80</ele>
        <time>2025-07-04T07:13:38.539Z</time>
      </trkpt>
      <trkpt lat="48.70258" lon="2.06986">
        <ele>81</ele>
        <time>2025-07-04T07:13:43.281Z</time>
      </trkpt>
      <trkpt lat="48.70256" lon="2.06978">
        <ele>81</ele>
        <time>2025-07-04T07:13:47.778Z</time>
      </trkpt>
      <trkpt lat="48.70258" lon="2.06972">
        <ele>81</ele>
        <time>2025-07-04T07:13:52.256Z</time>
      </trkpt>
      <trkpt lat="48.70264" lon="2.06972">
        <ele>81</ele>
        <time>2025-07-04T07:13:56.735Z</time>
      </trkpt>
      <trkpt lat="48.70269" lon="2.06973">
        <ele>80</ele>
        <time>2025-07-04T07:14:01.275Z</time>
      </trkpt>
      <trkpt lat="48.70272" lon="2.06979">
        <ele>80</ele>
        <time>2025-07-04T07:14:05.440Z</time>
      </trkpt>
      <trkpt lat="48.70273" lon="2.06986">
        <ele>80</ele>
        <time>2025-07-04T07:14:09.538Z</time>
      </trkpt>
      <trkpt lat="48.70272" lon="2.06992">
        <ele>80</ele>
        <time>2025-07-04T07:14:13.801Z</time>
      </trkpt>
      <trkpt lat="48.70272" lon="2.06999">
        <ele>80</ele>
        <time>2025-07-04T07:14:18.416Z</time>
      </trkpt>
      <trkpt lat="48.70273" lon="2.07007">
        <ele>80</ele>
        <time>2025-07-04T07:14:22.538Z</time>
      </trkpt>
      <trkpt lat="48.70274" lon="2.07013">
        <ele>80</ele>
        <time>2025-07-04T07:14:26.736Z</time>
      </trkpt>
      <trkpt lat="48.70275" lon="2.07019">
        <ele>80</ele>
        <time>2025-07-04T07:14:31.198Z</time>
      </trkpt>
      <trkpt lat="48.70276" lon="2.07027">
        <ele>80</ele>
        <time>2025-07-04T07:14:35.539Z</time>
      </trkpt>
      <trkpt lat="48.70277" lon="2.07034">
        <ele>80</ele>
        <time>2025-07-04T07:14:39.755Z</time>
      </trkpt>
      <trkpt lat="48.70278" lon="2.07041">
        <ele>80</ele>
        <time>2025-07-04T07:14:44.101Z</time>
      </trkpt>
      <trkpt lat="48.70277" lon="2.07047">
        <ele>81</ele>
        <time>2025-07-04T07:14:48.518Z</time>
      </trkpt>
      <trkpt lat="48.70277" lon="2.07053">
        <ele>81</ele>
        <time>2025-07-04T07:14:52.563Z</time>
      </trkpt>
      <trkpt lat="48.70285" lon="2.07062">
        <ele>81</ele>
        <time>2025-07-04T07:15:59.539Z</time>
      </trkpt>
      <trkpt lat="48.70286" lon="2.07056">
        <ele>81</ele>
        <time>2025-07-04T07:16:03.538Z</time>
      </trkpt>
      <trkpt lat="48.70286" lon="2.07048">
        <ele>81</ele>
        <time>2025-07-04T07:16:07.539Z</time>
      </trkpt>
      <trkpt lat="48.70285" lon="2.0704">
        <ele>80</ele>
        <time>2025-07-04T07:16:12.161Z</time>
      </trkpt>
      <trkpt lat="48.70284" lon="2.07031">
        <ele>80</ele>
        <time>2025-07-04T07:16:16.786Z</time>
      </trkpt>
      <trkpt lat="48.70284" lon="2.07023">
        <ele>80</ele>
        <time>2025-07-04T07:16:20.923Z</time>
      </trkpt>
      <trkpt lat="48.70283" lon="2.07016">
        <ele>80</ele>
        <time>2025-07-04T07:16:25.036Z</time>
      </trkpt>
      <trkpt lat="48.70284" lon="2.07015">
        <ele>80</ele>
        <time>2025-07-04T07:16:29.559Z</time>
      </trkpt>
      <trkpt lat="48.70282" lon="2.07011">
        <ele>80</ele>
        <time>2025-07-04T07:16:34.539Z</time>
      </trkpt>
      <trkpt lat="48.70283" lon="2.07009">
        <ele>80</ele>
        <time>2025-07-04T07:16:40.538Z</time>
      </trkpt>
      <trkpt lat="48.70283" lon="2.07007">
        <ele>80</ele>
        <time>2025-07-04T07:16:45.562Z</time>
      </trkpt>
      <trkpt lat="48.70282" lon="2.07001">
        <ele>80</ele>
        <time>2025-07-04T07:16:49.728Z</time>
      </trkpt>
      <trkpt lat="48.70281" lon="2.06994">
        <ele>80</ele>
        <time>2025-07-04T07:16:54.021Z</time>
      </trkpt>
      <trkpt lat="48.70281" lon="2.06987">
        <ele>80</ele>
        <time>2025-07-04T07:16:58.538Z</time>
      </trkpt>
      <trkpt lat="48.70285" lon="2.06984">
        <ele>80</ele>
        <time>2025-07-04T07:17:03.422Z</time>
      </trkpt>
      <trkpt lat="48.70285" lon="2.06978">
        <ele>80</ele>
        <time>2025-07-04T07:17:07.538Z</time>
      </trkpt>
      <trkpt lat="48.70283" lon="2.06972">
        <ele>80</ele>
        <time>2025-07-04T07:17:12.142Z</time>
      </trkpt>
      <trkpt lat="48.70279" lon="2.06966">
        <ele>80</ele>
        <time>2025-07-04T07:17:16.537Z</time>
      </trkpt>
      <trkpt lat="48.7028" lon="2.06965">
        <ele>80</ele>
        <time>2025-07-04T07:17:28.537Z</time>
      </trkpt>
      <trkpt lat="48.70281" lon="2.06965">
        <ele>80</ele>
        <time>2025-07-04T07:17:33.538Z</time>
      </trkpt>
      <trkpt lat="48.70281" lon="2.06966">
        <ele>80</ele>
        <time>2025-07-04T07:17:38.537Z</time>
      </trkpt>
      <trkpt lat="48.70279" lon="2.06959">
        <ele>80</ele>
        <time>2025-07-04T07:17:43.302Z</time>
      </trkpt>
      <trkpt lat="48.70273" lon="2.06954">
        <ele>80</ele>
        <time>2025-07-04T07:17:48.499Z</time>
      </trkpt>
      <trkpt lat="48.70268" lon="2.06956">
        <ele>80</ele>
        <time>2025-07-04T07:17:52.561Z</time>
      </trkpt>
      <trkpt lat="48.70263" lon="2.06955">
        <ele>82</ele>
        <time>2025-07-04T07:17:56.715Z</time>
      </trkpt>
      <trkpt lat="48.70258" lon="2.06951">
        <ele>82</ele>
        <time>2025-07-04T07:18:01.076Z</time>
      </trkpt>
      <trkpt lat="48.70258" lon="2.06942">
        <ele>82</ele>
        <time>2025-07-04T07:18:05.102Z</time>
      </trkpt>
      <trkpt lat="48.70257" lon="2.06933">
        <ele>82</ele>
        <time>2025-07-04T07:18:09.521Z</time>
      </trkpt>
      <trkpt lat="48.70257" lon="2.06925">
        <ele>82</ele>
        <time>2025-07-04T07:18:13.899Z</time>
      </trkpt>
      <trkpt lat="48.70257" lon="2.06916">
        <ele>82</ele>
        <time>2025-07-04T07:18:18.203Z</time>
      </trkpt>
      <trkpt lat="48.70257" lon="2.06907">
        <ele>82</ele>
        <time>2025-07-04T07:18:22.501Z</time>
      </trkpt>
      <trkpt lat="48.70257" lon="2.06898">
        <ele>81</ele>
        <time>2025-07-04T07:18:26.861Z</time>
      </trkpt>
      <trkpt lat="48.70257" lon="2.06889">
        <ele>81</ele>
        <time>2025-07-04T07:18:31.281Z</time>
      </trkpt>
      <trkpt lat="48.70256" lon="2.06881">
        <ele>81</ele>
        <time>2025-07-04T07:18:35.537Z</time>
      </trkpt>
      <trkpt lat="48.70254" lon="2.06874">
        <ele>81</ele>
        <time>2025-07-04T07:18:40.039Z</time>
      </trkpt>
      <trkpt lat="48.70254" lon="2.06866">
        <ele>81</ele>
        <time>2025-07-04T07:18:44.361Z</time>
      </trkpt>
      <trkpt lat="48.70253" lon="2.06858">
        <ele>81</ele>
        <time>2025-07-04T07:18:48.882Z</time>
      </trkpt>
      <trkpt lat="48.70253" lon="2.0685">
        <ele>81</ele>
        <time>2025-07-04T07:18:53.216Z</time>
      </trkpt>
      <trkpt lat="48.70252" lon="2.06842">
        <ele>80</ele>
        <time>2025-07-04T07:18:57.538Z</time>
      </trkpt>
      <trkpt lat="48.70251" lon="2.06835">
        <ele>80</ele>
        <time>2025-07-04T07:19:02.081Z</time>
      </trkpt>
      <trkpt lat="48.7025" lon="2.06827">
        <ele>80</ele>
        <time>2025-07-04T07:19:06.518Z</time>
      </trkpt>
      <trkpt lat="48.70249" lon="2.06819">
        <ele>79</ele>
        <time>2025-07-04T07:19:10.997Z</time>
      </trkpt>
      <trkpt lat="48.70248" lon="2.0681">
        <ele>79</ele>
        <time>2025-07-04T07:19:15.503Z</time>
      </trkpt>
      <trkpt lat="48.70248" lon="2.06804">
        <ele>79</ele>
        <time>2025-07-04T07:19:19.521Z</time>
      </trkpt>
      <trkpt lat="48.70246" lon="2.06797">
        <ele>79</ele>
        <time>2025-07-04T07:19:23.881Z</time>
      </trkpt>
      <trkpt lat="48.70244" lon="2.0679">
        <ele>78</ele>
        <time>2025-07-04T07:19:28.318Z</time>
      </trkpt>
      <trkpt lat="48.70244" lon="2.06781">
        <ele>78</ele>
        <time>2025-07-04T07:19:32.782Z</time>
      </trkpt>
      <trkpt lat="48.70243" lon="2.06773">
        <ele>78</ele>
        <time>2025-07-04T07:19:37.201Z</time>
      </trkpt>
      <trkpt lat="48.70242" lon="2.06765">
        <ele>78</ele>
        <time>2025-07-04T07:19:41.538Z</time>
      </trkpt>
      <trkpt lat="48.7024" lon="2.06756">
        <ele>79</ele>
        <time>2025-07-04T07:19:46.022Z</time>
      </trkpt>
      <trkpt lat="48.70238" lon="2.06749">
        <ele>79</ele>
        <time>2025-07-04T07:19:50.401Z</time>
      </trkpt>
      <trkpt lat="48.70236" lon="2.06741">
        <ele>82</ele>
        <time>2025-07-04T07:19:54.956Z</time>
      </trkpt>
      <trkpt lat="48.70234" lon="2.06734">
        <ele>83</ele>
        <time>2025-07-04T07:19:59.197Z</time>
      </trkpt>
      <trkpt lat="48.70233" lon="2.06725">
        <ele>83</ele>
        <time>2025-07-04T07:20:03.718Z</time>
      </trkpt>
      <trkpt lat="48.70232" lon="2.06717">
        <ele>83</ele>
        <time>2025-07-04T07:20:08.062Z</time>
      </trkpt>
      <trkpt lat="48.70231" lon="2.06709">
        <ele>83</ele>
        <time>2025-07-04T07:20:12.498Z</time>
      </trkpt>
      <trkpt lat="48.7023" lon="2.06701">
        <ele>83</ele>
        <time>2025-07-04T07:20:16.995Z</time>
      </trkpt>
      <trkpt lat="48.7023" lon="2.06692">
        <ele>83</ele>
        <time>2025-07-04T07:20:21.337Z</time>
      </trkpt>
      <trkpt lat="48.70228" lon="2.06684">
        <ele>83</ele>
        <time>2025-07-04T07:20:25.801Z</time>
      </trkpt>
      <trkpt lat="48.70226" lon="2.06676">
        <ele>83</ele>
        <time>2025-07-04T07:20:30.015Z</time>
      </trkpt>
      <trkpt lat="48.70224" lon="2.06668">
        <ele>83</ele>
        <time>2025-07-04T07:20:34.342Z</time>
      </trkpt>
      <trkpt lat="48.70222" lon="2.0666">
        <ele>83</ele>
        <time>2025-07-04T07:20:38.537Z</time>
      </trkpt>
      <trkpt lat="48.7022" lon="2.06652">
        <ele>81</ele>
        <time>2025-07-04T07:20:43.063Z</time>
      </trkpt>
      <trkpt lat="48.70217" lon="2.06644">
        <ele>81</ele>
        <time>2025-07-04T07:20:47.538Z</time>
      </trkpt>
      <trkpt lat="48.70215" lon="2.06636">
        <ele>81</ele>
        <time>2025-07-04T07:20:52.523Z</time>
      </trkpt>
      <trkpt lat="48.70213" lon="2.06628">
        <ele>81</ele>
        <time>2025-07-04T07:20:57.021Z</time>
      </trkpt>
      <trkpt lat="48.70211" lon="2.06621">
        <ele>81</ele>
        <time>2025-07-04T07:21:01.081Z</time>
      </trkpt>
      <trkpt lat="48.7021" lon="2.06613">
        <ele>81</ele>
        <time>2025-07-04T07:21:05.415Z</time>
      </trkpt>
      <trkpt lat="48.70208" lon="2.06606">
        <ele>81</ele>
        <time>2025-07-04T07:21:09.442Z</time>
      </trkpt>
      <trkpt lat="48.70207" lon="2.06599">
        <ele>81</ele>
        <time>2025-07-04T07:21:13.880Z</time>
      </trkpt>
      <trkpt lat="48.70205" lon="2.06591">
        <ele>82</ele>
        <time>2025-07-04T07:21:18.342Z</time>
      </trkpt>
      <trkpt lat="48.70203" lon="2.06584">
        <ele>82</ele>
        <time>2025-07-04T07:21:22.718Z</time>
      </trkpt>
      <trkpt lat="48.702" lon="2.06576">
        <ele>82</ele>
        <time>2025-07-04T07:21:27.078Z</time>
      </trkpt>
      <trkpt lat="48.70198" lon="2.06569">
        <ele>83</ele>
        <time>2025-07-04T07:21:31.456Z</time>
      </trkpt>
      <trkpt lat="48.70196" lon="2.06562">
        <ele>83</ele>
        <time>2025-07-04T07:21:35.736Z</time>
      </trkpt>
      <trkpt lat="48.70194" lon="2.06554">
        <ele>83</ele>
        <time>2025-07-04T07:21:40.277Z</time>
      </trkpt>
      <trkpt lat="48.70191" lon="2.06547">
        <ele>83</ele>
        <time>2025-07-04T07:21:44.741Z</time>
      </trkpt>
      <trkpt lat="48.70189" lon="2.0654">
        <ele>85</ele>
        <time>2025-07-04T07:21:48.921Z</time>
      </trkpt>
      <trkpt lat="48.70188" lon="2.06533">
        <ele>85</ele>
        <time>2025-07-04T07:21:52.941Z</time>
      </trkpt>
      <trkpt lat="48.70185" lon="2.06525">
        <ele>85</ele>
        <time>2025-07-04T07:21:57.361Z</time>
      </trkpt>
      <trkpt lat="48.70183" lon="2.06518">
        <ele>85</ele>
        <time>2025-07-04T07:22:01.538Z</time>
      </trkpt>
      <trkpt lat="48.70181" lon="2.06511">
        <ele>86</ele>
        <time>2025-07-04T07:22:06.157Z</time>
      </trkpt>
      <trkpt lat="48.70178" lon="2.06504">
        <ele>86</ele>
        <time>2025-07-04T07:22:10.662Z</time>
      </trkpt>
      <trkpt lat="48.70176" lon="2.06497">
        <ele>86</ele>
        <time>2025-07-04T07:22:14.757Z</time>
      </trkpt>
      <trkpt lat="48.70173" lon="2.06491">
        <ele>86</ele>
        <time>2025-07-04T07:22:18.836Z</time>
      </trkpt>
      <trkpt lat="48.70171" lon="2.06484">
        <ele>87</ele>
        <time>2025-07-04T07:22:23.401Z</time>
      </trkpt>
      <trkpt lat="48.70167" lon="2.06476">
        <ele>87</ele>
        <time>2025-07-04T07:22:28.436Z</time>
      </trkpt>
      <trkpt lat="48.70164" lon="2.06469">
        <ele>87</ele>
        <time>2025-07-04T07:22:32.897Z</time>
      </trkpt>
      <trkpt lat="48.70161" lon="2.06462">
        <ele>87</ele>
        <time>2025-07-04T07:22:37.376Z</time>
      </trkpt>
      <trkpt lat="48.70159" lon="2.06456">
        <ele>86</ele>
        <time>2025-07-04T07:22:41.422Z</time>
      </trkpt>
      <trkpt lat="48.70158" lon="2.06448">
        <ele>86</ele>
        <time>2025-07-04T07:22:45.917Z</time>
      </trkpt>
      <trkpt lat="48.70155" lon="2.06441">
        <ele>86</ele>
        <time>2025-07-04T07:22:50.456Z</time>
      </trkpt>
      <trkpt lat="48.70154" lon="2.06435">
        <ele>86</ele>
        <time>2025-07-04T07:22:54.538Z</time>
      </trkpt>
      <trkpt lat="48.70151" lon="2.06429">
        <ele>86</ele>
        <time>2025-07-04T07:22:58.818Z</time>
      </trkpt>
      <trkpt lat="48.70148" lon="2.06422">
        <ele>86</ele>
        <time>2025-07-04T07:23:03.319Z</time>
      </trkpt>
      <trkpt lat="48.70144" lon="2.06416">
        <ele>86</ele>
        <time>2025-07-04T07:23:07.394Z</time>
      </trkpt>
      <trkpt lat="48.70141" lon="2.06409">
        <ele>86</ele>
        <time>2025-07-04T07:23:11.538Z</time>
      </trkpt>
      <trkpt lat="48.70138" lon="2.06403">
        <ele>86</ele>
        <time>2025-07-04T07:23:15.982Z</time>
      </trkpt>
      <trkpt lat="48.70135" lon="2.06396">
        <ele>86</ele>
        <time>2025-07-04T07:23:20.238Z</time>
      </trkpt>
      <trkpt lat="48.70133" lon="2.06389">
        <ele>86</ele>
        <time>2025-07-04T07:23:24.522Z</time>
      </trkpt>
      <trkpt lat="48.7013" lon="2.06382">
        <ele>86</ele>
        <time>2025-07-04T07:23:28.882Z</time>
      </trkpt>
      <trkpt lat="48.70126" lon="2.06374">
        <ele>86</ele>
        <time>2025-07-04T07:23:33.182Z</time>
      </trkpt>
      <trkpt lat="48.70123" lon="2.06367">
        <ele>87</ele>
        <time>2025-07-04T07:23:37.619Z</time>
      </trkpt>
      <trkpt lat="48.7012" lon="2.06361">
        <ele>87</ele>
        <time>2025-07-04T07:23:42.022Z</time>
      </trkpt>
      <trkpt lat="48.70117" lon="2.06354">
        <ele>87</ele>
        <time>2025-07-04T07:23:46.483Z</time>
      </trkpt>
      <trkpt lat="48.70114" lon="2.06347">
        <ele>87</ele>
        <time>2025-07-04T07:23:50.902Z</time>
      </trkpt>
      <trkpt lat="48.7011" lon="2.06341">
        <ele>88</ele>
        <time>2025-07-04T07:23:55.306Z</time>
      </trkpt>
      <trkpt lat="48.70107" lon="2.06335">
        <ele>88</ele>
        <time>2025-07-04T07:23:59.725Z</time>
      </trkpt>
      <trkpt lat="48.70104" lon="2.06329">
        <ele>88</ele>
        <time>2025-07-04T07:24:04.085Z</time>
      </trkpt>
      <trkpt lat="48.701" lon="2.06322">
        <ele>88</ele>
        <time>2025-07-04T07:24:08.402Z</time>
      </trkpt>
      <trkpt lat="48.70096" lon="2.06315">
        <ele>88</ele>
        <time>2025-07-04T07:24:12.745Z</time>
      </trkpt>
      <trkpt lat="48.70092" lon="2.06309">
        <ele>88</ele>
        <time>2025-07-04T07:24:17.182Z</time>
      </trkpt>
      <trkpt lat="48.70089" lon="2.06302">
        <ele>88</ele>
        <time>2025-07-04T07:24:21.537Z</time>
      </trkpt>
      <trkpt lat="48.70085" lon="2.06297">
        <ele>88</ele>
        <time>2025-07-04T07:24:25.884Z</time>
      </trkpt>
      <trkpt lat="48.70082" lon="2.0629">
        <ele>89</ele>
        <time>2025-07-04T07:24:30.245Z</time>
      </trkpt>
      <trkpt lat="48.70078" lon="2.06283">
        <ele>89</ele>
        <time>2025-07-04T07:24:34.664Z</time>
      </trkpt>
      <trkpt lat="48.70074" lon="2.06277">
        <ele>89</ele>
        <time>2025-07-04T07:24:39.538Z</time>
      </trkpt>
      <trkpt lat="48.7007" lon="2.0627">
        <ele>89</ele>
        <time>2025-07-04T07:24:44.042Z</time>
      </trkpt>
      <trkpt lat="48.70066" lon="2.06264">
        <ele>88</ele>
        <time>2025-07-04T07:24:48.444Z</time>
      </trkpt>
      <trkpt lat="48.70062" lon="2.06256">
        <ele>88</ele>
        <time>2025-07-04T07:24:52.822Z</time>
      </trkpt>
      <trkpt lat="48.70059" lon="2.06251">
        <ele>88</ele>
        <time>2025-07-04T07:24:57.182Z</time>
      </trkpt>
      <trkpt lat="48.70055" lon="2.06245">
        <ele>88</ele>
        <time>2025-07-04T07:25:01.542Z</time>
      </trkpt>
      <trkpt lat="48.70051" lon="2.0624">
        <ele>88</ele>
        <time>2025-07-04T07:25:05.943Z</time>
      </trkpt>
      <trkpt lat="48.70047" lon="2.06234">
        <ele>88</ele>
        <time>2025-07-04T07:25:10.286Z</time>
      </trkpt>
      <trkpt lat="48.70043" lon="2.06228">
        <ele>88</ele>
        <time>2025-07-04T07:25:14.666Z</time>
      </trkpt>
      <trkpt lat="48.70039" lon="2.06223">
        <ele>89</ele>
        <time>2025-07-04T07:25:19.064Z</time>
      </trkpt>
      <trkpt lat="48.70034" lon="2.06217">
        <ele>89</ele>
        <time>2025-07-04T07:25:23.442Z</time>
      </trkpt>
      <trkpt lat="48.7003" lon="2.06211">
        <ele>89</ele>
        <time>2025-07-04T07:25:27.799Z</time>
      </trkpt>
      <trkpt lat="48.70027" lon="2.06205">
        <ele>90</ele>
        <time>2025-07-04T07:25:32.119Z</time>
      </trkpt>
      <trkpt lat="48.70022" lon="2.06199">
        <ele>90</ele>
        <time>2025-07-04T07:25:36.505Z</time>
      </trkpt>
      <trkpt lat="48.70018" lon="2.06193">
        <ele>90</ele>
        <time>2025-07-04T07:25:41.002Z</time>
      </trkpt>
      <trkpt lat="48.70013" lon="2.06188">
        <ele>92</ele>
        <time>2025-07-04T07:25:45.225Z</time>
      </trkpt>
      <trkpt lat="48.70009" lon="2.06182">
        <ele>92</ele>
        <time>2025-07-04T07:25:49.525Z</time>
      </trkpt>
      <trkpt lat="48.70005" lon="2.06177">
        <ele>92</ele>
        <time>2025-07-04T07:25:53.825Z</time>
      </trkpt>
      <trkpt lat="48.70001" lon="2.0617">
        <ele>92</ele>
        <time>2025-07-04T07:25:58.022Z</time>
      </trkpt>
      <trkpt lat="48.69997" lon="2.06165">
        <ele>92</ele>
        <time>2025-07-04T07:26:02.382Z</time>
      </trkpt>
      <trkpt lat="48.69992" lon="2.06159">
        <ele>92</ele>
        <time>2025-07-04T07:26:06.726Z</time>
      </trkpt>
      <trkpt lat="48.69987" lon="2.06155">
        <ele>92</ele>
        <time>2025-07-04T07:26:10.982Z</time>
      </trkpt>
      <trkpt lat="48.69982" lon="2.0615">
        <ele>95</ele>
        <time>2025-07-04T07:26:15.222Z</time>
      </trkpt>
      <trkpt lat="48.69978" lon="2.06144">
        <ele>95</ele>
        <time>2025-07-04T07:26:19.626Z</time>
      </trkpt>
      <trkpt lat="48.69974" lon="2.06138">
        <ele>95</ele>
        <time>2025-07-04T07:26:24.046Z</time>
      </trkpt>
      <trkpt lat="48.69969" lon="2.06134">
        <ele>95</ele>
        <time>2025-07-04T07:26:28.320Z</time>
      </trkpt>
      <trkpt lat="48.69965" lon="2.06128">
        <ele>95</ele>
        <time>2025-07-04T07:26:32.537Z</time>
      </trkpt>
      <trkpt lat="48.69961" lon="2.06123">
        <ele>95</ele>
        <time>2025-07-04T07:26:37.202Z</time>
      </trkpt>
      <trkpt lat="48.69956" lon="2.06119">
        <ele>97</ele>
        <time>2025-07-04T07:26:41.459Z</time>
      </trkpt>
      <trkpt lat="48.69951" lon="2.06114">
        <ele>97</ele>
        <time>2025-07-04T07:26:45.905Z</time>
      </trkpt>
      <trkpt lat="48.69946" lon="2.06109">
        <ele>97</ele>
        <time>2025-07-04T07:26:50.536Z</time>
      </trkpt>
      <trkpt lat="48.69941" lon="2.06105">
        <ele>97</ele>
        <time>2025-07-04T07:26:54.801Z</time>
      </trkpt>
      <trkpt lat="48.69936" lon="2.061">
        <ele>97</ele>
        <time>2025-07-04T07:26:59.197Z</time>
      </trkpt>
      <trkpt lat="48.69932" lon="2.06095">
        <ele>98</ele>
        <time>2025-07-04T07:27:03.536Z</time>
      </trkpt>
      <trkpt lat="48.69928" lon="2.0609">
        <ele>99</ele>
        <time>2025-07-04T07:27:07.976Z</time>
      </trkpt>
      <trkpt lat="48.69923" lon="2.06084">
        <ele>99</ele>
        <time>2025-07-04T07:27:12.395Z</time>
      </trkpt>
      <trkpt lat="48.69919" lon="2.0608">
        <ele>99</ele>
        <time>2025-07-04T07:27:16.457Z</time>
      </trkpt>
      <trkpt lat="48.69914" lon="2.06075">
        <ele>99</ele>
        <time>2025-07-04T07:27:21.380Z</time>
      </trkpt>
      <trkpt lat="48.69909" lon="2.06069">
        <ele>100</ele>
        <time>2025-07-04T07:27:25.757Z</time>
      </trkpt>
      <trkpt lat="48.69904" lon="2.06064">
        <ele>100</ele>
        <time>2025-07-04T07:27:30.193Z</time>
      </trkpt>
      <trkpt lat="48.69899" lon="2.0606">
        <ele>100</ele>
        <time>2025-07-04T07:27:34.519Z</time>
      </trkpt>
      <trkpt lat="48.69895" lon="2.06056">
        <ele>100</ele>
        <time>2025-07-04T07:27:39.058Z</time>
      </trkpt>
      <trkpt lat="48.6989" lon="2.06052">
        <ele>100</ele>
        <time>2025-07-04T07:27:43.418Z</time>
      </trkpt>
      <trkpt lat="48.69885" lon="2.06047">
        <ele>100</ele>
        <time>2025-07-04T07:27:47.879Z</time>
      </trkpt>
      <trkpt lat="48.6988" lon="2.06044">
        <ele>100</ele>
        <time>2025-07-04T07:27:52.394Z</time>
      </trkpt>
      <trkpt lat="48.69875" lon="2.0604">
        <ele>102</ele>
        <time>2025-07-04T07:27:56.795Z</time>
      </trkpt>
      <trkpt lat="48.69869" lon="2.06036">
        <ele>102</ele>
        <time>2025-07-04T07:28:01.317Z</time>
      </trkpt>
      <trkpt lat="48.69864" lon="2.06032">
        <ele>102</ele>
        <time>2025-07-04T07:28:05.535Z</time>
      </trkpt>
      <trkpt lat="48.69859" lon="2.06029">
        <ele>102</ele>
        <time>2025-07-04T07:28:10.054Z</time>
      </trkpt>
      <trkpt lat="48.69853" lon="2.06025">
        <ele>102</ele>
        <time>2025-07-04T07:28:14.457Z</time>
      </trkpt>
      <trkpt lat="48.69848" lon="2.06021">
        <ele>102</ele>
        <time>2025-07-04T07:28:18.757Z</time>
      </trkpt>
      <trkpt lat="48.69843" lon="2.06017">
        <ele>103</ele>
        <time>2025-07-04T07:28:23.159Z</time>
      </trkpt>
      <trkpt lat="48.69838" lon="2.06013">
        <ele>104</ele>
        <time>2025-07-04T07:28:27.545Z</time>
      </trkpt>
      <trkpt lat="48.69833" lon="2.06009">
        <ele>104</ele>
        <time>2025-07-04T07:28:32.093Z</time>
      </trkpt>
      <trkpt lat="48.69827" lon="2.06006">
        <ele>104</ele>
        <time>2025-07-04T07:28:36.554Z</time>
      </trkpt>
      <trkpt lat="48.69821" lon="2.06003">
        <ele>104</ele>
        <time>2025-07-04T07:28:41.554Z</time>
      </trkpt>
      <trkpt lat="48.69816" lon="2.05999">
        <ele>107</ele>
        <time>2025-07-04T07:28:45.534Z</time>
      </trkpt>
      <trkpt lat="48.6981" lon="2.05995">
        <ele>107</ele>
        <time>2025-07-04T07:28:50.052Z</time>
      </trkpt>
      <trkpt lat="48.69805" lon="2.05992">
        <ele>107</ele>
        <time>2025-07-04T07:28:54.377Z</time>
      </trkpt>
      <trkpt lat="48.698" lon="2.05989">
        <ele>107</ele>
        <time>2025-07-04T07:28:58.755Z</time>
      </trkpt>
      <trkpt lat="48.69795" lon="2.05987">
        <ele>107</ele>
        <time>2025-07-04T07:29:03.098Z</time>
      </trkpt>
      <trkpt lat="48.6979" lon="2.05983">
        <ele>110</ele>
        <time>2025-07-04T07:29:07.500Z</time>
      </trkpt>
      <trkpt lat="48.69785" lon="2.0598">
        <ele>110</ele>
        <time>2025-07-04T07:29:11.893Z</time>
      </trkpt>
      <trkpt lat="48.6978" lon="2.05978">
        <ele>110</ele>
        <time>2025-07-04T07:29:16.279Z</time>
      </trkpt>
      <trkpt lat="48.69774" lon="2.05976">
        <ele>110</ele>
        <time>2025-07-04T07:29:20.673Z</time>
      </trkpt>
      <trkpt lat="48.69768" lon="2.05973">
        <ele>110</ele>
        <time>2025-07-04T07:29:25.135Z</time>
      </trkpt>
      <trkpt lat="48.69763" lon="2.05971">
        <ele>110</ele>
        <time>2025-07-04T07:29:29.532Z</time>
      </trkpt>
      <trkpt lat="48.69758" lon="2.0597">
        <ele>110</ele>
        <time>2025-07-04T07:29:33.539Z</time>
      </trkpt>
      <trkpt lat="48.69753" lon="2.05969">
        <ele>110</ele>
        <time>2025-07-04T07:29:37.796Z</time>
      </trkpt>
      <trkpt lat="48.69748" lon="2.05967">
        <ele>110</ele>
        <time>2025-07-04T07:29:42.036Z</time>
      </trkpt>
      <trkpt lat="48.69742" lon="2.05964">
        <ele>110</ele>
        <time>2025-07-04T07:29:46.456Z</time>
      </trkpt>
      <trkpt lat="48.69736" lon="2.05962">
        <ele>109</ele>
        <time>2025-07-04T07:29:50.859Z</time>
      </trkpt>
      <trkpt lat="48.6973" lon="2.05961">
        <ele>109</ele>
        <time>2025-07-04T07:29:55.175Z</time>
      </trkpt>
      <trkpt lat="48.69724" lon="2.0596">
        <ele>109</ele>
        <time>2025-07-04T07:29:59.783Z</time>
      </trkpt>
      <trkpt lat="48.69719" lon="2.05958">
        <ele>113</ele>
        <time>2025-07-04T07:30:04.193Z</time>
      </trkpt>
      <trkpt lat="48.69713" lon="2.05956">
        <ele>113</ele>
        <time>2025-07-04T07:30:08.553Z</time>
      </trkpt>
      <trkpt lat="48.69708" lon="2.05954">
        <ele>112</ele>
        <time>2025-07-04T07:30:12.819Z</time>
      </trkpt>
      <trkpt lat="48.69702" lon="2.05952">
        <ele>112</ele>
        <time>2025-07-04T07:30:17.137Z</time>
      </trkpt>
      <trkpt lat="48.69698" lon="2.05945">
        <ele>112</ele>
        <time>2025-07-04T07:30:21.437Z</time>
      </trkpt>
      <trkpt lat="48.69693" lon="2.05942">
        <ele>112</ele>
        <time>2025-07-04T07:30:25.856Z</time>
      </trkpt>
      <trkpt lat="48.69688" lon="2.05941">
        <ele>112</ele>
        <time>2025-07-04T07:30:30.139Z</time>
      </trkpt>
      <trkpt lat="48.69683" lon="2.05939">
        <ele>112</ele>
        <time>2025-07-04T07:30:34.438Z</time>
      </trkpt>
      <trkpt lat="48.69678" lon="2.05937">
        <ele>111</ele>
        <time>2025-07-04T07:30:38.739Z</time>
      </trkpt>
      <trkpt lat="48.69672" lon="2.05936">
        <ele>111</ele>
        <time>2025-07-04T07:30:42.979Z</time>
      </trkpt>
      <trkpt lat="48.69666" lon="2.05935">
        <ele>111</ele>
        <time>2025-07-04T07:30:47.356Z</time>
      </trkpt>
      <trkpt lat="48.69661" lon="2.05934">
        <ele>111</ele>
        <time>2025-07-04T07:30:51.835Z</time>
      </trkpt>
      <trkpt lat="48.69655" lon="2.05934">
        <ele>111</ele>
        <time>2025-07-04T07:30:56.237Z</time>
      </trkpt>
      <trkpt lat="48.6965" lon="2.05932">
        <ele>111</ele>
        <time>2025-07-04T07:31:00.545Z</time>
      </trkpt>
      <trkpt lat="48.69644" lon="2.0593">
        <ele>116</ele>
        <time>2025-07-04T07:31:04.897Z</time>
      </trkpt>
      <trkpt lat="48.69639" lon="2.05928">
        <ele>116</ele>
        <time>2025-07-04T07:31:09.359Z</time>
      </trkpt>
      <trkpt lat="48.69634" lon="2.05926">
        <ele>116</ele>
        <time>2025-07-04T07:31:13.677Z</time>
      </trkpt>
      <trkpt lat="48.69629" lon="2.05923">
        <ele>116</ele>
        <time>2025-07-04T07:31:18.113Z</time>
      </trkpt>
      <trkpt lat="48.69624" lon="2.0592">
        <ele>115</ele>
        <time>2025-07-04T07:31:22.533Z</time>
      </trkpt>
      <trkpt lat="48.69618" lon="2.05918">
        <ele>115</ele>
        <time>2025-07-04T07:31:27.071Z</time>
      </trkpt>
      <trkpt lat="48.69613" lon="2.05915">
        <ele>115</ele>
        <time>2025-07-04T07:31:31.548Z</time>
      </trkpt>
      <trkpt lat="48.69609" lon="2.05914">
        <ele>115</ele>
        <time>2025-07-04T07:31:35.697Z</time>
      </trkpt>
      <trkpt lat="48.69604" lon="2.05915">
        <ele>115</ele>
        <time>2025-07-04T07:31:40.415Z</time>
      </trkpt>
      <trkpt lat="48.69599" lon="2.05913">
        <ele>115</ele>
        <time>2025-07-04T07:31:44.511Z</time>
      </trkpt>
      <trkpt lat="48.69594" lon="2.05911">
        <ele>114</ele>
        <time>2025-07-04T07:31:49.118Z</time>
      </trkpt>
      <trkpt lat="48.69588" lon="2.0591">
        <ele>114</ele>
        <time>2025-07-04T07:31:53.478Z</time>
      </trkpt>
      <trkpt lat="48.69582" lon="2.05908">
        <ele>114</ele>
        <time>2025-07-04T07:31:57.780Z</time>
      </trkpt>
      <trkpt lat="48.69577" lon="2.05908">
        <ele>114</ele>
        <time>2025-07-04T07:32:02.078Z</time>
      </trkpt>
      <trkpt lat="48.69571" lon="2.05907">
        <ele>114</ele>
        <time>2025-07-04T07:32:06.535Z</time>
      </trkpt>
      <trkpt lat="48.69565" lon="2.05906">
        <ele>111</ele>
        <time>2025-07-04T07:32:11.056Z</time>
      </trkpt>
      <trkpt lat="48.69559" lon="2.05905">
        <ele>111</ele>
        <time>2025-07-04T07:32:15.559Z</time>
      </trkpt>
      <trkpt lat="48.69554" lon="2.05904">
        <ele>111</ele>
        <time>2025-07-04T07:32:20.012Z</time>
      </trkpt>
      <trkpt lat="48.69549" lon="2.05904">
        <ele>111</ele>
        <time>2025-07-04T07:32:24.500Z</time>
      </trkpt>
      <trkpt lat="48.69543" lon="2.05904">
        <ele>111</ele>
        <time>2025-07-04T07:32:29.013Z</time>
      </trkpt>
      <trkpt lat="48.69538" lon="2.05905">
        <ele>111</ele>
        <time>2025-07-04T07:32:33.536Z</time>
      </trkpt>
      <trkpt lat="48.69533" lon="2.05906">
        <ele>111</ele>
        <time>2025-07-04T07:32:38.099Z</time>
      </trkpt>
      <trkpt lat="48.69528" lon="2.05909">
        <ele>111</ele>
        <time>2025-07-04T07:32:42.536Z</time>
      </trkpt>
      <trkpt lat="48.69519" lon="2.05908">
        <ele>111</ele>
        <time>2025-07-04T07:35:27.536Z</time>
      </trkpt>
      <trkpt lat="48.69519" lon="2.05909">
        <ele>111</ele>
        <time>2025-07-04T07:35:34.029Z</time>
      </trkpt>
      <trkpt lat="48.69516" lon="2.05911">
        <ele>111</ele>
        <time>2025-07-04T07:35:38.329Z</time>
      </trkpt>
      <trkpt lat="48.69511" lon="2.05911">
        <ele>113</ele>
        <time>2025-07-04T07:35:42.536Z</time>
      </trkpt>
      <trkpt lat="48.69506" lon="2.05908">
        <ele>113</ele>
        <time>2025-07-04T07:35:47.536Z</time>
      </trkpt>
      <trkpt lat="48.69499" lon="2.05909">
        <ele>113</ele>
        <time>2025-07-04T07:35:51.896Z</time>
      </trkpt>
      <trkpt lat="48.69497" lon="2.05901">
        <ele>116</ele>
        <time>2025-07-04T07:35:56.434Z</time>
      </trkpt>
      <trkpt lat="48.69498" lon="2.05892">
        <ele>116</ele>
        <time>2025-07-04T07:36:00.513Z</time>
      </trkpt>
      <trkpt lat="48.69498" lon="2.05884">
        <ele>116</ele>
        <time>2025-07-04T07:36:04.668Z</time>
      </trkpt>
      <trkpt lat="48.69497" lon="2.05876">
        <ele>116</ele>
        <time>2025-07-04T07:36:08.874Z</time>
      </trkpt>
      <trkpt lat="48.69497" lon="2.05869">
        <ele>118</ele>
        <time>2025-07-04T07:36:12.953Z</time>
      </trkpt>
      <trkpt lat="48.69498" lon="2.05861">
        <ele>118</ele>
        <time>2025-07-04T07:36:17.193Z</time>
      </trkpt>
      <trkpt lat="48.695" lon="2.05854">
        <ele>118</ele>
        <time>2025-07-04T07:36:21.407Z</time>
      </trkpt>
      <trkpt lat="48.69501" lon="2.05847">
        <ele>118</ele>
        <time>2025-07-04T07:36:25.536Z</time>
      </trkpt>
      <trkpt lat="48.69501" lon="2.05841">
        <ele>120</ele>
        <time>2025-07-04T07:36:29.855Z</time>
      </trkpt>
      <trkpt lat="48.69501" lon="2.05833">
        <ele>120</ele>
        <time>2025-07-04T07:36:34.536Z</time>
      </trkpt>
      <trkpt lat="48.69499" lon="2.05827">
        <ele>120</ele>
        <time>2025-07-04T07:36:39.273Z</time>
      </trkpt>
      <trkpt lat="48.69497" lon="2.05821">
        <ele>120</ele>
        <time>2025-07-04T07:36:43.536Z</time>
      </trkpt>
      <trkpt lat="48.69497" lon="2.05815">
        <ele>126</ele>
        <time>2025-07-04T07:36:48.147Z</time>
      </trkpt>
      <trkpt lat="48.69498" lon="2.05809">
        <ele>126</ele>
        <time>2025-07-04T07:36:52.536Z</time>
      </trkpt>
      <trkpt lat="48.69499" lon="2.05805">
        <ele>126</ele>
        <time>2025-07-04T07:36:56.536Z</time>
      </trkpt>
      <trkpt lat="48.695" lon="2.05799">
        <ele>126</ele>
        <time>2025-07-04T07:37:01.014Z</time>
      </trkpt>
      <trkpt lat="48.69502" lon="2.05795">
        <ele>126</ele>
        <time>2025-07-04T07:37:05.373Z</time>
      </trkpt>
      <trkpt lat="48.69503" lon="2.05789">
        <ele>131</ele>
        <time>2025-07-04T07:37:09.793Z</time>
      </trkpt>
      <trkpt lat="48.69503" lon="2.05782">
        <ele>131</ele>
        <time>2025-07-04T07:37:14.290Z</time>
      </trkpt>
      <trkpt lat="48.69502" lon="2.05777">
        <ele>131</ele>
        <time>2025-07-04T07:37:18.436Z</time>
      </trkpt>
      <trkpt lat="48.69503" lon="2.05772">
        <ele>131</ele>
        <time>2025-07-04T07:37:22.873Z</time>
      </trkpt>
      <trkpt lat="48.69504" lon="2.05766">
        <ele>131</ele>
        <time>2025-07-04T07:37:26.951Z</time>
      </trkpt>
      <trkpt lat="48.69502" lon="2.05758">
        <ele>136</ele>
        <time>2025-07-04T07:37:31.536Z</time>
      </trkpt>
      <trkpt lat="48.69501" lon="2.05752">
        <ele>136</ele>
        <time>2025-07-04T07:37:36.130Z</time>
      </trkpt>
      <trkpt lat="48.69499" lon="2.05747">
        <ele>136</ele>
        <time>2025-07-04T07:37:40.192Z</time>
      </trkpt>
      <trkpt lat="48.69498" lon="2.05743">
        <ele>136</ele>
        <time>2025-07-04T07:37:45.089Z</time>
      </trkpt>
      <trkpt lat="48.69497" lon="2.05739">
        <ele>136</ele>
        <time>2025-07-04T07:37:49.536Z</time>
      </trkpt>
      <trkpt lat="48.69498" lon="2.05733">
        <ele>141</ele>
        <time>2025-07-04T07:37:54.295Z</time>
      </trkpt>
      <trkpt lat="48.69497" lon="2.0573">
        <ele>141</ele>
        <time>2025-07-04T07:37:58.510Z</time>
      </trkpt>
      <trkpt lat="48.69495" lon="2.05726">
        <ele>141</ele>
        <time>2025-07-04T07:38:02.895Z</time>
      </trkpt>
      <trkpt lat="48.69492" lon="2.05721">
        <ele>141</ele>
        <time>2025-07-04T07:38:07.170Z</time>
      </trkpt>
      <trkpt lat="48.69491" lon="2.05715">
        <ele>141</ele>
        <time>2025-07-04T07:38:12.289Z</time>
      </trkpt>
      <trkpt lat="48.69488" lon="2.05711">
        <ele>141</ele>
        <time>2025-07-04T07:38:16.536Z</time>
      </trkpt>
      <trkpt lat="48.69487" lon="2.05705">
        <ele>145</ele>
        <time>2025-07-04T07:38:21.173Z</time>
      </trkpt>
      <trkpt lat="48.69486" lon="2.05702">
        <ele>146</ele>
        <time>2025-07-04T07:38:25.536Z</time>
      </trkpt>
      <trkpt lat="48.69483" lon="2.057">
        <ele>146</ele>
        <time>2025-07-04T07:38:30.536Z</time>
      </trkpt>
      <trkpt lat="48.6948" lon="2.05698">
        <ele>146</ele>
        <time>2025-07-04T07:38:35.034Z</time>
      </trkpt>
      <trkpt lat="48.69479" lon="2.05692">
        <ele>146</ele>
        <time>2025-07-04T07:38:39.309Z</time>
      </trkpt>
      <trkpt lat="48.69478" lon="2.05686">
        <ele>146</ele>
        <time>2025-07-04T07:38:43.848Z</time>
      </trkpt>
      <trkpt lat="48.69478" lon="2.05681">
        <ele>146</ele>
        <time>2025-07-04T07:38:47.850Z</time>
      </trkpt>
      <trkpt lat="48.69477" lon="2.05678">
        <ele>150</ele>
        <time>2025-07-04T07:38:52.536Z</time>
      </trkpt>
      <trkpt lat="48.69476" lon="2.05675">
        <ele>150</ele>
        <time>2025-07-04T07:38:57.114Z</time>
      </trkpt>
      <trkpt lat="48.69474" lon="2.05672">
        <ele>150</ele>
        <time>2025-07-04T07:39:01.167Z</time>
      </trkpt>
      <trkpt lat="48.69471" lon="2.0567">
        <ele>150</ele>
        <time>2025-07-04T07:39:05.314Z</time>
      </trkpt>
      <trkpt lat="48.69468" lon="2.05668">
        <ele>150</ele>
        <time>2025-07-04T07:39:09.536Z</time>
      </trkpt>
      <trkpt lat="48.69463" lon="2.05665">
        <ele>150</ele>
        <time>2025-07-04T07:39:13.974Z</time>
      </trkpt>
      <trkpt lat="48.6946" lon="2.05662">
        <ele>150</ele>
        <time>2025-07-04T07:39:18.470Z</time>
      </trkpt>
      <trkpt lat="48.69456" lon="2.0566">
        <ele>152</ele>
        <time>2025-07-04T07:39:23.052Z</time>
      </trkpt>
      <trkpt lat="48.69452" lon="2.05656">
        <ele>152</ele>
        <time>2025-07-04T07:39:27.394Z</time>
      </trkpt>
      <trkpt lat="48.69449" lon="2.05652">
        <ele>155</ele>
        <time>2025-07-04T07:39:31.536Z</time>
      </trkpt>
      <trkpt lat="48.69446" lon="2.05648">
        <ele>155</ele>
        <time>2025-07-04T07:39:36.207Z</time>
      </trkpt>
      <trkpt lat="48.69445" lon="2.05643">
        <ele>155</ele>
        <time>2025-07-04T07:39:40.833Z</time>
      </trkpt>
      <trkpt lat="48.69443" lon="2.05638">
        <ele>155</ele>
        <time>2025-07-04T07:39:45.413Z</time>
      </trkpt>
      <trkpt lat="48.69444" lon="2.05632">
        <ele>155</ele>
        <time>2025-07-04T07:39:49.824Z</time>
      </trkpt>
      <trkpt lat="48.69446" lon="2.05627">
        <ele>155</ele>
        <time>2025-07-04T07:39:53.961Z</time>
      </trkpt>
      <trkpt lat="48.69447" lon="2.05622">
        <ele>157</ele>
        <time>2025-07-04T07:39:58.083Z</time>
      </trkpt>
      <trkpt lat="48.69449" lon="2.05618">
        <ele>157</ele>
        <time>2025-07-04T07:40:02.442Z</time>
      </trkpt>
      <trkpt lat="48.69451" lon="2.05615">
        <ele>157</ele>
        <time>2025-07-04T07:40:06.503Z</time>
      </trkpt>
      <trkpt lat="48.69454" lon="2.05612">
        <ele>157</ele>
        <time>2025-07-04T07:40:10.536Z</time>
      </trkpt>
      <trkpt lat="48.69457" lon="2.05609">
        <ele>157</ele>
        <time>2025-07-04T07:40:14.781Z</time>
      </trkpt>
      <trkpt lat="48.6946" lon="2.05607">
        <ele>155</ele>
        <time>2025-07-04T07:40:19.497Z</time>
      </trkpt>
      <trkpt lat="48.69463" lon="2.05605">
        <ele>155</ele>
        <time>2025-07-04T07:40:23.515Z</time>
      </trkpt>
      <trkpt lat="48.69466" lon="2.05601">
        <ele>155</ele>
        <time>2025-07-04T07:40:27.978Z</time>
      </trkpt>
      <trkpt lat="48.69469" lon="2.05597">
        <ele>158</ele>
        <time>2025-07-04T07:40:32.277Z</time>
      </trkpt>
      <trkpt lat="48.69473" lon="2.05593">
        <ele>158</ele>
        <time>2025-07-04T07:40:36.536Z</time>
      </trkpt>
      <trkpt lat="48.69477" lon="2.05591">
        <ele>158</ele>
        <time>2025-07-04T07:40:40.725Z</time>
      </trkpt>
      <trkpt lat="48.69481" lon="2.05589">
        <ele>158</ele>
        <time>2025-07-04T07:40:44.921Z</time>
      </trkpt>
      <trkpt lat="48.69485" lon="2.05588">
        <ele>158</ele>
        <time>2025-07-04T07:40:49.161Z</time>
      </trkpt>
      <trkpt lat="48.69489" lon="2.05586">
        <ele>157</ele>
        <time>2025-07-04T07:40:53.223Z</time>
      </trkpt>
      <trkpt lat="48.69493" lon="2.05584">
        <ele>157</ele>
        <time>2025-07-04T07:40:57.344Z</time>
      </trkpt>
      <trkpt lat="48.69497" lon="2.0558">
        <ele>157</ele>
        <time>2025-07-04T07:41:01.362Z</time>
      </trkpt>
      <trkpt lat="48.69502" lon="2.05577">
        <ele>157</ele>
        <time>2025-07-04T07:41:05.918Z</time>
      </trkpt>
      <trkpt lat="48.69506" lon="2.05571">
        <ele>157</ele>
        <time>2025-07-04T07:41:10.201Z</time>
      </trkpt>
      <trkpt lat="48.69508" lon="2.05564">
        <ele>160</ele>
        <time>2025-07-04T07:41:14.262Z</time>
      </trkpt>
      <trkpt lat="48.69509" lon="2.05559">
        <ele>160</ele>
        <time>2025-07-04T07:41:18.536Z</time>
      </trkpt>
      <trkpt lat="48.69514" lon="2.05559">
        <ele>160</ele>
        <time>2025-07-04T07:41:23.024Z</time>
      </trkpt>
      <trkpt lat="48.69518" lon="2.05559">
        <ele>158</ele>
        <time>2025-07-04T07:41:27.536Z</time>
      </trkpt>
      <trkpt lat="48.69523" lon="2.0556">
        <ele>158</ele>
        <time>2025-07-04T07:41:32.536Z</time>
      </trkpt>
      <trkpt lat="48.69528" lon="2.05561">
        <ele>158</ele>
        <time>2025-07-04T07:41:37.222Z</time>
      </trkpt>
      <trkpt lat="48.69533" lon="2.05562">
        <ele>158</ele>
        <time>2025-07-04T07:41:41.802Z</time>
      </trkpt>
      <trkpt lat="48.69538" lon="2.05564">
        <ele>158</ele>
        <time>2025-07-04T07:41:46.536Z</time>
      </trkpt>
      <trkpt lat="48.69543" lon="2.05565">
        <ele>160</ele>
        <time>2025-07-04T07:41:51.017Z</time>
      </trkpt>
      <trkpt lat="48.69547" lon="2.05564">
        <ele>160</ele>
        <time>2025-07-04T07:41:55.536Z</time>
      </trkpt>
      <trkpt lat="48.69548" lon="2.05564">
        <ele>160</ele>
        <time>2025-07-04T07:42:00.536Z</time>
      </trkpt>
      <trkpt lat="48.69549" lon="2.05563">
        <ele>160</ele>
        <time>2025-07-04T07:42:05.290Z</time>
      </trkpt>
      <trkpt lat="48.69552" lon="2.05556">
        <ele>160</ele>
        <time>2025-07-04T07:42:09.551Z</time>
      </trkpt>
      <trkpt lat="48.69556" lon="2.05552">
        <ele>160</ele>
        <time>2025-07-04T07:42:13.686Z</time>
      </trkpt>
      <trkpt lat="48.6956" lon="2.05549">
        <ele>160</ele>
        <time>2025-07-04T07:42:18.029Z</time>
      </trkpt>
      <trkpt lat="48.69564" lon="2.05545">
        <ele>160</ele>
        <time>2025-07-04T07:42:22.466Z</time>
      </trkpt>
      <trkpt lat="48.69565" lon="2.05541">
        <ele>162</ele>
        <time>2025-07-04T07:42:26.536Z</time>
      </trkpt>
      <trkpt lat="48.69568" lon="2.05538">
        <ele>162</ele>
        <time>2025-07-04T07:42:31.433Z</time>
      </trkpt>
      <trkpt lat="48.6957" lon="2.05537">
        <ele>165</ele>
        <time>2025-07-04T07:42:35.468Z</time>
      </trkpt>
      <trkpt lat="48.69572" lon="2.05537">
        <ele>165</ele>
        <time>2025-07-04T07:42:39.536Z</time>
      </trkpt>
      <trkpt lat="48.69572" lon="2.05536">
        <ele>165</ele>
        <time>2025-07-04T07:42:46.536Z</time>
      </trkpt>
      <trkpt lat="48.69573" lon="2.05536">
        <ele>165</ele>
        <time>2025-07-04T07:42:51.536Z</time>
      </trkpt>
      <trkpt lat="48.69577" lon="2.05532">
        <ele>165</ele>
        <time>2025-07-04T07:42:56.346Z</time>
      </trkpt>
      <trkpt lat="48.69578" lon="2.05529">
        <ele>165</ele>
        <time>2025-07-04T07:43:00.390Z</time>
      </trkpt>
      <trkpt lat="48.69578" lon="2.05525">
        <ele>165</ele>
        <time>2025-07-04T07:43:04.869Z</time>
      </trkpt>
      <trkpt lat="48.69577" lon="2.0552">
        <ele>165</ele>
        <time>2025-07-04T07:43:09.433Z</time>
      </trkpt>
      <trkpt lat="48.6958" lon="2.0552">
        <ele>165</ele>
        <time>2025-07-04T07:43:14.305Z</time>
      </trkpt>
      <trkpt lat="48.69582" lon="2.05523">
        <ele>165</ele>
        <time>2025-07-04T07:43:18.536Z</time>
      </trkpt>
      <trkpt lat="48.69585" lon="2.05527">
        <ele>165</ele>
        <time>2025-07-04T07:43:22.905Z</time>
      </trkpt>
      <trkpt lat="48.69587" lon="2.05531">
        <ele>165</ele>
        <time>2025-07-04T07:43:26.949Z</time>
      </trkpt>
      <trkpt lat="48.69589" lon="2.05535">
        <ele>165</ele>
        <time>2025-07-04T07:43:31.207Z</time>
      </trkpt>
      <trkpt lat="48.69592" lon="2.05537">
        <ele>165</ele>
        <time>2025-07-04T07:43:35.370Z</time>
      </trkpt>
      <trkpt lat="48.69596" lon="2.05537">
        <ele>165</ele>
        <time>2025-07-04T07:43:39.508Z</time>
      </trkpt>
      <trkpt lat="48.69599" lon="2.05539">
        <ele>166</ele>
        <time>2025-07-04T07:43:43.826Z</time>
      </trkpt>
      <trkpt lat="48.69602" lon="2.05544">
        <ele>163</ele>
        <time>2025-07-04T07:43:48.006Z</time>
      </trkpt>
      <trkpt lat="48.69604" lon="2.05549">
        <ele>163</ele>
        <time>2025-07-04T07:43:52.229Z</time>
      </trkpt>
      <trkpt lat="48.69608" lon="2.05555">
        <ele>163</ele>
        <time>2025-07-04T07:43:56.828Z</time>
      </trkpt>
      <trkpt lat="48.69612" lon="2.05558">
        <ele>163</ele>
        <time>2025-07-04T07:44:01.409Z</time>
      </trkpt>
      <trkpt lat="48.69616" lon="2.05559">
        <ele>163</ele>
        <time>2025-07-04T07:44:05.470Z</time>
      </trkpt>
      <trkpt lat="48.69621" lon="2.05559">
        <ele>163</ele>
        <time>2025-07-04T07:44:09.506Z</time>
      </trkpt>
      <trkpt lat="48.69625" lon="2.0556">
        <ele>163</ele>
        <time>2025-07-04T07:44:13.746Z</time>
      </trkpt>
      <trkpt lat="48.6963" lon="2.05562">
        <ele>164</ele>
        <time>2025-07-04T07:44:18.536Z</time>
      </trkpt>
      <trkpt lat="48.69634" lon="2.05563">
        <ele>164</ele>
        <time>2025-07-04T07:44:22.892Z</time>
      </trkpt>
      <trkpt lat="48.69637" lon="2.05557">
        <ele>164</ele>
        <time>2025-07-04T07:44:27.536Z</time>
      </trkpt>
      <trkpt lat="48.69639" lon="2.0555">
        <ele>164</ele>
        <time>2025-07-04T07:44:32.536Z</time>
      </trkpt>
      <trkpt lat="48.69641" lon="2.05543">
        <ele>164</ele>
        <time>2025-07-04T07:44:37.012Z</time>
      </trkpt>
      <trkpt lat="48.69643" lon="2.05536">
        <ele>167</ele>
        <time>2025-07-04T07:44:41.388Z</time>
      </trkpt>
      <trkpt lat="48.69643" lon="2.0553">
        <ele>167</ele>
        <time>2025-07-04T07:44:45.934Z</time>
      </trkpt>
      <trkpt lat="48.69643" lon="2.05524">
        <ele>167</ele>
        <time>2025-07-04T07:44:50.433Z</time>
      </trkpt>
      <trkpt lat="48.69643" lon="2.05517">
        <ele>167</ele>
        <time>2025-07-04T07:44:54.808Z</time>
      </trkpt>
      <trkpt lat="48.69643" lon="2.0551">
        <ele>169</ele>
        <time>2025-07-04T07:44:59.091Z</time>
      </trkpt>
      <trkpt lat="48.69643" lon="2.05504">
        <ele>169</ele>
        <time>2025-07-04T07:45:03.111Z</time>
      </trkpt>
      <trkpt lat="48.69642" lon="2.05496">
        <ele>169</ele>
        <time>2025-07-04T07:45:07.691Z</time>
      </trkpt>
      <trkpt lat="48.69643" lon="2.05488">
        <ele>169</ele>
        <time>2025-07-04T07:45:12.290Z</time>
      </trkpt>
      <trkpt lat="48.69643" lon="2.0548">
        <ele>169</ele>
        <time>2025-07-04T07:45:16.368Z</time>
      </trkpt>
      <trkpt lat="48.69644" lon="2.05472">
        <ele>169</ele>
        <time>2025-07-04T07:45:20.800Z</time>
      </trkpt>
      <trkpt lat="48.69644" lon="2.05463">
        <ele>169</ele>
        <time>2025-07-04T07:45:25.368Z</time>
      </trkpt>
      <trkpt lat="48.69643" lon="2.05455">
        <ele>168</ele>
        <time>2025-07-04T07:45:29.933Z</time>
      </trkpt>
      <trkpt lat="48.69643" lon="2.05448">
        <ele>168</ele>
        <time>2025-07-04T07:45:34.011Z</time>
      </trkpt>
      <trkpt lat="48.69643" lon="2.05441">
        <ele>168</ele>
        <time>2025-07-04T07:45:38.166Z</time>
      </trkpt>
      <trkpt lat="48.69644" lon="2.05432">
        <ele>168</ele>
        <time>2025-07-04T07:45:42.210Z</time>
      </trkpt>
      <trkpt lat="48.69644" lon="2.05423">
        <ele>168</ele>
        <time>2025-07-04T07:45:46.536Z</time>
      </trkpt>
      <trkpt lat="48.69645" lon="2.05415">
        <ele>168</ele>
        <time>2025-07-04T07:45:51.006Z</time>
      </trkpt>
      <trkpt lat="48.69645" lon="2.05406">
        <ele>168</ele>
        <time>2025-07-04T07:45:55.536Z</time>
      </trkpt>
      <trkpt lat="48.69645" lon="2.05398">
        <ele>169</ele>
        <time>2025-07-04T07:46:00.228Z</time>
      </trkpt>
      <trkpt lat="48.69645" lon="2.05389">
        <ele>169</ele>
        <time>2025-07-04T07:46:04.792Z</time>
      </trkpt>
      <trkpt lat="48.69646" lon="2.05381">
        <ele>169</ele>
        <time>2025-07-04T07:46:08.811Z</time>
      </trkpt>
      <trkpt lat="48.69648" lon="2.05374">
        <ele>170</ele>
        <time>2025-07-04T07:46:13.115Z</time>
      </trkpt>
      <trkpt lat="48.69651" lon="2.05367">
        <ele>170</ele>
        <time>2025-07-04T07:46:17.536Z</time>
      </trkpt>
      <trkpt lat="48.69655" lon="2.05362">
        <ele>169</ele>
        <time>2025-07-04T07:46:22.008Z</time>
      </trkpt>
      <trkpt lat="48.69659" lon="2.05359">
        <ele>169</ele>
        <time>2025-07-04T07:46:26.112Z</time>
      </trkpt>
      <trkpt lat="48.69664" lon="2.05357">
        <ele>169</ele>
        <time>2025-07-04T07:46:30.536Z</time>
      </trkpt>
      <trkpt lat="48.69669" lon="2.05359">
        <ele>169</ele>
        <time>2025-07-04T07:46:35.513Z</time>
      </trkpt>
      <trkpt lat="48.69675" lon="2.0536">
        <ele>169</ele>
        <time>2025-07-04T07:46:40.009Z</time>
      </trkpt>
      <trkpt lat="48.6968" lon="2.0536">
        <ele>169</ele>
        <time>2025-07-04T07:46:44.028Z</time>
      </trkpt>
      <trkpt lat="48.69684" lon="2.05359">
        <ele>168</ele>
        <time>2025-07-04T07:46:48.332Z</time>
      </trkpt>
      <trkpt lat="48.69689" lon="2.05356">
        <ele>168</ele>
        <time>2025-07-04T07:46:52.431Z</time>
      </trkpt>
      <trkpt lat="48.69694" lon="2.05353">
        <ele>168</ele>
        <time>2025-07-04T07:46:56.748Z</time>
      </trkpt>
      <trkpt lat="48.69699" lon="2.05352">
        <ele>168</ele>
        <time>2025-07-04T07:47:00.791Z</time>
      </trkpt>
      <trkpt lat="48.69704" lon="2.05352">
        <ele>168</ele>
        <time>2025-07-04T07:47:05.186Z</time>
      </trkpt>
      <trkpt lat="48.69707" lon="2.05345">
        <ele>167</ele>
        <time>2025-07-04T07:47:09.468Z</time>
      </trkpt>
      <trkpt lat="48.69708" lon="2.05336">
        <ele>167</ele>
        <time>2025-07-04T07:47:13.973Z</time>
      </trkpt>
      <trkpt lat="48.69709" lon="2.05329">
        <ele>165</ele>
        <time>2025-07-04T07:47:18.349Z</time>
      </trkpt>
      <trkpt lat="48.69709" lon="2.05323">
        <ele>165</ele>
        <time>2025-07-04T07:47:22.470Z</time>
      </trkpt>
      <trkpt lat="48.69708" lon="2.05316">
        <ele>167</ele>
        <time>2025-07-04T07:47:26.536Z</time>
      </trkpt>
      <trkpt lat="48.69706" lon="2.05309">
        <ele>167</ele>
        <time>2025-07-04T07:47:30.873Z</time>
      </trkpt>
      <trkpt lat="48.69704" lon="2.05302">
        <ele>167</ele>
        <time>2025-07-04T07:47:35.266Z</time>
      </trkpt>
      <trkpt lat="48.69703" lon="2.05294">
        <ele>167</ele>
        <time>2025-07-04T07:47:39.489Z</time>
      </trkpt>
      <trkpt lat="48.69703" lon="2.05286">
        <ele>168</ele>
        <time>2025-07-04T07:47:43.789Z</time>
      </trkpt>
      <trkpt lat="48.69703" lon="2.05279">
        <ele>168</ele>
        <time>2025-07-04T07:47:48.046Z</time>
      </trkpt>
      <trkpt lat="48.69705" lon="2.05272">
        <ele>168</ele>
        <time>2025-07-04T07:47:52.107Z</time>
      </trkpt>
      <trkpt lat="48.69706" lon="2.05265">
        <ele>168</ele>
        <time>2025-07-04T07:47:56.791Z</time>
      </trkpt>
      <trkpt lat="48.69708" lon="2.05257">
        <ele>163</ele>
        <time>2025-07-04T07:48:01.389Z</time>
      </trkpt>
      <trkpt lat="48.6971" lon="2.0525">
        <ele>163</ele>
        <time>2025-07-04T07:48:05.536Z</time>
      </trkpt>
      <trkpt lat="48.69712" lon="2.05242">
        <ele>163</ele>
        <time>2025-07-04T07:48:10.074Z</time>
      </trkpt>
      <trkpt lat="48.69712" lon="2.05235">
        <ele>163</ele>
        <time>2025-07-04T07:48:14.169Z</time>
      </trkpt>
      <trkpt lat="48.69712" lon="2.05228">
        <ele>163</ele>
        <time>2025-07-04T07:48:18.229Z</time>
      </trkpt>
      <trkpt lat="48.69712" lon="2.0522">
        <ele>163</ele>
        <time>2025-07-04T07:48:22.273Z</time>
      </trkpt>
      <trkpt lat="48.69712" lon="2.05211">
        <ele>163</ele>
        <time>2025-07-04T07:48:26.889Z</time>
      </trkpt>
      <trkpt lat="48.69712" lon="2.05203">
        <ele>162</ele>
        <time>2025-07-04T07:48:31.009Z</time>
      </trkpt>
      <trkpt lat="48.6971" lon="2.05195">
        <ele>162</ele>
        <time>2025-07-04T07:48:35.027Z</time>
      </trkpt>
      <trkpt lat="48.69709" lon="2.05187">
        <ele>162</ele>
        <time>2025-07-04T07:48:39.190Z</time>
      </trkpt>
      <trkpt lat="48.69709" lon="2.0518">
        <ele>163</ele>
        <time>2025-07-04T07:48:43.226Z</time>
      </trkpt>
      <trkpt lat="48.69711" lon="2.05172">
        <ele>163</ele>
        <time>2025-07-04T07:48:47.491Z</time>
      </trkpt>
      <trkpt lat="48.69712" lon="2.05164">
        <ele>163</ele>
        <time>2025-07-04T07:48:51.804Z</time>
      </trkpt>
      <trkpt lat="48.69713" lon="2.05156">
        <ele>163</ele>
        <time>2025-07-04T07:48:56.432Z</time>
      </trkpt>
      <trkpt lat="48.69713" lon="2.05148">
        <ele>163</ele>
        <time>2025-07-04T07:49:00.554Z</time>
      </trkpt>
      <trkpt lat="48.69712" lon="2.0514">
        <ele>163</ele>
        <time>2025-07-04T07:49:05.227Z</time>
      </trkpt>
      <trkpt lat="48.69713" lon="2.05132">
        <ele>163</ele>
        <time>2025-07-04T07:49:09.553Z</time>
      </trkpt>
      <trkpt lat="48.69715" lon="2.05125">
        <ele>163</ele>
        <time>2025-07-04T07:49:13.972Z</time>
      </trkpt>
      <trkpt lat="48.69717" lon="2.05118">
        <ele>163</ele>
        <time>2025-07-04T07:49:17.989Z</time>
      </trkpt>
      <trkpt lat="48.69718" lon="2.0511">
        <ele>163</ele>
        <time>2025-07-04T07:49:22.272Z</time>
      </trkpt>
      <trkpt lat="48.69718" lon="2.05101">
        <ele>163</ele>
        <time>2025-07-04T07:49:26.486Z</time>
      </trkpt>
      <trkpt lat="48.69718" lon="2.05093">
        <ele>163</ele>
        <time>2025-07-04T07:49:30.812Z</time>
      </trkpt>
      <trkpt lat="48.69719" lon="2.05086">
        <ele>163</ele>
        <time>2025-07-04T07:49:35.410Z</time>
      </trkpt>
      <trkpt lat="48.69721" lon="2.0508">
        <ele>163</ele>
        <time>2025-07-04T07:49:39.872Z</time>
      </trkpt>
      <trkpt lat="48.69722" lon="2.05072">
        <ele>163</ele>
        <time>2025-07-04T07:49:44.308Z</time>
      </trkpt>
      <trkpt lat="48.69724" lon="2.05065">
        <ele>166</ele>
        <time>2025-07-04T07:49:48.991Z</time>
      </trkpt>
      <trkpt lat="48.69727" lon="2.05058">
        <ele>166</ele>
        <time>2025-07-04T07:49:53.052Z</time>
      </trkpt>
      <trkpt lat="48.6973" lon="2.05051">
        <ele>166</ele>
        <time>2025-07-04T07:49:57.536Z</time>
      </trkpt>
      <trkpt lat="48.6973" lon="2.05041">
        <ele>169</ele>
        <time>2025-07-04T07:50:02.146Z</time>
      </trkpt>
      <trkpt lat="48.6973" lon="2.05033">
        <ele>169</ele>
        <time>2025-07-04T07:50:06.429Z</time>
      </trkpt>
      <trkpt lat="48.69731" lon="2.05026">
        <ele>169</ele>
        <time>2025-07-04T07:50:10.536Z</time>
      </trkpt>
      <trkpt lat="48.69732" lon="2.05019">
        <ele>169</ele>
        <time>2025-07-04T07:50:14.819Z</time>
      </trkpt>
      <trkpt lat="48.69736" lon="2.05013">
        <ele>169</ele>
        <time>2025-07-04T07:50:19.131Z</time>
      </trkpt>
      <trkpt lat="48.69739" lon="2.05008">
        <ele>167</ele>
        <time>2025-07-04T07:50:23.328Z</time>
      </trkpt>
      <trkpt lat="48.69742" lon="2.05001">
        <ele>167</ele>
        <time>2025-07-04T07:50:27.833Z</time>
      </trkpt>
      <trkpt lat="48.69745" lon="2.04994">
        <ele>167</ele>
        <time>2025-07-04T07:50:32.132Z</time>
      </trkpt>
      <trkpt lat="48.69749" lon="2.04989">
        <ele>167</ele>
        <time>2025-07-04T07:50:36.389Z</time>
      </trkpt>
      <trkpt lat="48.69752" lon="2.04983">
        <ele>167</ele>
        <time>2025-07-04T07:50:40.672Z</time>
      </trkpt>
      <trkpt lat="48.69756" lon="2.04976">
        <ele>167</ele>
        <time>2025-07-04T07:50:45.134Z</time>
      </trkpt>
      <trkpt lat="48.69758" lon="2.04967">
        <ele>167</ele>
        <time>2025-07-04T07:50:49.493Z</time>
      </trkpt>
      <trkpt lat="48.69759" lon="2.04959">
        <ele>167</ele>
        <time>2025-07-04T07:50:54.006Z</time>
      </trkpt>
      <trkpt lat="48.6976" lon="2.0495">
        <ele>168</ele>
        <time>2025-07-04T07:50:58.373Z</time>
      </trkpt>
      <trkpt lat="48.6976" lon="2.0494">
        <ele>168</ele>
        <time>2025-07-04T07:51:02.852Z</time>
      </trkpt>
      <trkpt lat="48.69764" lon="2.04932">
        <ele>168</ele>
        <time>2025-07-04T07:51:07.006Z</time>
      </trkpt>
      <trkpt lat="48.69767" lon="2.04925">
        <ele>164</ele>
        <time>2025-07-04T07:51:11.307Z</time>
      </trkpt>
      <trkpt lat="48.69769" lon="2.04918">
        <ele>164</ele>
        <time>2025-07-04T07:51:15.513Z</time>
      </trkpt>
      <trkpt lat="48.69773" lon="2.04914">
        <ele>164</ele>
        <time>2025-07-04T07:51:19.536Z</time>
      </trkpt>
      <trkpt lat="48.69776" lon="2.04907">
        <ele>164</ele>
        <time>2025-07-04T07:51:23.992Z</time>
      </trkpt>
      <trkpt lat="48.69778" lon="2.049">
        <ele>164</ele>
        <time>2025-07-04T07:51:28.071Z</time>
      </trkpt>
      <trkpt lat="48.69779" lon="2.04893">
        <ele>164</ele>
        <time>2025-07-04T07:51:32.250Z</time>
      </trkpt>
      <trkpt lat="48.69783" lon="2.04885">
        <ele>164</ele>
        <time>2025-07-04T07:51:36.832Z</time>
      </trkpt>
      <trkpt lat="48.69784" lon="2.04877">
        <ele>164</ele>
        <time>2025-07-04T07:51:41.536Z</time>
      </trkpt>
      <trkpt lat="48.69784" lon="2.04869">
        <ele>163</ele>
        <time>2025-07-04T07:51:45.536Z</time>
      </trkpt>
      <trkpt lat="48.69786" lon="2.04862">
        <ele>163</ele>
        <time>2025-07-04T07:51:50.089Z</time>
      </trkpt>
      <trkpt lat="48.69787" lon="2.04853">
        <ele>163</ele>
        <time>2025-07-04T07:51:54.610Z</time>
      </trkpt>
      <trkpt lat="48.69789" lon="2.04845">
        <ele>164</ele>
        <time>2025-07-04T07:51:59.089Z</time>
      </trkpt>
      <trkpt lat="48.69789" lon="2.04836">
        <ele>164</ele>
        <time>2025-07-04T07:52:03.211Z</time>
      </trkpt>
      <trkpt lat="48.69789" lon="2.04828">
        <ele>164</ele>
        <time>2025-07-04T07:52:07.270Z</time>
      </trkpt>
      <trkpt lat="48.6979" lon="2.04819">
        <ele>166</ele>
        <time>2025-07-04T07:52:11.791Z</time>
      </trkpt>
      <trkpt lat="48.69791" lon="2.04813">
        <ele>166</ele>
        <time>2025-07-04T07:52:16.108Z</time>
      </trkpt>
      <trkpt lat="48.69791" lon="2.04804">
        <ele>166</ele>
        <time>2025-07-04T07:52:20.526Z</time>
      </trkpt>
      <trkpt lat="48.69788" lon="2.04794">
        <ele>166</ele>
        <time>2025-07-04T07:52:25.031Z</time>
      </trkpt>
      <trkpt lat="48.69787" lon="2.04788">
        <ele>169</ele>
        <time>2025-07-04T07:52:29.125Z</time>
      </trkpt>
      <trkpt lat="48.69788" lon="2.04778">
        <ele>169</ele>
        <time>2025-07-04T07:52:33.689Z</time>
      </trkpt>
      <trkpt lat="48.69788" lon="2.04768">
        <ele>169</ele>
        <time>2025-07-04T07:52:38.109Z</time>
      </trkpt>
      <trkpt lat="48.69786" lon="2.04762">
        <ele>170</ele>
        <time>2025-07-04T07:52:42.272Z</time>
      </trkpt>
      <trkpt lat="48.69784" lon="2.04754">
        <ele>170</ele>
        <time>2025-07-04T07:52:46.290Z</time>
      </trkpt>
      <trkpt lat="48.69782" lon="2.04746">
        <ele>170</ele>
        <time>2025-07-04T07:52:50.667Z</time>
      </trkpt>
      <trkpt lat="48.69781" lon="2.04739">
        <ele>170</ele>
        <time>2025-07-04T07:52:54.873Z</time>
      </trkpt>
      <trkpt lat="48.6978" lon="2.04732">
        <ele>170</ele>
        <time>2025-07-04T07:52:58.951Z</time>
      </trkpt>
      <trkpt lat="48.69779" lon="2.04726">
        <ele>170</ele>
        <time>2025-07-04T07:53:03.011Z</time>
      </trkpt>
      <trkpt lat="48.69778" lon="2.04716">
        <ele>170</ele>
        <time>2025-07-04T07:53:07.536Z</time>
      </trkpt>
      <trkpt lat="48.69779" lon="2.04709">
        <ele>170</ele>
        <time>2025-07-04T07:53:11.713Z</time>
      </trkpt>
      <trkpt lat="48.6978" lon="2.04701">
        <ele>170</ele>
        <time>2025-07-04T07:53:16.252Z</time>
      </trkpt>
      <trkpt lat="48.69782" lon="2.04694">
        <ele>170</ele>
        <time>2025-07-04T07:53:20.475Z</time>
      </trkpt>
      <trkpt lat="48.69782" lon="2.04686">
        <ele>170</ele>
        <time>2025-07-04T07:53:24.731Z</time>
      </trkpt>
      <trkpt lat="48.6978" lon="2.04678">
        <ele>169</ele>
        <time>2025-07-04T07:53:29.536Z</time>
      </trkpt>
      <trkpt lat="48.69782" lon="2.0467">
        <ele>169</ele>
        <time>2025-07-04T07:53:34.536Z</time>
      </trkpt>
      <trkpt lat="48.69783" lon="2.04664">
        <ele>169</ele>
        <time>2025-07-04T07:53:38.536Z</time>
      </trkpt>
      <trkpt lat="48.69783" lon="2.04656">
        <ele>169</ele>
        <time>2025-07-04T07:53:42.706Z</time>
      </trkpt>
      <trkpt lat="48.69781" lon="2.04648">
        <ele>167</ele>
        <time>2025-07-04T07:53:47.134Z</time>
      </trkpt>
      <trkpt lat="48.69778" lon="2.0464">
        <ele>167</ele>
        <time>2025-07-04T07:53:51.245Z</time>
      </trkpt>
      <trkpt lat="48.69779" lon="2.04632">
        <ele>167</ele>
        <time>2025-07-04T07:53:55.469Z</time>
      </trkpt>
      <trkpt lat="48.6978" lon="2.04625">
        <ele>165</ele>
        <time>2025-07-04T07:53:59.529Z</time>
      </trkpt>
      <trkpt lat="48.69782" lon="2.04617">
        <ele>165</ele>
        <time>2025-07-04T07:54:03.800Z</time>
      </trkpt>
      <trkpt lat="48.69782" lon="2.04609">
        <ele>165</ele>
        <time>2025-07-04T07:54:07.993Z</time>
      </trkpt>
      <trkpt lat="48.69783" lon="2.0459">
        <ele>164</ele>
        <time>2025-07-04T07:54:26.536Z</time>
      </trkpt>
      <trkpt lat="48.69784" lon="2.04588">
        <ele>164</ele>
        <time>2025-07-04T07:54:31.536Z</time>
      </trkpt>
      <trkpt lat="48.69787" lon="2.04589">
        <ele>164</ele>
        <time>2025-07-04T07:54:35.753Z</time>
      </trkpt>
      <trkpt lat="48.69793" lon="2.04589">
        <ele>160</ele>
        <time>2025-07-04T07:54:40.536Z</time>
      </trkpt>
      <trkpt lat="48.69798" lon="2.0459">
        <ele>160</ele>
        <time>2025-07-04T07:54:44.755Z</time>
      </trkpt>
      <trkpt lat="48.69805" lon="2.04592">
        <ele>160</ele>
        <time>2025-07-04T07:54:53.473Z</time>
      </trkpt>
      <trkpt lat="48.69806" lon="2.04593">
        <ele>160</ele>
        <time>2025-07-04T07:54:57.536Z</time>
      </trkpt>
      <trkpt lat="48.69806" lon="2.04592">
        <ele>160</ele>
        <time>2025-07-04T07:55:02.191Z</time>
      </trkpt>
      <trkpt lat="48.69809" lon="2.04587">
        <ele>160</ele>
        <time>2025-07-04T07:55:06.346Z</time>
      </trkpt>
      <trkpt lat="48.6981" lon="2.04586">
        <ele>160</ele>
        <time>2025-07-04T07:55:10.748Z</time>
      </trkpt>
      <trkpt lat="48.69816" lon="2.04583">
        <ele>160</ele>
        <time>2025-07-04T07:55:15.466Z</time>
      </trkpt>
      <trkpt lat="48.69818" lon="2.04582">
        <ele>160</ele>
        <time>2025-07-04T07:55:19.688Z</time>
      </trkpt>
      <trkpt lat="48.69819" lon="2.04572">
        <ele>160</ele>
        <time>2025-07-04T07:55:24.255Z</time>
      </trkpt>
      <trkpt lat="48.69818" lon="2.04565">
        <ele>158</ele>
        <time>2025-07-04T07:55:28.287Z</time>
      </trkpt>
      <trkpt lat="48.69816" lon="2.04557">
        <ele>158</ele>
        <time>2025-07-04T07:55:32.733Z</time>
      </trkpt>
      <trkpt lat="48.69817" lon="2.04551">
        <ele>158</ele>
        <time>2025-07-04T07:55:37.374Z</time>
      </trkpt>
      <trkpt lat="48.69819" lon="2.04545">
        <ele>158</ele>
        <time>2025-07-04T07:55:41.410Z</time>
      </trkpt>
      <trkpt lat="48.6982" lon="2.04539">
        <ele>156</ele>
        <time>2025-07-04T07:55:45.589Z</time>
      </trkpt>
      <trkpt lat="48.69822" lon="2.0453">
        <ele>156</ele>
        <time>2025-07-04T07:55:50.308Z</time>
      </trkpt>
      <trkpt lat="48.69824" lon="2.04524">
        <ele>156</ele>
        <time>2025-07-04T07:55:54.536Z</time>
      </trkpt>
      <trkpt lat="48.69827" lon="2.04517">
        <ele>156</ele>
        <time>2025-07-04T07:55:59.051Z</time>
      </trkpt>
      <trkpt lat="48.69832" lon="2.0451">
        <ele>156</ele>
        <time>2025-07-04T07:56:03.232Z</time>
      </trkpt>
      <trkpt lat="48.69837" lon="2.04504">
        <ele>156</ele>
        <time>2025-07-04T07:56:07.556Z</time>
      </trkpt>
      <trkpt lat="48.69842" lon="2.04498">
        <ele>156</ele>
        <time>2025-07-04T07:56:12.010Z</time>
      </trkpt>
      <trkpt lat="48.69845" lon="2.0449">
        <ele>156</ele>
        <time>2025-07-04T07:56:16.250Z</time>
      </trkpt>
      <trkpt lat="48.69848" lon="2.04483">
        <ele>156</ele>
        <time>2025-07-04T07:56:20.551Z</time>
      </trkpt>
      <trkpt lat="48.69852" lon="2.04476">
        <ele>156</ele>
        <time>2025-07-04T07:56:24.969Z</time>
      </trkpt>
      <trkpt lat="48.69856" lon="2.04469">
        <ele>156</ele>
        <time>2025-07-04T07:56:29.347Z</time>
      </trkpt>
      <trkpt lat="48.6986" lon="2.04462">
        <ele>156</ele>
        <time>2025-07-04T07:56:33.733Z</time>
      </trkpt>
      <trkpt lat="48.69863" lon="2.04454">
        <ele>157</ele>
        <time>2025-07-04T07:56:38.210Z</time>
      </trkpt>
      <trkpt lat="48.69867" lon="2.04448">
        <ele>157</ele>
        <time>2025-07-04T07:56:42.885Z</time>
      </trkpt>
      <trkpt lat="48.69871" lon="2.04441">
        <ele>157</ele>
        <time>2025-07-04T07:56:47.167Z</time>
      </trkpt>
      <trkpt lat="48.69873" lon="2.04432">
        <ele>157</ele>
        <time>2025-07-04T07:56:51.536Z</time>
      </trkpt>
      <trkpt lat="48.69875" lon="2.04425">
        <ele>158</ele>
        <time>2025-07-04T07:56:56.237Z</time>
      </trkpt>
      <trkpt lat="48.69878" lon="2.04418">
        <ele>158</ele>
        <time>2025-07-04T07:57:00.264Z</time>
      </trkpt>
      <trkpt lat="48.6988" lon="2.0441">
        <ele>158</ele>
        <time>2025-07-04T07:57:04.862Z</time>
      </trkpt>
      <trkpt lat="48.69883" lon="2.04403">
        <ele>159</ele>
        <time>2025-07-04T07:57:09.282Z</time>
      </trkpt>
      <trkpt lat="48.69886" lon="2.04394">
        <ele>159</ele>
        <time>2025-07-04T07:57:13.822Z</time>
      </trkpt>
      <trkpt lat="48.69888" lon="2.04387">
        <ele>159</ele>
        <time>2025-07-04T07:57:17.882Z</time>
      </trkpt>
      <trkpt lat="48.69893" lon="2.04382">
        <ele>159</ele>
        <time>2025-07-04T07:57:21.975Z</time>
      </trkpt>
      <trkpt lat="48.69896" lon="2.04376">
        <ele>159</ele>
        <time>2025-07-04T07:57:26.079Z</time>
      </trkpt>
      <trkpt lat="48.699" lon="2.04371">
        <ele>160</ele>
        <time>2025-07-04T07:57:30.398Z</time>
      </trkpt>
      <trkpt lat="48.69904" lon="2.04366">
        <ele>158</ele>
        <time>2025-07-04T07:57:34.917Z</time>
      </trkpt>
      <trkpt lat="48.69908" lon="2.04364">
        <ele>158</ele>
        <time>2025-07-04T07:57:39.364Z</time>
      </trkpt>
      <trkpt lat="48.69913" lon="2.04364">
        <ele>158</ele>
        <time>2025-07-04T07:57:43.442Z</time>
      </trkpt>
      <trkpt lat="48.69918" lon="2.04365">
        <ele>158</ele>
        <time>2025-07-04T07:57:47.536Z</time>
      </trkpt>
      <trkpt lat="48.69923" lon="2.04367">
        <ele>158</ele>
        <time>2025-07-04T07:57:52.204Z</time>
      </trkpt>
      <trkpt lat="48.69927" lon="2.04371">
        <ele>158</ele>
        <time>2025-07-04T07:57:56.442Z</time>
      </trkpt>
      <trkpt lat="48.69932" lon="2.04376">
        <ele>154</ele>
        <time>2025-07-04T07:58:00.939Z</time>
      </trkpt>
      <trkpt lat="48.69936" lon="2.0438">
        <ele>154</ele>
        <time>2025-07-04T07:58:05.238Z</time>
      </trkpt>
      <trkpt lat="48.69941" lon="2.04385">
        <ele>154</ele>
        <time>2025-07-04T07:58:09.479Z</time>
      </trkpt>
      <trkpt lat="48.69946" lon="2.04388">
        <ele>154</ele>
        <time>2025-07-04T07:58:13.744Z</time>
      </trkpt>
      <trkpt lat="48.69951" lon="2.04389">
        <ele>154</ele>
        <time>2025-07-04T07:58:17.984Z</time>
      </trkpt>
      <trkpt lat="48.69957" lon="2.04387">
        <ele>154</ele>
        <time>2025-07-04T07:58:22.283Z</time>
      </trkpt>
      <trkpt lat="48.69961" lon="2.04382">
        <ele>148</ele>
        <time>2025-07-04T07:58:26.422Z</time>
      </trkpt>
      <trkpt lat="48.69965" lon="2.04377">
        <ele>148</ele>
        <time>2025-07-04T07:58:30.799Z</time>
      </trkpt>
      <trkpt lat="48.6997" lon="2.04373">
        <ele>149</ele>
        <time>2025-07-04T07:58:34.842Z</time>
      </trkpt>
      <trkpt lat="48.69974" lon="2.04367">
        <ele>149</ele>
        <time>2025-07-04T07:58:39.457Z</time>
      </trkpt>
      <trkpt lat="48.69978" lon="2.04361">
        <ele>149</ele>
        <time>2025-07-04T07:58:43.536Z</time>
      </trkpt>
      <trkpt lat="48.69982" lon="2.04354">
        <ele>149</ele>
        <time>2025-07-04T07:58:48.142Z</time>
      </trkpt>
      <trkpt lat="48.69986" lon="2.04347">
        <ele>151</ele>
        <time>2025-07-04T07:58:52.536Z</time>
      </trkpt>
      <trkpt lat="48.69989" lon="2.0434">
        <ele>142</ele>
        <time>2025-07-04T07:58:56.781Z</time>
      </trkpt>
      <trkpt lat="48.69993" lon="2.04338">
        <ele>142</ele>
        <time>2025-07-04T07:59:01.319Z</time>
      </trkpt>
      <trkpt lat="48.69997" lon="2.04329">
        <ele>142</ele>
        <time>2025-07-04T07:59:05.883Z</time>
      </trkpt>
      <trkpt lat="48.7" lon="2.04322">
        <ele>142</ele>
        <time>2025-07-04T07:59:10.536Z</time>
      </trkpt>
      <trkpt lat="48.70002" lon="2.04314">
        <ele>141</ele>
        <time>2025-07-04T07:59:14.979Z</time>
      </trkpt>
      <trkpt lat="48.70005" lon="2.04307">
        <ele>141</ele>
        <time>2025-07-04T07:59:19.536Z</time>
      </trkpt>
      <trkpt lat="48.70006" lon="2.04299">
        <ele>141</ele>
        <time>2025-07-04T07:59:24.081Z</time>
      </trkpt>
      <trkpt lat="48.70007" lon="2.04291">
        <ele>140</ele>
        <time>2025-07-04T07:59:28.117Z</time>
      </trkpt>
      <trkpt lat="48.70008" lon="2.04283">
        <ele>140</ele>
        <time>2025-07-04T07:59:32.536Z</time>
      </trkpt>
      <trkpt lat="48.70006" lon="2.04276">
        <ele>140</ele>
        <time>2025-07-04T07:59:36.861Z</time>
      </trkpt>
      <trkpt lat="48.70008" lon="2.04267">
        <ele>140</ele>
        <time>2025-07-04T07:59:41.240Z</time>
      </trkpt>
      <trkpt lat="48.7001" lon="2.04256">
        <ele>140</ele>
        <time>2025-07-04T07:59:45.772Z</time>
      </trkpt>
      <trkpt lat="48.7001" lon="2.04247">
        <ele>140</ele>
        <time>2025-07-04T07:59:50.196Z</time>
      </trkpt>
      <trkpt lat="48.70012" lon="2.04239">
        <ele>140</ele>
        <time>2025-07-04T07:59:54.258Z</time>
      </trkpt>
      <trkpt lat="48.70012" lon="2.04231">
        <ele>140</ele>
        <time>2025-07-04T07:59:58.319Z</time>
      </trkpt>
      <trkpt lat="48.70013" lon="2.04223">
        <ele>140</ele>
        <time>2025-07-04T08:00:02.644Z</time>
      </trkpt>
      <trkpt lat="48.70012" lon="2.04213">
        <ele>140</ele>
        <time>2025-07-04T08:00:07.022Z</time>
      </trkpt>
      <trkpt lat="48.70011" lon="2.04205">
        <ele>139</ele>
        <time>2025-07-04T08:00:11.499Z</time>
      </trkpt>
      <trkpt lat="48.70011" lon="2.04196">
        <ele>139</ele>
        <time>2025-07-04T08:00:16.082Z</time>
      </trkpt>
      <trkpt lat="48.7001" lon="2.04188">
        <ele>139</ele>
        <time>2025-07-04T08:00:20.323Z</time>
      </trkpt>
      <trkpt lat="48.7001" lon="2.0418">
        <ele>139</ele>
        <time>2025-07-04T08:00:24.784Z</time>
      </trkpt>
      <trkpt lat="48.70009" lon="2.04171">
        <ele>139</ele>
        <time>2025-07-04T08:00:29.322Z</time>
      </trkpt>
      <trkpt lat="48.70007" lon="2.04164">
        <ele>139</ele>
        <time>2025-07-04T08:00:33.536Z</time>
      </trkpt>
      <trkpt lat="48.70006" lon="2.04155">
        <ele>139</ele>
        <time>2025-07-04T08:00:38.536Z</time>
      </trkpt>
      <trkpt lat="48.70003" lon="2.04147">
        <ele>137</ele>
        <time>2025-07-04T08:00:43.117Z</time>
      </trkpt>
      <trkpt lat="48.70002" lon="2.04137">
        <ele>137</ele>
        <time>2025-07-04T08:00:47.760Z</time>
      </trkpt>
      <trkpt lat="48.70001" lon="2.0413">
        <ele>137</ele>
        <time>2025-07-04T08:00:52.161Z</time>
      </trkpt>
      <trkpt lat="48.69999" lon="2.04122">
        <ele>133</ele>
        <time>2025-07-04T08:00:56.503Z</time>
      </trkpt>
      <trkpt lat="48.69998" lon="2.04115">
        <ele>133</ele>
        <time>2025-07-04T08:01:00.536Z</time>
      </trkpt>
      <trkpt lat="48.69998" lon="2.04108">
        <ele>133</ele>
        <time>2025-07-04T08:01:04.796Z</time>
      </trkpt>
      <trkpt lat="48.69997" lon="2.04101">
        <ele>133</ele>
        <time>2025-07-04T08:01:08.900Z</time>
      </trkpt>
      <trkpt lat="48.69997" lon="2.04093">
        <ele>130</ele>
        <time>2025-07-04T08:01:13.003Z</time>
      </trkpt>
      <trkpt lat="48.69996" lon="2.04086">
        <ele>130</ele>
        <time>2025-07-04T08:01:17.066Z</time>
      </trkpt>
      <trkpt lat="48.69998" lon="2.04079">
        <ele>130</ele>
        <time>2025-07-04T08:01:21.536Z</time>
      </trkpt>
      <trkpt lat="48.7" lon="2.04071">
        <ele>130</ele>
        <time>2025-07-04T08:01:26.423Z</time>
      </trkpt>
      <trkpt lat="48.70004" lon="2.04068">
        <ele>128</ele>
        <time>2025-07-04T08:01:30.801Z</time>
      </trkpt>
      <trkpt lat="48.7001" lon="2.04068">
        <ele>128</ele>
        <time>2025-07-04T08:01:34.903Z</time>
      </trkpt>
      <trkpt lat="48.70015" lon="2.04065">
        <ele>121</ele>
        <time>2025-07-04T08:01:39.357Z</time>
      </trkpt>
      <trkpt lat="48.70019" lon="2.04066">
        <ele>121</ele>
        <time>2025-07-04T08:01:43.536Z</time>
      </trkpt>
      <trkpt lat="48.70024" lon="2.0407">
        <ele>125</ele>
        <time>2025-07-04T08:01:48.298Z</time>
      </trkpt>
      <trkpt lat="48.70027" lon="2.04071">
        <ele>125</ele>
        <time>2025-07-04T08:01:52.702Z</time>
      </trkpt>
      <trkpt lat="48.70031" lon="2.04071">
        <ele>125</ele>
        <time>2025-07-04T08:01:56.743Z</time>
      </trkpt>
      <trkpt lat="48.70036" lon="2.04073">
        <ele>125</ele>
        <time>2025-07-04T08:02:00.985Z</time>
      </trkpt>
      <trkpt lat="48.7004" lon="2.04075">
        <ele>125</ele>
        <time>2025-07-04T08:02:05.424Z</time>
      </trkpt>
      <trkpt lat="48.70045" lon="2.04076">
        <ele>120</ele>
        <time>2025-07-04T08:02:09.788Z</time>
      </trkpt>
      <trkpt lat="48.7005" lon="2.04078">
        <ele>120</ele>
        <time>2025-07-04T08:02:14.336Z</time>
      </trkpt>
      <trkpt lat="48.70056" lon="2.04083">
        <ele>120</ele>
        <time>2025-07-04T08:02:19.183Z</time>
      </trkpt>
      <trkpt lat="48.70059" lon="2.04087">
        <ele>120</ele>
        <time>2025-07-04T08:02:24.181Z</time>
      </trkpt>
      <trkpt lat="48.70062" lon="2.04085">
        <ele>120</ele>
        <time>2025-07-04T08:02:26.442Z</time>
      </trkpt>
      <trkpt lat="48.70063" lon="2.04081">
        <ele>120</ele>
        <time>2025-07-04T08:02:35.536Z</time>
      </trkpt>
      <trkpt lat="48.70068" lon="2.04087">
        <ele>120</ele>
        <time>2025-07-04T08:02:39.536Z</time>
      </trkpt>
      <trkpt lat="48.70077" lon="2.04086">
        <ele>116</ele>
        <time>2025-07-04T08:02:44.347Z</time>
      </trkpt>
      <trkpt lat="48.70084" lon="2.04086">
        <ele>116</ele>
        <time>2025-07-04T08:02:48.536Z</time>
      </trkpt>
      <trkpt lat="48.70091" lon="2.04086">
        <ele>116</ele>
        <time>2025-07-04T08:02:53.007Z</time>
      </trkpt>
      <trkpt lat="48.70097" lon="2.04085">
        <ele>112</ele>
        <time>2025-07-04T08:02:57.358Z</time>
      </trkpt>
      <trkpt lat="48.70103" lon="2.04084">
        <ele>112</ele>
        <time>2025-07-04T08:03:01.944Z</time>
      </trkpt>
      <trkpt lat="48.70109" lon="2.04082">
        <ele>112</ele>
        <time>2025-07-04T08:03:06.445Z</time>
      </trkpt>
      <trkpt lat="48.70115" lon="2.04081">
        <ele>112</ele>
        <time>2025-07-04T08:03:10.536Z</time>
      </trkpt>
      <trkpt lat="48.70121" lon="2.04079">
        <ele>112</ele>
        <time>2025-07-04T08:03:15.088Z</time>
      </trkpt>
      <trkpt lat="48.70127" lon="2.04077">
        <ele>109</ele>
        <time>2025-07-04T08:03:19.536Z</time>
      </trkpt>
      <trkpt lat="48.70133" lon="2.04076">
        <ele>109</ele>
        <time>2025-07-04T08:03:23.861Z</time>
      </trkpt>
      <trkpt lat="48.7014" lon="2.04075">
        <ele>109</ele>
        <time>2025-07-04T08:03:28.142Z</time>
      </trkpt>
      <trkpt lat="48.70145" lon="2.04075">
        <ele>109</ele>
        <time>2025-07-04T08:03:32.536Z</time>
      </trkpt>
      <trkpt lat="48.70152" lon="2.04073">
        <ele>109</ele>
        <time>2025-07-04T08:03:37.303Z</time>
      </trkpt>
      <trkpt lat="48.70158" lon="2.04072">
        <ele>105</ele>
        <time>2025-07-04T08:03:41.422Z</time>
      </trkpt>
      <trkpt lat="48.70163" lon="2.0407">
        <ele>105</ele>
        <time>2025-07-04T08:03:46.005Z</time>
      </trkpt>
      <trkpt lat="48.70168" lon="2.04069">
        <ele>105</ele>
        <time>2025-07-04T08:03:50.536Z</time>
      </trkpt>
      <trkpt lat="48.70173" lon="2.04067">
        <ele>105</ele>
        <time>2025-07-04T08:03:54.827Z</time>
      </trkpt>
      <trkpt lat="48.70178" lon="2.04065">
        <ele>105</ele>
        <time>2025-07-04T08:03:59.156Z</time>
      </trkpt>
      <trkpt lat="48.70184" lon="2.04064">
        <ele>99</ele>
        <time>2025-07-04T08:04:03.905Z</time>
      </trkpt>
      <trkpt lat="48.70189" lon="2.04062">
        <ele>99</ele>
        <time>2025-07-04T08:04:07.978Z</time>
      </trkpt>
      <trkpt lat="48.70194" lon="2.04062">
        <ele>99</ele>
        <time>2025-07-04T08:04:12.407Z</time>
      </trkpt>
      <trkpt lat="48.70197" lon="2.04062">
        <ele>99</ele>
        <time>2025-07-04T08:04:16.536Z</time>
      </trkpt>
      <trkpt lat="48.70197" lon="2.0406">
        <ele>99</ele>
        <time>2025-07-04T08:04:21.536Z</time>
      </trkpt>
      <trkpt lat="48.70198" lon="2.04058">
        <ele>99</ele>
        <time>2025-07-04T08:04:26.536Z</time>
      </trkpt>
      <trkpt lat="48.702" lon="2.04057">
        <ele>99</ele>
        <time>2025-07-04T08:04:31.536Z</time>
      </trkpt>
      <trkpt lat="48.70207" lon="2.04057">
        <ele>99</ele>
        <time>2025-07-04T08:04:36.536Z</time>
      </trkpt>
      <trkpt lat="48.70215" lon="2.04054">
        <ele>96</ele>
        <time>2025-07-04T08:04:41.536Z</time>
      </trkpt>
      <trkpt lat="48.70221" lon="2.04051">
        <ele>96</ele>
        <time>2025-07-04T08:04:46.536Z</time>
      </trkpt>
      <trkpt lat="48.70227" lon="2.04051">
        <ele>96</ele>
        <time>2025-07-04T08:04:51.536Z</time>
      </trkpt>
      <trkpt lat="48.70233" lon="2.04048">
        <ele>96</ele>
        <time>2025-07-04T08:04:56.536Z</time>
      </trkpt>
      <trkpt lat="48.7024" lon="2.04047">
        <ele>95</ele>
        <time>2025-07-04T08:05:01.489Z</time>
      </trkpt>
      <trkpt lat="48.70247" lon="2.04044">
        <ele>95</ele>
        <time>2025-07-04T08:05:05.563Z</time>
      </trkpt>
      <trkpt lat="48.70251" lon="2.04038">
        <ele>94</ele>
        <time>2025-07-04T08:05:10.536Z</time>
      </trkpt>
      <trkpt lat="48.70256" lon="2.04034">
        <ele>94</ele>
        <time>2025-07-04T08:05:15.039Z</time>
      </trkpt>
      <trkpt lat="48.70265" lon="2.04031">
        <ele>94</ele>
        <time>2025-07-04T08:05:19.497Z</time>
      </trkpt>
      <trkpt lat="48.70273" lon="2.04033">
        <ele>94</ele>
        <time>2025-07-04T08:05:23.536Z</time>
      </trkpt>
      <trkpt lat="48.70278" lon="2.04027">
        <ele>94</ele>
        <time>2025-07-04T08:05:27.792Z</time>
      </trkpt>
      <trkpt lat="48.70285" lon="2.04024">
        <ele>94</ele>
        <time>2025-07-04T08:05:32.481Z</time>
      </trkpt>
      <trkpt lat="48.70291" lon="2.0402">
        <ele>94</ele>
        <time>2025-07-04T08:05:36.743Z</time>
      </trkpt>
      <trkpt lat="48.70297" lon="2.04016">
        <ele>93</ele>
        <time>2025-07-04T08:05:40.877Z</time>
      </trkpt>
      <trkpt lat="48.70303" lon="2.04012">
        <ele>93</ele>
        <time>2025-07-04T08:05:45.166Z</time>
      </trkpt>
      <trkpt lat="48.70308" lon="2.04009">
        <ele>93</ele>
        <time>2025-07-04T08:05:49.363Z</time>
      </trkpt>
      <trkpt lat="48.70314" lon="2.04005">
        <ele>93</ele>
        <time>2025-07-04T08:05:53.536Z</time>
      </trkpt>
      <trkpt lat="48.70319" lon="2.04003">
        <ele>93</ele>
        <time>2025-07-04T08:05:57.536Z</time>
      </trkpt>
      <trkpt lat="48.7032" lon="2.04005">
        <ele>90</ele>
        <time>2025-07-04T08:06:02.227Z</time>
      </trkpt>
      <trkpt lat="48.70321" lon="2.04">
        <ele>90</ele>
        <time>2025-07-04T08:06:06.536Z</time>
      </trkpt>
      <trkpt lat="48.70327" lon="2.03995">
        <ele>90</ele>
        <time>2025-07-04T08:06:10.868Z</time>
      </trkpt>
      <trkpt lat="48.70332" lon="2.03992">
        <ele>90</ele>
        <time>2025-07-04T08:06:15.222Z</time>
      </trkpt>
      <trkpt lat="48.70337" lon="2.03987">
        <ele>90</ele>
        <time>2025-07-04T08:06:19.425Z</time>
      </trkpt>
      <trkpt lat="48.70342" lon="2.0398">
        <ele>89</ele>
        <time>2025-07-04T08:06:23.702Z</time>
      </trkpt>
      <trkpt lat="48.70346" lon="2.03973">
        <ele>89</ele>
        <time>2025-07-04T08:06:28.119Z</time>
      </trkpt>
      <trkpt lat="48.7035" lon="2.03967">
        <ele>88</ele>
        <time>2025-07-04T08:06:32.492Z</time>
      </trkpt>
      <trkpt lat="48.70355" lon="2.03961">
        <ele>88</ele>
        <time>2025-07-04T08:06:36.814Z</time>
      </trkpt>
      <trkpt lat="48.7036" lon="2.03958">
        <ele>88</ele>
        <time>2025-07-04T08:06:41.178Z</time>
      </trkpt>
      <trkpt lat="48.70366" lon="2.03955">
        <ele>88</ele>
        <time>2025-07-04T08:06:45.476Z</time>
      </trkpt>
      <trkpt lat="48.70371" lon="2.03953">
        <ele>88</ele>
        <time>2025-07-04T08:06:49.536Z</time>
      </trkpt>
      <trkpt lat="48.70377" lon="2.03951">
        <ele>88</ele>
        <time>2025-07-04T08:06:54.034Z</time>
      </trkpt>
      <trkpt lat="48.70383" lon="2.0395">
        <ele>88</ele>
        <time>2025-07-04T08:06:58.301Z</time>
      </trkpt>
      <trkpt lat="48.7039" lon="2.03948">
        <ele>88</ele>
        <time>2025-07-04T08:07:03.133Z</time>
      </trkpt>
      <trkpt lat="48.70395" lon="2.03947">
        <ele>88</ele>
        <time>2025-07-04T08:07:07.536Z</time>
      </trkpt>
      <trkpt lat="48.70401" lon="2.03945">
        <ele>88</ele>
        <time>2025-07-04T08:07:11.861Z</time>
      </trkpt>
      <trkpt lat="48.70406" lon="2.03943">
        <ele>85</ele>
        <time>2025-07-04T08:07:16.183Z</time>
      </trkpt>
      <trkpt lat="48.70412" lon="2.03942">
        <ele>85</ele>
        <time>2025-07-04T08:07:20.503Z</time>
      </trkpt>
      <trkpt lat="48.70419" lon="2.03941">
        <ele>85</ele>
        <time>2025-07-04T08:07:25.315Z</time>
      </trkpt>
      <trkpt lat="48.70425" lon="2.0394">
        <ele>85</ele>
        <time>2025-07-04T08:07:29.795Z</time>
      </trkpt>
      <trkpt lat="48.70431" lon="2.03939">
        <ele>81</ele>
        <time>2025-07-04T08:07:34.455Z</time>
      </trkpt>
      <trkpt lat="48.70434" lon="2.0394">
        <ele>81</ele>
        <time>2025-07-04T08:07:38.536Z</time>
      </trkpt>
      <trkpt lat="48.70435" lon="2.0394">
        <ele>81</ele>
        <time>2025-07-04T08:07:43.536Z</time>
      </trkpt>
      <trkpt lat="48.70435" lon="2.0394">
        <ele>81</ele>
        <time>2025-07-04T08:07:48.997Z</time>
      </trkpt>
      <trkpt lat="48.70439" lon="2.03943">
        <ele>81</ele>
        <time>2025-07-04T08:07:53.536Z</time>
      </trkpt>
      <trkpt lat="48.70443" lon="2.03948">
        <ele>81</ele>
        <time>2025-07-04T08:07:58.178Z</time>
      </trkpt>
      <trkpt lat="48.70444" lon="2.0395">
        <ele>81</ele>
        <time>2025-07-04T08:08:06.536Z</time>
      </trkpt>
      <trkpt lat="48.70446" lon="2.03949">
        <ele>81</ele>
        <time>2025-07-04T08:08:10.935Z</time>
      </trkpt>
      <trkpt lat="48.7045" lon="2.03952">
        <ele>81</ele>
        <time>2025-07-04T08:08:15.382Z</time>
      </trkpt>
      <trkpt lat="48.70453" lon="2.03946">
        <ele>81</ele>
        <time>2025-07-04T08:08:20.054Z</time>
      </trkpt>
      <trkpt lat="48.70455" lon="2.03939">
        <ele>81</ele>
        <time>2025-07-04T08:08:24.421Z</time>
      </trkpt>
      <trkpt lat="48.70457" lon="2.03933">
        <ele>81</ele>
        <time>2025-07-04T08:08:28.734Z</time>
      </trkpt>
      <trkpt lat="48.70459" lon="2.03927">
        <ele>81</ele>
        <time>2025-07-04T08:08:32.843Z</time>
      </trkpt>
      <trkpt lat="48.70462" lon="2.0392">
        <ele>81</ele>
        <time>2025-07-04T08:08:37.477Z</time>
      </trkpt>
      <trkpt lat="48.70465" lon="2.03917">
        <ele>81</ele>
        <time>2025-07-04T08:08:41.536Z</time>
      </trkpt>
      <trkpt lat="48.70468" lon="2.03921">
        <ele>81</ele>
        <time>2025-07-04T08:08:51.536Z</time>
      </trkpt>
      <trkpt lat="48.7047" lon="2.03922">
        <ele>81</ele>
        <time>2025-07-04T08:08:56.421Z</time>
      </trkpt>
      <trkpt lat="48.70474" lon="2.03927">
        <ele>81</ele>
        <time>2025-07-04T08:09:00.536Z</time>
      </trkpt>
      <trkpt lat="48.70474" lon="2.03933">
        <ele>80</ele>
        <time>2025-07-04T08:09:05.536Z</time>
      </trkpt>
      <trkpt lat="48.70482" lon="2.0391">
        <ele>81</ele>
        <time>2025-07-04T08:09:09.827Z</time>
      </trkpt>
      <trkpt lat="48.70485" lon="2.03896">
        <ele>82</ele>
        <time>2025-07-04T08:09:14.421Z</time>
      </trkpt>
      <trkpt lat="48.70488" lon="2.03889">
        <ele>80</ele>
        <time>2025-07-04T08:09:18.536Z</time>
      </trkpt>
      <trkpt lat="48.7049" lon="2.0388">
        <ele>80</ele>
        <time>2025-07-04T08:09:22.882Z</time>
      </trkpt>
      <trkpt lat="48.70492" lon="2.0387">
        <ele>80</ele>
        <time>2025-07-04T08:09:26.941Z</time>
      </trkpt>
      <trkpt lat="48.70491" lon="2.03861">
        <ele>80</ele>
        <time>2025-07-04T08:09:30.984Z</time>
      </trkpt>
      <trkpt lat="48.70491" lon="2.03851">
        <ele>80</ele>
        <time>2025-07-04T08:09:35.001Z</time>
      </trkpt>
      <trkpt lat="48.70492" lon="2.03842">
        <ele>80</ele>
        <time>2025-07-04T08:09:39.102Z</time>
      </trkpt>
      <trkpt lat="48.70493" lon="2.03832">
        <ele>80</ele>
        <time>2025-07-04T08:09:43.162Z</time>
      </trkpt>
      <trkpt lat="48.70495" lon="2.03823">
        <ele>80</ele>
        <time>2025-07-04T08:09:47.512Z</time>
      </trkpt>
      <trkpt lat="48.70498" lon="2.03816">
        <ele>79</ele>
        <time>2025-07-04T08:09:51.536Z</time>
      </trkpt>
      <trkpt lat="48.705" lon="2.03807">
        <ele>79</ele>
        <time>2025-07-04T08:09:55.703Z</time>
      </trkpt>
      <trkpt lat="48.70503" lon="2.03798">
        <ele>79</ele>
        <time>2025-07-04T08:09:59.943Z</time>
      </trkpt>
      <trkpt lat="48.70508" lon="2.03786">
        <ele>80</ele>
        <time>2025-07-04T08:10:13.848Z</time>
      </trkpt>
      <trkpt lat="48.70503" lon="2.03777">
        <ele>80</ele>
        <time>2025-07-04T08:10:18.174Z</time>
      </trkpt>
      <trkpt lat="48.70506" lon="2.03769">
        <ele>80</ele>
        <time>2025-07-04T08:10:22.494Z</time>
      </trkpt>
      <trkpt lat="48.70512" lon="2.03769">
        <ele>80</ele>
        <time>2025-07-04T08:10:26.758Z</time>
      </trkpt>
      <trkpt lat="48.70518" lon="2.0377">
        <ele>78</ele>
        <time>2025-07-04T08:10:31.320Z</time>
      </trkpt>
      <trkpt lat="48.70523" lon="2.03771">
        <ele>78</ele>
        <time>2025-07-04T08:10:35.454Z</time>
      </trkpt>
      <trkpt lat="48.70529" lon="2.03772">
        <ele>78</ele>
        <time>2025-07-04T08:10:40.083Z</time>
      </trkpt>
      <trkpt lat="48.70535" lon="2.03772">
        <ele>78</ele>
        <time>2025-07-04T08:10:44.455Z</time>
      </trkpt>
      <trkpt lat="48.70541" lon="2.03771">
        <ele>78</ele>
        <time>2025-07-04T08:10:48.878Z</time>
      </trkpt>
      <trkpt lat="48.70543" lon="2.03777">
        <ele>78</ele>
        <time>2025-07-04T08:10:53.161Z</time>
      </trkpt>
      <trkpt lat="48.70544" lon="2.03786">
        <ele>78</ele>
        <time>2025-07-04T08:10:57.536Z</time>
      </trkpt>
      <trkpt lat="48.70543" lon="2.03796">
        <ele>77</ele>
        <time>2025-07-04T08:11:01.801Z</time>
      </trkpt>
      <trkpt lat="48.70544" lon="2.03805">
        <ele>77</ele>
        <time>2025-07-04T08:11:06.021Z</time>
      </trkpt>
      <trkpt lat="48.70544" lon="2.03813">
        <ele>77</ele>
        <time>2025-07-04T08:11:10.064Z</time>
      </trkpt>
      <trkpt lat="48.70544" lon="2.03821">
        <ele>77</ele>
        <time>2025-07-04T08:11:14.536Z</time>
      </trkpt>
      <trkpt lat="48.70546" lon="2.03829">
        <ele>77</ele>
        <time>2025-07-04T08:11:19.022Z</time>
      </trkpt>
      <trkpt lat="48.70551" lon="2.03835">
        <ele>77</ele>
        <time>2025-07-04T08:11:23.539Z</time>
      </trkpt>
      <trkpt lat="48.70555" lon="2.0384">
        <ele>77</ele>
        <time>2025-07-04T08:11:27.981Z</time>
      </trkpt>
      <trkpt lat="48.7056" lon="2.03846">
        <ele>77</ele>
        <time>2025-07-04T08:11:32.334Z</time>
      </trkpt>
      <trkpt lat="48.70564" lon="2.03852">
        <ele>78</ele>
        <time>2025-07-04T08:11:36.755Z</time>
      </trkpt>
      <trkpt lat="48.70568" lon="2.03857">
        <ele>78</ele>
        <time>2025-07-04T08:11:40.944Z</time>
      </trkpt>
      <trkpt lat="48.70572" lon="2.03862">
        <ele>79</ele>
        <time>2025-07-04T08:11:45.301Z</time>
      </trkpt>
      <trkpt lat="48.70576" lon="2.03869">
        <ele>79</ele>
        <time>2025-07-04T08:11:49.721Z</time>
      </trkpt>
      <trkpt lat="48.70581" lon="2.03875">
        <ele>79</ele>
        <time>2025-07-04T08:11:54.234Z</time>
      </trkpt>
      <trkpt lat="48.70585" lon="2.0388">
        <ele>79</ele>
        <time>2025-07-04T08:11:58.267Z</time>
      </trkpt>
      <trkpt lat="48.7059" lon="2.03885">
        <ele>79</ele>
        <time>2025-07-04T08:12:02.804Z</time>
      </trkpt>
      <trkpt lat="48.70595" lon="2.0389">
        <ele>79</ele>
        <time>2025-07-04T08:12:07.208Z</time>
      </trkpt>
      <trkpt lat="48.70599" lon="2.03895">
        <ele>80</ele>
        <time>2025-07-04T08:12:11.347Z</time>
      </trkpt>
      <trkpt lat="48.706" lon="2.03897">
        <ele>80</ele>
        <time>2025-07-04T08:12:13.536Z</time>
      </trkpt>
      <trkpt lat="48.70608" lon="2.03906">
        <ele>79</ele>
        <time>2025-07-04T08:12:23.536Z</time>
      </trkpt>
      <trkpt lat="48.70613" lon="2.03909">
        <ele>79</ele>
        <time>2025-07-04T08:12:28.117Z</time>
      </trkpt>
      <trkpt lat="48.70618" lon="2.03915">
        <ele>79</ele>
        <time>2025-07-04T08:12:32.306Z</time>
      </trkpt>
      <trkpt lat="48.70622" lon="2.03922">
        <ele>79</ele>
        <time>2025-07-04T08:12:36.536Z</time>
      </trkpt>
      <trkpt lat="48.70626" lon="2.03927">
        <ele>79</ele>
        <time>2025-07-04T08:12:40.791Z</time>
      </trkpt>
      <trkpt lat="48.70631" lon="2.03933">
        <ele>78</ele>
        <time>2025-07-04T08:12:45.529Z</time>
      </trkpt>
      <trkpt lat="48.70635" lon="2.03941">
        <ele>78</ele>
        <time>2025-07-04T08:12:49.931Z</time>
      </trkpt>
      <trkpt lat="48.70637" lon="2.03945">
        <ele>78</ele>
        <time>2025-07-04T08:12:52.943Z</time>
      </trkpt>
      <trkpt lat="48.70647" lon="2.03953">
        <ele>78</ele>
        <time>2025-07-04T08:13:02.536Z</time>
      </trkpt>
      <trkpt lat="48.7065" lon="2.03958">
        <ele>78</ele>
        <time>2025-07-04T08:13:06.536Z</time>
      </trkpt>
      <trkpt lat="48.70652" lon="2.03964">
        <ele>78</ele>
        <time>2025-07-04T08:13:11.536Z</time>
      </trkpt>
      <trkpt lat="48.70656" lon="2.03966">
        <ele>78</ele>
        <time>2025-07-04T08:13:16.385Z</time>
      </trkpt>
      <trkpt lat="48.70661" lon="2.03975">
        <ele>78</ele>
        <time>2025-07-04T08:13:20.509Z</time>
      </trkpt>
      <trkpt lat="48.70664" lon="2.0398">
        <ele>78</ele>
        <time>2025-07-04T08:13:25.325Z</time>
      </trkpt>
      <trkpt lat="48.70667" lon="2.03983">
        <ele>78</ele>
        <time>2025-07-04T08:13:29.536Z</time>
      </trkpt>
      <trkpt lat="48.7067" lon="2.0398">
        <ele>78</ele>
        <time>2025-07-04T08:13:34.042Z</time>
      </trkpt>
      <trkpt lat="48.70676" lon="2.03978">
        <ele>78</ele>
        <time>2025-07-04T08:13:38.370Z</time>
      </trkpt>
      <trkpt lat="48.70681" lon="2.03977">
        <ele>82</ele>
        <time>2025-07-04T08:13:42.468Z</time>
      </trkpt>
      <trkpt lat="48.70686" lon="2.03974">
        <ele>82</ele>
        <time>2025-07-04T08:13:47.025Z</time>
      </trkpt>
      <trkpt lat="48.70688" lon="2.03968">
        <ele>82</ele>
        <time>2025-07-04T08:13:51.130Z</time>
      </trkpt>
      <trkpt lat="48.70693" lon="2.03966">
        <ele>82</ele>
        <time>2025-07-04T08:13:55.167Z</time>
      </trkpt>
      <trkpt lat="48.70698" lon="2.03964">
        <ele>82</ele>
        <time>2025-07-04T08:13:59.536Z</time>
      </trkpt>
      <trkpt lat="48.70705" lon="2.03963">
        <ele>82</ele>
        <time>2025-07-04T08:14:04.086Z</time>
      </trkpt>
      <trkpt lat="48.70711" lon="2.03963">
        <ele>85</ele>
        <time>2025-07-04T08:14:08.226Z</time>
      </trkpt>
      <trkpt lat="48.70716" lon="2.03961">
        <ele>85</ele>
        <time>2025-07-04T08:14:12.289Z</time>
      </trkpt>
      <trkpt lat="48.70721" lon="2.03956">
        <ele>84</ele>
        <time>2025-07-04T08:14:16.368Z</time>
      </trkpt>
      <trkpt lat="48.70727" lon="2.03952">
        <ele>84</ele>
        <time>2025-07-04T08:14:20.926Z</time>
      </trkpt>
      <trkpt lat="48.70731" lon="2.03948">
        <ele>84</ele>
        <time>2025-07-04T08:14:25.510Z</time>
      </trkpt>
      <trkpt lat="48.70735" lon="2.03944">
        <ele>84</ele>
        <time>2025-07-04T08:14:29.536Z</time>
      </trkpt>
      <trkpt lat="48.70738" lon="2.03941">
        <ele>86</ele>
        <time>2025-07-04T08:14:33.796Z</time>
      </trkpt>
      <trkpt lat="48.70743" lon="2.03937">
        <ele>86</ele>
        <time>2025-07-04T08:14:38.536Z</time>
      </trkpt>
      <trkpt lat="48.70747" lon="2.03936">
        <ele>86</ele>
        <time>2025-07-04T08:14:42.536Z</time>
      </trkpt>
      <trkpt lat="48.70751" lon="2.03941">
        <ele>86</ele>
        <time>2025-07-04T08:14:46.829Z</time>
      </trkpt>
      <trkpt lat="48.70753" lon="2.03951">
        <ele>86</ele>
        <time>2025-07-04T08:14:51.010Z</time>
      </trkpt>
      <trkpt lat="48.70753" lon="2.03959">
        <ele>87</ele>
        <time>2025-07-04T08:14:55.508Z</time>
      </trkpt>
      <trkpt lat="48.70755" lon="2.03967">
        <ele>87</ele>
        <time>2025-07-04T08:14:59.790Z</time>
      </trkpt>
      <trkpt lat="48.70752" lon="2.03971">
        <ele>87</ele>
        <time>2025-07-04T08:15:04.306Z</time>
      </trkpt>
      <trkpt lat="48.7075" lon="2.03976">
        <ele>87</ele>
        <time>2025-07-04T08:15:08.369Z</time>
      </trkpt>
      <trkpt lat="48.7075" lon="2.0398">
        <ele>87</ele>
        <time>2025-07-04T08:15:09.536Z</time>
      </trkpt>
      <trkpt lat="48.7076" lon="2.03989">
        <ele>88</ele>
        <time>2025-07-04T08:15:19.052Z</time>
      </trkpt>
      <trkpt lat="48.70765" lon="2.03989">
        <ele>89</ele>
        <time>2025-07-04T08:15:23.152Z</time>
      </trkpt>
      <trkpt lat="48.70769" lon="2.03999">
        <ele>89</ele>
        <time>2025-07-04T08:15:27.536Z</time>
      </trkpt>
      <trkpt lat="48.70772" lon="2.04003">
        <ele>89</ele>
        <time>2025-07-04T08:15:32.536Z</time>
      </trkpt>
      <trkpt lat="48.70774" lon="2.04003">
        <ele>89</ele>
        <time>2025-07-04T08:15:36.536Z</time>
      </trkpt>
      <trkpt lat="48.7078" lon="2.04009">
        <ele>89</ele>
        <time>2025-07-04T08:15:40.734Z</time>
      </trkpt>
      <trkpt lat="48.70781" lon="2.04017">
        <ele>89</ele>
        <time>2025-07-04T08:15:45.536Z</time>
      </trkpt>
      <trkpt lat="48.70783" lon="2.04023">
        <ele>89</ele>
        <time>2025-07-04T08:15:49.669Z</time>
      </trkpt>
      <trkpt lat="48.70787" lon="2.04027">
        <ele>89</ele>
        <time>2025-07-04T08:15:54.007Z</time>
      </trkpt>
      <trkpt lat="48.70791" lon="2.04031">
        <ele>89</ele>
        <time>2025-07-04T08:15:58.070Z</time>
      </trkpt>
      <trkpt lat="48.70799" lon="2.04034">
        <ele>90</ele>
        <time>2025-07-04T08:16:02.536Z</time>
      </trkpt>
      <trkpt lat="48.70805" lon="2.04037">
        <ele>90</ele>
        <time>2025-07-04T08:16:07.208Z</time>
      </trkpt>
      <trkpt lat="48.7081" lon="2.04036">
        <ele>90</ele>
        <time>2025-07-04T08:16:11.536Z</time>
      </trkpt>
      <trkpt lat="48.70811" lon="2.04028">
        <ele>90</ele>
        <time>2025-07-04T08:16:15.648Z</time>
      </trkpt>
      <trkpt lat="48.70815" lon="2.04022">
        <ele>90</ele>
        <time>2025-07-04T08:16:19.989Z</time>
      </trkpt>
      <trkpt lat="48.70816" lon="2.04022">
        <ele>90</ele>
        <time>2025-07-04T08:16:20.450Z</time>
      </trkpt>
      <trkpt lat="48.70815" lon="2.04009">
        <ele>90</ele>
        <time>2025-07-04T08:16:29.536Z</time>
      </trkpt>
      <trkpt lat="48.70815" lon="2.04001">
        <ele>90</ele>
        <time>2025-07-04T08:16:34.451Z</time>
      </trkpt>
      <trkpt lat="48.70817" lon="2.03989">
        <ele>90</ele>
        <time>2025-07-04T08:16:38.548Z</time>
      </trkpt>
      <trkpt lat="48.70816" lon="2.03981">
        <ele>90</ele>
        <time>2025-07-04T08:16:42.536Z</time>
      </trkpt>
      <trkpt lat="48.70816" lon="2.03976">
        <ele>90</ele>
        <time>2025-07-04T08:16:47.541Z</time>
      </trkpt>
      <trkpt lat="48.7082" lon="2.03973">
        <ele>91</ele>
        <time>2025-07-04T08:16:52.536Z</time>
      </trkpt>
      <trkpt lat="48.70823" lon="2.03973">
        <ele>91</ele>
        <time>2025-07-04T08:16:57.328Z</time>
      </trkpt>
      <trkpt lat="48.70824" lon="2.0397">
        <ele>91</ele>
        <time>2025-07-04T08:17:01.536Z</time>
      </trkpt>
      <trkpt lat="48.70831" lon="2.03974">
        <ele>91</ele>
        <time>2025-07-04T08:17:06.274Z</time>
      </trkpt>
      <trkpt lat="48.70831" lon="2.03977">
        <ele>91</ele>
        <time>2025-07-04T08:17:28.536Z</time>
      </trkpt>
      <trkpt lat="48.7083" lon="2.03978">
        <ele>91</ele>
        <time>2025-07-04T08:17:33.113Z</time>
      </trkpt>
      <trkpt lat="48.70822" lon="2.03979">
        <ele>91</ele>
        <time>2025-07-04T08:17:37.533Z</time>
      </trkpt>
      <trkpt lat="48.70813" lon="2.03971">
        <ele>90</ele>
        <time>2025-07-04T08:17:42.536Z</time>
      </trkpt>
      <trkpt lat="48.70813" lon="2.03968">
        <ele>90</ele>
        <time>2025-07-04T08:17:47.536Z</time>
      </trkpt>
      <trkpt lat="48.70812" lon="2.03967">
        <ele>90</ele>
        <time>2025-07-04T08:17:51.536Z</time>
      </trkpt>
      <trkpt lat="48.70812" lon="2.03967">
        <ele>90</ele>
        <time>2025-07-04T08:17:55.536Z</time>
      </trkpt>
      <trkpt lat="48.70812" lon="2.03963">
        <ele>90</ele>
        <time>2025-07-04T08:18:00.536Z</time>
      </trkpt>
      <trkpt lat="48.70811" lon="2.03953">
        <ele>89</ele>
        <time>2025-07-04T08:18:05.353Z</time>
      </trkpt>
      <trkpt lat="48.70814" lon="2.03937">
        <ele>89</ele>
        <time>2025-07-04T08:18:28.391Z</time>
      </trkpt>
      <trkpt lat="48.70815" lon="2.03936">
        <ele>89</ele>
        <time>2025-07-04T08:18:32.536Z</time>
      </trkpt>
      <trkpt lat="48.70816" lon="2.03934">
        <ele>89</ele>
        <time>2025-07-04T08:18:36.536Z</time>
      </trkpt>
      <trkpt lat="48.70818" lon="2.03932">
        <ele>89</ele>
        <time>2025-07-04T08:18:41.536Z</time>
      </trkpt>
      <trkpt lat="48.70821" lon="2.03929">
        <ele>90</ele>
        <time>2025-07-04T08:18:45.728Z</time>
      </trkpt>
      <trkpt lat="48.70826" lon="2.03926">
        <ele>90</ele>
        <time>2025-07-04T08:18:50.536Z</time>
      </trkpt>
      <trkpt lat="48.70828" lon="2.0393">
        <ele>90</ele>
        <time>2025-07-04T08:18:55.228Z</time>
      </trkpt>
      <trkpt lat="48.70825" lon="2.03938">
        <ele>90</ele>
        <time>2025-07-04T08:18:59.846Z</time>
      </trkpt>
      <trkpt lat="48.70821" lon="2.03943">
        <ele>90</ele>
        <time>2025-07-04T08:19:04.311Z</time>
      </trkpt>
      <trkpt lat="48.70817" lon="2.03946">
        <ele>89</ele>
        <time>2025-07-04T08:19:08.842Z</time>
      </trkpt>
      <trkpt lat="48.70814" lon="2.0395">
        <ele>89</ele>
        <time>2025-07-04T08:19:13.536Z</time>
      </trkpt>
      <trkpt lat="48.7081" lon="2.0395">
        <ele>89</ele>
        <time>2025-07-04T08:19:17.890Z</time>
      </trkpt>
      <trkpt lat="48.70807" lon="2.03953">
        <ele>89</ele>
        <time>2025-07-04T08:19:22.431Z</time>
      </trkpt>
      <trkpt lat="48.70809" lon="2.03959">
        <ele>90</ele>
        <time>2025-07-04T08:19:28.509Z</time>
      </trkpt>
      <trkpt lat="48.7081" lon="2.03961">
        <ele>90</ele>
        <time>2025-07-04T08:19:37.356Z</time>
      </trkpt>
      <trkpt lat="48.70808" lon="2.03967">
        <ele>90</ele>
        <time>2025-07-04T08:19:42.086Z</time>
      </trkpt>
      <trkpt lat="48.70804" lon="2.03967">
        <ele>90</ele>
        <time>2025-07-04T08:19:46.452Z</time>
      </trkpt>
      <trkpt lat="48.70799" lon="2.03966">
        <ele>90</ele>
        <time>2025-07-04T08:19:51.134Z</time>
      </trkpt>
      <trkpt lat="48.70799" lon="2.03966">
        <ele>90</ele>
        <time>2025-07-04T08:19:56.060Z</time>
      </trkpt>
      <trkpt lat="48.70802" lon="2.03968">
        <ele>90</ele>
        <time>2025-07-04T08:20:00.536Z</time>
      </trkpt>
      <trkpt lat="48.70803" lon="2.03973">
        <ele>90</ele>
        <time>2025-07-04T08:20:04.907Z</time>
      </trkpt>
      <trkpt lat="48.70804" lon="2.03979">
        <ele>90</ele>
        <time>2025-07-04T08:20:09.536Z</time>
      </trkpt>
      <trkpt lat="48.70808" lon="2.03976">
        <ele>90</ele>
        <time>2025-07-04T08:20:42.536Z</time>
      </trkpt>
      <trkpt lat="48.70808" lon="2.03967">
        <ele>90</ele>
        <time>2025-07-04T08:20:47.069Z</time>
      </trkpt>
      <trkpt lat="48.70808" lon="2.03957">
        <ele>89</ele>
        <time>2025-07-04T08:20:51.387Z</time>
      </trkpt>
      <trkpt lat="48.70814" lon="2.03948">
        <ele>89</ele>
        <time>2025-07-04T08:20:55.664Z</time>
      </trkpt>
      <trkpt lat="48.70821" lon="2.03944">
        <ele>90</ele>
        <time>2025-07-04T08:20:59.710Z</time>
      </trkpt>
      <trkpt lat="48.70823" lon="2.03939">
        <ele>90</ele>
        <time>2025-07-04T08:21:22.536Z</time>
      </trkpt>
      <trkpt lat="48.70824" lon="2.03936">
        <ele>90</ele>
        <time>2025-07-04T08:21:27.250Z</time>
      </trkpt>
      <trkpt lat="48.70825" lon="2.03931">
        <ele>90</ele>
        <time>2025-07-04T08:21:31.405Z</time>
      </trkpt>
      <trkpt lat="48.70825" lon="2.03926">
        <ele>90</ele>
        <time>2025-07-04T08:21:35.536Z</time>
      </trkpt>
      <trkpt lat="48.70827" lon="2.03919">
        <ele>90</ele>
        <time>2025-07-04T08:21:39.983Z</time>
      </trkpt>
      <trkpt lat="48.70829" lon="2.03912">
        <ele>90</ele>
        <time>2025-07-04T08:21:44.429Z</time>
      </trkpt>
      <trkpt lat="48.7083" lon="2.03907">
        <ele>90</ele>
        <time>2025-07-04T08:21:48.483Z</time>
      </trkpt>
      <trkpt lat="48.70831" lon="2.03899">
        <ele>90</ele>
        <time>2025-07-04T08:21:52.548Z</time>
      </trkpt>
      <trkpt lat="48.70833" lon="2.03892">
        <ele>90</ele>
        <time>2025-07-04T08:21:57.188Z</time>
      </trkpt>
      <trkpt lat="48.70833" lon="2.03884">
        <ele>90</ele>
        <time>2025-07-04T08:22:01.446Z</time>
      </trkpt>
      <trkpt lat="48.70835" lon="2.03879">
        <ele>90</ele>
        <time>2025-07-04T08:22:05.776Z</time>
      </trkpt>
      <trkpt lat="48.70839" lon="2.03874">
        <ele>89</ele>
        <time>2025-07-04T08:22:10.168Z</time>
      </trkpt>
      <trkpt lat="48.70841" lon="2.03868">
        <ele>89</ele>
        <time>2025-07-04T08:22:14.367Z</time>
      </trkpt>
      <trkpt lat="48.70842" lon="2.03862">
        <ele>89</ele>
        <time>2025-07-04T08:22:18.464Z</time>
      </trkpt>
      <trkpt lat="48.70843" lon="2.03856">
        <ele>89</ele>
        <time>2025-07-04T08:22:22.944Z</time>
      </trkpt>
      <trkpt lat="48.70842" lon="2.03849">
        <ele>89</ele>
        <time>2025-07-04T08:22:27.450Z</time>
      </trkpt>
      <trkpt lat="48.7084" lon="2.03842">
        <ele>87</ele>
        <time>2025-07-04T08:22:31.964Z</time>
      </trkpt>
      <trkpt lat="48.70838" lon="2.03835">
        <ele>87</ele>
        <time>2025-07-04T08:22:36.429Z</time>
      </trkpt>
      <trkpt lat="48.70837" lon="2.03828">
        <ele>87</ele>
        <time>2025-07-04T08:22:40.550Z</time>
      </trkpt>
      <trkpt lat="48.70834" lon="2.03821">
        <ele>87</ele>
        <time>2025-07-04T08:22:45.065Z</time>
      </trkpt>
      <trkpt lat="48.70832" lon="2.03815">
        <ele>86</ele>
        <time>2025-07-04T08:22:49.144Z</time>
      </trkpt>
      <trkpt lat="48.70828" lon="2.03804">
        <ele>86</ele>
        <time>2025-07-04T08:38:43.536Z</time>
      </trkpt>
      <trkpt lat="48.70827" lon="2.03804">
        <ele>86</ele>
        <time>2025-07-04T08:38:56.536Z</time>
      </trkpt>
      <trkpt lat="48.70828" lon="2.03802">
        <ele>86</ele>
        <time>2025-07-04T08:39:00.536Z</time>
      </trkpt>
      <trkpt lat="48.70828" lon="2.03796">
        <ele>86</ele>
        <time>2025-07-04T08:39:05.042Z</time>
      </trkpt>
      <trkpt lat="48.70827" lon="2.03791">
        <ele>84</ele>
        <time>2025-07-04T08:39:09.536Z</time>
      </trkpt>
      <trkpt lat="48.70828" lon="2.03784">
        <ele>84</ele>
        <time>2025-07-04T08:39:14.138Z</time>
      </trkpt>
      <trkpt lat="48.70829" lon="2.03779">
        <ele>84</ele>
        <time>2025-07-04T08:39:18.242Z</time>
      </trkpt>
      <trkpt lat="48.7083" lon="2.03773">
        <ele>84</ele>
        <time>2025-07-04T08:39:22.536Z</time>
      </trkpt>
      <trkpt lat="48.70831" lon="2.03766">
        <ele>84</ele>
        <time>2025-07-04T08:39:27.159Z</time>
      </trkpt>
      <trkpt lat="48.70836" lon="2.03762">
        <ele>83</ele>
        <time>2025-07-04T08:39:31.401Z</time>
      </trkpt>
      <trkpt lat="48.70839" lon="2.03759">
        <ele>83</ele>
        <time>2025-07-04T08:39:36Z</time>
      </trkpt>
      <trkpt lat="48.70841" lon="2.03753">
        <ele>83</ele>
        <time>2025-07-04T08:39:40.403Z</time>
      </trkpt>
      <trkpt lat="48.7084" lon="2.03745">
        <ele>83</ele>
        <time>2025-07-04T08:39:44.515Z</time>
      </trkpt>
      <trkpt lat="48.70837" lon="2.03737">
        <ele>83</ele>
        <time>2025-07-04T08:39:48.961Z</time>
      </trkpt>
      <trkpt lat="48.70834" lon="2.0373">
        <ele>83</ele>
        <time>2025-07-04T08:39:53.543Z</time>
      </trkpt>
      <trkpt lat="48.70832" lon="2.03722">
        <ele>83</ele>
        <time>2025-07-04T08:39:58.176Z</time>
      </trkpt>
      <trkpt lat="48.70831" lon="2.03714">
        <ele>83</ele>
        <time>2025-07-04T08:40:02.536Z</time>
      </trkpt>
      <trkpt lat="48.70829" lon="2.03707">
        <ele>83</ele>
        <time>2025-07-04T08:40:07.297Z</time>
      </trkpt>
      <trkpt lat="48.70832" lon="2.03701">
        <ele>83</ele>
        <time>2025-07-04T08:40:12.536Z</time>
      </trkpt>
      <trkpt lat="48.70833" lon="2.037">
        <ele>83</ele>
        <time>2025-07-04T08:40:17.162Z</time>
      </trkpt>
      <trkpt lat="48.70839" lon="2.03696">
        <ele>83</ele>
        <time>2025-07-04T08:40:21.361Z</time>
      </trkpt>
      <trkpt lat="48.70843" lon="2.03693">
        <ele>83</ele>
        <time>2025-07-04T08:40:25.481Z</time>
      </trkpt>
      <trkpt lat="48.70846" lon="2.03691">
        <ele>83</ele>
        <time>2025-07-04T08:40:29.536Z</time>
      </trkpt>
      <trkpt lat="48.70851" lon="2.03687">
        <ele>83</ele>
        <time>2025-07-04T08:40:34.218Z</time>
      </trkpt>
      <trkpt lat="48.70855" lon="2.03683">
        <ele>83</ele>
        <time>2025-07-04T08:40:38.297Z</time>
      </trkpt>
      <trkpt lat="48.70855" lon="2.03676">
        <ele>85</ele>
        <time>2025-07-04T08:40:42.401Z</time>
      </trkpt>
      <trkpt lat="48.70851" lon="2.0367">
        <ele>85</ele>
        <time>2025-07-04T08:40:46.462Z</time>
      </trkpt>
      <trkpt lat="48.70847" lon="2.03664">
        <ele>84</ele>
        <time>2025-07-04T08:40:50.961Z</time>
      </trkpt>
      <trkpt lat="48.70843" lon="2.03658">
        <ele>84</ele>
        <time>2025-07-04T08:40:55.380Z</time>
      </trkpt>
      <trkpt lat="48.70839" lon="2.03652">
        <ele>86</ele>
        <time>2025-07-04T08:40:59.417Z</time>
      </trkpt>
      <trkpt lat="48.70835" lon="2.03644">
        <ele>86</ele>
        <time>2025-07-04T08:41:03.716Z</time>
      </trkpt>
      <trkpt lat="48.70831" lon="2.03637">
        <ele>86</ele>
        <time>2025-07-04T08:41:08.222Z</time>
      </trkpt>
      <trkpt lat="48.70827" lon="2.03631">
        <ele>86</ele>
        <time>2025-07-04T08:41:12.776Z</time>
      </trkpt>
      <trkpt lat="48.70826" lon="2.03623">
        <ele>87</ele>
        <time>2025-07-04T08:41:25.536Z</time>
      </trkpt>
      <trkpt lat="48.70824" lon="2.03619">
        <ele>87</ele>
        <time>2025-07-04T08:41:29.536Z</time>
      </trkpt>
      <trkpt lat="48.70821" lon="2.03611">
        <ele>87</ele>
        <time>2025-07-04T08:41:34.161Z</time>
      </trkpt>
      <trkpt lat="48.70819" lon="2.036">
        <ele>85</ele>
        <time>2025-07-04T08:41:38.656Z</time>
      </trkpt>
      <trkpt lat="48.70817" lon="2.03593">
        <ele>86</ele>
        <time>2025-07-04T08:41:42.793Z</time>
      </trkpt>
      <trkpt lat="48.70816" lon="2.03586">
        <ele>86</ele>
        <time>2025-07-04T08:41:46.976Z</time>
      </trkpt>
      <trkpt lat="48.70815" lon="2.03579">
        <ele>86</ele>
        <time>2025-07-04T08:41:51.140Z</time>
      </trkpt>
      <trkpt lat="48.70813" lon="2.03572">
        <ele>86</ele>
        <time>2025-07-04T08:41:55.186Z</time>
      </trkpt>
      <trkpt lat="48.70812" lon="2.03565">
        <ele>87</ele>
        <time>2025-07-04T08:41:59.288Z</time>
      </trkpt>
      <trkpt lat="48.70809" lon="2.03559">
        <ele>87</ele>
        <time>2025-07-04T08:42:03.367Z</time>
      </trkpt>
      <trkpt lat="48.70806" lon="2.03554">
        <ele>87</ele>
        <time>2025-07-04T08:42:07.474Z</time>
      </trkpt>
      <trkpt lat="48.70802" lon="2.03549">
        <ele>87</ele>
        <time>2025-07-04T08:42:11.536Z</time>
      </trkpt>
      <trkpt lat="48.708" lon="2.03543">
        <ele>87</ele>
        <time>2025-07-04T08:42:15.671Z</time>
      </trkpt>
      <trkpt lat="48.70796" lon="2.03536">
        <ele>88</ele>
        <time>2025-07-04T08:42:19.751Z</time>
      </trkpt>
      <trkpt lat="48.70794" lon="2.0353">
        <ele>88</ele>
        <time>2025-07-04T08:42:24.033Z</time>
      </trkpt>
      <trkpt lat="48.7079" lon="2.03524">
        <ele>87</ele>
        <time>2025-07-04T08:42:28.171Z</time>
      </trkpt>
      <trkpt lat="48.70787" lon="2.03516">
        <ele>87</ele>
        <time>2025-07-04T08:42:32.536Z</time>
      </trkpt>
      <trkpt lat="48.70784" lon="2.03509">
        <ele>88</ele>
        <time>2025-07-04T08:42:36.536Z</time>
      </trkpt>
      <trkpt lat="48.70781" lon="2.03502">
        <ele>88</ele>
        <time>2025-07-04T08:42:41.193Z</time>
      </trkpt>
      <trkpt lat="48.70778" lon="2.03495">
        <ele>88</ele>
        <time>2025-07-04T08:42:45.705Z</time>
      </trkpt>
      <trkpt lat="48.70775" lon="2.0349">
        <ele>88</ele>
        <time>2025-07-04T08:42:49.790Z</time>
      </trkpt>
      <trkpt lat="48.70773" lon="2.03484">
        <ele>88</ele>
        <time>2025-07-04T08:42:54.239Z</time>
      </trkpt>
      <trkpt lat="48.7077" lon="2.03475">
        <ele>88</ele>
        <time>2025-07-04T08:42:58.812Z</time>
      </trkpt>
      <trkpt lat="48.70767" lon="2.03467">
        <ele>88</ele>
        <time>2025-07-04T08:43:03.352Z</time>
      </trkpt>
      <trkpt lat="48.70763" lon="2.03461">
        <ele>88</ele>
        <time>2025-07-04T08:43:07.536Z</time>
      </trkpt>
      <trkpt lat="48.70761" lon="2.03452">
        <ele>88</ele>
        <time>2025-07-04T08:43:12.191Z</time>
      </trkpt>
      <trkpt lat="48.70759" lon="2.03445">
        <ele>88</ele>
        <time>2025-07-04T08:43:16.690Z</time>
      </trkpt>
      <trkpt lat="48.70756" lon="2.03439">
        <ele>88</ele>
        <time>2025-07-04T08:43:20.732Z</time>
      </trkpt>
      <trkpt lat="48.70753" lon="2.03432">
        <ele>88</ele>
        <time>2025-07-04T08:43:25.291Z</time>
      </trkpt>
      <trkpt lat="48.70749" lon="2.03426">
        <ele>90</ele>
        <time>2025-07-04T08:43:29.786Z</time>
      </trkpt>
      <trkpt lat="48.70746" lon="2.03419">
        <ele>90</ele>
        <time>2025-07-04T08:43:34.296Z</time>
      </trkpt>
      <trkpt lat="48.70743" lon="2.03411">
        <ele>90</ele>
        <time>2025-07-04T08:43:38.782Z</time>
      </trkpt>
      <trkpt lat="48.70739" lon="2.03405">
        <ele>90</ele>
        <time>2025-07-04T08:43:43.226Z</time>
      </trkpt>
      <trkpt lat="48.70736" lon="2.03398">
        <ele>92</ele>
        <time>2025-07-04T08:43:47.536Z</time>
      </trkpt>
      <trkpt lat="48.70732" lon="2.03391">
        <ele>92</ele>
        <time>2025-07-04T08:43:52.151Z</time>
      </trkpt>
      <trkpt lat="48.70729" lon="2.03384">
        <ele>92</ele>
        <time>2025-07-04T08:43:56.646Z</time>
      </trkpt>
      <trkpt lat="48.70726" lon="2.03377">
        <ele>92</ele>
        <time>2025-07-04T08:44:01.170Z</time>
      </trkpt>
      <trkpt lat="48.70722" lon="2.03371">
        <ele>94</ele>
        <time>2025-07-04T08:44:05.536Z</time>
      </trkpt>
      <trkpt lat="48.70719" lon="2.03365">
        <ele>94</ele>
        <time>2025-07-04T08:44:10.068Z</time>
      </trkpt>
      <trkpt lat="48.70716" lon="2.03357">
        <ele>94</ele>
        <time>2025-07-04T08:44:14.536Z</time>
      </trkpt>
      <trkpt lat="48.70714" lon="2.03353">
        <ele>94</ele>
        <time>2025-07-04T08:44:19.087Z</time>
      </trkpt>
      <trkpt lat="48.70715" lon="2.03348">
        <ele>94</ele>
        <time>2025-07-04T08:44:23.536Z</time>
      </trkpt>
      <trkpt lat="48.7072" lon="2.03344">
        <ele>95</ele>
        <time>2025-07-04T08:44:28.030Z</time>
      </trkpt>
      <trkpt lat="48.70724" lon="2.03341">
        <ele>95</ele>
        <time>2025-07-04T08:44:32.270Z</time>
      </trkpt>
      <trkpt lat="48.70729" lon="2.03338">
        <ele>95</ele>
        <time>2025-07-04T08:44:36.366Z</time>
      </trkpt>
      <trkpt lat="48.70734" lon="2.03334">
        <ele>95</ele>
        <time>2025-07-04T08:44:40.888Z</time>
      </trkpt>
      <trkpt lat="48.70739" lon="2.0333">
        <ele>95</ele>
        <time>2025-07-04T08:44:45.291Z</time>
      </trkpt>
      <trkpt lat="48.70743" lon="2.03324">
        <ele>95</ele>
        <time>2025-07-04T08:44:49.847Z</time>
      </trkpt>
      <trkpt lat="48.70747" lon="2.03322">
        <ele>95</ele>
        <time>2025-07-04T08:44:54.268Z</time>
      </trkpt>
      <trkpt lat="48.70753" lon="2.03317">
        <ele>96</ele>
        <time>2025-07-04T08:44:59.536Z</time>
      </trkpt>
      <trkpt lat="48.70757" lon="2.03313">
        <ele>96</ele>
        <time>2025-07-04T08:45:03.747Z</time>
      </trkpt>
      <trkpt lat="48.70763" lon="2.03307">
        <ele>96</ele>
        <time>2025-07-04T08:45:08.286Z</time>
      </trkpt>
      <trkpt lat="48.7077" lon="2.03304">
        <ele>95</ele>
        <time>2025-07-04T08:45:12.706Z</time>
      </trkpt>
      <trkpt lat="48.70774" lon="2.03301">
        <ele>95</ele>
        <time>2025-07-04T08:45:17.186Z</time>
      </trkpt>
      <trkpt lat="48.70779" lon="2.03298">
        <ele>95</ele>
        <time>2025-07-04T08:45:21.536Z</time>
      </trkpt>
      <trkpt lat="48.70784" lon="2.03296">
        <ele>95</ele>
        <time>2025-07-04T08:45:25.966Z</time>
      </trkpt>
      <trkpt lat="48.7079" lon="2.03292">
        <ele>95</ele>
        <time>2025-07-04T08:45:30.311Z</time>
      </trkpt>
      <trkpt lat="48.70796" lon="2.03289">
        <ele>96</ele>
        <time>2025-07-04T08:45:34.670Z</time>
      </trkpt>
      <trkpt lat="48.70801" lon="2.03286">
        <ele>96</ele>
        <time>2025-07-04T08:45:38.986Z</time>
      </trkpt>
      <trkpt lat="48.70806" lon="2.03282">
        <ele>96</ele>
        <time>2025-07-04T08:45:43.330Z</time>
      </trkpt>
      <trkpt lat="48.70811" lon="2.03279">
        <ele>96</ele>
        <time>2025-07-04T08:45:47.725Z</time>
      </trkpt>
      <trkpt lat="48.70817" lon="2.03275">
        <ele>96</ele>
        <time>2025-07-04T08:45:57.536Z</time>
      </trkpt>
      <trkpt lat="48.70817" lon="2.03274">
        <ele>96</ele>
        <time>2025-07-04T08:46:02.536Z</time>
      </trkpt>
      <trkpt lat="48.70817" lon="2.03274">
        <ele>96</ele>
        <time>2025-07-04T08:46:07.536Z</time>
      </trkpt>
      <trkpt lat="48.70815" lon="2.0327">
        <ele>96</ele>
        <time>2025-07-04T08:46:11.991Z</time>
      </trkpt>
      <trkpt lat="48.70812" lon="2.03262">
        <ele>98</ele>
        <time>2025-07-04T08:46:16.446Z</time>
      </trkpt>
      <trkpt lat="48.70809" lon="2.03257">
        <ele>98</ele>
        <time>2025-07-04T08:46:20.506Z</time>
      </trkpt>
      <trkpt lat="48.70805" lon="2.03249">
        <ele>98</ele>
        <time>2025-07-04T08:46:24.970Z</time>
      </trkpt>
      <trkpt lat="48.70801" lon="2.03242">
        <ele>98</ele>
        <time>2025-07-04T08:46:29.270Z</time>
      </trkpt>
      <trkpt lat="48.70798" lon="2.03236">
        <ele>100</ele>
        <time>2025-07-04T08:46:33.408Z</time>
      </trkpt>
      <trkpt lat="48.70795" lon="2.03231">
        <ele>100</ele>
        <time>2025-07-04T08:46:37.536Z</time>
      </trkpt>
      <trkpt lat="48.70792" lon="2.03227">
        <ele>100</ele>
        <time>2025-07-04T08:46:41.727Z</time>
      </trkpt>
      <trkpt lat="48.70788" lon="2.0322">
        <ele>99</ele>
        <time>2025-07-04T08:46:46.536Z</time>
      </trkpt>
      <trkpt lat="48.70785" lon="2.03214">
        <ele>99</ele>
        <time>2025-07-04T08:46:50.986Z</time>
      </trkpt>
      <trkpt lat="48.70782" lon="2.03209">
        <ele>99</ele>
        <time>2025-07-04T08:46:55.064Z</time>
      </trkpt>
      <trkpt lat="48.70779" lon="2.03202">
        <ele>101</ele>
        <time>2025-07-04T08:46:59.526Z</time>
      </trkpt>
      <trkpt lat="48.70778" lon="2.03196">
        <ele>101</ele>
        <time>2025-07-04T08:47:03.536Z</time>
      </trkpt>
      <trkpt lat="48.70775" lon="2.03189">
        <ele>101</ele>
        <time>2025-07-04T08:47:07.873Z</time>
      </trkpt>
      <trkpt lat="48.70772" lon="2.03183">
        <ele>101</ele>
        <time>2025-07-04T08:47:12.170Z</time>
      </trkpt>
      <trkpt lat="48.70769" lon="2.03178">
        <ele>102</ele>
        <time>2025-07-04T08:47:16.267Z</time>
      </trkpt>
      <trkpt lat="48.70766" lon="2.03172">
        <ele>102</ele>
        <time>2025-07-04T08:47:20.536Z</time>
      </trkpt>
      <trkpt lat="48.70764" lon="2.03166">
        <ele>103</ele>
        <time>2025-07-04T08:47:24.850Z</time>
      </trkpt>
      <trkpt lat="48.70761" lon="2.03161">
        <ele>103</ele>
        <time>2025-07-04T08:47:29.126Z</time>
      </trkpt>
      <trkpt lat="48.70757" lon="2.03155">
        <ele>103</ele>
        <time>2025-07-04T08:47:33.289Z</time>
      </trkpt>
      <trkpt lat="48.70754" lon="2.03149">
        <ele>104</ele>
        <time>2025-07-04T08:47:37.471Z</time>
      </trkpt>
      <trkpt lat="48.70751" lon="2.03143">
        <ele>104</ele>
        <time>2025-07-04T08:47:41.890Z</time>
      </trkpt>
      <trkpt lat="48.70748" lon="2.03138">
        <ele>104</ele>
        <time>2025-07-04T08:47:46.088Z</time>
      </trkpt>
      <trkpt lat="48.70745" lon="2.03133">
        <ele>104</ele>
        <time>2025-07-04T08:47:50.150Z</time>
      </trkpt>
      <trkpt lat="48.70741" lon="2.03129">
        <ele>104</ele>
        <time>2025-07-04T08:47:54.536Z</time>
      </trkpt>
      <trkpt lat="48.70737" lon="2.03125">
        <ele>106</ele>
        <time>2025-07-04T08:47:59.191Z</time>
      </trkpt>
      <trkpt lat="48.70735" lon="2.03119">
        <ele>107</ele>
        <time>2025-07-04T08:48:03.536Z</time>
      </trkpt>
      <trkpt lat="48.70738" lon="2.0311">
        <ele>106</ele>
        <time>2025-07-04T08:48:08.188Z</time>
      </trkpt>
      <trkpt lat="48.70741" lon="2.03104">
        <ele>106</ele>
        <time>2025-07-04T08:48:12.249Z</time>
      </trkpt>
      <trkpt lat="48.70743" lon="2.03097">
        <ele>110</ele>
        <time>2025-07-04T08:48:16.269Z</time>
      </trkpt>
      <trkpt lat="48.70747" lon="2.03091">
        <ele>110</ele>
        <time>2025-07-04T08:48:20.562Z</time>
      </trkpt>
      <trkpt lat="48.70752" lon="2.03087">
        <ele>110</ele>
        <time>2025-07-04T08:48:24.928Z</time>
      </trkpt>
      <trkpt lat="48.70757" lon="2.03083">
        <ele>110</ele>
        <time>2025-07-04T08:48:29.246Z</time>
      </trkpt>
      <trkpt lat="48.70761" lon="2.03079">
        <ele>110</ele>
        <time>2025-07-04T08:48:33.326Z</time>
      </trkpt>
      <trkpt lat="48.70764" lon="2.03073">
        <ele>109</ele>
        <time>2025-07-04T08:48:37.536Z</time>
      </trkpt>
      <trkpt lat="48.70767" lon="2.03068">
        <ele>112</ele>
        <time>2025-07-04T08:48:41.951Z</time>
      </trkpt>
      <trkpt lat="48.70769" lon="2.03062">
        <ele>112</ele>
        <time>2025-07-04T08:48:46.089Z</time>
      </trkpt>
      <trkpt lat="48.70772" lon="2.03056">
        <ele>112</ele>
        <time>2025-07-04T08:48:50.246Z</time>
      </trkpt>
      <trkpt lat="48.70774" lon="2.03049">
        <ele>112</ele>
        <time>2025-07-04T08:48:54.426Z</time>
      </trkpt>
      <trkpt lat="48.70776" lon="2.03042">
        <ele>116</ele>
        <time>2025-07-04T08:48:58.529Z</time>
      </trkpt>
      <trkpt lat="48.70779" lon="2.03034">
        <ele>116</ele>
        <time>2025-07-04T08:49:03.112Z</time>
      </trkpt>
      <trkpt lat="48.70781" lon="2.03025">
        <ele>116</ele>
        <time>2025-07-04T08:49:07.536Z</time>
      </trkpt>
      <trkpt lat="48.70783" lon="2.03017">
        <ele>116</ele>
        <time>2025-07-04T08:49:11.717Z</time>
      </trkpt>
      <trkpt lat="48.70785" lon="2.0301">
        <ele>120</ele>
        <time>2025-07-04T08:49:15.796Z</time>
      </trkpt>
      <trkpt lat="48.70786" lon="2.03003">
        <ele>120</ele>
        <time>2025-07-04T08:49:19.874Z</time>
      </trkpt>
      <trkpt lat="48.70786" lon="2.02995">
        <ele>120</ele>
        <time>2025-07-04T08:49:24.115Z</time>
      </trkpt>
      <trkpt lat="48.70787" lon="2.02988">
        <ele>120</ele>
        <time>2025-07-04T08:49:28.536Z</time>
      </trkpt>
      <trkpt lat="48.7079" lon="2.02981">
        <ele>124</ele>
        <time>2025-07-04T08:49:32.675Z</time>
      </trkpt>
      <trkpt lat="48.70793" lon="2.02973">
        <ele>121</ele>
        <time>2025-07-04T08:49:37.212Z</time>
      </trkpt>
      <trkpt lat="48.70795" lon="2.02966">
        <ele>121</ele>
        <time>2025-07-04T08:49:41.350Z</time>
      </trkpt>
      <trkpt lat="48.70796" lon="2.0296">
        <ele>121</ele>
        <time>2025-07-04T08:49:45.371Z</time>
      </trkpt>
      <trkpt lat="48.70797" lon="2.02952">
        <ele>127</ele>
        <time>2025-07-04T08:49:49.517Z</time>
      </trkpt>
      <trkpt lat="48.70796" lon="2.02946">
        <ele>127</ele>
        <time>2025-07-04T08:49:53.697Z</time>
      </trkpt>
      <trkpt lat="48.70794" lon="2.02939">
        <ele>127</ele>
        <time>2025-07-04T08:49:57.810Z</time>
      </trkpt>
      <trkpt lat="48.70793" lon="2.02932">
        <ele>127</ele>
        <time>2025-07-04T08:50:01.931Z</time>
      </trkpt>
      <trkpt lat="48.70791" lon="2.02926">
        <ele>134</ele>
        <time>2025-07-04T08:50:06.159Z</time>
      </trkpt>
      <trkpt lat="48.70789" lon="2.0292">
        <ele>134</ele>
        <time>2025-07-04T08:50:10.337Z</time>
      </trkpt>
      <trkpt lat="48.70786" lon="2.02916">
        <ele>134</ele>
        <time>2025-07-04T08:50:14.849Z</time>
      </trkpt>
      <trkpt lat="48.70783" lon="2.0291">
        <ele>134</ele>
        <time>2025-07-04T08:50:19.012Z</time>
      </trkpt>
      <trkpt lat="48.70781" lon="2.02904">
        <ele>134</ele>
        <time>2025-07-04T08:50:23.177Z</time>
      </trkpt>
      <trkpt lat="48.7078" lon="2.02897">
        <ele>136</ele>
        <time>2025-07-04T08:50:27.256Z</time>
      </trkpt>
      <trkpt lat="48.70778" lon="2.0289">
        <ele>136</ele>
        <time>2025-07-04T08:50:31.393Z</time>
      </trkpt>
      <trkpt lat="48.70775" lon="2.02883">
        <ele>136</ele>
        <time>2025-07-04T08:50:35.976Z</time>
      </trkpt>
      <trkpt lat="48.70773" lon="2.02876">
        <ele>136</ele>
        <time>2025-07-04T08:50:40.516Z</time>
      </trkpt>
      <trkpt lat="48.70771" lon="2.0287">
        <ele>137</ele>
        <time>2025-07-04T08:50:45.053Z</time>
      </trkpt>
      <trkpt lat="48.70769" lon="2.02863">
        <ele>137</ele>
        <time>2025-07-04T08:50:49.536Z</time>
      </trkpt>
      <trkpt lat="48.70768" lon="2.02857">
        <ele>137</ele>
        <time>2025-07-04T08:50:53.714Z</time>
      </trkpt>
      <trkpt lat="48.70766" lon="2.02851">
        <ele>137</ele>
        <time>2025-07-04T08:50:58.134Z</time>
      </trkpt>
      <trkpt lat="48.70764" lon="2.02846">
        <ele>142</ele>
        <time>2025-07-04T08:51:02.316Z</time>
      </trkpt>
      <trkpt lat="48.70762" lon="2.0284">
        <ele>141</ele>
        <time>2025-07-04T08:51:06.536Z</time>
      </trkpt>
      <trkpt lat="48.70762" lon="2.02836">
        <ele>141</ele>
        <time>2025-07-04T08:51:10.693Z</time>
      </trkpt>
      <trkpt lat="48.70761" lon="2.0283">
        <ele>141</ele>
        <time>2025-07-04T08:51:14.909Z</time>
      </trkpt>
      <trkpt lat="48.7076" lon="2.02825">
        <ele>141</ele>
        <time>2025-07-04T08:51:19.030Z</time>
      </trkpt>
      <trkpt lat="48.70758" lon="2.0282">
        <ele>141</ele>
        <time>2025-07-04T08:51:23.075Z</time>
      </trkpt>
      <trkpt lat="48.70756" lon="2.02815">
        <ele>145</ele>
        <time>2025-07-04T08:51:27.197Z</time>
      </trkpt>
      <trkpt lat="48.70753" lon="2.02809">
        <ele>145</ele>
        <time>2025-07-04T08:51:31.393Z</time>
      </trkpt>
      <trkpt lat="48.70751" lon="2.02804">
        <ele>145</ele>
        <time>2025-07-04T08:51:35.536Z</time>
      </trkpt>
      <trkpt lat="48.7075" lon="2.02798">
        <ele>145</ele>
        <time>2025-07-04T08:51:39.876Z</time>
      </trkpt>
      <trkpt lat="48.70748" lon="2.02792">
        <ele>145</ele>
        <time>2025-07-04T08:51:44.131Z</time>
      </trkpt>
      <trkpt lat="48.70746" lon="2.02787">
        <ele>150</ele>
        <time>2025-07-04T08:51:48.330Z</time>
      </trkpt>
      <trkpt lat="48.70744" lon="2.02781">
        <ele>150</ele>
        <time>2025-07-04T08:51:52.392Z</time>
      </trkpt>
      <trkpt lat="48.70741" lon="2.02775">
        <ele>150</ele>
        <time>2025-07-04T08:51:56.470Z</time>
      </trkpt>
      <trkpt lat="48.70741" lon="2.02769">
        <ele>150</ele>
        <time>2025-07-04T08:52:00.633Z</time>
      </trkpt>
      <trkpt lat="48.70741" lon="2.02762">
        <ele>153</ele>
        <time>2025-07-04T08:52:04.831Z</time>
      </trkpt>
      <trkpt lat="48.70739" lon="2.02758">
        <ele>153</ele>
        <time>2025-07-04T08:52:08.911Z</time>
      </trkpt>
      <trkpt lat="48.70738" lon="2.0275">
        <ele>153</ele>
        <time>2025-07-04T08:52:13.091Z</time>
      </trkpt>
      <trkpt lat="48.70737" lon="2.02744">
        <ele>153</ele>
        <time>2025-07-04T08:52:17.153Z</time>
      </trkpt>
      <trkpt lat="48.70736" lon="2.02737">
        <ele>155</ele>
        <time>2025-07-04T08:52:21.376Z</time>
      </trkpt>
      <trkpt lat="48.70735" lon="2.02731">
        <ele>157</ele>
        <time>2025-07-04T08:52:25.472Z</time>
      </trkpt>
      <trkpt lat="48.70734" lon="2.02726">
        <ele>157</ele>
        <time>2025-07-04T08:52:29.536Z</time>
      </trkpt>
      <trkpt lat="48.70733" lon="2.0272">
        <ele>157</ele>
        <time>2025-07-04T08:52:33.894Z</time>
      </trkpt>
      <trkpt lat="48.70732" lon="2.02715">
        <ele>157</ele>
        <time>2025-07-04T08:52:38.075Z</time>
      </trkpt>
      <trkpt lat="48.7073" lon="2.02709">
        <ele>157</ele>
        <time>2025-07-04T08:52:42.153Z</time>
      </trkpt>
      <trkpt lat="48.70729" lon="2.02701">
        <ele>158</ele>
        <time>2025-07-04T08:52:46.536Z</time>
      </trkpt>
      <trkpt lat="48.70728" lon="2.02693">
        <ele>158</ele>
        <time>2025-07-04T08:52:51.215Z</time>
      </trkpt>
      <trkpt lat="48.70729" lon="2.02686">
        <ele>158</ele>
        <time>2025-07-04T08:52:55.536Z</time>
      </trkpt>
      <trkpt lat="48.7073" lon="2.02678">
        <ele>159</ele>
        <time>2025-07-04T08:53:00.292Z</time>
      </trkpt>
      <trkpt lat="48.70731" lon="2.02671">
        <ele>159</ele>
        <time>2025-07-04T08:53:04.415Z</time>
      </trkpt>
      <trkpt lat="48.70731" lon="2.02664">
        <ele>159</ele>
        <time>2025-07-04T08:53:08.492Z</time>
      </trkpt>
      <trkpt lat="48.70731" lon="2.02658">
        <ele>159</ele>
        <time>2025-07-04T08:53:12.929Z</time>
      </trkpt>
      <trkpt lat="48.7073" lon="2.02652">
        <ele>160</ele>
        <time>2025-07-04T08:53:17.093Z</time>
      </trkpt>
      <trkpt lat="48.70729" lon="2.02645">
        <ele>160</ele>
        <time>2025-07-04T08:53:21.536Z</time>
      </trkpt>
      <trkpt lat="48.70728" lon="2.02639">
        <ele>160</ele>
        <time>2025-07-04T08:53:25.830Z</time>
      </trkpt>
      <trkpt lat="48.70728" lon="2.02631">
        <ele>160</ele>
        <time>2025-07-04T08:53:30.370Z</time>
      </trkpt>
      <trkpt lat="48.70726" lon="2.02625">
        <ele>160</ele>
        <time>2025-07-04T08:53:34.536Z</time>
      </trkpt>
      <trkpt lat="48.70723" lon="2.0262">
        <ele>162</ele>
        <time>2025-07-04T08:53:39.176Z</time>
      </trkpt>
      <trkpt lat="48.70724" lon="2.02613">
        <ele>162</ele>
        <time>2025-07-04T08:53:43.595Z</time>
      </trkpt>
      <trkpt lat="48.70723" lon="2.02605">
        <ele>162</ele>
        <time>2025-07-04T08:53:48.536Z</time>
      </trkpt>
      <trkpt lat="48.70722" lon="2.02598">
        <ele>162</ele>
        <time>2025-07-04T08:53:53.150Z</time>
      </trkpt>
      <trkpt lat="48.70721" lon="2.0259">
        <ele>163</ele>
        <time>2025-07-04T08:53:57.374Z</time>
      </trkpt>
      <trkpt lat="48.70721" lon="2.02584">
        <ele>163</ele>
        <time>2025-07-04T08:54:01.536Z</time>
      </trkpt>
      <trkpt lat="48.7072" lon="2.02577">
        <ele>163</ele>
        <time>2025-07-04T08:54:05.830Z</time>
      </trkpt>
      <trkpt lat="48.70718" lon="2.0257">
        <ele>163</ele>
        <time>2025-07-04T08:54:09.933Z</time>
      </trkpt>
      <trkpt lat="48.70718" lon="2.02562">
        <ele>164</ele>
        <time>2025-07-04T08:54:14.217Z</time>
      </trkpt>
      <trkpt lat="48.70716" lon="2.02556">
        <ele>164</ele>
        <time>2025-07-04T08:54:18.449Z</time>
      </trkpt>
      <trkpt lat="48.70713" lon="2.02549">
        <ele>164</ele>
        <time>2025-07-04T08:54:22.536Z</time>
      </trkpt>
      <trkpt lat="48.70711" lon="2.02542">
        <ele>164</ele>
        <time>2025-07-04T08:54:26.854Z</time>
      </trkpt>
      <trkpt lat="48.70709" lon="2.02535">
        <ele>165</ele>
        <time>2025-07-04T08:54:31.009Z</time>
      </trkpt>
      <trkpt lat="48.70707" lon="2.02528">
        <ele>167</ele>
        <time>2025-07-04T08:54:35.536Z</time>
      </trkpt>
      <trkpt lat="48.70705" lon="2.0252">
        <ele>167</ele>
        <time>2025-07-04T08:54:39.729Z</time>
      </trkpt>
      <trkpt lat="48.70703" lon="2.02513">
        <ele>167</ele>
        <time>2025-07-04T08:54:43.801Z</time>
      </trkpt>
      <trkpt lat="48.707" lon="2.02505">
        <ele>167</ele>
        <time>2025-07-04T08:54:48.356Z</time>
      </trkpt>
      <trkpt lat="48.70698" lon="2.02497">
        <ele>167</ele>
        <time>2025-07-04T08:54:52.911Z</time>
      </trkpt>
      <trkpt lat="48.70696" lon="2.02489">
        <ele>167</ele>
        <time>2025-07-04T08:54:57.452Z</time>
      </trkpt>
      <trkpt lat="48.70694" lon="2.0248">
        <ele>166</ele>
        <time>2025-07-04T08:55:01.990Z</time>
      </trkpt>
      <trkpt lat="48.70692" lon="2.02474">
        <ele>166</ele>
        <time>2025-07-04T08:55:06.034Z</time>
      </trkpt>
      <trkpt lat="48.7069" lon="2.02466">
        <ele>166</ele>
        <time>2025-07-04T08:55:10.096Z</time>
      </trkpt>
      <trkpt lat="48.70688" lon="2.02459">
        <ele>166</ele>
        <time>2025-07-04T08:55:14.158Z</time>
      </trkpt>
      <trkpt lat="48.70687" lon="2.02451">
        <ele>166</ele>
        <time>2025-07-04T08:55:18.253Z</time>
      </trkpt>
      <trkpt lat="48.70687" lon="2.02442">
        <ele>166</ele>
        <time>2025-07-04T08:55:22.893Z</time>
      </trkpt>
      <trkpt lat="48.70688" lon="2.02434">
        <ele>166</ele>
        <time>2025-07-04T08:55:26.989Z</time>
      </trkpt>
      <trkpt lat="48.7069" lon="2.02425">
        <ele>166</ele>
        <time>2025-07-04T08:55:31.496Z</time>
      </trkpt>
      <trkpt lat="48.70691" lon="2.02417">
        <ele>166</ele>
        <time>2025-07-04T08:55:35.974Z</time>
      </trkpt>
      <trkpt lat="48.70691" lon="2.02409">
        <ele>166</ele>
        <time>2025-07-04T08:55:40.455Z</time>
      </trkpt>
      <trkpt lat="48.70692" lon="2.024">
        <ele>165</ele>
        <time>2025-07-04T08:55:44.873Z</time>
      </trkpt>
      <trkpt lat="48.70692" lon="2.02391">
        <ele>165</ele>
        <time>2025-07-04T08:55:49.414Z</time>
      </trkpt>
      <trkpt lat="48.70692" lon="2.02382">
        <ele>165</ele>
        <time>2025-07-04T08:55:53.936Z</time>
      </trkpt>
      <trkpt lat="48.70692" lon="2.02373">
        <ele>165</ele>
        <time>2025-07-04T08:55:58.457Z</time>
      </trkpt>
      <trkpt lat="48.70692" lon="2.02365">
        <ele>165</ele>
        <time>2025-07-04T08:56:02.970Z</time>
      </trkpt>
      <trkpt lat="48.70692" lon="2.02357">
        <ele>165</ele>
        <time>2025-07-04T08:56:06.989Z</time>
      </trkpt>
      <trkpt lat="48.70694" lon="2.02348">
        <ele>165</ele>
        <time>2025-07-04T08:56:11.479Z</time>
      </trkpt>
      <trkpt lat="48.70694" lon="2.0234">
        <ele>164</ele>
        <time>2025-07-04T08:56:15.913Z</time>
      </trkpt>
      <trkpt lat="48.70695" lon="2.02331">
        <ele>164</ele>
        <time>2025-07-04T08:56:20.377Z</time>
      </trkpt>
      <trkpt lat="48.70695" lon="2.02324">
        <ele>164</ele>
        <time>2025-07-04T08:56:24.397Z</time>
      </trkpt>
      <trkpt lat="48.70696" lon="2.02315">
        <ele>165</ele>
        <time>2025-07-04T08:56:28.816Z</time>
      </trkpt>
      <trkpt lat="48.70697" lon="2.02306">
        <ele>165</ele>
        <time>2025-07-04T08:56:33.277Z</time>
      </trkpt>
      <trkpt lat="48.70699" lon="2.02297">
        <ele>165</ele>
        <time>2025-07-04T08:56:37.784Z</time>
      </trkpt>
      <trkpt lat="48.707" lon="2.02289">
        <ele>166</ele>
        <time>2025-07-04T08:56:42.253Z</time>
      </trkpt>
      <trkpt lat="48.70701" lon="2.0228">
        <ele>166</ele>
        <time>2025-07-04T08:56:46.689Z</time>
      </trkpt>
      <trkpt lat="48.70702" lon="2.02271">
        <ele>166</ele>
        <time>2025-07-04T08:56:51.197Z</time>
      </trkpt>
      <trkpt lat="48.70703" lon="2.02262">
        <ele>167</ele>
        <time>2025-07-04T08:56:55.676Z</time>
      </trkpt>
      <trkpt lat="48.70704" lon="2.02255">
        <ele>167</ele>
        <time>2025-07-04T08:56:59.726Z</time>
      </trkpt>
      <trkpt lat="48.70706" lon="2.02246">
        <ele>167</ele>
        <time>2025-07-04T08:57:04.174Z</time>
      </trkpt>
      <trkpt lat="48.70708" lon="2.02238">
        <ele>167</ele>
        <time>2025-07-04T08:57:08.536Z</time>
      </trkpt>
      <trkpt lat="48.70709" lon="2.0223">
        <ele>168</ele>
        <time>2025-07-04T08:57:13.071Z</time>
      </trkpt>
      <trkpt lat="48.7071" lon="2.02221">
        <ele>168</ele>
        <time>2025-07-04T08:57:17.509Z</time>
      </trkpt>
      <trkpt lat="48.70711" lon="2.02211">
        <ele>168</ele>
        <time>2025-07-04T08:57:21.894Z</time>
      </trkpt>
      <trkpt lat="48.70712" lon="2.02202">
        <ele>169</ele>
        <time>2025-07-04T08:57:26.152Z</time>
      </trkpt>
      <trkpt lat="48.70713" lon="2.02193">
        <ele>169</ele>
        <time>2025-07-04T08:57:30.332Z</time>
      </trkpt>
      <trkpt lat="48.70713" lon="2.02184">
        <ele>169</ele>
        <time>2025-07-04T08:57:34.536Z</time>
      </trkpt>
      <trkpt lat="48.70713" lon="2.02174">
        <ele>170</ele>
        <time>2025-07-04T08:57:38.754Z</time>
      </trkpt>
      <trkpt lat="48.70712" lon="2.02166">
        <ele>170</ele>
        <time>2025-07-04T08:57:42.849Z</time>
      </trkpt>
      <trkpt lat="48.70712" lon="2.02156">
        <ele>170</ele>
        <time>2025-07-04T08:57:47.090Z</time>
      </trkpt>
      <trkpt lat="48.70711" lon="2.02147">
        <ele>170</ele>
        <time>2025-07-04T08:57:51.271Z</time>
      </trkpt>
      <trkpt lat="48.70711" lon="2.02138">
        <ele>170</ele>
        <time>2025-07-04T08:57:55.392Z</time>
      </trkpt>
      <trkpt lat="48.7071" lon="2.02128">
        <ele>170</ele>
        <time>2025-07-04T08:57:59.536Z</time>
      </trkpt>
      <trkpt lat="48.70711" lon="2.02118">
        <ele>169</ele>
        <time>2025-07-04T08:58:03.693Z</time>
      </trkpt>
      <trkpt lat="48.70711" lon="2.02111">
        <ele>169</ele>
        <time>2025-07-04T08:58:07.886Z</time>
      </trkpt>
      <trkpt lat="48.70708" lon="2.02101">
        <ele>171</ele>
        <time>2025-07-04T08:58:12.229Z</time>
      </trkpt>
      <trkpt lat="48.70708" lon="2.02097">
        <ele>171</ele>
        <time>2025-07-04T08:58:14.923Z</time>
      </trkpt>
      <trkpt lat="48.70705" lon="2.02078">
        <ele>171</ele>
        <time>2025-07-04T08:58:24.250Z</time>
      </trkpt>
      <trkpt lat="48.70706" lon="2.02069">
        <ele>170</ele>
        <time>2025-07-04T08:58:28.465Z</time>
      </trkpt>
      <trkpt lat="48.70706" lon="2.02061">
        <ele>170</ele>
        <time>2025-07-04T08:58:32.535Z</time>
      </trkpt>
      <trkpt lat="48.70706" lon="2.02052">
        <ele>170</ele>
        <time>2025-07-04T08:58:36.925Z</time>
      </trkpt>
      <trkpt lat="48.70704" lon="2.02043">
        <ele>170</ele>
        <time>2025-07-04T08:58:41.012Z</time>
      </trkpt>
      <trkpt lat="48.70704" lon="2.02035">
        <ele>167</ele>
        <time>2025-07-04T08:58:45.409Z</time>
      </trkpt>
      <trkpt lat="48.70704" lon="2.02026">
        <ele>167</ele>
        <time>2025-07-04T08:58:49.739Z</time>
      </trkpt>
      <trkpt lat="48.70703" lon="2.02017">
        <ele>167</ele>
        <time>2025-07-04T08:58:54.291Z</time>
      </trkpt>
      <trkpt lat="48.70702" lon="2.02009">
        <ele>165</ele>
        <time>2025-07-04T08:58:58.486Z</time>
      </trkpt>
      <trkpt lat="48.70702" lon="2.02">
        <ele>165</ele>
        <time>2025-07-04T08:59:02.806Z</time>
      </trkpt>
      <trkpt lat="48.70702" lon="2.0199">
        <ele>165</ele>
        <time>2025-07-04T08:59:07.170Z</time>
      </trkpt>
      <trkpt lat="48.70702" lon="2.01982">
        <ele>164</ele>
        <time>2025-07-04T08:59:11.351Z</time>
      </trkpt>
      <trkpt lat="48.70702" lon="2.01973">
        <ele>164</ele>
        <time>2025-07-04T08:59:15.536Z</time>
      </trkpt>
      <trkpt lat="48.70702" lon="2.01963">
        <ele>164</ele>
        <time>2025-07-04T08:59:19.931Z</time>
      </trkpt>
      <trkpt lat="48.70703" lon="2.01955">
        <ele>163</ele>
        <time>2025-07-04T08:59:24.142Z</time>
      </trkpt>
      <trkpt lat="48.70706" lon="2.01949">
        <ele>163</ele>
        <time>2025-07-04T08:59:28.469Z</time>
      </trkpt>
      <trkpt lat="48.70705" lon="2.01941">
        <ele>163</ele>
        <time>2025-07-04T08:59:32.533Z</time>
      </trkpt>
      <trkpt lat="48.70704" lon="2.01933">
        <ele>163</ele>
        <time>2025-07-04T08:59:37.068Z</time>
      </trkpt>
      <trkpt lat="48.70705" lon="2.01923">
        <ele>162</ele>
        <time>2025-07-04T08:59:41.535Z</time>
      </trkpt>
      <trkpt lat="48.70707" lon="2.01913">
        <ele>162</ele>
        <time>2025-07-04T08:59:46.083Z</time>
      </trkpt>
      <trkpt lat="48.70711" lon="2.01903">
        <ele>163</ele>
        <time>2025-07-04T08:59:50.528Z</time>
      </trkpt>
      <trkpt lat="48.70713" lon="2.01895">
        <ele>164</ele>
        <time>2025-07-04T08:59:54.766Z</time>
      </trkpt>
      <trkpt lat="48.70715" lon="2.01886">
        <ele>164</ele>
        <time>2025-07-04T08:59:59.213Z</time>
      </trkpt>
      <trkpt lat="48.70716" lon="2.01878">
        <ele>164</ele>
        <time>2025-07-04T09:00:03.322Z</time>
      </trkpt>
      <trkpt lat="48.70718" lon="2.01869">
        <ele>165</ele>
        <time>2025-07-04T09:00:07.665Z</time>
      </trkpt>
      <trkpt lat="48.7072" lon="2.0186">
        <ele>165</ele>
        <time>2025-07-04T09:00:12.189Z</time>
      </trkpt>
      <trkpt lat="48.70722" lon="2.01851">
        <ele>165</ele>
        <time>2025-07-04T09:00:16.370Z</time>
      </trkpt>
      <trkpt lat="48.70724" lon="2.01843">
        <ele>166</ele>
        <time>2025-07-04T09:00:20.825Z</time>
      </trkpt>
      <trkpt lat="48.70726" lon="2.01834">
        <ele>166</ele>
        <time>2025-07-04T09:00:25.262Z</time>
      </trkpt>
      <trkpt lat="48.70728" lon="2.01825">
        <ele>166</ele>
        <time>2025-07-04T09:00:29.989Z</time>
      </trkpt>
      <trkpt lat="48.7073" lon="2.01817">
        <ele>168</ele>
        <time>2025-07-04T09:00:34.306Z</time>
      </trkpt>
      <trkpt lat="48.70732" lon="2.01808">
        <ele>168</ele>
        <time>2025-07-04T09:00:38.907Z</time>
      </trkpt>
      <trkpt lat="48.70734" lon="2.018">
        <ele>168</ele>
        <time>2025-07-04T09:00:43.429Z</time>
      </trkpt>
      <trkpt lat="48.70735" lon="2.01792">
        <ele>168</ele>
        <time>2025-07-04T09:00:47.849Z</time>
      </trkpt>
      <trkpt lat="48.70737" lon="2.01784">
        <ele>167</ele>
        <time>2025-07-04T09:00:52.263Z</time>
      </trkpt>
      <trkpt lat="48.70738" lon="2.01776">
        <ele>167</ele>
        <time>2025-07-04T09:00:56.827Z</time>
      </trkpt>
      <trkpt lat="48.7074" lon="2.01768">
        <ele>167</ele>
        <time>2025-07-04T09:01:01.009Z</time>
      </trkpt>
      <trkpt lat="48.7074" lon="2.01762">
        <ele>167</ele>
        <time>2025-07-04T09:01:05.104Z</time>
      </trkpt>
      <trkpt lat="48.7074" lon="2.01756">
        <ele>167</ele>
        <time>2025-07-04T09:01:09.285Z</time>
      </trkpt>
      <trkpt lat="48.7074" lon="2.0175">
        <ele>167</ele>
        <time>2025-07-04T09:01:13.536Z</time>
      </trkpt>
      <trkpt lat="48.70736" lon="2.01752">
        <ele>167</ele>
        <time>2025-07-04T09:01:37.536Z</time>
      </trkpt>
      <trkpt lat="48.70738" lon="2.01748">
        <ele>167</ele>
        <time>2025-07-04T09:01:42.186Z</time>
      </trkpt>
      <trkpt lat="48.7074" lon="2.01741">
        <ele>167</ele>
        <time>2025-07-04T09:01:46.247Z</time>
      </trkpt>
      <trkpt lat="48.70741" lon="2.01733">
        <ele>168</ele>
        <time>2025-07-04T09:01:50.745Z</time>
      </trkpt>
      <trkpt lat="48.70743" lon="2.01725">
        <ele>168</ele>
        <time>2025-07-04T09:01:55.250Z</time>
      </trkpt>
      <trkpt lat="48.70746" lon="2.01718">
        <ele>168</ele>
        <time>2025-07-04T09:01:59.536Z</time>
      </trkpt>
      <trkpt lat="48.70748" lon="2.01709">
        <ele>168</ele>
        <time>2025-07-04T09:02:03.945Z</time>
      </trkpt>
      <trkpt lat="48.7075" lon="2.01701">
        <ele>170</ele>
        <time>2025-07-04T09:02:08.324Z</time>
      </trkpt>
      <trkpt lat="48.70752" lon="2.01693">
        <ele>170</ele>
        <time>2025-07-04T09:02:12.725Z</time>
      </trkpt>
      <trkpt lat="48.70755" lon="2.01685">
        <ele>170</ele>
        <time>2025-07-04T09:02:17.148Z</time>
      </trkpt>
      <trkpt lat="48.70757" lon="2.01678">
        <ele>173</ele>
        <time>2025-07-04T09:02:21.685Z</time>
      </trkpt>
      <trkpt lat="48.7076" lon="2.01669">
        <ele>173</ele>
        <time>2025-07-04T09:02:26.285Z</time>
      </trkpt>
      <trkpt lat="48.70762" lon="2.01662">
        <ele>173</ele>
        <time>2025-07-04T09:02:30.287Z</time>
      </trkpt>
      <trkpt lat="48.70763" lon="2.01655">
        <ele>173</ele>
        <time>2025-07-04T09:02:34.354Z</time>
      </trkpt>
      <trkpt lat="48.70765" lon="2.01647">
        <ele>175</ele>
        <time>2025-07-04T09:02:38.948Z</time>
      </trkpt>
      <trkpt lat="48.70766" lon="2.0164">
        <ele>175</ele>
        <time>2025-07-04T09:02:42.985Z</time>
      </trkpt>
      <trkpt lat="48.70768" lon="2.01633">
        <ele>175</ele>
        <time>2025-07-04T09:02:47.536Z</time>
      </trkpt>
      <trkpt lat="48.7077" lon="2.01626">
        <ele>175</ele>
        <time>2025-07-04T09:02:51.688Z</time>
      </trkpt>
      <trkpt lat="48.70772" lon="2.01618">
        <ele>175</ele>
        <time>2025-07-04T09:02:56.185Z</time>
      </trkpt>
      <trkpt lat="48.70775" lon="2.0161">
        <ele>175</ele>
        <time>2025-07-04T09:03:00.536Z</time>
      </trkpt>
      <trkpt lat="48.70776" lon="2.01601">
        <ele>175</ele>
        <time>2025-07-04T09:03:05.042Z</time>
      </trkpt>
      <trkpt lat="48.70778" lon="2.01593">
        <ele>175</ele>
        <time>2025-07-04T09:03:09.506Z</time>
      </trkpt>
      <trkpt lat="48.70779" lon="2.01585">
        <ele>175</ele>
        <time>2025-07-04T09:03:14.044Z</time>
      </trkpt>
      <trkpt lat="48.7078" lon="2.01578">
        <ele>175</ele>
        <time>2025-07-04T09:03:18.064Z</time>
      </trkpt>
      <trkpt lat="48.70782" lon="2.01569">
        <ele>176</ele>
        <time>2025-07-04T09:03:22.449Z</time>
      </trkpt>
      <trkpt lat="48.70785" lon="2.01561">
        <ele>176</ele>
        <time>2025-07-04T09:03:26.903Z</time>
      </trkpt>
      <trkpt lat="48.70788" lon="2.01553">
        <ele>176</ele>
        <time>2025-07-04T09:03:31.323Z</time>
      </trkpt>
      <trkpt lat="48.7079" lon="2.01546">
        <ele>176</ele>
        <time>2025-07-04T09:03:35.650Z</time>
      </trkpt>
      <trkpt lat="48.70793" lon="2.01538">
        <ele>176</ele>
        <time>2025-07-04T09:03:40.147Z</time>
      </trkpt>
      <trkpt lat="48.70795" lon="2.01529">
        <ele>176</ele>
        <time>2025-07-04T09:03:44.507Z</time>
      </trkpt>
      <trkpt lat="48.70797" lon="2.01522">
        <ele>176</ele>
        <time>2025-07-04T09:03:48.536Z</time>
      </trkpt>
      <trkpt lat="48.70799" lon="2.01514">
        <ele>176</ele>
        <time>2025-07-04T09:03:52.928Z</time>
      </trkpt>
      <trkpt lat="48.70802" lon="2.01507">
        <ele>175</ele>
        <time>2025-07-04T09:03:57.307Z</time>
      </trkpt>
      <trkpt lat="48.70803" lon="2.01499">
        <ele>175</ele>
        <time>2025-07-04T09:04:01.863Z</time>
      </trkpt>
      <trkpt lat="48.70804" lon="2.01491">
        <ele>175</ele>
        <time>2025-07-04T09:04:06.309Z</time>
      </trkpt>
      <trkpt lat="48.70805" lon="2.01483">
        <ele>174</ele>
        <time>2025-07-04T09:04:10.669Z</time>
      </trkpt>
      <trkpt lat="48.70806" lon="2.01474">
        <ele>174</ele>
        <time>2025-07-04T09:04:15.029Z</time>
      </trkpt>
      <trkpt lat="48.70808" lon="2.01466">
        <ele>174</ele>
        <time>2025-07-04T09:04:19.390Z</time>
      </trkpt>
      <trkpt lat="48.7081" lon="2.01457">
        <ele>174</ele>
        <time>2025-07-04T09:04:23.869Z</time>
      </trkpt>
      <trkpt lat="48.70812" lon="2.01448">
        <ele>174</ele>
        <time>2025-07-04T09:04:28.349Z</time>
      </trkpt>
      <trkpt lat="48.70814" lon="2.0144">
        <ele>174</ele>
        <time>2025-07-04T09:04:32.888Z</time>
      </trkpt>
      <trkpt lat="48.70815" lon="2.01432">
        <ele>174</ele>
        <time>2025-07-04T09:04:37.386Z</time>
      </trkpt>
      <trkpt lat="48.70816" lon="2.01422">
        <ele>173</ele>
        <time>2025-07-04T09:04:41.805Z</time>
      </trkpt>
      <trkpt lat="48.70818" lon="2.01413">
        <ele>173</ele>
        <time>2025-07-04T09:04:46.285Z</time>
      </trkpt>
      <trkpt lat="48.70819" lon="2.01405">
        <ele>173</ele>
        <time>2025-07-04T09:04:50.825Z</time>
      </trkpt>
      <trkpt lat="48.7082" lon="2.01397">
        <ele>169</ele>
        <time>2025-07-04T09:04:55.306Z</time>
      </trkpt>
      <trkpt lat="48.70821" lon="2.01388">
        <ele>169</ele>
        <time>2025-07-04T09:04:59.707Z</time>
      </trkpt>
      <trkpt lat="48.70821" lon="2.01379">
        <ele>169</ele>
        <time>2025-07-04T09:05:04.246Z</time>
      </trkpt>
      <trkpt lat="48.70823" lon="2.01371">
        <ele>169</ele>
        <time>2025-07-04T09:05:08.683Z</time>
      </trkpt>
      <trkpt lat="48.70825" lon="2.01363">
        <ele>169</ele>
        <time>2025-07-04T09:05:13.250Z</time>
      </trkpt>
      <trkpt lat="48.70826" lon="2.01356">
        <ele>169</ele>
        <time>2025-07-04T09:05:17.284Z</time>
      </trkpt>
      <trkpt lat="48.70828" lon="2.01348">
        <ele>169</ele>
        <time>2025-07-04T09:05:21.536Z</time>
      </trkpt>
      <trkpt lat="48.7083" lon="2.01339">
        <ele>170</ele>
        <time>2025-07-04T09:05:26.108Z</time>
      </trkpt>
      <trkpt lat="48.70833" lon="2.01332">
        <ele>170</ele>
        <time>2025-07-04T09:05:30.536Z</time>
      </trkpt>
      <trkpt lat="48.70836" lon="2.01324">
        <ele>170</ele>
        <time>2025-07-04T09:05:35.103Z</time>
      </trkpt>
      <trkpt lat="48.70838" lon="2.01316">
        <ele>170</ele>
        <time>2025-07-04T09:05:39.536Z</time>
      </trkpt>
      <trkpt lat="48.70841" lon="2.01308">
        <ele>170</ele>
        <time>2025-07-04T09:05:44.088Z</time>
      </trkpt>
      <trkpt lat="48.70843" lon="2.013">
        <ele>170</ele>
        <time>2025-07-04T09:05:48.534Z</time>
      </trkpt>
      <trkpt lat="48.70845" lon="2.01291">
        <ele>171</ele>
        <time>2025-07-04T09:05:53.089Z</time>
      </trkpt>
      <trkpt lat="48.70846" lon="2.01282">
        <ele>171</ele>
        <time>2025-07-04T09:05:57.535Z</time>
      </trkpt>
      <trkpt lat="48.70847" lon="2.01274">
        <ele>171</ele>
        <time>2025-07-04T09:06:02.125Z</time>
      </trkpt>
      <trkpt lat="48.70849" lon="2.01265">
        <ele>168</ele>
        <time>2025-07-04T09:06:06.536Z</time>
      </trkpt>
      <trkpt lat="48.70852" lon="2.01258">
        <ele>170</ele>
        <time>2025-07-04T09:06:11.103Z</time>
      </trkpt>
      <trkpt lat="48.70854" lon="2.01249">
        <ele>170</ele>
        <time>2025-07-04T09:06:15.536Z</time>
      </trkpt>
      <trkpt lat="48.70857" lon="2.01242">
        <ele>170</ele>
        <time>2025-07-04T09:06:19.925Z</time>
      </trkpt>
      <trkpt lat="48.7086" lon="2.01234">
        <ele>172</ele>
        <time>2025-07-04T09:06:24.362Z</time>
      </trkpt>
      <trkpt lat="48.70862" lon="2.01225">
        <ele>172</ele>
        <time>2025-07-04T09:06:29.363Z</time>
      </trkpt>
      <trkpt lat="48.70864" lon="2.01217">
        <ele>172</ele>
        <time>2025-07-04T09:06:33.868Z</time>
      </trkpt>
      <trkpt lat="48.70866" lon="2.01209">
        <ele>172</ele>
        <time>2025-07-04T09:06:38.305Z</time>
      </trkpt>
      <trkpt lat="48.70868" lon="2.012">
        <ele>173</ele>
        <time>2025-07-04T09:06:42.929Z</time>
      </trkpt>
      <trkpt lat="48.7087" lon="2.01192">
        <ele>173</ele>
        <time>2025-07-04T09:06:47.247Z</time>
      </trkpt>
      <trkpt lat="48.70872" lon="2.01183">
        <ele>173</ele>
        <time>2025-07-04T09:06:51.669Z</time>
      </trkpt>
      <trkpt lat="48.70874" lon="2.01175">
        <ele>175</ele>
        <time>2025-07-04T09:06:56.028Z</time>
      </trkpt>
      <trkpt lat="48.70877" lon="2.01167">
        <ele>174</ele>
        <time>2025-07-04T09:07:00.482Z</time>
      </trkpt>
      <trkpt lat="48.7088" lon="2.01159">
        <ele>174</ele>
        <time>2025-07-04T09:07:04.843Z</time>
      </trkpt>
      <trkpt lat="48.70882" lon="2.01151">
        <ele>175</ele>
        <time>2025-07-04T09:07:09.364Z</time>
      </trkpt>
      <trkpt lat="48.70885" lon="2.01142">
        <ele>175</ele>
        <time>2025-07-04T09:07:13.895Z</time>
      </trkpt>
      <trkpt lat="48.70887" lon="2.01134">
        <ele>175</ele>
        <time>2025-07-04T09:07:18.366Z</time>
      </trkpt>
      <trkpt lat="48.70889" lon="2.01126">
        <ele>175</ele>
        <time>2025-07-04T09:07:22.864Z</time>
      </trkpt>
      <trkpt lat="48.70891" lon="2.01117">
        <ele>176</ele>
        <time>2025-07-04T09:07:27.535Z</time>
      </trkpt>
      <trkpt lat="48.70894" lon="2.01109">
        <ele>176</ele>
        <time>2025-07-04T09:07:31.746Z</time>
      </trkpt>
      <trkpt lat="48.70897" lon="2.01101">
        <ele>176</ele>
        <time>2025-07-04T09:07:36.211Z</time>
      </trkpt>
      <trkpt lat="48.70898" lon="2.01093">
        <ele>176</ele>
        <time>2025-07-04T09:07:40.785Z</time>
      </trkpt>
      <trkpt lat="48.70901" lon="2.01085">
        <ele>176</ele>
        <time>2025-07-04T09:07:45.245Z</time>
      </trkpt>
      <trkpt lat="48.70901" lon="2.01078">
        <ele>176</ele>
        <time>2025-07-04T09:07:49.727Z</time>
      </trkpt>
      <trkpt lat="48.70903" lon="2.01072">
        <ele>175</ele>
        <time>2025-07-04T09:07:54.103Z</time>
      </trkpt>
      <trkpt lat="48.70905" lon="2.01066">
        <ele>175</ele>
        <time>2025-07-04T09:07:58.248Z</time>
      </trkpt>
      <trkpt lat="48.70907" lon="2.01059">
        <ele>175</ele>
        <time>2025-07-04T09:08:02.535Z</time>
      </trkpt>
      <trkpt lat="48.70909" lon="2.01052">
        <ele>175</ele>
        <time>2025-07-04T09:08:06.910Z</time>
      </trkpt>
      <trkpt lat="48.7091" lon="2.01044">
        <ele>175</ele>
        <time>2025-07-04T09:08:11.185Z</time>
      </trkpt>
      <trkpt lat="48.70912" lon="2.01035">
        <ele>176</ele>
        <time>2025-07-04T09:08:15.665Z</time>
      </trkpt>
      <trkpt lat="48.70915" lon="2.01028">
        <ele>176</ele>
        <time>2025-07-04T09:08:20.007Z</time>
      </trkpt>
      <trkpt lat="48.70917" lon="2.0102">
        <ele>176</ele>
        <time>2025-07-04T09:08:24.487Z</time>
      </trkpt>
      <trkpt lat="48.7092" lon="2.01012">
        <ele>177</ele>
        <time>2025-07-04T09:08:28.788Z</time>
      </trkpt>
      <trkpt lat="48.70923" lon="2.01005">
        <ele>177</ele>
        <time>2025-07-04T09:08:33.208Z</time>
      </trkpt>
      <trkpt lat="48.70925" lon="2.00996">
        <ele>177</ele>
        <time>2025-07-04T09:08:37.536Z</time>
      </trkpt>
      <trkpt lat="48.70927" lon="2.00988">
        <ele>177</ele>
        <time>2025-07-04T09:08:41.604Z</time>
      </trkpt>
      <trkpt lat="48.70929" lon="2.0098">
        <ele>177</ele>
        <time>2025-07-04T09:08:46.049Z</time>
      </trkpt>
      <trkpt lat="48.70931" lon="2.00971">
        <ele>176</ele>
        <time>2025-07-04T09:08:50.486Z</time>
      </trkpt>
      <trkpt lat="48.70933" lon="2.00963">
        <ele>176</ele>
        <time>2025-07-04T09:08:54.829Z</time>
      </trkpt>
      <trkpt lat="48.70934" lon="2.00954">
        <ele>176</ele>
        <time>2025-07-04T09:08:59.150Z</time>
      </trkpt>
      <trkpt lat="48.70936" lon="2.00946">
        <ele>176</ele>
        <time>2025-07-04T09:09:03.670Z</time>
      </trkpt>
      <trkpt lat="48.70939" lon="2.00937">
        <ele>176</ele>
        <time>2025-07-04T09:09:08.536Z</time>
      </trkpt>
      <trkpt lat="48.7094" lon="2.00928">
        <ele>175</ele>
        <time>2025-07-04T09:09:13.227Z</time>
      </trkpt>
      <trkpt lat="48.70943" lon="2.0092">
        <ele>175</ele>
        <time>2025-07-04T09:09:17.723Z</time>
      </trkpt>
      <trkpt lat="48.70944" lon="2.00912">
        <ele>175</ele>
        <time>2025-07-04T09:09:22.228Z</time>
      </trkpt>
      <trkpt lat="48.70945" lon="2.00905">
        <ele>175</ele>
        <time>2025-07-04T09:09:26.247Z</time>
      </trkpt>
      <trkpt lat="48.70947" lon="2.00898">
        <ele>175</ele>
        <time>2025-07-04T09:09:30.536Z</time>
      </trkpt>
      <trkpt lat="48.70949" lon="2.00891">
        <ele>175</ele>
        <time>2025-07-04T09:09:34.643Z</time>
      </trkpt>
      <trkpt lat="48.70951" lon="2.00882">
        <ele>175</ele>
        <time>2025-07-04T09:09:39.064Z</time>
      </trkpt>
      <trkpt lat="48.70955" lon="2.00874">
        <ele>174</ele>
        <time>2025-07-04T09:09:43.509Z</time>
      </trkpt>
      <trkpt lat="48.70958" lon="2.00866">
        <ele>174</ele>
        <time>2025-07-04T09:09:47.994Z</time>
      </trkpt>
      <trkpt lat="48.7096" lon="2.00858">
        <ele>173</ele>
        <time>2025-07-04T09:09:52.507Z</time>
      </trkpt>
      <trkpt lat="48.70962" lon="2.0085">
        <ele>173</ele>
        <time>2025-07-04T09:09:56.927Z</time>
      </trkpt>
      <trkpt lat="48.70965" lon="2.00842">
        <ele>172</ele>
        <time>2025-07-04T09:10:01.449Z</time>
      </trkpt>
      <trkpt lat="48.70967" lon="2.00833">
        <ele>172</ele>
        <time>2025-07-04T09:10:05.854Z</time>
      </trkpt>
      <trkpt lat="48.70968" lon="2.00826">
        <ele>172</ele>
        <time>2025-07-04T09:10:10.273Z</time>
      </trkpt>
      <trkpt lat="48.7097" lon="2.00818">
        <ele>172</ele>
        <time>2025-07-04T09:10:14.794Z</time>
      </trkpt>
      <trkpt lat="48.70972" lon="2.0081">
        <ele>172</ele>
        <time>2025-07-04T09:10:19.248Z</time>
      </trkpt>
      <trkpt lat="48.70973" lon="2.00803">
        <ele>172</ele>
        <time>2025-07-04T09:10:23.267Z</time>
      </trkpt>
      <trkpt lat="48.70976" lon="2.00795">
        <ele>172</ele>
        <time>2025-07-04T09:10:27.791Z</time>
      </trkpt>
      <trkpt lat="48.70978" lon="2.00787">
        <ele>172</ele>
        <time>2025-07-04T09:10:32.450Z</time>
      </trkpt>
      <trkpt lat="48.7098" lon="2.00779">
        <ele>172</ele>
        <time>2025-07-04T09:10:36.853Z</time>
      </trkpt>
      <trkpt lat="48.70982" lon="2.00772">
        <ele>172</ele>
        <time>2025-07-04T09:10:40.930Z</time>
      </trkpt>
      <trkpt lat="48.70986" lon="2.00763">
        <ele>173</ele>
        <time>2025-07-04T09:10:45.350Z</time>
      </trkpt>
      <trkpt lat="48.70989" lon="2.00755">
        <ele>170</ele>
        <time>2025-07-04T09:10:49.368Z</time>
      </trkpt>
      <trkpt lat="48.70991" lon="2.00745">
        <ele>170</ele>
        <time>2025-07-04T09:10:53.908Z</time>
      </trkpt>
      <trkpt lat="48.70994" lon="2.00737">
        <ele>170</ele>
        <time>2025-07-04T09:10:58.388Z</time>
      </trkpt>
      <trkpt lat="48.71" lon="2.00733">
        <ele>169</ele>
        <time>2025-07-04T09:11:02.969Z</time>
      </trkpt>
      <trkpt lat="48.71003" lon="2.00729">
        <ele>169</ele>
        <time>2025-07-04T09:11:07.373Z</time>
      </trkpt>
      <trkpt lat="48.71005" lon="2.00725">
        <ele>169</ele>
        <time>2025-07-04T09:11:11.391Z</time>
      </trkpt>
      <trkpt lat="48.71002" lon="2.00722">
        <ele>169</ele>
        <time>2025-07-04T09:11:15.536Z</time>
      </trkpt>
      <trkpt lat="48.70997" lon="2.00718">
        <ele>169</ele>
        <time>2025-07-04T09:11:20.334Z</time>
      </trkpt>
      <trkpt lat="48.70992" lon="2.00717">
        <ele>169</ele>
        <time>2025-07-04T09:11:24.814Z</time>
      </trkpt>
      <trkpt lat="48.70987" lon="2.00713">
        <ele>169</ele>
        <time>2025-07-04T09:11:29.536Z</time>
      </trkpt>
      <trkpt lat="48.70983" lon="2.00711">
        <ele>173</ele>
        <time>2025-07-04T09:11:33.536Z</time>
      </trkpt>
      <trkpt lat="48.70978" lon="2.00707">
        <ele>172</ele>
        <time>2025-07-04T09:11:38.448Z</time>
      </trkpt>
      <trkpt lat="48.70974" lon="2.00702">
        <ele>172</ele>
        <time>2025-07-04T09:11:42.536Z</time>
      </trkpt>
      <trkpt lat="48.7097" lon="2.00698">
        <ele>172</ele>
        <time>2025-07-04T09:11:46.673Z</time>
      </trkpt>
      <trkpt lat="48.70966" lon="2.00694">
        <ele>172</ele>
        <time>2025-07-04T09:11:50.854Z</time>
      </trkpt>
      <trkpt lat="48.70962" lon="2.00688">
        <ele>172</ele>
        <time>2025-07-04T09:11:54.933Z</time>
      </trkpt>
      <trkpt lat="48.70959" lon="2.00683">
        <ele>172</ele>
        <time>2025-07-04T09:11:59.003Z</time>
      </trkpt>
      <trkpt lat="48.70956" lon="2.00678">
        <ele>173</ele>
        <time>2025-07-04T09:12:03.140Z</time>
      </trkpt>
      <trkpt lat="48.70952" lon="2.00673">
        <ele>173</ele>
        <time>2025-07-04T09:12:07.262Z</time>
      </trkpt>
      <trkpt lat="48.70948" lon="2.00669">
        <ele>173</ele>
        <time>2025-07-04T09:12:11.357Z</time>
      </trkpt>
      <trkpt lat="48.70944" lon="2.00663">
        <ele>173</ele>
        <time>2025-07-04T09:12:15.888Z</time>
      </trkpt>
      <trkpt lat="48.7094" lon="2.00656">
        <ele>173</ele>
        <time>2025-07-04T09:12:20.325Z</time>
      </trkpt>
      <trkpt lat="48.70936" lon="2.00649">
        <ele>172</ele>
        <time>2025-07-04T09:12:24.807Z</time>
      </trkpt>
      <trkpt lat="48.70934" lon="2.00643">
        <ele>172</ele>
        <time>2025-07-04T09:12:28.866Z</time>
      </trkpt>
      <trkpt lat="48.70931" lon="2.00637">
        <ele>172</ele>
        <time>2025-07-04T09:12:32.927Z</time>
      </trkpt>
      <trkpt lat="48.70929" lon="2.00629">
        <ele>175</ele>
        <time>2025-07-04T09:12:37.536Z</time>
      </trkpt>
      <trkpt lat="48.70927" lon="2.0062">
        <ele>175</ele>
        <time>2025-07-04T09:12:41.946Z</time>
      </trkpt>
      <trkpt lat="48.70926" lon="2.00612">
        <ele>175</ele>
        <time>2025-07-04T09:12:45.965Z</time>
      </trkpt>
      <trkpt lat="48.70924" lon="2.00605">
        <ele>175</ele>
        <time>2025-07-04T09:12:50.223Z</time>
      </trkpt>
      <trkpt lat="48.70921" lon="2.00599">
        <ele>175</ele>
        <time>2025-07-04T09:12:54.809Z</time>
      </trkpt>
      <trkpt lat="48.70918" lon="2.00593">
        <ele>175</ele>
        <time>2025-07-04T09:12:58.985Z</time>
      </trkpt>
      <trkpt lat="48.70916" lon="2.00585">
        <ele>175</ele>
        <time>2025-07-04T09:13:03.535Z</time>
      </trkpt>
      <trkpt lat="48.70915" lon="2.00577">
        <ele>175</ele>
        <time>2025-07-04T09:13:08.140Z</time>
      </trkpt>
      <trkpt lat="48.70914" lon="2.00569">
        <ele>175</ele>
        <time>2025-07-04T09:13:12.536Z</time>
      </trkpt>
      <trkpt lat="48.70911" lon="2.00561">
        <ele>175</ele>
        <time>2025-07-04T09:13:17.048Z</time>
      </trkpt>
      <trkpt lat="48.70909" lon="2.00555">
        <ele>175</ele>
        <time>2025-07-04T09:13:21.102Z</time>
      </trkpt>
      <trkpt lat="48.70906" lon="2.00547">
        <ele>175</ele>
        <time>2025-07-04T09:13:25.536Z</time>
      </trkpt>
      <trkpt lat="48.70904" lon="2.00539">
        <ele>175</ele>
        <time>2025-07-04T09:13:29.703Z</time>
      </trkpt>
      <trkpt lat="48.70901" lon="2.00534">
        <ele>175</ele>
        <time>2025-07-04T09:13:33.746Z</time>
      </trkpt>
      <trkpt lat="48.709" lon="2.00526">
        <ele>175</ele>
        <time>2025-07-04T09:13:38.303Z</time>
      </trkpt>
      <trkpt lat="48.70898" lon="2.0052">
        <ele>175</ele>
        <time>2025-07-04T09:13:42.348Z</time>
      </trkpt>
      <trkpt lat="48.70897" lon="2.00512">
        <ele>175</ele>
        <time>2025-07-04T09:13:46.826Z</time>
      </trkpt>
      <trkpt lat="48.70896" lon="2.00502">
        <ele>175</ele>
        <time>2025-07-04T09:13:51.382Z</time>
      </trkpt>
      <trkpt lat="48.70894" lon="2.00494">
        <ele>175</ele>
        <time>2025-07-04T09:13:55.536Z</time>
      </trkpt>
      <trkpt lat="48.70894" lon="2.00484">
        <ele>174</ele>
        <time>2025-07-04T09:13:59.804Z</time>
      </trkpt>
      <trkpt lat="48.70892" lon="2.00477">
        <ele>174</ele>
        <time>2025-07-04T09:14:04.208Z</time>
      </trkpt>
      <trkpt lat="48.7089" lon="2.0047">
        <ele>174</ele>
        <time>2025-07-04T09:14:08.268Z</time>
      </trkpt>
      <trkpt lat="48.70889" lon="2.00461">
        <ele>174</ele>
        <time>2025-07-04T09:14:12.748Z</time>
      </trkpt>
      <trkpt lat="48.70887" lon="2.00454">
        <ele>174</ele>
        <time>2025-07-04T09:14:16.860Z</time>
      </trkpt>
      <trkpt lat="48.70886" lon="2.00445">
        <ele>174</ele>
        <time>2025-07-04T09:14:21.084Z</time>
      </trkpt>
      <trkpt lat="48.70885" lon="2.00438">
        <ele>174</ele>
        <time>2025-07-04T09:14:25.180Z</time>
      </trkpt>
      <trkpt lat="48.70885" lon="2.00429">
        <ele>173</ele>
        <time>2025-07-04T09:14:29.536Z</time>
      </trkpt>
      <trkpt lat="48.70883" lon="2.00421">
        <ele>173</ele>
        <time>2025-07-04T09:14:34.105Z</time>
      </trkpt>
      <trkpt lat="48.70883" lon="2.00413">
        <ele>173</ele>
        <time>2025-07-04T09:14:38.244Z</time>
      </trkpt>
      <trkpt lat="48.70883" lon="2.00407">
        <ele>173</ele>
        <time>2025-07-04T09:14:42.263Z</time>
      </trkpt>
      <trkpt lat="48.70884" lon="2.004">
        <ele>171</ele>
        <time>2025-07-04T09:14:46.462Z</time>
      </trkpt>
      <trkpt lat="48.70885" lon="2.00393">
        <ele>171</ele>
        <time>2025-07-04T09:14:50.536Z</time>
      </trkpt>
      <trkpt lat="48.70885" lon="2.00385">
        <ele>171</ele>
        <time>2025-07-04T09:14:55.136Z</time>
      </trkpt>
      <trkpt lat="48.70885" lon="2.00378">
        <ele>171</ele>
        <time>2025-07-04T09:14:59.402Z</time>
      </trkpt>
      <trkpt lat="48.70886" lon="2.00371">
        <ele>170</ele>
        <time>2025-07-04T09:15:03.536Z</time>
      </trkpt>
      <trkpt lat="48.70888" lon="2.00364">
        <ele>170</ele>
        <time>2025-07-04T09:15:07.823Z</time>
      </trkpt>
      <trkpt lat="48.7089" lon="2.00357">
        <ele>170</ele>
        <time>2025-07-04T09:15:11.919Z</time>
      </trkpt>
      <trkpt lat="48.70893" lon="2.00351">
        <ele>170</ele>
        <time>2025-07-04T09:15:16.101Z</time>
      </trkpt>
      <trkpt lat="48.70895" lon="2.00345">
        <ele>171</ele>
        <time>2025-07-04T09:15:20.239Z</time>
      </trkpt>
      <trkpt lat="48.70896" lon="2.0034">
        <ele>171</ele>
        <time>2025-07-04T09:15:24.343Z</time>
      </trkpt>
      <trkpt lat="48.70898" lon="2.00332">
        <ele>171</ele>
        <time>2025-07-04T09:15:28.839Z</time>
      </trkpt>
      <trkpt lat="48.709" lon="2.00323">
        <ele>171</ele>
        <time>2025-07-04T09:15:33.242Z</time>
      </trkpt>
      <trkpt lat="48.70904" lon="2.00317">
        <ele>172</ele>
        <time>2025-07-04T09:15:37.260Z</time>
      </trkpt>
      <trkpt lat="48.70907" lon="2.0031">
        <ele>172</ele>
        <time>2025-07-04T09:15:41.364Z</time>
      </trkpt>
      <trkpt lat="48.70909" lon="2.00303">
        <ele>172</ele>
        <time>2025-07-04T09:15:45.787Z</time>
      </trkpt>
      <trkpt lat="48.70912" lon="2.00294">
        <ele>172</ele>
        <time>2025-07-04T09:15:50.323Z</time>
      </trkpt>
      <trkpt lat="48.70914" lon="2.00286">
        <ele>172</ele>
        <time>2025-07-04T09:15:54.659Z</time>
      </trkpt>
      <trkpt lat="48.70916" lon="2.00279">
        <ele>172</ele>
        <time>2025-07-04T09:15:59.103Z</time>
      </trkpt>
      <trkpt lat="48.7092" lon="2.00273">
        <ele>172</ele>
        <time>2025-07-04T09:16:03.200Z</time>
      </trkpt>
      <trkpt lat="48.70922" lon="2.00267">
        <ele>172</ele>
        <time>2025-07-04T09:16:07.320Z</time>
      </trkpt>
      <trkpt lat="48.70925" lon="2.0026">
        <ele>171</ele>
        <time>2025-07-04T09:16:11.364Z</time>
      </trkpt>
      <trkpt lat="48.70927" lon="2.00252">
        <ele>171</ele>
        <time>2025-07-04T09:16:16.023Z</time>
      </trkpt>
      <trkpt lat="48.70929" lon="2.00244">
        <ele>171</ele>
        <time>2025-07-04T09:16:20.536Z</time>
      </trkpt>
      <trkpt lat="48.70932" lon="2.00235">
        <ele>172</ele>
        <time>2025-07-04T09:16:25.185Z</time>
      </trkpt>
      <trkpt lat="48.70933" lon="2.00228">
        <ele>172</ele>
        <time>2025-07-04T09:16:29.401Z</time>
      </trkpt>
      <trkpt lat="48.70934" lon="2.00221">
        <ele>172</ele>
        <time>2025-07-04T09:16:33.906Z</time>
      </trkpt>
      <trkpt lat="48.70936" lon="2.00214">
        <ele>172</ele>
        <time>2025-07-04T09:16:37.969Z</time>
      </trkpt>
      <trkpt lat="48.70938" lon="2.00207">
        <ele>172</ele>
        <time>2025-07-04T09:16:42.209Z</time>
      </trkpt>
      <trkpt lat="48.70941" lon="2.002">
        <ele>172</ele>
        <time>2025-07-04T09:16:46.508Z</time>
      </trkpt>
      <trkpt lat="48.70944" lon="2.00193">
        <ele>172</ele>
        <time>2025-07-04T09:16:50.536Z</time>
      </trkpt>
      <trkpt lat="48.70947" lon="2.00188">
        <ele>172</ele>
        <time>2025-07-04T09:16:55.036Z</time>
      </trkpt>
      <trkpt lat="48.70948" lon="2.00181">
        <ele>172</ele>
        <time>2025-07-04T09:16:59.536Z</time>
      </trkpt>
      <trkpt lat="48.70948" lon="2.00173">
        <ele>173</ele>
        <time>2025-07-04T09:17:04.443Z</time>
      </trkpt>
      <trkpt lat="48.7095" lon="2.00163">
        <ele>173</ele>
        <time>2025-07-04T09:17:17.536Z</time>
      </trkpt>
      <trkpt lat="48.7095" lon="2.00163">
        <ele>173</ele>
        <time>2025-07-04T09:17:22.536Z</time>
      </trkpt>
      <trkpt lat="48.7095" lon="2.00163">
        <ele>173</ele>
        <time>2025-07-04T09:17:27.536Z</time>
      </trkpt>
      <trkpt lat="48.70947" lon="2.00158">
        <ele>173</ele>
        <time>2025-07-04T09:17:31.969Z</time>
      </trkpt>
      <trkpt lat="48.70942" lon="2.00152">
        <ele>173</ele>
        <time>2025-07-04T09:17:36.124Z</time>
      </trkpt>
      <trkpt lat="48.7094" lon="2.00148">
        <ele>173</ele>
        <time>2025-07-04T09:17:40.536Z</time>
      </trkpt>
      <trkpt lat="48.70936" lon="2.00148">
        <ele>173</ele>
        <time>2025-07-04T09:17:45.103Z</time>
      </trkpt>
      <trkpt lat="48.7093" lon="2.00149">
        <ele>174</ele>
        <time>2025-07-04T09:17:49.536Z</time>
      </trkpt>
      <trkpt lat="48.70924" lon="2.0015">
        <ele>174</ele>
        <time>2025-07-04T09:17:54.014Z</time>
      </trkpt>
      <trkpt lat="48.70918" lon="2.00149">
        <ele>174</ele>
        <time>2025-07-04T09:17:58.161Z</time>
      </trkpt>
      <trkpt lat="48.70912" lon="2.00149">
        <ele>174</ele>
        <time>2025-07-04T09:18:02.536Z</time>
      </trkpt>
      <trkpt lat="48.70906" lon="2.00148">
        <ele>174</ele>
        <time>2025-07-04T09:18:07.001Z</time>
      </trkpt>
      <trkpt lat="48.70901" lon="2.00147">
        <ele>173</ele>
        <time>2025-07-04T09:18:11.514Z</time>
      </trkpt>
      <trkpt lat="48.70894" lon="2.00143">
        <ele>173</ele>
        <time>2025-07-04T09:18:16.139Z</time>
      </trkpt>
      <trkpt lat="48.7089" lon="2.00141">
        <ele>173</ele>
        <time>2025-07-04T09:18:20.159Z</time>
      </trkpt>
      <trkpt lat="48.70886" lon="2.00136">
        <ele>173</ele>
        <time>2025-07-04T09:18:24.536Z</time>
      </trkpt>
      <trkpt lat="48.70882" lon="2.00134">
        <ele>173</ele>
        <time>2025-07-04T09:18:28.879Z</time>
      </trkpt>
      <trkpt lat="48.70877" lon="2.00133">
        <ele>173</ele>
        <time>2025-07-04T09:18:33.134Z</time>
      </trkpt>
      <trkpt lat="48.70872" lon="2.00129">
        <ele>173</ele>
        <time>2025-07-04T09:18:37.536Z</time>
      </trkpt>
      <trkpt lat="48.70869" lon="2.00122">
        <ele>174</ele>
        <time>2025-07-04T09:18:41.880Z</time>
      </trkpt>
      <trkpt lat="48.70868" lon="2.00115">
        <ele>174</ele>
        <time>2025-07-04T09:18:46.274Z</time>
      </trkpt>
      <trkpt lat="48.70869" lon="2.00112">
        <ele>174</ele>
        <time>2025-07-04T09:18:51.536Z</time>
      </trkpt>
      <trkpt lat="48.7087" lon="2.00111">
        <ele>174</ele>
        <time>2025-07-04T09:18:56.180Z</time>
      </trkpt>
      <trkpt lat="48.70868" lon="2.00106">
        <ele>174</ele>
        <time>2025-07-04T09:19:00.258Z</time>
      </trkpt>
      <trkpt lat="48.70864" lon="2.00101">
        <ele>174</ele>
        <time>2025-07-04T09:19:04.635Z</time>
      </trkpt>
      <trkpt lat="48.70859" lon="2.00095">
        <ele>174</ele>
        <time>2025-07-04T09:19:09.141Z</time>
      </trkpt>
      <trkpt lat="48.70855" lon="2.00092">
        <ele>174</ele>
        <time>2025-07-04T09:19:13.159Z</time>
      </trkpt>
      <trkpt lat="48.70855" lon="2.00085">
        <ele>174</ele>
        <time>2025-07-04T09:19:17.681Z</time>
      </trkpt>
      <trkpt lat="48.70853" lon="2.00079">
        <ele>174</ele>
        <time>2025-07-04T09:19:21.742Z</time>
      </trkpt>
      <trkpt lat="48.70849" lon="2.00073">
        <ele>174</ele>
        <time>2025-07-04T09:19:26.238Z</time>
      </trkpt>
      <trkpt lat="48.70846" lon="2.00069">
        <ele>167</ele>
        <time>2025-07-04T09:19:30.436Z</time>
      </trkpt>
      <trkpt lat="48.70843" lon="2.00064">
        <ele>167</ele>
        <time>2025-07-04T09:19:34.959Z</time>
      </trkpt>
      <trkpt lat="48.70839" lon="2.00059">
        <ele>167</ele>
        <time>2025-07-04T09:19:39.301Z</time>
      </trkpt>
      <trkpt lat="48.70836" lon="2.00055">
        <ele>167</ele>
        <time>2025-07-04T09:19:43.321Z</time>
      </trkpt>
      <trkpt lat="48.70834" lon="2.00049">
        <ele>167</ele>
        <time>2025-07-04T09:19:47.536Z</time>
      </trkpt>
      <trkpt lat="48.7083" lon="2.00045">
        <ele>167</ele>
        <time>2025-07-04T09:19:51.759Z</time>
      </trkpt>
      <trkpt lat="48.70828" lon="2.00039">
        <ele>164</ele>
        <time>2025-07-04T09:19:56.162Z</time>
      </trkpt>
      <trkpt lat="48.70828" lon="2.00032">
        <ele>164</ele>
        <time>2025-07-04T09:20:00.222Z</time>
      </trkpt>
      <trkpt lat="48.70833" lon="2.00026">
        <ele>164</ele>
        <time>2025-07-04T09:20:05.301Z</time>
      </trkpt>
      <trkpt lat="48.70837" lon="2.00021">
        <ele>164</ele>
        <time>2025-07-04T09:20:09.320Z</time>
      </trkpt>
      <trkpt lat="48.7084" lon="2.00012">
        <ele>162</ele>
        <time>2025-07-04T09:20:14.300Z</time>
      </trkpt>
      <trkpt lat="48.70844" lon="2.00006">
        <ele>162</ele>
        <time>2025-07-04T09:20:19.018Z</time>
      </trkpt>
      <trkpt lat="48.70847" lon="2">
        <ele>162</ele>
        <time>2025-07-04T09:20:23.095Z</time>
      </trkpt>
      <trkpt lat="48.70848" lon="1.99993">
        <ele>170</ele>
        <time>2025-07-04T09:20:27.201Z</time>
      </trkpt>
      <trkpt lat="48.7085" lon="1.99985">
        <ele>167</ele>
        <time>2025-07-04T09:20:31.536Z</time>
      </trkpt>
      <trkpt lat="48.70853" lon="1.99978">
        <ele>167</ele>
        <time>2025-07-04T09:20:36.415Z</time>
      </trkpt>
      <trkpt lat="48.70856" lon="1.99971">
        <ele>167</ele>
        <time>2025-07-04T09:20:40.536Z</time>
      </trkpt>
      <trkpt lat="48.70857" lon="1.99965">
        <ele>167</ele>
        <time>2025-07-04T09:20:44.717Z</time>
      </trkpt>
      <trkpt lat="48.70861" lon="1.9996">
        <ele>167</ele>
        <time>2025-07-04T09:20:49.536Z</time>
      </trkpt>
      <trkpt lat="48.70865" lon="1.99954">
        <ele>164</ele>
        <time>2025-07-04T09:20:53.794Z</time>
      </trkpt>
      <trkpt lat="48.70868" lon="1.99947">
        <ele>164</ele>
        <time>2025-07-04T09:20:58.462Z</time>
      </trkpt>
      <trkpt lat="48.70871" lon="1.99943">
        <ele>164</ele>
        <time>2025-07-04T09:21:02.536Z</time>
      </trkpt>
      <trkpt lat="48.70876" lon="1.9994">
        <ele>170</ele>
        <time>2025-07-04T09:21:07.514Z</time>
      </trkpt>
      <trkpt lat="48.70879" lon="1.99938">
        <ele>170</ele>
        <time>2025-07-04T09:21:11.536Z</time>
      </trkpt>
      <trkpt lat="48.70882" lon="1.99938">
        <ele>170</ele>
        <time>2025-07-04T09:21:15.696Z</time>
      </trkpt>
      <trkpt lat="48.70885" lon="1.9994">
        <ele>170</ele>
        <time>2025-07-04T09:21:19.860Z</time>
      </trkpt>
      <trkpt lat="48.70889" lon="1.99943">
        <ele>170</ele>
        <time>2025-07-04T09:21:23.922Z</time>
      </trkpt>
      <trkpt lat="48.70894" lon="1.99943">
        <ele>170</ele>
        <time>2025-07-04T09:21:28.255Z</time>
      </trkpt>
      <trkpt lat="48.70898" lon="1.99939">
        <ele>170</ele>
        <time>2025-07-04T09:21:32.807Z</time>
      </trkpt>
      <trkpt lat="48.70903" lon="1.99934">
        <ele>170</ele>
        <time>2025-07-04T09:21:37.536Z</time>
      </trkpt>
      <trkpt lat="48.70905" lon="1.99926">
        <ele>166</ele>
        <time>2025-07-04T09:21:41.959Z</time>
      </trkpt>
      <trkpt lat="48.70908" lon="1.99918">
        <ele>166</ele>
        <time>2025-07-04T09:21:46.002Z</time>
      </trkpt>
      <trkpt lat="48.70912" lon="1.9991">
        <ele>166</ele>
        <time>2025-07-04T09:21:50.536Z</time>
      </trkpt>
      <trkpt lat="48.70916" lon="1.99905">
        <ele>166</ele>
        <time>2025-07-04T09:21:54.679Z</time>
      </trkpt>
      <trkpt lat="48.70919" lon="1.99899">
        <ele>163</ele>
        <time>2025-07-04T09:21:58.833Z</time>
      </trkpt>
      <trkpt lat="48.70923" lon="1.99894">
        <ele>163</ele>
        <time>2025-07-04T09:22:03.042Z</time>
      </trkpt>
      <trkpt lat="48.70924" lon="1.99886">
        <ele>163</ele>
        <time>2025-07-04T09:22:07.353Z</time>
      </trkpt>
      <trkpt lat="48.70925" lon="1.99877">
        <ele>163</ele>
        <time>2025-07-04T09:22:11.399Z</time>
      </trkpt>
      <trkpt lat="48.70927" lon="1.99871">
        <ele>158</ele>
        <time>2025-07-04T09:22:15.536Z</time>
      </trkpt>
      <trkpt lat="48.7093" lon="1.99865">
        <ele>158</ele>
        <time>2025-07-04T09:22:20.330Z</time>
      </trkpt>
      <trkpt lat="48.70935" lon="1.9986">
        <ele>164</ele>
        <time>2025-07-04T09:22:24.536Z</time>
      </trkpt>
      <trkpt lat="48.70938" lon="1.99854">
        <ele>164</ele>
        <time>2025-07-04T09:22:29.298Z</time>
      </trkpt>
      <trkpt lat="48.7094" lon="1.99847">
        <ele>161</ele>
        <time>2025-07-04T09:22:33.332Z</time>
      </trkpt>
      <trkpt lat="48.70941" lon="1.99838">
        <ele>161</ele>
        <time>2025-07-04T09:22:37.536Z</time>
      </trkpt>
      <trkpt lat="48.70945" lon="1.99833">
        <ele>161</ele>
        <time>2025-07-04T09:22:42.156Z</time>
      </trkpt>
      <trkpt lat="48.70948" lon="1.99827">
        <ele>161</ele>
        <time>2025-07-04T09:22:46.456Z</time>
      </trkpt>
      <trkpt lat="48.70948" lon="1.9982">
        <ele>161</ele>
        <time>2025-07-04T09:22:51.157Z</time>
      </trkpt>
      <trkpt lat="48.70949" lon="1.99812">
        <ele>157</ele>
        <time>2025-07-04T09:22:55.536Z</time>
      </trkpt>
      <trkpt lat="48.70952" lon="1.99804">
        <ele>157</ele>
        <time>2025-07-04T09:22:59.972Z</time>
      </trkpt>
      <trkpt lat="48.70953" lon="1.99797">
        <ele>157</ele>
        <time>2025-07-04T09:23:04.211Z</time>
      </trkpt>
      <trkpt lat="48.70952" lon="1.99789">
        <ele>155</ele>
        <time>2025-07-04T09:23:08.418Z</time>
      </trkpt>
      <trkpt lat="48.70952" lon="1.99781">
        <ele>155</ele>
        <time>2025-07-04T09:23:12.794Z</time>
      </trkpt>
      <trkpt lat="48.70951" lon="1.99774">
        <ele>155</ele>
        <time>2025-07-04T09:23:16.855Z</time>
      </trkpt>
      <trkpt lat="48.70954" lon="1.99767">
        <ele>155</ele>
        <time>2025-07-04T09:23:20.976Z</time>
      </trkpt>
      <trkpt lat="48.70958" lon="1.99762">
        <ele>160</ele>
        <time>2025-07-04T09:23:25.370Z</time>
      </trkpt>
      <trkpt lat="48.70965" lon="1.99759">
        <ele>160</ele>
        <time>2025-07-04T09:23:30.097Z</time>
      </trkpt>
      <trkpt lat="48.70969" lon="1.99754">
        <ele>160</ele>
        <time>2025-07-04T09:23:34.175Z</time>
      </trkpt>
      <trkpt lat="48.70974" lon="1.99751">
        <ele>160</ele>
        <time>2025-07-04T09:23:38.270Z</time>
      </trkpt>
      <trkpt lat="48.70979" lon="1.99748">
        <ele>160</ele>
        <time>2025-07-04T09:23:42.361Z</time>
      </trkpt>
      <trkpt lat="48.70984" lon="1.99748">
        <ele>160</ele>
        <time>2025-07-04T09:23:46.532Z</time>
      </trkpt>
      <trkpt lat="48.70989" lon="1.99749">
        <ele>165</ele>
        <time>2025-07-04T09:23:51.536Z</time>
      </trkpt>
      <trkpt lat="48.70993" lon="1.99748">
        <ele>165</ele>
        <time>2025-07-04T09:23:55.633Z</time>
      </trkpt>
      <trkpt lat="48.70998" lon="1.9975">
        <ele>165</ele>
        <time>2025-07-04T09:24:00.155Z</time>
      </trkpt>
      <trkpt lat="48.71003" lon="1.9975">
        <ele>165</ele>
        <time>2025-07-04T09:24:04.429Z</time>
      </trkpt>
      <trkpt lat="48.71007" lon="1.99746">
        <ele>165</ele>
        <time>2025-07-04T09:24:08.729Z</time>
      </trkpt>
      <trkpt lat="48.71012" lon="1.99741">
        <ele>165</ele>
        <time>2025-07-04T09:24:13.491Z</time>
      </trkpt>
      <trkpt lat="48.71017" lon="1.99739">
        <ele>169</ele>
        <time>2025-07-04T09:24:17.876Z</time>
      </trkpt>
      <trkpt lat="48.71023" lon="1.99739">
        <ele>169</ele>
        <time>2025-07-04T09:24:21.912Z</time>
      </trkpt>
      <trkpt lat="48.71028" lon="1.99737">
        <ele>169</ele>
        <time>2025-07-04T09:24:26.476Z</time>
      </trkpt>
      <trkpt lat="48.71031" lon="1.99732">
        <ele>167</ele>
        <time>2025-07-04T09:24:30.539Z</time>
      </trkpt>
      <trkpt lat="48.71036" lon="1.99728">
        <ele>167</ele>
        <time>2025-07-04T09:24:35.273Z</time>
      </trkpt>
      <trkpt lat="48.71042" lon="1.99723">
        <ele>170</ele>
        <time>2025-07-04T09:24:40.536Z</time>
      </trkpt>
      <trkpt lat="48.71045" lon="1.99716">
        <ele>170</ele>
        <time>2025-07-04T09:24:45.359Z</time>
      </trkpt>
      <trkpt lat="48.71048" lon="1.99708">
        <ele>169</ele>
        <time>2025-07-04T09:24:49.871Z</time>
      </trkpt>
      <trkpt lat="48.71053" lon="1.99704">
        <ele>169</ele>
        <time>2025-07-04T09:24:53.889Z</time>
      </trkpt>
      <trkpt lat="48.71056" lon="1.99699">
        <ele>169</ele>
        <time>2025-07-04T09:24:58.096Z</time>
      </trkpt>
      <trkpt lat="48.71059" lon="1.99693">
        <ele>169</ele>
        <time>2025-07-04T09:25:02.114Z</time>
      </trkpt>
      <trkpt lat="48.71061" lon="1.99687">
        <ele>169</ele>
        <time>2025-07-04T09:25:06.176Z</time>
      </trkpt>
      <trkpt lat="48.71061" lon="1.99679">
        <ele>167</ele>
        <time>2025-07-04T09:25:10.179Z</time>
      </trkpt>
      <trkpt lat="48.71061" lon="1.99672">
        <ele>167</ele>
        <time>2025-07-04T09:25:14.315Z</time>
      </trkpt>
      <trkpt lat="48.71062" lon="1.99664">
        <ele>167</ele>
        <time>2025-07-04T09:25:18.536Z</time>
      </trkpt>
      <trkpt lat="48.71062" lon="1.99656">
        <ele>167</ele>
        <time>2025-07-04T09:25:23.393Z</time>
      </trkpt>
      <trkpt lat="48.71065" lon="1.9965">
        <ele>164</ele>
        <time>2025-07-04T09:25:27.536Z</time>
      </trkpt>
      <trkpt lat="48.71068" lon="1.99643">
        <ele>164</ele>
        <time>2025-07-04T09:25:32.189Z</time>
      </trkpt>
      <trkpt lat="48.71071" lon="1.99637">
        <ele>168</ele>
        <time>2025-07-04T09:25:36.635Z</time>
      </trkpt>
      <trkpt lat="48.71073" lon="1.9963">
        <ele>168</ele>
        <time>2025-07-04T09:25:41.158Z</time>
      </trkpt>
      <trkpt lat="48.71078" lon="1.99629">
        <ele>168</ele>
        <time>2025-07-04T09:25:45.175Z</time>
      </trkpt>
      <trkpt lat="48.71083" lon="1.99632">
        <ele>168</ele>
        <time>2025-07-04T09:25:49.417Z</time>
      </trkpt>
      <trkpt lat="48.71088" lon="1.99634">
        <ele>168</ele>
        <time>2025-07-04T09:25:53.536Z</time>
      </trkpt>
      <trkpt lat="48.71093" lon="1.99636">
        <ele>168</ele>
        <time>2025-07-04T09:25:58.075Z</time>
      </trkpt>
      <trkpt lat="48.71099" lon="1.99638">
        <ele>171</ele>
        <time>2025-07-04T09:26:02.536Z</time>
      </trkpt>
      <trkpt lat="48.71103" lon="1.99637">
        <ele>171</ele>
        <time>2025-07-04T09:26:06.693Z</time>
      </trkpt>
      <trkpt lat="48.71108" lon="1.99632">
        <ele>171</ele>
        <time>2025-07-04T09:26:11.334Z</time>
      </trkpt>
      <trkpt lat="48.71112" lon="1.99627">
        <ele>171</ele>
        <time>2025-07-04T09:26:15.455Z</time>
      </trkpt>
      <trkpt lat="48.71115" lon="1.99621">
        <ele>167</ele>
        <time>2025-07-04T09:26:20.071Z</time>
      </trkpt>
      <trkpt lat="48.71117" lon="1.99614">
        <ele>167</ele>
        <time>2025-07-04T09:26:24.114Z</time>
      </trkpt>
      <trkpt lat="48.71119" lon="1.99605">
        <ele>167</ele>
        <time>2025-07-04T09:26:28.431Z</time>
      </trkpt>
      <trkpt lat="48.71121" lon="1.99596">
        <ele>164</ele>
        <time>2025-07-04T09:26:32.536Z</time>
      </trkpt>
      <trkpt lat="48.71121" lon="1.99585">
        <ele>164</ele>
        <time>2025-07-04T09:26:37.152Z</time>
      </trkpt>
      <trkpt lat="48.71121" lon="1.99576">
        <ele>164</ele>
        <time>2025-07-04T09:26:41.535Z</time>
      </trkpt>
      <trkpt lat="48.71121" lon="1.99567">
        <ele>161</ele>
        <time>2025-07-04T09:26:46.034Z</time>
      </trkpt>
      <trkpt lat="48.71122" lon="1.9956">
        <ele>161</ele>
        <time>2025-07-04T09:26:50.291Z</time>
      </trkpt>
      <trkpt lat="48.71125" lon="1.99553">
        <ele>161</ele>
        <time>2025-07-04T09:26:54.536Z</time>
      </trkpt>
      <trkpt lat="48.71125" lon="1.99545">
        <ele>166</ele>
        <time>2025-07-04T09:26:59.215Z</time>
      </trkpt>
      <trkpt lat="48.71127" lon="1.99538">
        <ele>164</ele>
        <time>2025-07-04T09:27:03.455Z</time>
      </trkpt>
      <trkpt lat="48.7113" lon="1.9953">
        <ele>164</ele>
        <time>2025-07-04T09:27:08.395Z</time>
      </trkpt>
      <trkpt lat="48.7113" lon="1.99522">
        <ele>164</ele>
        <time>2025-07-04T09:27:12.695Z</time>
      </trkpt>
      <trkpt lat="48.71131" lon="1.99513">
        <ele>163</ele>
        <time>2025-07-04T09:27:17.218Z</time>
      </trkpt>
      <trkpt lat="48.71133" lon="1.99507">
        <ele>163</ele>
        <time>2025-07-04T09:27:21.279Z</time>
      </trkpt>
      <trkpt lat="48.71133" lon="1.995">
        <ele>163</ele>
        <time>2025-07-04T09:27:25.818Z</time>
      </trkpt>
      <trkpt lat="48.71134" lon="1.99492">
        <ele>163</ele>
        <time>2025-07-04T09:27:29.879Z</time>
      </trkpt>
      <trkpt lat="48.71137" lon="1.99485">
        <ele>160</ele>
        <time>2025-07-04T09:27:34.221Z</time>
      </trkpt>
      <trkpt lat="48.71141" lon="1.9948">
        <ele>160</ele>
        <time>2025-07-04T09:27:38.436Z</time>
      </trkpt>
      <trkpt lat="48.71141" lon="1.99474">
        <ele>160</ele>
        <time>2025-07-04T09:27:42.659Z</time>
      </trkpt>
      <trkpt lat="48.71141" lon="1.99465">
        <ele>160</ele>
        <time>2025-07-04T09:27:47.096Z</time>
      </trkpt>
      <trkpt lat="48.71145" lon="1.99459">
        <ele>160</ele>
        <time>2025-07-04T09:27:51.536Z</time>
      </trkpt>
      <trkpt lat="48.7115" lon="1.99457">
        <ele>157</ele>
        <time>2025-07-04T09:27:55.602Z</time>
      </trkpt>
      <trkpt lat="48.71154" lon="1.99454">
        <ele>164</ele>
        <time>2025-07-04T09:27:59.728Z</time>
      </trkpt>
      <trkpt lat="48.71158" lon="1.99449">
        <ele>164</ele>
        <time>2025-07-04T09:28:04.415Z</time>
      </trkpt>
      <trkpt lat="48.71162" lon="1.99445">
        <ele>164</ele>
        <time>2025-07-04T09:28:08.536Z</time>
      </trkpt>
      <trkpt lat="48.71166" lon="1.99443">
        <ele>164</ele>
        <time>2025-07-04T09:28:13Z</time>
      </trkpt>
      <trkpt lat="48.71167" lon="1.99436">
        <ele>164</ele>
        <time>2025-07-04T09:28:17.401Z</time>
      </trkpt>
      <trkpt lat="48.71172" lon="1.99436">
        <ele>164</ele>
        <time>2025-07-04T09:28:21.438Z</time>
      </trkpt>
      <trkpt lat="48.71179" lon="1.99436">
        <ele>164</ele>
        <time>2025-07-04T09:28:25.941Z</time>
      </trkpt>
      <trkpt lat="48.71184" lon="1.99436">
        <ele>171</ele>
        <time>2025-07-04T09:28:30.122Z</time>
      </trkpt>
      <trkpt lat="48.71189" lon="1.99434">
        <ele>171</ele>
        <time>2025-07-04T09:28:34.482Z</time>
      </trkpt>
      <trkpt lat="48.71192" lon="1.99427">
        <ele>166</ele>
        <time>2025-07-04T09:28:38.680Z</time>
      </trkpt>
      <trkpt lat="48.71195" lon="1.99419">
        <ele>166</ele>
        <time>2025-07-04T09:28:43.381Z</time>
      </trkpt>
      <trkpt lat="48.712" lon="1.99416">
        <ele>166</ele>
        <time>2025-07-04T09:28:47.801Z</time>
      </trkpt>
      <trkpt lat="48.71203" lon="1.99412">
        <ele>166</ele>
        <time>2025-07-04T09:28:52.119Z</time>
      </trkpt>
      <trkpt lat="48.71204" lon="1.99404">
        <ele>166</ele>
        <time>2025-07-04T09:28:56.536Z</time>
      </trkpt>
      <trkpt lat="48.71206" lon="1.99395">
        <ele>160</ele>
        <time>2025-07-04T09:29:00.940Z</time>
      </trkpt>
      <trkpt lat="48.71209" lon="1.99388">
        <ele>167</ele>
        <time>2025-07-04T09:29:05.104Z</time>
      </trkpt>
      <trkpt lat="48.7121" lon="1.99382">
        <ele>167</ele>
        <time>2025-07-04T09:29:09.182Z</time>
      </trkpt>
      <trkpt lat="48.71212" lon="1.99374">
        <ele>165</ele>
        <time>2025-07-04T09:29:13.660Z</time>
      </trkpt>
      <trkpt lat="48.71213" lon="1.99365">
        <ele>165</ele>
        <time>2025-07-04T09:29:18.159Z</time>
      </trkpt>
      <trkpt lat="48.71213" lon="1.99357">
        <ele>165</ele>
        <time>2025-07-04T09:29:22.321Z</time>
      </trkpt>
      <trkpt lat="48.71213" lon="1.99349">
        <ele>165</ele>
        <time>2025-07-04T09:29:26.842Z</time>
      </trkpt>
      <trkpt lat="48.71214" lon="1.99341">
        <ele>163</ele>
        <time>2025-07-04T09:29:30.860Z</time>
      </trkpt>
      <trkpt lat="48.71217" lon="1.99333">
        <ele>163</ele>
        <time>2025-07-04T09:29:35.220Z</time>
      </trkpt>
      <trkpt lat="48.71219" lon="1.99327">
        <ele>163</ele>
        <time>2025-07-04T09:29:39.342Z</time>
      </trkpt>
      <trkpt lat="48.71222" lon="1.99319">
        <ele>160</ele>
        <time>2025-07-04T09:29:43.940Z</time>
      </trkpt>
      <trkpt lat="48.71225" lon="1.99314">
        <ele>160</ele>
        <time>2025-07-04T09:29:48.342Z</time>
      </trkpt>
      <trkpt lat="48.71228" lon="1.99308">
        <ele>160</ele>
        <time>2025-07-04T09:29:52.796Z</time>
      </trkpt>
      <trkpt lat="48.71231" lon="1.99303">
        <ele>160</ele>
        <time>2025-07-04T09:29:56.919Z</time>
      </trkpt>
      <trkpt lat="48.71235" lon="1.993">
        <ele>160</ele>
        <time>2025-07-04T09:30:00.995Z</time>
      </trkpt>
      <trkpt lat="48.71239" lon="1.99298">
        <ele>168</ele>
        <time>2025-07-04T09:30:05.083Z</time>
      </trkpt>
      <trkpt lat="48.71244" lon="1.99296">
        <ele>168</ele>
        <time>2025-07-04T09:30:09.534Z</time>
      </trkpt>
      <trkpt lat="48.71248" lon="1.99294">
        <ele>168</ele>
        <time>2025-07-04T09:30:14.238Z</time>
      </trkpt>
      <trkpt lat="48.71252" lon="1.99292">
        <ele>168</ele>
        <time>2025-07-04T09:30:18.535Z</time>
      </trkpt>
      <trkpt lat="48.71255" lon="1.99287">
        <ele>165</ele>
        <time>2025-07-04T09:30:22.615Z</time>
      </trkpt>
      <trkpt lat="48.7126" lon="1.99283">
        <ele>165</ele>
        <time>2025-07-04T09:30:27.240Z</time>
      </trkpt>
      <trkpt lat="48.71266" lon="1.99279">
        <ele>171</ele>
        <time>2025-07-04T09:30:46.536Z</time>
      </trkpt>
      <trkpt lat="48.71267" lon="1.99278">
        <ele>171</ele>
        <time>2025-07-04T09:30:51.536Z</time>
      </trkpt>
      <trkpt lat="48.71267" lon="1.99277">
        <ele>171</ele>
        <time>2025-07-04T09:30:59.536Z</time>
      </trkpt>
      <trkpt lat="48.71268" lon="1.9927">
        <ele>171</ele>
        <time>2025-07-04T09:31:04.536Z</time>
      </trkpt>
      <trkpt lat="48.71268" lon="1.99269">
        <ele>171</ele>
        <time>2025-07-04T09:31:09.534Z</time>
      </trkpt>
      <trkpt lat="48.71269" lon="1.99268">
        <ele>171</ele>
        <time>2025-07-04T09:33:56.536Z</time>
      </trkpt>
      <trkpt lat="48.71269" lon="1.99264">
        <ele>167</ele>
        <time>2025-07-04T09:34:00.536Z</time>
      </trkpt>
      <trkpt lat="48.71265" lon="1.99257">
        <ele>167</ele>
        <time>2025-07-04T09:34:05.536Z</time>
      </trkpt>
      <trkpt lat="48.71263" lon="1.99251">
        <ele>162</ele>
        <time>2025-07-04T09:34:09.536Z</time>
      </trkpt>
      <trkpt lat="48.71263" lon="1.99242">
        <ele>162</ele>
        <time>2025-07-04T09:34:14.101Z</time>
      </trkpt>
      <trkpt lat="48.71262" lon="1.99235">
        <ele>159</ele>
        <time>2025-07-04T09:34:18.360Z</time>
      </trkpt>
      <trkpt lat="48.71263" lon="1.99228">
        <ele>159</ele>
        <time>2025-07-04T09:34:22.536Z</time>
      </trkpt>
      <trkpt lat="48.71262" lon="1.9922">
        <ele>159</ele>
        <time>2025-07-04T09:34:27.462Z</time>
      </trkpt>
      <trkpt lat="48.71262" lon="1.99213">
        <ele>159</ele>
        <time>2025-07-04T09:34:31.536Z</time>
      </trkpt>
      <trkpt lat="48.71263" lon="1.99206">
        <ele>156</ele>
        <time>2025-07-04T09:34:35.679Z</time>
      </trkpt>
      <trkpt lat="48.71265" lon="1.99201">
        <ele>161</ele>
        <time>2025-07-04T09:34:39.743Z</time>
      </trkpt>
      <trkpt lat="48.71267" lon="1.99195">
        <ele>161</ele>
        <time>2025-07-04T09:34:44.280Z</time>
      </trkpt>
      <trkpt lat="48.71271" lon="1.9919">
        <ele>161</ele>
        <time>2025-07-04T09:34:48.460Z</time>
      </trkpt>
      <trkpt lat="48.71272" lon="1.99185">
        <ele>161</ele>
        <time>2025-07-04T09:34:52.956Z</time>
      </trkpt>
      <trkpt lat="48.71272" lon="1.99179">
        <ele>160</ele>
        <time>2025-07-04T09:34:57.435Z</time>
      </trkpt>
      <trkpt lat="48.71272" lon="1.99173">
        <ele>160</ele>
        <time>2025-07-04T09:35:01.480Z</time>
      </trkpt>
      <trkpt lat="48.71274" lon="1.99169">
        <ele>160</ele>
        <time>2025-07-04T09:35:06.130Z</time>
      </trkpt>
      <trkpt lat="48.71274" lon="1.99165">
        <ele>160</ele>
        <time>2025-07-04T09:35:10.534Z</time>
      </trkpt>
      <trkpt lat="48.71274" lon="1.9916">
        <ele>160</ele>
        <time>2025-07-04T09:35:14.793Z</time>
      </trkpt>
      <trkpt lat="48.71276" lon="1.99156">
        <ele>160</ele>
        <time>2025-07-04T09:35:18.841Z</time>
      </trkpt>
      <trkpt lat="48.71277" lon="1.9915">
        <ele>160</ele>
        <time>2025-07-04T09:35:23.219Z</time>
      </trkpt>
      <trkpt lat="48.71278" lon="1.99144">
        <ele>160</ele>
        <time>2025-07-04T09:35:27.537Z</time>
      </trkpt>
      <trkpt lat="48.71277" lon="1.99138">
        <ele>160</ele>
        <time>2025-07-04T09:35:31.536Z</time>
      </trkpt>
      <trkpt lat="48.71277" lon="1.99132">
        <ele>160</ele>
        <time>2025-07-04T09:35:36.058Z</time>
      </trkpt>
      <trkpt lat="48.71276" lon="1.99125">
        <ele>160</ele>
        <time>2025-07-04T09:35:40.533Z</time>
      </trkpt>
      <trkpt lat="48.71274" lon="1.99118">
        <ele>159</ele>
        <time>2025-07-04T09:35:45.402Z</time>
      </trkpt>
      <trkpt lat="48.7127" lon="1.99112">
        <ele>159</ele>
        <time>2025-07-04T09:35:50Z</time>
      </trkpt>
      <trkpt lat="48.71269" lon="1.99106">
        <ele>159</ele>
        <time>2025-07-04T09:35:54.198Z</time>
      </trkpt>
      <trkpt lat="48.71268" lon="1.99101">
        <ele>159</ele>
        <time>2025-07-04T09:35:58.216Z</time>
      </trkpt>
      <trkpt lat="48.71264" lon="1.99095">
        <ele>157</ele>
        <time>2025-07-04T09:36:02.535Z</time>
      </trkpt>
      <trkpt lat="48.7126" lon="1.9909">
        <ele>148</ele>
        <time>2025-07-04T09:36:06.996Z</time>
      </trkpt>
      <trkpt lat="48.71256" lon="1.99086">
        <ele>148</ele>
        <time>2025-07-04T09:36:11.202Z</time>
      </trkpt>
      <trkpt lat="48.71254" lon="1.99079">
        <ele>148</ele>
        <time>2025-07-04T09:36:15.535Z</time>
      </trkpt>
      <trkpt lat="48.7125" lon="1.99075">
        <ele>148</ele>
        <time>2025-07-04T09:36:19.742Z</time>
      </trkpt>
      <trkpt lat="48.71247" lon="1.99068">
        <ele>144</ele>
        <time>2025-07-04T09:36:24.256Z</time>
      </trkpt>
      <trkpt lat="48.71244" lon="1.9906">
        <ele>144</ele>
        <time>2025-07-04T09:36:28.794Z</time>
      </trkpt>
      <trkpt lat="48.71242" lon="1.99053">
        <ele>144</ele>
        <time>2025-07-04T09:36:33.221Z</time>
      </trkpt>
      <trkpt lat="48.71243" lon="1.99044">
        <ele>144</ele>
        <time>2025-07-04T09:36:37.617Z</time>
      </trkpt>
      <trkpt lat="48.71245" lon="1.99038">
        <ele>141</ele>
        <time>2025-07-04T09:36:41.858Z</time>
      </trkpt>
      <trkpt lat="48.71249" lon="1.99033">
        <ele>141</ele>
        <time>2025-07-04T09:36:46.396Z</time>
      </trkpt>
      <trkpt lat="48.71251" lon="1.99027">
        <ele>141</ele>
        <time>2025-07-04T09:36:50.875Z</time>
      </trkpt>
      <trkpt lat="48.71252" lon="1.99019">
        <ele>141</ele>
        <time>2025-07-04T09:36:55.362Z</time>
      </trkpt>
      <trkpt lat="48.71255" lon="1.99012">
        <ele>140</ele>
        <time>2025-07-04T09:36:59.799Z</time>
      </trkpt>
      <trkpt lat="48.71258" lon="1.99005">
        <ele>140</ele>
        <time>2025-07-04T09:37:04.218Z</time>
      </trkpt>
      <trkpt lat="48.71262" lon="1.98999">
        <ele>140</ele>
        <time>2025-07-04T09:37:08.818Z</time>
      </trkpt>
      <trkpt lat="48.71264" lon="1.98993">
        <ele>147</ele>
        <time>2025-07-04T09:37:12.956Z</time>
      </trkpt>
      <trkpt lat="48.71264" lon="1.98984">
        <ele>138</ele>
        <time>2025-07-04T09:37:17.443Z</time>
      </trkpt>
      <trkpt lat="48.7126" lon="1.98976">
        <ele>138</ele>
        <time>2025-07-04T09:37:21.838Z</time>
      </trkpt>
      <trkpt lat="48.71259" lon="1.98968">
        <ele>138</ele>
        <time>2025-07-04T09:37:26.180Z</time>
      </trkpt>
      <trkpt lat="48.7126" lon="1.9896">
        <ele>138</ele>
        <time>2025-07-04T09:37:30.275Z</time>
      </trkpt>
      <trkpt lat="48.71261" lon="1.98954">
        <ele>135</ele>
        <time>2025-07-04T09:37:34.320Z</time>
      </trkpt>
      <trkpt lat="48.71261" lon="1.98947">
        <ele>135</ele>
        <time>2025-07-04T09:37:38.536Z</time>
      </trkpt>
      <trkpt lat="48.71257" lon="1.98944">
        <ele>135</ele>
        <time>2025-07-04T09:37:43.200Z</time>
      </trkpt>
      <trkpt lat="48.71252" lon="1.98941">
        <ele>135</ele>
        <time>2025-07-04T09:37:47.415Z</time>
      </trkpt>
      <trkpt lat="48.71249" lon="1.98936">
        <ele>135</ele>
        <time>2025-07-04T09:37:51.882Z</time>
      </trkpt>
      <trkpt lat="48.71245" lon="1.9893">
        <ele>132</ele>
        <time>2025-07-04T09:37:56.195Z</time>
      </trkpt>
      <trkpt lat="48.71243" lon="1.98925">
        <ele>132</ele>
        <time>2025-07-04T09:38:00.196Z</time>
      </trkpt>
      <trkpt lat="48.71238" lon="1.98921">
        <ele>132</ele>
        <time>2025-07-04T09:38:04.536Z</time>
      </trkpt>
      <trkpt lat="48.71233" lon="1.98919">
        <ele>124</ele>
        <time>2025-07-04T09:38:09.180Z</time>
      </trkpt>
      <trkpt lat="48.71228" lon="1.98918">
        <ele>124</ele>
        <time>2025-07-04T09:38:13.536Z</time>
      </trkpt>
      <trkpt lat="48.71223" lon="1.98919">
        <ele>124</ele>
        <time>2025-07-04T09:38:17.883Z</time>
      </trkpt>
      <trkpt lat="48.71218" lon="1.9892">
        <ele>124</ele>
        <time>2025-07-04T09:38:21.906Z</time>
      </trkpt>
      <trkpt lat="48.71213" lon="1.98921">
        <ele>124</ele>
        <time>2025-07-04T09:38:26.406Z</time>
      </trkpt>
      <trkpt lat="48.71207" lon="1.98918">
        <ele>117</ele>
        <time>2025-07-04T09:38:30.706Z</time>
      </trkpt>
      <trkpt lat="48.71203" lon="1.98917">
        <ele>117</ele>
        <time>2025-07-04T09:38:34.725Z</time>
      </trkpt>
      <trkpt lat="48.71198" lon="1.98916">
        <ele>117</ele>
        <time>2025-07-04T09:38:38.794Z</time>
      </trkpt>
      <trkpt lat="48.71194" lon="1.98918">
        <ele>117</ele>
        <time>2025-07-04T09:38:43.385Z</time>
      </trkpt>
      <trkpt lat="48.7119" lon="1.98918">
        <ele>117</ele>
        <time>2025-07-04T09:38:48.027Z</time>
      </trkpt>
      <trkpt lat="48.71186" lon="1.9892">
        <ele>117</ele>
        <time>2025-07-04T09:38:52.505Z</time>
      </trkpt>
      <trkpt lat="48.71184" lon="1.98919">
        <ele>117</ele>
        <time>2025-07-04T09:38:56.536Z</time>
      </trkpt>
      <trkpt lat="48.71181" lon="1.98918">
        <ele>117</ele>
        <time>2025-07-04T09:39:01.285Z</time>
      </trkpt>
      <trkpt lat="48.71178" lon="1.9892">
        <ele>111</ele>
        <time>2025-07-04T09:39:05.949Z</time>
      </trkpt>
      <trkpt lat="48.71174" lon="1.98924">
        <ele>111</ele>
        <time>2025-07-04T09:39:10.347Z</time>
      </trkpt>
      <trkpt lat="48.71171" lon="1.98928">
        <ele>111</ele>
        <time>2025-07-04T09:39:14.663Z</time>
      </trkpt>
      <trkpt lat="48.71168" lon="1.98931">
        <ele>113</ele>
        <time>2025-07-04T09:39:19.535Z</time>
      </trkpt>
      <trkpt lat="48.71166" lon="1.98931">
        <ele>113</ele>
        <time>2025-07-04T09:39:23.706Z</time>
      </trkpt>
      <trkpt lat="48.71163" lon="1.98931">
        <ele>113</ele>
        <time>2025-07-04T09:39:28.289Z</time>
      </trkpt>
      <trkpt lat="48.7116" lon="1.98933">
        <ele>113</ele>
        <time>2025-07-04T09:39:32.535Z</time>
      </trkpt>
      <trkpt lat="48.71156" lon="1.98939">
        <ele>113</ele>
        <time>2025-07-04T09:39:41.536Z</time>
      </trkpt>
      <trkpt lat="48.71154" lon="1.98936">
        <ele>113</ele>
        <time>2025-07-04T09:39:46.426Z</time>
      </trkpt>
      <trkpt lat="48.71156" lon="1.98931">
        <ele>111</ele>
        <time>2025-07-04T09:39:50.532Z</time>
      </trkpt>
      <trkpt lat="48.71161" lon="1.98924">
        <ele>111</ele>
        <time>2025-07-04T09:39:55.534Z</time>
      </trkpt>
      <trkpt lat="48.71165" lon="1.9892">
        <ele>111</ele>
        <time>2025-07-04T09:39:59.851Z</time>
      </trkpt>
      <trkpt lat="48.71168" lon="1.98915">
        <ele>111</ele>
        <time>2025-07-04T09:40:04.029Z</time>
      </trkpt>
      <trkpt lat="48.71172" lon="1.9891">
        <ele>111</ele>
        <time>2025-07-04T09:40:08.046Z</time>
      </trkpt>
      <trkpt lat="48.71174" lon="1.98907">
        <ele>111</ele>
        <time>2025-07-04T09:40:12.052Z</time>
      </trkpt>
      <trkpt lat="48.71178" lon="1.98901">
        <ele>109</ele>
        <time>2025-07-04T09:40:16.288Z</time>
      </trkpt>
      <trkpt lat="48.71182" lon="1.98897">
        <ele>114</ele>
        <time>2025-07-04T09:40:20.384Z</time>
      </trkpt>
      <trkpt lat="48.71185" lon="1.98893">
        <ele>114</ele>
        <time>2025-07-04T09:40:24.534Z</time>
      </trkpt>
      <trkpt lat="48.71189" lon="1.98889">
        <ele>114</ele>
        <time>2025-07-04T09:40:28.821Z</time>
      </trkpt>
      <trkpt lat="48.71194" lon="1.98884">
        <ele>114</ele>
        <time>2025-07-04T09:40:33.300Z</time>
      </trkpt>
      <trkpt lat="48.71198" lon="1.98879">
        <ele>114</ele>
        <time>2025-07-04T09:40:37.533Z</time>
      </trkpt>
      <trkpt lat="48.71202" lon="1.98874">
        <ele>112</ele>
        <time>2025-07-04T09:40:41.534Z</time>
      </trkpt>
      <trkpt lat="48.71206" lon="1.98868">
        <ele>112</ele>
        <time>2025-07-04T09:40:46.484Z</time>
      </trkpt>
      <trkpt lat="48.71209" lon="1.98862">
        <ele>119</ele>
        <time>2025-07-04T09:40:51.046Z</time>
      </trkpt>
      <trkpt lat="48.71213" lon="1.98855">
        <ele>119</ele>
        <time>2025-07-04T09:40:55.534Z</time>
      </trkpt>
      <trkpt lat="48.71216" lon="1.9885">
        <ele>119</ele>
        <time>2025-07-04T09:40:59.536Z</time>
      </trkpt>
      <trkpt lat="48.71219" lon="1.98845">
        <ele>115</ele>
        <time>2025-07-04T09:41:04.040Z</time>
      </trkpt>
      <trkpt lat="48.71223" lon="1.9884">
        <ele>115</ele>
        <time>2025-07-04T09:41:08.264Z</time>
      </trkpt>
      <trkpt lat="48.71226" lon="1.98833">
        <ele>115</ele>
        <time>2025-07-04T09:41:12.795Z</time>
      </trkpt>
      <trkpt lat="48.71229" lon="1.98824">
        <ele>115</ele>
        <time>2025-07-04T09:41:17.282Z</time>
      </trkpt>
      <trkpt lat="48.71232" lon="1.98817">
        <ele>113</ele>
        <time>2025-07-04T09:41:21.761Z</time>
      </trkpt>
      <trkpt lat="48.71235" lon="1.9881">
        <ele>113</ele>
        <time>2025-07-04T09:41:26.206Z</time>
      </trkpt>
      <trkpt lat="48.71238" lon="1.98803">
        <ele>121</ele>
        <time>2025-07-04T09:41:30.268Z</time>
      </trkpt>
      <trkpt lat="48.7124" lon="1.98796">
        <ele>121</ele>
        <time>2025-07-04T09:41:34.422Z</time>
      </trkpt>
      <trkpt lat="48.71242" lon="1.9879">
        <ele>118</ele>
        <time>2025-07-04T09:41:38.536Z</time>
      </trkpt>
      <trkpt lat="48.71246" lon="1.98783">
        <ele>118</ele>
        <time>2025-07-04T09:41:42.920Z</time>
      </trkpt>
      <trkpt lat="48.71249" lon="1.98777">
        <ele>118</ele>
        <time>2025-07-04T09:41:47.040Z</time>
      </trkpt>
      <trkpt lat="48.71252" lon="1.98771">
        <ele>118</ele>
        <time>2025-07-04T09:41:51.533Z</time>
      </trkpt>
      <trkpt lat="48.71254" lon="1.98765">
        <ele>118</ele>
        <time>2025-07-04T09:41:55.744Z</time>
      </trkpt>
      <trkpt lat="48.71257" lon="1.9876">
        <ele>115</ele>
        <time>2025-07-04T09:42:00.111Z</time>
      </trkpt>
      <trkpt lat="48.7126" lon="1.98753">
        <ele>115</ele>
        <time>2025-07-04T09:42:04.536Z</time>
      </trkpt>
      <trkpt lat="48.71263" lon="1.98745">
        <ele>115</ele>
        <time>2025-07-04T09:42:08.814Z</time>
      </trkpt>
      <trkpt lat="48.71266" lon="1.98738">
        <ele>122</ele>
        <time>2025-07-04T09:42:13.224Z</time>
      </trkpt>
      <trkpt lat="48.71269" lon="1.98731">
        <ele>118</ele>
        <time>2025-07-04T09:42:17.543Z</time>
      </trkpt>
      <trkpt lat="48.71273" lon="1.98723">
        <ele>118</ele>
        <time>2025-07-04T09:42:21.919Z</time>
      </trkpt>
      <trkpt lat="48.71276" lon="1.98715">
        <ele>118</ele>
        <time>2025-07-04T09:42:26.424Z</time>
      </trkpt>
      <trkpt lat="48.71277" lon="1.98708">
        <ele>115</ele>
        <time>2025-07-04T09:42:30.536Z</time>
      </trkpt>
      <trkpt lat="48.71279" lon="1.98702">
        <ele>115</ele>
        <time>2025-07-04T09:42:34.670Z</time>
      </trkpt>
      <trkpt lat="48.71282" lon="1.98695">
        <ele>115</ele>
        <time>2025-07-04T09:42:39.119Z</time>
      </trkpt>
      <trkpt lat="48.71284" lon="1.9869">
        <ele>115</ele>
        <time>2025-07-04T09:42:43.445Z</time>
      </trkpt>
      <trkpt lat="48.71287" lon="1.98684">
        <ele>115</ele>
        <time>2025-07-04T09:42:47.702Z</time>
      </trkpt>
      <trkpt lat="48.71289" lon="1.98679">
        <ele>112</ele>
        <time>2025-07-04T09:42:51.840Z</time>
      </trkpt>
      <trkpt lat="48.71293" lon="1.98672">
        <ele>120</ele>
        <time>2025-07-04T09:42:56.499Z</time>
      </trkpt>
      <trkpt lat="48.71296" lon="1.98666">
        <ele>120</ele>
        <time>2025-07-04T09:43:01.039Z</time>
      </trkpt>
      <trkpt lat="48.71299" lon="1.98659">
        <ele>120</ele>
        <time>2025-07-04T09:43:05.535Z</time>
      </trkpt>
      <trkpt lat="48.71302" lon="1.98653">
        <ele>118</ele>
        <time>2025-07-04T09:43:09.787Z</time>
      </trkpt>
      <trkpt lat="48.71306" lon="1.98646">
        <ele>118</ele>
        <time>2025-07-04T09:43:14.159Z</time>
      </trkpt>
      <trkpt lat="48.71308" lon="1.98637">
        <ele>118</ele>
        <time>2025-07-04T09:43:18.698Z</time>
      </trkpt>
      <trkpt lat="48.71311" lon="1.9863">
        <ele>118</ele>
        <time>2025-07-04T09:43:23.143Z</time>
      </trkpt>
      <trkpt lat="48.71312" lon="1.98622">
        <ele>116</ele>
        <time>2025-07-04T09:43:27.223Z</time>
      </trkpt>
      <trkpt lat="48.71313" lon="1.98614">
        <ele>116</ele>
        <time>2025-07-04T09:43:31.461Z</time>
      </trkpt>
      <trkpt lat="48.71315" lon="1.98606">
        <ele>116</ele>
        <time>2025-07-04T09:43:35.536Z</time>
      </trkpt>
      <trkpt lat="48.71317" lon="1.98598">
        <ele>116</ele>
        <time>2025-07-04T09:43:39.720Z</time>
      </trkpt>
      <trkpt lat="48.71318" lon="1.9859">
        <ele>114</ele>
        <time>2025-07-04T09:43:44.158Z</time>
      </trkpt>
      <trkpt lat="48.7132" lon="1.98581">
        <ele>116</ele>
        <time>2025-07-04T09:43:48.519Z</time>
      </trkpt>
      <trkpt lat="48.71322" lon="1.98572">
        <ele>116</ele>
        <time>2025-07-04T09:43:52.962Z</time>
      </trkpt>
      <trkpt lat="48.71323" lon="1.98564">
        <ele>114</ele>
        <time>2025-07-04T09:43:57.262Z</time>
      </trkpt>
      <trkpt lat="48.71325" lon="1.98555">
        <ele>114</ele>
        <time>2025-07-04T09:44:01.536Z</time>
      </trkpt>
      <trkpt lat="48.71328" lon="1.98546">
        <ele>114</ele>
        <time>2025-07-04T09:44:06.425Z</time>
      </trkpt>
      <trkpt lat="48.7133" lon="1.98537">
        <ele>114</ele>
        <time>2025-07-04T09:44:10.530Z</time>
      </trkpt>
      <trkpt lat="48.71333" lon="1.98531">
        <ele>114</ele>
        <time>2025-07-04T09:44:14.803Z</time>
      </trkpt>
      <trkpt lat="48.71335" lon="1.98525">
        <ele>114</ele>
        <time>2025-07-04T09:44:19.019Z</time>
      </trkpt>
      <trkpt lat="48.71332" lon="1.98521">
        <ele>114</ele>
        <time>2025-07-04T09:44:23.379Z</time>
      </trkpt>
      <trkpt lat="48.71332" lon="1.98519">
        <ele>114</ele>
        <time>2025-07-04T09:44:27.439Z</time>
      </trkpt>
      <trkpt lat="48.71332" lon="1.98517">
        <ele>114</ele>
        <time>2025-07-04T09:44:32.063Z</time>
      </trkpt>
      <trkpt lat="48.71329" lon="1.98511">
        <ele>115</ele>
        <time>2025-07-04T09:44:36.482Z</time>
      </trkpt>
      <trkpt lat="48.71325" lon="1.98506">
        <ele>115</ele>
        <time>2025-07-04T09:44:41.039Z</time>
      </trkpt>
      <trkpt lat="48.71321" lon="1.98506">
        <ele>115</ele>
        <time>2025-07-04T09:44:45.159Z</time>
      </trkpt>
      <trkpt lat="48.7132" lon="1.98503">
        <ele>115</ele>
        <time>2025-07-04T09:44:49.534Z</time>
      </trkpt>
      <trkpt lat="48.71318" lon="1.98503">
        <ele>108</ele>
        <time>2025-07-04T09:44:54.059Z</time>
      </trkpt>
      <trkpt lat="48.71312" lon="1.98498">
        <ele>108</ele>
        <time>2025-07-04T09:44:58.446Z</time>
      </trkpt>
      <trkpt lat="48.71308" lon="1.98494">
        <ele>108</ele>
        <time>2025-07-04T09:45:02.533Z</time>
      </trkpt>
      <trkpt lat="48.71301" lon="1.98493">
        <ele>108</ele>
        <time>2025-07-04T09:45:06.822Z</time>
      </trkpt>
      <trkpt lat="48.71298" lon="1.98497">
        <ele>108</ele>
        <time>2025-07-04T09:45:11.536Z</time>
      </trkpt>
      <trkpt lat="48.71295" lon="1.98502">
        <ele>108</ele>
        <time>2025-07-04T09:45:16.481Z</time>
      </trkpt>
      <trkpt lat="48.71289" lon="1.98505">
        <ele>103</ele>
        <time>2025-07-04T09:45:20.985Z</time>
      </trkpt>
      <trkpt lat="48.71284" lon="1.98506">
        <ele>103</ele>
        <time>2025-07-04T09:45:25.422Z</time>
      </trkpt>
      <trkpt lat="48.71279" lon="1.98506">
        <ele>103</ele>
        <time>2025-07-04T09:45:29.531Z</time>
      </trkpt>
      <trkpt lat="48.71273" lon="1.98507">
        <ele>103</ele>
        <time>2025-07-04T09:45:34.064Z</time>
      </trkpt>
      <trkpt lat="48.71267" lon="1.98508">
        <ele>103</ele>
        <time>2025-07-04T09:45:38.305Z</time>
      </trkpt>
      <trkpt lat="48.71262" lon="1.98512">
        <ele>99</ele>
        <time>2025-07-04T09:45:42.810Z</time>
      </trkpt>
      <trkpt lat="48.71258" lon="1.98518">
        <ele>99</ele>
        <time>2025-07-04T09:45:46.981Z</time>
      </trkpt>
      <trkpt lat="48.71254" lon="1.98525">
        <ele>99</ele>
        <time>2025-07-04T09:45:51.401Z</time>
      </trkpt>
      <trkpt lat="48.7125" lon="1.9853">
        <ele>99</ele>
        <time>2025-07-04T09:45:55.803Z</time>
      </trkpt>
      <trkpt lat="48.71245" lon="1.98536">
        <ele>99</ele>
        <time>2025-07-04T09:46:00.198Z</time>
      </trkpt>
      <trkpt lat="48.71242" lon="1.98542">
        <ele>99</ele>
        <time>2025-07-04T09:46:04.839Z</time>
      </trkpt>
      <trkpt lat="48.71237" lon="1.98547">
        <ele>100</ele>
        <time>2025-07-04T09:46:09.361Z</time>
      </trkpt>
      <trkpt lat="48.71232" lon="1.98553">
        <ele>95</ele>
        <time>2025-07-04T09:46:14.241Z</time>
      </trkpt>
      <trkpt lat="48.71225" lon="1.98555">
        <ele>95</ele>
        <time>2025-07-04T09:46:18.531Z</time>
      </trkpt>
      <trkpt lat="48.71219" lon="1.98559">
        <ele>95</ele>
        <time>2025-07-04T09:46:23.199Z</time>
      </trkpt>
      <trkpt lat="48.71214" lon="1.98563">
        <ele>95</ele>
        <time>2025-07-04T09:46:27.533Z</time>
      </trkpt>
      <trkpt lat="48.71209" lon="1.98567">
        <ele>95</ele>
        <time>2025-07-04T09:46:32.039Z</time>
      </trkpt>
      <trkpt lat="48.71204" lon="1.98571">
        <ele>93</ele>
        <time>2025-07-04T09:46:36.535Z</time>
      </trkpt>
      <trkpt lat="48.71198" lon="1.98574">
        <ele>93</ele>
        <time>2025-07-04T09:46:41.023Z</time>
      </trkpt>
      <trkpt lat="48.71193" lon="1.98579">
        <ele>93</ele>
        <time>2025-07-04T09:46:45.459Z</time>
      </trkpt>
      <trkpt lat="48.71189" lon="1.98583">
        <ele>93</ele>
        <time>2025-07-04T09:46:50.262Z</time>
      </trkpt>
      <trkpt lat="48.71184" lon="1.98585">
        <ele>93</ele>
        <time>2025-07-04T09:46:54.992Z</time>
      </trkpt>
      <trkpt lat="48.71183" lon="1.98586">
        <ele>93</ele>
        <time>2025-07-04T09:46:55.530Z</time>
      </trkpt>
      <trkpt lat="48.71173" lon="1.98591">
        <ele>92</ele>
        <time>2025-07-04T09:47:04.532Z</time>
      </trkpt>
      <trkpt lat="48.71166" lon="1.9859">
        <ele>92</ele>
        <time>2025-07-04T09:47:08.835Z</time>
      </trkpt>
      <trkpt lat="48.7116" lon="1.98586">
        <ele>92</ele>
        <time>2025-07-04T09:47:13.136Z</time>
      </trkpt>
      <trkpt lat="48.71156" lon="1.98583">
        <ele>92</ele>
        <time>2025-07-04T09:47:17.532Z</time>
      </trkpt>
      <trkpt lat="48.71151" lon="1.98583">
        <ele>92</ele>
        <time>2025-07-04T09:47:21.535Z</time>
      </trkpt>
      <trkpt lat="48.71146" lon="1.98585">
        <ele>92</ele>
        <time>2025-07-04T09:47:26.435Z</time>
      </trkpt>
      <trkpt lat="48.71141" lon="1.98588">
        <ele>92</ele>
        <time>2025-07-04T09:47:30.839Z</time>
      </trkpt>
      <trkpt lat="48.71136" lon="1.98589">
        <ele>92</ele>
        <time>2025-07-04T09:47:34.898Z</time>
      </trkpt>
      <trkpt lat="48.71129" lon="1.98588">
        <ele>92</ele>
        <time>2025-07-04T09:47:39.456Z</time>
      </trkpt>
      <trkpt lat="48.71121" lon="1.98584">
        <ele>92</ele>
        <time>2025-07-04T09:47:43.892Z</time>
      </trkpt>
      <trkpt lat="48.71114" lon="1.9858">
        <ele>92</ele>
        <time>2025-07-04T09:47:48.279Z</time>
      </trkpt>
      <trkpt lat="48.71109" lon="1.98578">
        <ele>92</ele>
        <time>2025-07-04T09:47:52.533Z</time>
      </trkpt>
      <trkpt lat="48.71102" lon="1.98578">
        <ele>92</ele>
        <time>2025-07-04T09:47:57.152Z</time>
      </trkpt>
      <trkpt lat="48.71096" lon="1.98577">
        <ele>93</ele>
        <time>2025-07-04T09:48:01.536Z</time>
      </trkpt>
      <trkpt lat="48.7109" lon="1.98577">
        <ele>93</ele>
        <time>2025-07-04T09:48:05.958Z</time>
      </trkpt>
      <trkpt lat="48.71084" lon="1.98577">
        <ele>93</ele>
        <time>2025-07-04T09:48:10.352Z</time>
      </trkpt>
      <trkpt lat="48.71078" lon="1.98577">
        <ele>93</ele>
        <time>2025-07-04T09:48:14.875Z</time>
      </trkpt>
      <trkpt lat="48.71072" lon="1.98578">
        <ele>93</ele>
        <time>2025-07-04T09:48:19.158Z</time>
      </trkpt>
      <trkpt lat="48.71066" lon="1.98577">
        <ele>94</ele>
        <time>2025-07-04T09:48:23.458Z</time>
      </trkpt>
      <trkpt lat="48.71061" lon="1.98577">
        <ele>94</ele>
        <time>2025-07-04T09:48:27.895Z</time>
      </trkpt>
      <trkpt lat="48.71056" lon="1.98577">
        <ele>94</ele>
        <time>2025-07-04T09:48:32.357Z</time>
      </trkpt>
      <trkpt lat="48.7105" lon="1.98576">
        <ele>94</ele>
        <time>2025-07-04T09:48:36.718Z</time>
      </trkpt>
      <trkpt lat="48.71046" lon="1.98576">
        <ele>94</ele>
        <time>2025-07-04T09:48:40.873Z</time>
      </trkpt>
      <trkpt lat="48.71041" lon="1.98576">
        <ele>95</ele>
        <time>2025-07-04T09:48:45.079Z</time>
      </trkpt>
      <trkpt lat="48.71036" lon="1.98577">
        <ele>95</ele>
        <time>2025-07-04T09:48:49.518Z</time>
      </trkpt>
      <trkpt lat="48.71031" lon="1.98578">
        <ele>95</ele>
        <time>2025-07-04T09:48:53.698Z</time>
      </trkpt>
      <trkpt lat="48.71026" lon="1.9858">
        <ele>95</ele>
        <time>2025-07-04T09:48:57.717Z</time>
      </trkpt>
      <trkpt lat="48.71021" lon="1.98582">
        <ele>95</ele>
        <time>2025-07-04T09:49:02.238Z</time>
      </trkpt>
      <trkpt lat="48.71015" lon="1.98584">
        <ele>95</ele>
        <time>2025-07-04T09:49:06.736Z</time>
      </trkpt>
      <trkpt lat="48.7101" lon="1.98586">
        <ele>95</ele>
        <time>2025-07-04T09:49:11.198Z</time>
      </trkpt>
      <trkpt lat="48.71005" lon="1.98589">
        <ele>95</ele>
        <time>2025-07-04T09:49:15.696Z</time>
      </trkpt>
      <trkpt lat="48.70999" lon="1.98591">
        <ele>95</ele>
        <time>2025-07-04T09:49:20.174Z</time>
      </trkpt>
      <trkpt lat="48.70994" lon="1.98593">
        <ele>95</ele>
        <time>2025-07-04T09:49:24.619Z</time>
      </trkpt>
      <trkpt lat="48.70988" lon="1.98593">
        <ele>95</ele>
        <time>2025-07-04T09:49:29.217Z</time>
      </trkpt>
      <trkpt lat="48.70983" lon="1.98592">
        <ele>97</ele>
        <time>2025-07-04T09:49:33.531Z</time>
      </trkpt>
      <trkpt lat="48.70977" lon="1.9859">
        <ele>97</ele>
        <time>2025-07-04T09:49:38.433Z</time>
      </trkpt>
      <trkpt lat="48.70972" lon="1.98588">
        <ele>97</ele>
        <time>2025-07-04T09:49:42.656Z</time>
      </trkpt>
      <trkpt lat="48.70967" lon="1.98587">
        <ele>97</ele>
        <time>2025-07-04T09:49:46.779Z</time>
      </trkpt>
      <trkpt lat="48.70963" lon="1.98585">
        <ele>97</ele>
        <time>2025-07-04T09:49:50.916Z</time>
      </trkpt>
      <trkpt lat="48.70958" lon="1.98582">
        <ele>100</ele>
        <time>2025-07-04T09:49:54.935Z</time>
      </trkpt>
      <trkpt lat="48.70954" lon="1.98579">
        <ele>100</ele>
        <time>2025-07-04T09:49:59.038Z</time>
      </trkpt>
      <trkpt lat="48.70949" lon="1.98576">
        <ele>100</ele>
        <time>2025-07-04T09:50:03.530Z</time>
      </trkpt>
      <trkpt lat="48.70944" lon="1.98572">
        <ele>100</ele>
        <time>2025-07-04T09:50:07.792Z</time>
      </trkpt>
      <trkpt lat="48.7094" lon="1.98569">
        <ele>101</ele>
        <time>2025-07-04T09:50:12.093Z</time>
      </trkpt>
      <trkpt lat="48.70936" lon="1.98565">
        <ele>101</ele>
        <time>2025-07-04T09:50:16.481Z</time>
      </trkpt>
      <trkpt lat="48.70931" lon="1.9856">
        <ele>101</ele>
        <time>2025-07-04T09:50:21.060Z</time>
      </trkpt>
      <trkpt lat="48.70927" lon="1.98557">
        <ele>104</ele>
        <time>2025-07-04T09:50:25.536Z</time>
      </trkpt>
      <trkpt lat="48.70922" lon="1.98556">
        <ele>104</ele>
        <time>2025-07-04T09:50:29.899Z</time>
      </trkpt>
      <trkpt lat="48.70918" lon="1.98555">
        <ele>104</ele>
        <time>2025-07-04T09:50:33.936Z</time>
      </trkpt>
      <trkpt lat="48.70912" lon="1.98552">
        <ele>104</ele>
        <time>2025-07-04T09:50:38.278Z</time>
      </trkpt>
      <trkpt lat="48.70907" lon="1.98549">
        <ele>104</ele>
        <time>2025-07-04T09:50:42.800Z</time>
      </trkpt>
      <trkpt lat="48.70902" lon="1.98547">
        <ele>105</ele>
        <time>2025-07-04T09:50:47.299Z</time>
      </trkpt>
      <trkpt lat="48.70896" lon="1.98545">
        <ele>105</ele>
        <time>2025-07-04T09:50:51.778Z</time>
      </trkpt>
      <trkpt lat="48.70891" lon="1.98545">
        <ele>105</ele>
        <time>2025-07-04T09:50:55.838Z</time>
      </trkpt>
      <trkpt lat="48.70886" lon="1.98541">
        <ele>106</ele>
        <time>2025-07-04T09:51:00.534Z</time>
      </trkpt>
      <trkpt lat="48.7088" lon="1.98539">
        <ele>106</ele>
        <time>2025-07-04T09:51:05.052Z</time>
      </trkpt>
      <trkpt lat="48.70876" lon="1.98539">
        <ele>106</ele>
        <time>2025-07-04T09:51:09.079Z</time>
      </trkpt>
      <trkpt lat="48.7087" lon="1.98539">
        <ele>108</ele>
        <time>2025-07-04T09:51:13.279Z</time>
      </trkpt>
      <trkpt lat="48.70865" lon="1.9854">
        <ele>108</ele>
        <time>2025-07-04T09:51:17.372Z</time>
      </trkpt>
      <trkpt lat="48.7086" lon="1.9854">
        <ele>108</ele>
        <time>2025-07-04T09:51:21.519Z</time>
      </trkpt>
      <trkpt lat="48.70855" lon="1.9854">
        <ele>108</ele>
        <time>2025-07-04T09:51:25.541Z</time>
      </trkpt>
      <trkpt lat="48.7085" lon="1.9854">
        <ele>108</ele>
        <time>2025-07-04T09:51:30.101Z</time>
      </trkpt>
      <trkpt lat="48.70845" lon="1.98541">
        <ele>112</ele>
        <time>2025-07-04T09:51:34.533Z</time>
      </trkpt>
      <trkpt lat="48.7084" lon="1.98541">
        <ele>112</ele>
        <time>2025-07-04T09:51:39.055Z</time>
      </trkpt>
      <trkpt lat="48.70836" lon="1.98541">
        <ele>112</ele>
        <time>2025-07-04T09:51:43.217Z</time>
      </trkpt>
      <trkpt lat="48.70835" lon="1.98541">
        <ele>112</ele>
        <time>2025-07-04T09:51:47.536Z</time>
      </trkpt>
      <trkpt lat="48.70835" lon="1.98541">
        <ele>112</ele>
        <time>2025-07-04T09:51:52.536Z</time>
      </trkpt>
      <trkpt lat="48.70832" lon="1.98543">
        <ele>112</ele>
        <time>2025-07-04T09:51:56.998Z</time>
      </trkpt>
      <trkpt lat="48.70829" lon="1.98551">
        <ele>112</ele>
        <time>2025-07-04T09:52:01.416Z</time>
      </trkpt>
      <trkpt lat="48.70827" lon="1.98558">
        <ele>112</ele>
        <time>2025-07-04T09:52:05.896Z</time>
      </trkpt>
      <trkpt lat="48.70823" lon="1.98563">
        <ele>112</ele>
        <time>2025-07-04T09:52:10.060Z</time>
      </trkpt>
      <trkpt lat="48.70819" lon="1.98568">
        <ele>114</ele>
        <time>2025-07-04T09:52:14.138Z</time>
      </trkpt>
      <trkpt lat="48.70815" lon="1.98575">
        <ele>114</ele>
        <time>2025-07-04T09:52:18.532Z</time>
      </trkpt>
      <trkpt lat="48.70812" lon="1.98582">
        <ele>114</ele>
        <time>2025-07-04T09:52:23.098Z</time>
      </trkpt>
      <trkpt lat="48.7081" lon="1.98589">
        <ele>114</ele>
        <time>2025-07-04T09:52:27.133Z</time>
      </trkpt>
      <trkpt lat="48.70806" lon="1.98595">
        <ele>114</ele>
        <time>2025-07-04T09:52:31.536Z</time>
      </trkpt>
      <trkpt lat="48.70802" lon="1.98602">
        <ele>111</ele>
        <time>2025-07-04T09:52:36.118Z</time>
      </trkpt>
      <trkpt lat="48.70799" lon="1.98609">
        <ele>111</ele>
        <time>2025-07-04T09:52:40.531Z</time>
      </trkpt>
      <trkpt lat="48.70796" lon="1.98616">
        <ele>111</ele>
        <time>2025-07-04T09:52:45.016Z</time>
      </trkpt>
      <trkpt lat="48.70793" lon="1.98624">
        <ele>111</ele>
        <time>2025-07-04T09:52:49.531Z</time>
      </trkpt>
      <trkpt lat="48.7079" lon="1.98629">
        <ele>110</ele>
        <time>2025-07-04T09:52:53.536Z</time>
      </trkpt>
      <trkpt lat="48.70787" lon="1.98636">
        <ele>110</ele>
        <time>2025-07-04T09:52:58.157Z</time>
      </trkpt>
      <trkpt lat="48.70783" lon="1.98643">
        <ele>110</ele>
        <time>2025-07-04T09:53:02.655Z</time>
      </trkpt>
      <trkpt lat="48.70778" lon="1.98644">
        <ele>110</ele>
        <time>2025-07-04T09:53:07.398Z</time>
      </trkpt>
      <trkpt lat="48.70775" lon="1.98639">
        <ele>110</ele>
        <time>2025-07-04T09:53:11.537Z</time>
      </trkpt>
      <trkpt lat="48.70773" lon="1.98631">
        <ele>110</ele>
        <time>2025-07-04T09:53:15.852Z</time>
      </trkpt>
      <trkpt lat="48.7077" lon="1.98625">
        <ele>113</ele>
        <time>2025-07-04T09:53:20.094Z</time>
      </trkpt>
      <trkpt lat="48.70768" lon="1.98619">
        <ele>113</ele>
        <time>2025-07-04T09:53:24.376Z</time>
      </trkpt>
      <trkpt lat="48.70764" lon="1.98614">
        <ele>113</ele>
        <time>2025-07-04T09:53:28.532Z</time>
      </trkpt>
      <trkpt lat="48.7076" lon="1.98607">
        <ele>116</ele>
        <time>2025-07-04T09:53:33.190Z</time>
      </trkpt>
      <trkpt lat="48.70756" lon="1.98602">
        <ele>116</ele>
        <time>2025-07-04T09:53:37.311Z</time>
      </trkpt>
      <trkpt lat="48.70753" lon="1.98597">
        <ele>116</ele>
        <time>2025-07-04T09:53:41.510Z</time>
      </trkpt>
      <trkpt lat="48.7075" lon="1.98593">
        <ele>119</ele>
        <time>2025-07-04T09:53:45.530Z</time>
      </trkpt>
      <trkpt lat="48.70747" lon="1.98587">
        <ele>119</ele>
        <time>2025-07-04T09:53:50.050Z</time>
      </trkpt>
      <trkpt lat="48.70744" lon="1.98582">
        <ele>119</ele>
        <time>2025-07-04T09:53:54.351Z</time>
      </trkpt>
      <trkpt lat="48.70741" lon="1.98577">
        <ele>119</ele>
        <time>2025-07-04T09:53:58.531Z</time>
      </trkpt>
      <trkpt lat="48.70739" lon="1.98572">
        <ele>119</ele>
        <time>2025-07-04T09:54:02.892Z</time>
      </trkpt>
      <trkpt lat="48.70735" lon="1.98567">
        <ele>129</ele>
        <time>2025-07-04T09:54:07.490Z</time>
      </trkpt>
      <trkpt lat="48.70733" lon="1.9856">
        <ele>129</ele>
        <time>2025-07-04T09:54:11.716Z</time>
      </trkpt>
      <trkpt lat="48.70731" lon="1.98552">
        <ele>129</ele>
        <time>2025-07-04T09:54:15.852Z</time>
      </trkpt>
      <trkpt lat="48.70728" lon="1.98545">
        <ele>129</ele>
        <time>2025-07-04T09:54:20.017Z</time>
      </trkpt>
      <trkpt lat="48.70725" lon="1.9854">
        <ele>129</ele>
        <time>2025-07-04T09:54:24.231Z</time>
      </trkpt>
      <trkpt lat="48.70722" lon="1.98534">
        <ele>129</ele>
        <time>2025-07-04T09:54:28.310Z</time>
      </trkpt>
      <trkpt lat="48.70718" lon="1.98529">
        <ele>129</ele>
        <time>2025-07-04T09:54:32.431Z</time>
      </trkpt>
      <trkpt lat="48.70714" lon="1.98524">
        <ele>129</ele>
        <time>2025-07-04T09:54:36.698Z</time>
      </trkpt>
      <trkpt lat="48.70709" lon="1.9852">
        <ele>129</ele>
        <time>2025-07-04T09:54:40.972Z</time>
      </trkpt>
      <trkpt lat="48.70705" lon="1.98516">
        <ele>132</ele>
        <time>2025-07-04T09:54:45.169Z</time>
      </trkpt>
      <trkpt lat="48.70703" lon="1.98512">
        <ele>132</ele>
        <time>2025-07-04T09:54:49.396Z</time>
      </trkpt>
      <trkpt lat="48.707" lon="1.98507">
        <ele>132</ele>
        <time>2025-07-04T09:54:53.457Z</time>
      </trkpt>
      <trkpt lat="48.70697" lon="1.98503">
        <ele>132</ele>
        <time>2025-07-04T09:54:58.130Z</time>
      </trkpt>
      <trkpt lat="48.70694" lon="1.98503">
        <ele>132</ele>
        <time>2025-07-04T09:55:02.356Z</time>
      </trkpt>
      <trkpt lat="48.7069" lon="1.98503">
        <ele>132</ele>
        <time>2025-07-04T09:55:06.535Z</time>
      </trkpt>
      <trkpt lat="48.70687" lon="1.98511">
        <ele>132</ele>
        <time>2025-07-04T09:55:11.391Z</time>
      </trkpt>
      <trkpt lat="48.70685" lon="1.98518">
        <ele>132</ele>
        <time>2025-07-04T09:55:15.631Z</time>
      </trkpt>
      <trkpt lat="48.70684" lon="1.98526">
        <ele>132</ele>
        <time>2025-07-04T09:55:19.693Z</time>
      </trkpt>
      <trkpt lat="48.70682" lon="1.98533">
        <ele>132</ele>
        <time>2025-07-04T09:55:23.977Z</time>
      </trkpt>
      <trkpt lat="48.7068" lon="1.98534">
        <ele>132</ele>
        <time>2025-07-04T09:55:27.527Z</time>
      </trkpt>
      <trkpt lat="48.70674" lon="1.9855">
        <ele>128</ele>
        <time>2025-07-04T09:55:36.756Z</time>
      </trkpt>
      <trkpt lat="48.70672" lon="1.98553">
        <ele>128</ele>
        <time>2025-07-04T09:55:41.532Z</time>
      </trkpt>
      <trkpt lat="48.70669" lon="1.98558">
        <ele>128</ele>
        <time>2025-07-04T09:55:45.532Z</time>
      </trkpt>
      <trkpt lat="48.70665" lon="1.98561">
        <ele>128</ele>
        <time>2025-07-04T09:55:50.112Z</time>
      </trkpt>
      <trkpt lat="48.70662" lon="1.98566">
        <ele>128</ele>
        <time>2025-07-04T09:55:54.135Z</time>
      </trkpt>
      <trkpt lat="48.7067" lon="1.98563">
        <ele>128</ele>
        <time>2025-07-04T09:58:31.530Z</time>
      </trkpt>
      <trkpt lat="48.7067" lon="1.98563">
        <ele>128</ele>
        <time>2025-07-04T09:58:38.533Z</time>
      </trkpt>
      <trkpt lat="48.7067" lon="1.98563">
        <ele>128</ele>
        <time>2025-07-04T09:58:43.535Z</time>
      </trkpt>
      <trkpt lat="48.70672" lon="1.98564">
        <ele>128</ele>
        <time>2025-07-04T09:58:48.532Z</time>
      </trkpt>
      <trkpt lat="48.70674" lon="1.9856">
        <ele>128</ele>
        <time>2025-07-04T09:58:52.531Z</time>
      </trkpt>
      <trkpt lat="48.70678" lon="1.98554">
        <ele>128</ele>
        <time>2025-07-04T09:58:56.792Z</time>
      </trkpt>
      <trkpt lat="48.70682" lon="1.98549">
        <ele>131</ele>
        <time>2025-07-04T09:59:00.928Z</time>
      </trkpt>
      <trkpt lat="48.70684" lon="1.98541">
        <ele>132</ele>
        <time>2025-07-04T09:59:04.965Z</time>
      </trkpt>
      <trkpt lat="48.70687" lon="1.98532">
        <ele>132</ele>
        <time>2025-07-04T09:59:09.489Z</time>
      </trkpt>
      <trkpt lat="48.7069" lon="1.98525">
        <ele>132</ele>
        <time>2025-07-04T09:59:13.908Z</time>
      </trkpt>
      <trkpt lat="48.70692" lon="1.98515">
        <ele>132</ele>
        <time>2025-07-04T09:59:18.388Z</time>
      </trkpt>
      <trkpt lat="48.70694" lon="1.98507">
        <ele>132</ele>
        <time>2025-07-04T09:59:22.826Z</time>
      </trkpt>
      <trkpt lat="48.70698" lon="1.98499">
        <ele>132</ele>
        <time>2025-07-04T09:59:27.534Z</time>
      </trkpt>
      <trkpt lat="48.70696" lon="1.98489">
        <ele>132</ele>
        <time>2025-07-04T09:59:32.247Z</time>
      </trkpt>
      <trkpt lat="48.70692" lon="1.98484">
        <ele>132</ele>
        <time>2025-07-04T09:59:36.328Z</time>
      </trkpt>
      <trkpt lat="48.70687" lon="1.98476">
        <ele>132</ele>
        <time>2025-07-04T09:59:41.183Z</time>
      </trkpt>
      <trkpt lat="48.70683" lon="1.98469">
        <ele>132</ele>
        <time>2025-07-04T09:59:45.646Z</time>
      </trkpt>
      <trkpt lat="48.70679" lon="1.98461">
        <ele>134</ele>
        <time>2025-07-04T09:59:50.051Z</time>
      </trkpt>
      <trkpt lat="48.70676" lon="1.98455">
        <ele>135</ele>
        <time>2025-07-04T09:59:54.532Z</time>
      </trkpt>
      <trkpt lat="48.70673" lon="1.98447">
        <ele>135</ele>
        <time>2025-07-04T09:59:59.027Z</time>
      </trkpt>
      <trkpt lat="48.7067" lon="1.98441">
        <ele>135</ele>
        <time>2025-07-04T10:00:03.225Z</time>
      </trkpt>
      <trkpt lat="48.70667" lon="1.98436">
        <ele>135</ele>
        <time>2025-07-04T10:00:21.531Z</time>
      </trkpt>
      <trkpt lat="48.70667" lon="1.98436">
        <ele>135</ele>
        <time>2025-07-04T10:00:28.101Z</time>
      </trkpt>
      <trkpt lat="48.70665" lon="1.98435">
        <ele>135</ele>
        <time>2025-07-04T10:00:32.536Z</time>
      </trkpt>
      <trkpt lat="48.70663" lon="1.98429">
        <ele>138</ele>
        <time>2025-07-04T10:00:37.028Z</time>
      </trkpt>
      <trkpt lat="48.70663" lon="1.98422">
        <ele>138</ele>
        <time>2025-07-04T10:00:41.064Z</time>
      </trkpt>
      <trkpt lat="48.70665" lon="1.98413">
        <ele>138</ele>
        <time>2025-07-04T10:00:45.535Z</time>
      </trkpt>
      <trkpt lat="48.70667" lon="1.98404">
        <ele>138</ele>
        <time>2025-07-04T10:00:50.127Z</time>
      </trkpt>
      <trkpt lat="48.70669" lon="1.98396">
        <ele>143</ele>
        <time>2025-07-04T10:00:54.532Z</time>
      </trkpt>
      <trkpt lat="48.70671" lon="1.98388">
        <ele>143</ele>
        <time>2025-07-04T10:00:58.968Z</time>
      </trkpt>
      <trkpt lat="48.70672" lon="1.98378">
        <ele>143</ele>
        <time>2025-07-04T10:01:03.448Z</time>
      </trkpt>
      <trkpt lat="48.70673" lon="1.98371">
        <ele>148</ele>
        <time>2025-07-04T10:01:07.484Z</time>
      </trkpt>
      <trkpt lat="48.70673" lon="1.98363">
        <ele>148</ele>
        <time>2025-07-04T10:01:12.186Z</time>
      </trkpt>
      <trkpt lat="48.70673" lon="1.98354">
        <ele>148</ele>
        <time>2025-07-04T10:01:16.799Z</time>
      </trkpt>
      <trkpt lat="48.70671" lon="1.98347">
        <ele>151</ele>
        <time>2025-07-04T10:01:20.907Z</time>
      </trkpt>
      <trkpt lat="48.70669" lon="1.98339">
        <ele>151</ele>
        <time>2025-07-04T10:01:25.529Z</time>
      </trkpt>
      <trkpt lat="48.70666" lon="1.98332">
        <ele>151</ele>
        <time>2025-07-04T10:01:29.688Z</time>
      </trkpt>
      <trkpt lat="48.70663" lon="1.98324">
        <ele>151</ele>
        <time>2025-07-04T10:01:34.532Z</time>
      </trkpt>
      <trkpt lat="48.7066" lon="1.98317">
        <ele>153</ele>
        <time>2025-07-04T10:01:39.129Z</time>
      </trkpt>
      <trkpt lat="48.70658" lon="1.98309">
        <ele>153</ele>
        <time>2025-07-04T10:01:43.163Z</time>
      </trkpt>
      <trkpt lat="48.70656" lon="1.98303">
        <ele>153</ele>
        <time>2025-07-04T10:01:47.207Z</time>
      </trkpt>
      <trkpt lat="48.70654" lon="1.98295">
        <ele>153</ele>
        <time>2025-07-04T10:01:51.825Z</time>
      </trkpt>
      <trkpt lat="48.70652" lon="1.98284">
        <ele>154</ele>
        <time>2025-07-04T10:02:28.023Z</time>
      </trkpt>
      <trkpt lat="48.70654" lon="1.98274">
        <ele>154</ele>
        <time>2025-07-04T10:02:32.531Z</time>
      </trkpt>
      <trkpt lat="48.70652" lon="1.98267">
        <ele>154</ele>
        <time>2025-07-04T10:02:36.685Z</time>
      </trkpt>
      <trkpt lat="48.70649" lon="1.9826">
        <ele>153</ele>
        <time>2025-07-04T10:02:41.533Z</time>
      </trkpt>
      <trkpt lat="48.70647" lon="1.98253">
        <ele>153</ele>
        <time>2025-07-04T10:02:45.806Z</time>
      </trkpt>
      <trkpt lat="48.70646" lon="1.98246">
        <ele>153</ele>
        <time>2025-07-04T10:02:49.968Z</time>
      </trkpt>
      <trkpt lat="48.70645" lon="1.98239">
        <ele>153</ele>
        <time>2025-07-04T10:02:54.203Z</time>
      </trkpt>
      <trkpt lat="48.70644" lon="1.98231">
        <ele>154</ele>
        <time>2025-07-04T10:02:58.247Z</time>
      </trkpt>
      <trkpt lat="48.70642" lon="1.98224">
        <ele>154</ele>
        <time>2025-07-04T10:03:02.267Z</time>
      </trkpt>
      <trkpt lat="48.7064" lon="1.98217">
        <ele>154</ele>
        <time>2025-07-04T10:03:06.453Z</time>
      </trkpt>
      <trkpt lat="48.70638" lon="1.98214">
        <ele>154</ele>
        <time>2025-07-04T10:03:10.531Z</time>
      </trkpt>
      <trkpt lat="48.70637" lon="1.98209">
        <ele>154</ele>
        <time>2025-07-04T10:03:14.862Z</time>
      </trkpt>
      <trkpt lat="48.70636" lon="1.98201">
        <ele>153</ele>
        <time>2025-07-04T10:03:19.148Z</time>
      </trkpt>
      <trkpt lat="48.70632" lon="1.98193">
        <ele>153</ele>
        <time>2025-07-04T10:03:27.531Z</time>
      </trkpt>
      <trkpt lat="48.70631" lon="1.98195">
        <ele>153</ele>
        <time>2025-07-04T10:03:31.988Z</time>
      </trkpt>
      <trkpt lat="48.7063" lon="1.98199">
        <ele>153</ele>
        <time>2025-07-04T10:03:36.826Z</time>
      </trkpt>
      <trkpt lat="48.70626" lon="1.982">
        <ele>153</ele>
        <time>2025-07-04T10:03:41.331Z</time>
      </trkpt>
      <trkpt lat="48.70624" lon="1.982">
        <ele>154</ele>
        <time>2025-07-04T10:03:45.536Z</time>
      </trkpt>
      <trkpt lat="48.70624" lon="1.98203">
        <ele>154</ele>
        <time>2025-07-04T10:04:25.268Z</time>
      </trkpt>
      <trkpt lat="48.70627" lon="1.98205">
        <ele>153</ele>
        <time>2025-07-04T10:04:29.535Z</time>
      </trkpt>
      <trkpt lat="48.70629" lon="1.98204">
        <ele>153</ele>
        <time>2025-07-04T10:04:34.536Z</time>
      </trkpt>
      <trkpt lat="48.70633" lon="1.98201">
        <ele>153</ele>
        <time>2025-07-04T10:04:39.369Z</time>
      </trkpt>
      <trkpt lat="48.70634" lon="1.982">
        <ele>153</ele>
        <time>2025-07-04T10:04:42.526Z</time>
      </trkpt>
      <trkpt lat="48.70634" lon="1.98198">
        <ele>153</ele>
        <time>2025-07-04T10:04:51.533Z</time>
      </trkpt>
      <trkpt lat="48.70632" lon="1.98195">
        <ele>153</ele>
        <time>2025-07-04T10:04:56.064Z</time>
      </trkpt>
      <trkpt lat="48.7063" lon="1.98187">
        <ele>153</ele>
        <time>2025-07-04T10:05:00.228Z</time>
      </trkpt>
      <trkpt lat="48.70627" lon="1.98178">
        <ele>152</ele>
        <time>2025-07-04T10:05:04.533Z</time>
      </trkpt>
      <trkpt lat="48.70626" lon="1.98168">
        <ele>152</ele>
        <time>2025-07-04T10:05:09.026Z</time>
      </trkpt>
      <trkpt lat="48.70624" lon="1.9816">
        <ele>153</ele>
        <time>2025-07-04T10:05:13.530Z</time>
      </trkpt>
      <trkpt lat="48.70622" lon="1.98153">
        <ele>153</ele>
        <time>2025-07-04T10:05:17.528Z</time>
      </trkpt>
      <trkpt lat="48.70621" lon="1.98144">
        <ele>154</ele>
        <time>2025-07-04T10:05:22.126Z</time>
      </trkpt>
      <trkpt lat="48.7062" lon="1.98137">
        <ele>154</ele>
        <time>2025-07-04T10:05:26.308Z</time>
      </trkpt>
      <trkpt lat="48.70619" lon="1.9813">
        <ele>154</ele>
        <time>2025-07-04T10:05:30.983Z</time>
      </trkpt>
      <trkpt lat="48.70617" lon="1.98127">
        <ele>154</ele>
        <time>2025-07-04T10:05:35.530Z</time>
      </trkpt>
      <trkpt lat="48.70614" lon="1.98124">
        <ele>156</ele>
        <time>2025-07-04T10:05:39.533Z</time>
      </trkpt>
      <trkpt lat="48.70614" lon="1.98117">
        <ele>156</ele>
        <time>2025-07-04T10:05:44.083Z</time>
      </trkpt>
      <trkpt lat="48.70614" lon="1.98107">
        <ele>156</ele>
        <time>2025-07-04T10:05:48.536Z</time>
      </trkpt>
      <trkpt lat="48.70615" lon="1.98097">
        <ele>155</ele>
        <time>2025-07-04T10:05:53.091Z</time>
      </trkpt>
      <trkpt lat="48.70615" lon="1.98087">
        <ele>155</ele>
        <time>2025-07-04T10:05:57.507Z</time>
      </trkpt>
      <trkpt lat="48.70615" lon="1.98078">
        <ele>155</ele>
        <time>2025-07-04T10:06:01.869Z</time>
      </trkpt>
      <trkpt lat="48.70615" lon="1.98068">
        <ele>155</ele>
        <time>2025-07-04T10:06:06.290Z</time>
      </trkpt>
      <trkpt lat="48.70615" lon="1.98059">
        <ele>155</ele>
        <time>2025-07-04T10:06:10.532Z</time>
      </trkpt>
      <trkpt lat="48.70615" lon="1.9805">
        <ele>155</ele>
        <time>2025-07-04T10:06:14.923Z</time>
      </trkpt>
      <trkpt lat="48.70616" lon="1.98041">
        <ele>155</ele>
        <time>2025-07-04T10:06:19.209Z</time>
      </trkpt>
      <trkpt lat="48.70616" lon="1.98032">
        <ele>155</ele>
        <time>2025-07-04T10:06:23.531Z</time>
      </trkpt>
      <trkpt lat="48.70616" lon="1.98022">
        <ele>155</ele>
        <time>2025-07-04T10:06:27.778Z</time>
      </trkpt>
      <trkpt lat="48.70616" lon="1.98013">
        <ele>156</ele>
        <time>2025-07-04T10:06:32.086Z</time>
      </trkpt>
      <trkpt lat="48.70617" lon="1.98003">
        <ele>156</ele>
        <time>2025-07-04T10:06:36.429Z</time>
      </trkpt>
      <trkpt lat="48.70617" lon="1.97995">
        <ele>156</ele>
        <time>2025-07-04T10:06:40.767Z</time>
      </trkpt>
      <trkpt lat="48.70617" lon="1.97986">
        <ele>156</ele>
        <time>2025-07-04T10:06:45.244Z</time>
      </trkpt>
      <trkpt lat="48.70616" lon="1.97977">
        <ele>156</ele>
        <time>2025-07-04T10:06:49.886Z</time>
      </trkpt>
      <trkpt lat="48.70612" lon="1.97972">
        <ele>156</ele>
        <time>2025-07-04T10:06:54.221Z</time>
      </trkpt>
      <trkpt lat="48.70605" lon="1.9797">
        <ele>156</ele>
        <time>2025-07-04T10:06:58.534Z</time>
      </trkpt>
      <trkpt lat="48.70598" lon="1.97966">
        <ele>156</ele>
        <time>2025-07-04T10:07:03.002Z</time>
      </trkpt>
      <trkpt lat="48.70593" lon="1.97962">
        <ele>156</ele>
        <time>2025-07-04T10:07:07.405Z</time>
      </trkpt>
      <trkpt lat="48.70588" lon="1.97956">
        <ele>156</ele>
        <time>2025-07-04T10:07:11.842Z</time>
      </trkpt>
      <trkpt lat="48.70584" lon="1.97949">
        <ele>156</ele>
        <time>2025-07-04T10:07:15.861Z</time>
      </trkpt>
      <trkpt lat="48.70581" lon="1.97943">
        <ele>156</ele>
        <time>2025-07-04T10:07:19.983Z</time>
      </trkpt>
      <trkpt lat="48.70578" lon="1.97936">
        <ele>156</ele>
        <time>2025-07-04T10:07:24.029Z</time>
      </trkpt>
      <trkpt lat="48.70576" lon="1.97929">
        <ele>157</ele>
        <time>2025-07-04T10:07:28.526Z</time>
      </trkpt>
      <trkpt lat="48.70573" lon="1.97921">
        <ele>157</ele>
        <time>2025-07-04T10:07:33.109Z</time>
      </trkpt>
      <trkpt lat="48.70569" lon="1.97915">
        <ele>159</ele>
        <time>2025-07-04T10:07:37.526Z</time>
      </trkpt>
      <trkpt lat="48.70565" lon="1.97909">
        <ele>159</ele>
        <time>2025-07-04T10:07:41.666Z</time>
      </trkpt>
      <trkpt lat="48.70562" lon="1.97904">
        <ele>159</ele>
        <time>2025-07-04T10:07:45.909Z</time>
      </trkpt>
      <trkpt lat="48.70558" lon="1.97898">
        <ele>161</ele>
        <time>2025-07-04T10:07:50.391Z</time>
      </trkpt>
      <trkpt lat="48.70556" lon="1.97893">
        <ele>161</ele>
        <time>2025-07-04T10:07:54.535Z</time>
      </trkpt>
      <trkpt lat="48.70552" lon="1.979">
        <ele>161</ele>
        <time>2025-07-04T10:07:59.143Z</time>
      </trkpt>
      <trkpt lat="48.70547" lon="1.97906">
        <ele>159</ele>
        <time>2025-07-04T10:08:03.533Z</time>
      </trkpt>
      <trkpt lat="48.70543" lon="1.97905">
        <ele>159</ele>
        <time>2025-07-04T10:08:07.976Z</time>
      </trkpt>
      <trkpt lat="48.70539" lon="1.979">
        <ele>160</ele>
        <time>2025-07-04T10:08:12.285Z</time>
      </trkpt>
      <trkpt lat="48.70534" lon="1.97896">
        <ele>160</ele>
        <time>2025-07-04T10:08:16.825Z</time>
      </trkpt>
      <trkpt lat="48.70528" lon="1.97894">
        <ele>160</ele>
        <time>2025-07-04T10:08:21.289Z</time>
      </trkpt>
      <trkpt lat="48.70524" lon="1.9789">
        <ele>160</ele>
        <time>2025-07-04T10:08:25.530Z</time>
      </trkpt>
      <trkpt lat="48.70519" lon="1.97885">
        <ele>160</ele>
        <time>2025-07-04T10:08:30.248Z</time>
      </trkpt>
      <trkpt lat="48.70515" lon="1.97881">
        <ele>160</ele>
        <time>2025-07-04T10:08:34.533Z</time>
      </trkpt>
      <trkpt lat="48.70509" lon="1.97879">
        <ele>158</ele>
        <time>2025-07-04T10:08:39.266Z</time>
      </trkpt>
      <trkpt lat="48.70503" lon="1.97878">
        <ele>158</ele>
        <time>2025-07-04T10:08:43.465Z</time>
      </trkpt>
      <trkpt lat="48.70499" lon="1.97875">
        <ele>160</ele>
        <time>2025-07-04T10:08:47.524Z</time>
      </trkpt>
      <trkpt lat="48.70496" lon="1.9787">
        <ele>160</ele>
        <time>2025-07-04T10:08:51.531Z</time>
      </trkpt>
      <trkpt lat="48.70493" lon="1.97864">
        <ele>160</ele>
        <time>2025-07-04T10:08:55.804Z</time>
      </trkpt>
      <trkpt lat="48.7049" lon="1.9786">
        <ele>160</ele>
        <time>2025-07-04T10:08:59.970Z</time>
      </trkpt>
      <trkpt lat="48.70487" lon="1.97856">
        <ele>160</ele>
        <time>2025-07-04T10:09:04.184Z</time>
      </trkpt>
      <trkpt lat="48.70484" lon="1.9785">
        <ele>159</ele>
        <time>2025-07-04T10:09:08.468Z</time>
      </trkpt>
      <trkpt lat="48.70481" lon="1.97845">
        <ele>163</ele>
        <time>2025-07-04T10:09:12.532Z</time>
      </trkpt>
      <trkpt lat="48.70478" lon="1.97839">
        <ele>163</ele>
        <time>2025-07-04T10:09:16.729Z</time>
      </trkpt>
      <trkpt lat="48.70474" lon="1.97834">
        <ele>163</ele>
        <time>2025-07-04T10:09:20.866Z</time>
      </trkpt>
      <trkpt lat="48.70469" lon="1.97831">
        <ele>163</ele>
        <time>2025-07-04T10:09:25.006Z</time>
      </trkpt>
      <trkpt lat="48.70467" lon="1.97824">
        <ele>163</ele>
        <time>2025-07-04T10:09:29.443Z</time>
      </trkpt>
      <trkpt lat="48.70464" lon="1.97816">
        <ele>165</ele>
        <time>2025-07-04T10:09:33.523Z</time>
      </trkpt>
      <trkpt lat="48.70462" lon="1.97811">
        <ele>165</ele>
        <time>2025-07-04T10:09:37.686Z</time>
      </trkpt>
      <trkpt lat="48.70459" lon="1.97806">
        <ele>165</ele>
        <time>2025-07-04T10:09:41.807Z</time>
      </trkpt>
      <trkpt lat="48.70455" lon="1.97801">
        <ele>164</ele>
        <time>2025-07-04T10:09:45.989Z</time>
      </trkpt>
      <trkpt lat="48.7045" lon="1.97799">
        <ele>164</ele>
        <time>2025-07-04T10:09:50.068Z</time>
      </trkpt>
      <trkpt lat="48.70445" lon="1.97797">
        <ele>164</ele>
        <time>2025-07-04T10:09:54.130Z</time>
      </trkpt>
      <trkpt lat="48.7044" lon="1.97793">
        <ele>164</ele>
        <time>2025-07-04T10:09:58.209Z</time>
      </trkpt>
      <trkpt lat="48.70436" lon="1.97788">
        <ele>165</ele>
        <time>2025-07-04T10:10:02.244Z</time>
      </trkpt>
      <trkpt lat="48.70431" lon="1.97784">
        <ele>165</ele>
        <time>2025-07-04T10:10:06.789Z</time>
      </trkpt>
      <trkpt lat="48.70426" lon="1.97781">
        <ele>165</ele>
        <time>2025-07-04T10:10:10.905Z</time>
      </trkpt>
      <trkpt lat="48.70421" lon="1.97777">
        <ele>165</ele>
        <time>2025-07-04T10:10:14.984Z</time>
      </trkpt>
      <trkpt lat="48.70414" lon="1.97774">
        <ele>165</ele>
        <time>2025-07-04T10:10:19.464Z</time>
      </trkpt>
      <trkpt lat="48.70408" lon="1.97772">
        <ele>165</ele>
        <time>2025-07-04T10:10:23.530Z</time>
      </trkpt>
      <trkpt lat="48.70403" lon="1.97771">
        <ele>165</ele>
        <time>2025-07-04T10:10:27.929Z</time>
      </trkpt>
      <trkpt lat="48.70398" lon="1.97769">
        <ele>165</ele>
        <time>2025-07-04T10:10:32.144Z</time>
      </trkpt>
      <trkpt lat="48.70394" lon="1.97764">
        <ele>165</ele>
        <time>2025-07-04T10:10:36.667Z</time>
      </trkpt>
      <trkpt lat="48.70392" lon="1.97758">
        <ele>166</ele>
        <time>2025-07-04T10:10:40.703Z</time>
      </trkpt>
      <trkpt lat="48.70387" lon="1.97756">
        <ele>166</ele>
        <time>2025-07-04T10:10:44.749Z</time>
      </trkpt>
      <trkpt lat="48.70383" lon="1.97753">
        <ele>166</ele>
        <time>2025-07-04T10:10:48.844Z</time>
      </trkpt>
      <trkpt lat="48.70379" lon="1.9775">
        <ele>166</ele>
        <time>2025-07-04T10:10:53.187Z</time>
      </trkpt>
      <trkpt lat="48.70376" lon="1.97744">
        <ele>166</ele>
        <time>2025-07-04T10:10:57.309Z</time>
      </trkpt>
      <trkpt lat="48.70373" lon="1.97739">
        <ele>162</ele>
        <time>2025-07-04T10:11:01.527Z</time>
      </trkpt>
      <trkpt lat="48.70369" lon="1.97735">
        <ele>164</ele>
        <time>2025-07-04T10:11:05.794Z</time>
      </trkpt>
      <trkpt lat="48.70363" lon="1.97733">
        <ele>164</ele>
        <time>2025-07-04T10:11:10.349Z</time>
      </trkpt>
      <trkpt lat="48.70359" lon="1.97729">
        <ele>164</ele>
        <time>2025-07-04T10:11:14.536Z</time>
      </trkpt>
      <trkpt lat="48.70354" lon="1.97724">
        <ele>164</ele>
        <time>2025-07-04T10:11:19.324Z</time>
      </trkpt>
      <trkpt lat="48.70351" lon="1.97721">
        <ele>164</ele>
        <time>2025-07-04T10:11:23.743Z</time>
      </trkpt>
      <trkpt lat="48.70348" lon="1.97717">
        <ele>164</ele>
        <time>2025-07-04T10:11:28.284Z</time>
      </trkpt>
      <trkpt lat="48.70345" lon="1.97714">
        <ele>158</ele>
        <time>2025-07-04T10:11:32.536Z</time>
      </trkpt>
      <trkpt lat="48.70339" lon="1.97712">
        <ele>158</ele>
        <time>2025-07-04T10:11:36.901Z</time>
      </trkpt>
      <trkpt lat="48.70334" lon="1.97709">
        <ele>158</ele>
        <time>2025-07-04T10:11:41.023Z</time>
      </trkpt>
      <trkpt lat="48.70331" lon="1.97704">
        <ele>161</ele>
        <time>2025-07-04T10:11:45.070Z</time>
      </trkpt>
      <trkpt lat="48.70328" lon="1.97697">
        <ele>161</ele>
        <time>2025-07-04T10:11:49.388Z</time>
      </trkpt>
      <trkpt lat="48.70328" lon="1.9769">
        <ele>161</ele>
        <time>2025-07-04T10:11:53.788Z</time>
      </trkpt>
      <trkpt lat="48.70328" lon="1.97682">
        <ele>161</ele>
        <time>2025-07-04T10:11:58.528Z</time>
      </trkpt>
      <trkpt lat="48.70328" lon="1.97675">
        <ele>161</ele>
        <time>2025-07-04T10:12:03.167Z</time>
      </trkpt>
      <trkpt lat="48.70329" lon="1.97669">
        <ele>161</ele>
        <time>2025-07-04T10:12:07.990Z</time>
      </trkpt>
      <trkpt lat="48.7033" lon="1.97663">
        <ele>161</ele>
        <time>2025-07-04T10:12:12.410Z</time>
      </trkpt>
      <trkpt lat="48.70331" lon="1.97657">
        <ele>161</ele>
        <time>2025-07-04T10:12:16.504Z</time>
      </trkpt>
      <trkpt lat="48.70332" lon="1.9765">
        <ele>161</ele>
        <time>2025-07-04T10:12:21.249Z</time>
      </trkpt>
      <trkpt lat="48.70334" lon="1.97644">
        <ele>161</ele>
        <time>2025-07-04T10:12:25.969Z</time>
      </trkpt>
      <trkpt lat="48.70336" lon="1.97639">
        <ele>161</ele>
        <time>2025-07-04T10:12:30.046Z</time>
      </trkpt>
      <trkpt lat="48.70336" lon="1.97633">
        <ele>161</ele>
        <time>2025-07-04T10:12:34.228Z</time>
      </trkpt>
      <trkpt lat="48.70335" lon="1.97626">
        <ele>161</ele>
        <time>2025-07-04T10:12:38.263Z</time>
      </trkpt>
      <trkpt lat="48.70336" lon="1.9762">
        <ele>160</ele>
        <time>2025-07-04T10:12:42.531Z</time>
      </trkpt>
      <trkpt lat="48.70337" lon="1.97613">
        <ele>160</ele>
        <time>2025-07-04T10:12:46.793Z</time>
      </trkpt>
      <trkpt lat="48.70337" lon="1.97607">
        <ele>160</ele>
        <time>2025-07-04T10:12:51.105Z</time>
      </trkpt>
      <trkpt lat="48.70338" lon="1.976">
        <ele>160</ele>
        <time>2025-07-04T10:12:55.364Z</time>
      </trkpt>
      <trkpt lat="48.7034" lon="1.97595">
        <ele>159</ele>
        <time>2025-07-04T10:12:59.486Z</time>
      </trkpt>
      <trkpt lat="48.70341" lon="1.97589">
        <ele>159</ele>
        <time>2025-07-04T10:13:03.922Z</time>
      </trkpt>
      <trkpt lat="48.70343" lon="1.97583">
        <ele>159</ele>
        <time>2025-07-04T10:13:08.385Z</time>
      </trkpt>
      <trkpt lat="48.70345" lon="1.97576">
        <ele>159</ele>
        <time>2025-07-04T10:13:12.766Z</time>
      </trkpt>
      <trkpt lat="48.70347" lon="1.97571">
        <ele>159</ele>
        <time>2025-07-04T10:13:16.926Z</time>
      </trkpt>
      <trkpt lat="48.7035" lon="1.97565">
        <ele>164</ele>
        <time>2025-07-04T10:13:21.201Z</time>
      </trkpt>
      <trkpt lat="48.70354" lon="1.97562">
        <ele>164</ele>
        <time>2025-07-04T10:13:25.527Z</time>
      </trkpt>
      <trkpt lat="48.70356" lon="1.97556">
        <ele>164</ele>
        <time>2025-07-04T10:13:30.025Z</time>
      </trkpt>
      <trkpt lat="48.70359" lon="1.9755">
        <ele>164</ele>
        <time>2025-07-04T10:13:34.121Z</time>
      </trkpt>
      <trkpt lat="48.70362" lon="1.97545">
        <ele>164</ele>
        <time>2025-07-04T10:13:38.148Z</time>
      </trkpt>
      <trkpt lat="48.70365" lon="1.97538">
        <ele>162</ele>
        <time>2025-07-04T10:13:42.722Z</time>
      </trkpt>
      <trkpt lat="48.70366" lon="1.9753">
        <ele>162</ele>
        <time>2025-07-04T10:13:46.928Z</time>
      </trkpt>
      <trkpt lat="48.70366" lon="1.97522">
        <ele>162</ele>
        <time>2025-07-04T10:13:50.948Z</time>
      </trkpt>
      <trkpt lat="48.70366" lon="1.97514">
        <ele>162</ele>
        <time>2025-07-04T10:13:55.188Z</time>
      </trkpt>
      <trkpt lat="48.70365" lon="1.97505">
        <ele>161</ele>
        <time>2025-07-04T10:13:59.536Z</time>
      </trkpt>
      <trkpt lat="48.70367" lon="1.97497">
        <ele>161</ele>
        <time>2025-07-04T10:14:04.047Z</time>
      </trkpt>
      <trkpt lat="48.70368" lon="1.97488">
        <ele>161</ele>
        <time>2025-07-04T10:14:08.536Z</time>
      </trkpt>
      <trkpt lat="48.70367" lon="1.97479">
        <ele>161</ele>
        <time>2025-07-04T10:14:13.226Z</time>
      </trkpt>
      <trkpt lat="48.70366" lon="1.97471">
        <ele>161</ele>
        <time>2025-07-04T10:14:17.468Z</time>
      </trkpt>
      <trkpt lat="48.70368" lon="1.97461">
        <ele>161</ele>
        <time>2025-07-04T10:14:21.948Z</time>
      </trkpt>
      <trkpt lat="48.70369" lon="1.97455">
        <ele>160</ele>
        <time>2025-07-04T10:14:26.088Z</time>
      </trkpt>
      <trkpt lat="48.7037" lon="1.97447">
        <ele>160</ele>
        <time>2025-07-04T10:14:30.165Z</time>
      </trkpt>
      <trkpt lat="48.70369" lon="1.97438">
        <ele>160</ele>
        <time>2025-07-04T10:14:34.536Z</time>
      </trkpt>
      <trkpt lat="48.7037" lon="1.9743">
        <ele>159</ele>
        <time>2025-07-04T10:14:38.706Z</time>
      </trkpt>
      <trkpt lat="48.7037" lon="1.97423">
        <ele>159</ele>
        <time>2025-07-04T10:14:43.144Z</time>
      </trkpt>
      <trkpt lat="48.70372" lon="1.97417">
        <ele>159</ele>
        <time>2025-07-04T10:14:47.536Z</time>
      </trkpt>
      <trkpt lat="48.70372" lon="1.97415">
        <ele>159</ele>
        <time>2025-07-04T10:14:51.831Z</time>
      </trkpt>
      <trkpt lat="48.70373" lon="1.97416">
        <ele>159</ele>
        <time>2025-07-04T10:14:52.887Z</time>
      </trkpt>
      <trkpt lat="48.70375" lon="1.97401">
        <ele>163</ele>
        <time>2025-07-04T10:15:02.500Z</time>
      </trkpt>
      <trkpt lat="48.70375" lon="1.97395">
        <ele>163</ele>
        <time>2025-07-04T10:15:06.828Z</time>
      </trkpt>
      <trkpt lat="48.70379" lon="1.97388">
        <ele>163</ele>
        <time>2025-07-04T10:15:11.069Z</time>
      </trkpt>
      <trkpt lat="48.70381" lon="1.97382">
        <ele>163</ele>
        <time>2025-07-04T10:15:15.308Z</time>
      </trkpt>
      <trkpt lat="48.70383" lon="1.97376">
        <ele>163</ele>
        <time>2025-07-04T10:15:19.528Z</time>
      </trkpt>
      <trkpt lat="48.70384" lon="1.97368">
        <ele>161</ele>
        <time>2025-07-04T10:15:24.125Z</time>
      </trkpt>
      <trkpt lat="48.70386" lon="1.97361">
        <ele>161</ele>
        <time>2025-07-04T10:15:28.142Z</time>
      </trkpt>
      <trkpt lat="48.70388" lon="1.97353">
        <ele>161</ele>
        <time>2025-07-04T10:15:32.173Z</time>
      </trkpt>
      <trkpt lat="48.7039" lon="1.97347">
        <ele>160</ele>
        <time>2025-07-04T10:15:36.243Z</time>
      </trkpt>
      <trkpt lat="48.70392" lon="1.97338">
        <ele>160</ele>
        <time>2025-07-04T10:15:40.942Z</time>
      </trkpt>
      <trkpt lat="48.70394" lon="1.9733">
        <ele>160</ele>
        <time>2025-07-04T10:15:45.532Z</time>
      </trkpt>
      <trkpt lat="48.70395" lon="1.97323">
        <ele>160</ele>
        <time>2025-07-04T10:15:49.790Z</time>
      </trkpt>
      <trkpt lat="48.70396" lon="1.97315">
        <ele>161</ele>
        <time>2025-07-04T10:15:53.861Z</time>
      </trkpt>
      <trkpt lat="48.70398" lon="1.97307">
        <ele>161</ele>
        <time>2025-07-04T10:15:58.086Z</time>
      </trkpt>
      <trkpt lat="48.704" lon="1.97302">
        <ele>161</ele>
        <time>2025-07-04T10:16:02.020Z</time>
      </trkpt>
      <trkpt lat="48.70401" lon="1.97294">
        <ele>161</ele>
        <time>2025-07-04T10:16:06.286Z</time>
      </trkpt>
      <trkpt lat="48.70402" lon="1.97286">
        <ele>162</ele>
        <time>2025-07-04T10:16:10.322Z</time>
      </trkpt>
      <trkpt lat="48.70405" lon="1.9728">
        <ele>167</ele>
        <time>2025-07-04T10:16:14.946Z</time>
      </trkpt>
      <trkpt lat="48.70407" lon="1.97274">
        <ele>167</ele>
        <time>2025-07-04T10:16:19.282Z</time>
      </trkpt>
      <trkpt lat="48.70408" lon="1.97266">
        <ele>167</ele>
        <time>2025-07-04T10:16:23.847Z</time>
      </trkpt>
      <trkpt lat="48.7041" lon="1.97259">
        <ele>168</ele>
        <time>2025-07-04T10:16:27.908Z</time>
      </trkpt>
      <trkpt lat="48.70413" lon="1.97253">
        <ele>168</ele>
        <time>2025-07-04T10:16:31.948Z</time>
      </trkpt>
      <trkpt lat="48.70417" lon="1.97248">
        <ele>168</ele>
        <time>2025-07-04T10:16:36.202Z</time>
      </trkpt>
      <trkpt lat="48.70419" lon="1.97243">
        <ele>168</ele>
        <time>2025-07-04T10:16:40.532Z</time>
      </trkpt>
      <trkpt lat="48.70419" lon="1.97234">
        <ele>165</ele>
        <time>2025-07-04T10:16:45.009Z</time>
      </trkpt>
      <trkpt lat="48.70417" lon="1.97225">
        <ele>165</ele>
        <time>2025-07-04T10:16:49.255Z</time>
      </trkpt>
      <trkpt lat="48.70415" lon="1.97216">
        <ele>165</ele>
        <time>2025-07-04T10:16:53.687Z</time>
      </trkpt>
      <trkpt lat="48.70411" lon="1.9721">
        <ele>165</ele>
        <time>2025-07-04T10:16:57.800Z</time>
      </trkpt>
      <trkpt lat="48.70408" lon="1.97204">
        <ele>163</ele>
        <time>2025-07-04T10:17:02.246Z</time>
      </trkpt>
      <trkpt lat="48.70405" lon="1.97198">
        <ele>163</ele>
        <time>2025-07-04T10:17:06.281Z</time>
      </trkpt>
      <trkpt lat="48.70401" lon="1.97194">
        <ele>161</ele>
        <time>2025-07-04T10:17:10.308Z</time>
      </trkpt>
      <trkpt lat="48.70399" lon="1.97185">
        <ele>161</ele>
        <time>2025-07-04T10:17:14.746Z</time>
      </trkpt>
      <trkpt lat="48.704" lon="1.97176">
        <ele>159</ele>
        <time>2025-07-04T10:17:18.807Z</time>
      </trkpt>
      <trkpt lat="48.704" lon="1.97167">
        <ele>159</ele>
        <time>2025-07-04T10:17:23.246Z</time>
      </trkpt>
      <trkpt lat="48.70398" lon="1.97159">
        <ele>159</ele>
        <time>2025-07-04T10:17:27.725Z</time>
      </trkpt>
      <trkpt lat="48.70398" lon="1.97151">
        <ele>158</ele>
        <time>2025-07-04T10:17:32.067Z</time>
      </trkpt>
      <trkpt lat="48.70398" lon="1.97144">
        <ele>158</ele>
        <time>2025-07-04T10:17:36.103Z</time>
      </trkpt>
      <trkpt lat="48.70398" lon="1.97136">
        <ele>158</ele>
        <time>2025-07-04T10:17:40.534Z</time>
      </trkpt>
      <trkpt lat="48.70401" lon="1.97128">
        <ele>158</ele>
        <time>2025-07-04T10:17:44.969Z</time>
      </trkpt>
      <trkpt lat="48.70405" lon="1.97121">
        <ele>164</ele>
        <time>2025-07-04T10:17:49.530Z</time>
      </trkpt>
      <trkpt lat="48.70405" lon="1.97115">
        <ele>164</ele>
        <time>2025-07-04T10:17:53.681Z</time>
      </trkpt>
      <trkpt lat="48.70405" lon="1.97107">
        <ele>164</ele>
        <time>2025-07-04T10:17:57.793Z</time>
      </trkpt>
      <trkpt lat="48.70405" lon="1.97099">
        <ele>164</ele>
        <time>2025-07-04T10:18:02.248Z</time>
      </trkpt>
      <trkpt lat="48.7041" lon="1.97091">
        <ele>165</ele>
        <time>2025-07-04T10:18:07.386Z</time>
      </trkpt>
      <trkpt lat="48.70411" lon="1.97083">
        <ele>165</ele>
        <time>2025-07-04T10:18:11.788Z</time>
      </trkpt>
      <trkpt lat="48.70413" lon="1.97075">
        <ele>165</ele>
        <time>2025-07-04T10:18:16.328Z</time>
      </trkpt>
      <trkpt lat="48.70411" lon="1.97067">
        <ele>166</ele>
        <time>2025-07-04T10:18:20.722Z</time>
      </trkpt>
      <trkpt lat="48.70409" lon="1.97058">
        <ele>166</ele>
        <time>2025-07-04T10:18:25.228Z</time>
      </trkpt>
      <trkpt lat="48.70409" lon="1.97051">
        <ele>166</ele>
        <time>2025-07-04T10:18:29.366Z</time>
      </trkpt>
      <trkpt lat="48.70411" lon="1.97044">
        <ele>166</ele>
        <time>2025-07-04T10:18:33.922Z</time>
      </trkpt>
      <trkpt lat="48.70414" lon="1.97037">
        <ele>163</ele>
        <time>2025-07-04T10:18:38.527Z</time>
      </trkpt>
      <trkpt lat="48.70416" lon="1.9703">
        <ele>163</ele>
        <time>2025-07-04T10:18:43.103Z</time>
      </trkpt>
      <trkpt lat="48.70417" lon="1.97022">
        <ele>163</ele>
        <time>2025-07-04T10:18:47.362Z</time>
      </trkpt>
      <trkpt lat="48.70419" lon="1.97014">
        <ele>163</ele>
        <time>2025-07-04T10:18:51.943Z</time>
      </trkpt>
      <trkpt lat="48.7042" lon="1.97007">
        <ele>161</ele>
        <time>2025-07-04T10:18:56.260Z</time>
      </trkpt>
      <trkpt lat="48.70421" lon="1.96999">
        <ele>161</ele>
        <time>2025-07-04T10:19:00.532Z</time>
      </trkpt>
      <trkpt lat="48.70423" lon="1.96992">
        <ele>161</ele>
        <time>2025-07-04T10:19:04.769Z</time>
      </trkpt>
      <trkpt lat="48.70427" lon="1.96987">
        <ele>161</ele>
        <time>2025-07-04T10:19:08.806Z</time>
      </trkpt>
      <trkpt lat="48.70431" lon="1.96986">
        <ele>165</ele>
        <time>2025-07-04T10:19:13.106Z</time>
      </trkpt>
      <trkpt lat="48.70436" lon="1.96988">
        <ele>168</ele>
        <time>2025-07-04T10:19:17.529Z</time>
      </trkpt>
      <trkpt lat="48.7044" lon="1.96985">
        <ele>165</ele>
        <time>2025-07-04T10:19:22.108Z</time>
      </trkpt>
      <trkpt lat="48.70442" lon="1.96981">
        <ele>165</ele>
        <time>2025-07-04T10:19:26.450Z</time>
      </trkpt>
      <trkpt lat="48.70439" lon="1.96973">
        <ele>165</ele>
        <time>2025-07-04T10:19:30.846Z</time>
      </trkpt>
      <trkpt lat="48.70435" lon="1.96968">
        <ele>165</ele>
        <time>2025-07-04T10:19:35.187Z</time>
      </trkpt>
      <trkpt lat="48.70431" lon="1.96961">
        <ele>165</ele>
        <time>2025-07-04T10:19:39.531Z</time>
      </trkpt>
      <trkpt lat="48.70433" lon="1.96952">
        <ele>163</ele>
        <time>2025-07-04T10:19:43.669Z</time>
      </trkpt>
      <trkpt lat="48.70435" lon="1.96946">
        <ele>163</ele>
        <time>2025-07-04T10:19:48.006Z</time>
      </trkpt>
      <trkpt lat="48.7044" lon="1.96942">
        <ele>163</ele>
        <time>2025-07-04T10:19:52.528Z</time>
      </trkpt>
      <trkpt lat="48.70445" lon="1.96939">
        <ele>163</ele>
        <time>2025-07-04T10:19:57.152Z</time>
      </trkpt>
      <trkpt lat="48.70447" lon="1.96933">
        <ele>163</ele>
        <time>2025-07-04T10:20:01.530Z</time>
      </trkpt>
      <trkpt lat="48.70448" lon="1.96925">
        <ele>163</ele>
        <time>2025-07-04T10:20:06.188Z</time>
      </trkpt>
      <trkpt lat="48.70447" lon="1.96917">
        <ele>163</ele>
        <time>2025-07-04T10:20:10.411Z</time>
      </trkpt>
      <trkpt lat="48.70446" lon="1.9691">
        <ele>163</ele>
        <time>2025-07-04T10:20:14.531Z</time>
      </trkpt>
      <trkpt lat="48.70448" lon="1.969">
        <ele>163</ele>
        <time>2025-07-04T10:20:19.268Z</time>
      </trkpt>
      <trkpt lat="48.7045" lon="1.96893">
        <ele>163</ele>
        <time>2025-07-04T10:20:23.329Z</time>
      </trkpt>
      <trkpt lat="48.70452" lon="1.96886">
        <ele>163</ele>
        <time>2025-07-04T10:20:27.528Z</time>
      </trkpt>
      <trkpt lat="48.70455" lon="1.96879">
        <ele>163</ele>
        <time>2025-07-04T10:20:31.889Z</time>
      </trkpt>
      <trkpt lat="48.70456" lon="1.96872">
        <ele>164</ele>
        <time>2025-07-04T10:20:36.172Z</time>
      </trkpt>
      <trkpt lat="48.70455" lon="1.96865">
        <ele>164</ele>
        <time>2025-07-04T10:20:40.208Z</time>
      </trkpt>
      <trkpt lat="48.70453" lon="1.96856">
        <ele>164</ele>
        <time>2025-07-04T10:20:44.790Z</time>
      </trkpt>
      <trkpt lat="48.70452" lon="1.96848">
        <ele>164</ele>
        <time>2025-07-04T10:20:49.030Z</time>
      </trkpt>
      <trkpt lat="48.70455" lon="1.96841">
        <ele>164</ele>
        <time>2025-07-04T10:20:53.408Z</time>
      </trkpt>
      <trkpt lat="48.70454" lon="1.96834">
        <ele>164</ele>
        <time>2025-07-04T10:20:57.529Z</time>
      </trkpt>
      <trkpt lat="48.70454" lon="1.96828">
        <ele>164</ele>
        <time>2025-07-04T10:21:02.035Z</time>
      </trkpt>
      <trkpt lat="48.70454" lon="1.9682">
        <ele>164</ele>
        <time>2025-07-04T10:21:06.488Z</time>
      </trkpt>
      <trkpt lat="48.70453" lon="1.96813">
        <ele>163</ele>
        <time>2025-07-04T10:21:10.533Z</time>
      </trkpt>
      <trkpt lat="48.70453" lon="1.96804">
        <ele>163</ele>
        <time>2025-07-04T10:21:15.268Z</time>
      </trkpt>
      <trkpt lat="48.70454" lon="1.96797">
        <ele>163</ele>
        <time>2025-07-04T10:21:19.347Z</time>
      </trkpt>
      <trkpt lat="48.70456" lon="1.9679">
        <ele>164</ele>
        <time>2025-07-04T10:21:23.536Z</time>
      </trkpt>
      <trkpt lat="48.70455" lon="1.96781">
        <ele>164</ele>
        <time>2025-07-04T10:21:28.332Z</time>
      </trkpt>
      <trkpt lat="48.70455" lon="1.96773">
        <ele>164</ele>
        <time>2025-07-04T10:21:32.812Z</time>
      </trkpt>
      <trkpt lat="48.70455" lon="1.96765">
        <ele>164</ele>
        <time>2025-07-04T10:21:36.949Z</time>
      </trkpt>
      <trkpt lat="48.70454" lon="1.96757">
        <ele>165</ele>
        <time>2025-07-04T10:21:41.429Z</time>
      </trkpt>
      <trkpt lat="48.70454" lon="1.96748">
        <ele>165</ele>
        <time>2025-07-04T10:21:45.926Z</time>
      </trkpt>
      <trkpt lat="48.70455" lon="1.96739">
        <ele>165</ele>
        <time>2025-07-04T10:21:50.465Z</time>
      </trkpt>
      <trkpt lat="48.70455" lon="1.9673">
        <ele>165</ele>
        <time>2025-07-04T10:21:54.928Z</time>
      </trkpt>
      <trkpt lat="48.70454" lon="1.96722">
        <ele>165</ele>
        <time>2025-07-04T10:21:59.025Z</time>
      </trkpt>
      <trkpt lat="48.70452" lon="1.96714">
        <ele>165</ele>
        <time>2025-07-04T10:22:03.529Z</time>
      </trkpt>
      <trkpt lat="48.70449" lon="1.96707">
        <ele>165</ele>
        <time>2025-07-04T10:22:08.052Z</time>
      </trkpt>
      <trkpt lat="48.70448" lon="1.967">
        <ele>165</ele>
        <time>2025-07-04T10:22:12.292Z</time>
      </trkpt>
      <trkpt lat="48.70449" lon="1.96692">
        <ele>165</ele>
        <time>2025-07-04T10:22:17.250Z</time>
      </trkpt>
      <trkpt lat="48.70451" lon="1.96686">
        <ele>165</ele>
        <time>2025-07-04T10:22:21.525Z</time>
      </trkpt>
      <trkpt lat="48.7045" lon="1.96679">
        <ele>166</ele>
        <time>2025-07-04T10:22:25.689Z</time>
      </trkpt>
      <trkpt lat="48.70449" lon="1.9667">
        <ele>166</ele>
        <time>2025-07-04T10:22:30.230Z</time>
      </trkpt>
      <trkpt lat="48.70446" lon="1.96663">
        <ele>166</ele>
        <time>2025-07-04T10:22:34.631Z</time>
      </trkpt>
      <trkpt lat="48.70446" lon="1.96654">
        <ele>166</ele>
        <time>2025-07-04T10:22:39.051Z</time>
      </trkpt>
      <trkpt lat="48.70445" lon="1.96647">
        <ele>166</ele>
        <time>2025-07-04T10:22:43.129Z</time>
      </trkpt>
      <trkpt lat="48.70445" lon="1.96638">
        <ele>166</ele>
        <time>2025-07-04T10:22:48.129Z</time>
      </trkpt>
      <trkpt lat="48.70445" lon="1.9663">
        <ele>166</ele>
        <time>2025-07-04T10:22:52.544Z</time>
      </trkpt>
      <trkpt lat="48.70446" lon="1.96623">
        <ele>166</ele>
        <time>2025-07-04T10:22:57.166Z</time>
      </trkpt>
      <trkpt lat="48.70446" lon="1.96614">
        <ele>166</ele>
        <time>2025-07-04T10:23:01.529Z</time>
      </trkpt>
      <trkpt lat="48.70442" lon="1.96607">
        <ele>166</ele>
        <time>2025-07-04T10:23:06.227Z</time>
      </trkpt>
      <trkpt lat="48.70438" lon="1.96602">
        <ele>166</ele>
        <time>2025-07-04T10:23:10.486Z</time>
      </trkpt>
      <trkpt lat="48.70437" lon="1.96598">
        <ele>166</ele>
        <time>2025-07-04T10:23:14.726Z</time>
      </trkpt>
      <trkpt lat="48.70435" lon="1.96592">
        <ele>167</ele>
        <time>2025-07-04T10:23:19.113Z</time>
      </trkpt>
      <trkpt lat="48.70427" lon="1.96581">
        <ele>160</ele>
        <time>2025-07-04T10:23:37.535Z</time>
      </trkpt>
      <trkpt lat="48.70426" lon="1.96586">
        <ele>160</ele>
        <time>2025-07-04T10:23:42.226Z</time>
      </trkpt>
      <trkpt lat="48.70424" lon="1.96595">
        <ele>160</ele>
        <time>2025-07-04T10:23:46.467Z</time>
      </trkpt>
      <trkpt lat="48.70425" lon="1.96605">
        <ele>158</ele>
        <time>2025-07-04T10:23:50.526Z</time>
      </trkpt>
      <trkpt lat="48.70425" lon="1.96613">
        <ele>158</ele>
        <time>2025-07-04T10:23:54.775Z</time>
      </trkpt>
      <trkpt lat="48.70425" lon="1.96621">
        <ele>158</ele>
        <time>2025-07-04T10:23:59.232Z</time>
      </trkpt>
      <trkpt lat="48.70424" lon="1.9663">
        <ele>158</ele>
        <time>2025-07-04T10:24:03.448Z</time>
      </trkpt>
      <trkpt lat="48.70423" lon="1.96639">
        <ele>158</ele>
        <time>2025-07-04T10:24:07.927Z</time>
      </trkpt>
      <trkpt lat="48.70422" lon="1.96647">
        <ele>158</ele>
        <time>2025-07-04T10:24:12.227Z</time>
      </trkpt>
      <trkpt lat="48.7042" lon="1.96654">
        <ele>158</ele>
        <time>2025-07-04T10:24:16.247Z</time>
      </trkpt>
      <trkpt lat="48.70418" lon="1.96663">
        <ele>158</ele>
        <time>2025-07-04T10:24:20.527Z</time>
      </trkpt>
      <trkpt lat="48.70415" lon="1.96671">
        <ele>158</ele>
        <time>2025-07-04T10:24:24.796Z</time>
      </trkpt>
      <trkpt lat="48.7041" lon="1.96678">
        <ele>158</ele>
        <time>2025-07-04T10:24:28.866Z</time>
      </trkpt>
      <trkpt lat="48.70406" lon="1.96685">
        <ele>157</ele>
        <time>2025-07-04T10:24:33.029Z</time>
      </trkpt>
      <trkpt lat="48.70403" lon="1.96693">
        <ele>148</ele>
        <time>2025-07-04T10:24:37.246Z</time>
      </trkpt>
      <trkpt lat="48.70399" lon="1.967">
        <ele>148</ele>
        <time>2025-07-04T10:24:41.350Z</time>
      </trkpt>
      <trkpt lat="48.70396" lon="1.96706">
        <ele>148</ele>
        <time>2025-07-04T10:24:45.590Z</time>
      </trkpt>
      <trkpt lat="48.70393" lon="1.96714">
        <ele>147</ele>
        <time>2025-07-04T10:24:49.866Z</time>
      </trkpt>
      <trkpt lat="48.7039" lon="1.96721">
        <ele>147</ele>
        <time>2025-07-04T10:24:53.986Z</time>
      </trkpt>
      <trkpt lat="48.70386" lon="1.96728">
        <ele>147</ele>
        <time>2025-07-04T10:24:58.347Z</time>
      </trkpt>
      <trkpt lat="48.70382" lon="1.96735">
        <ele>147</ele>
        <time>2025-07-04T10:25:02.506Z</time>
      </trkpt>
      <trkpt lat="48.7038" lon="1.96744">
        <ele>148</ele>
        <time>2025-07-04T10:25:06.786Z</time>
      </trkpt>
      <trkpt lat="48.70378" lon="1.96751">
        <ele>148</ele>
        <time>2025-07-04T10:25:10.848Z</time>
      </trkpt>
      <trkpt lat="48.70377" lon="1.9676">
        <ele>148</ele>
        <time>2025-07-04T10:25:14.952Z</time>
      </trkpt>
      <trkpt lat="48.70375" lon="1.96768">
        <ele>137</ele>
        <time>2025-07-04T10:25:19.132Z</time>
      </trkpt>
      <trkpt lat="48.70372" lon="1.96775">
        <ele>137</ele>
        <time>2025-07-04T10:25:23.211Z</time>
      </trkpt>
      <trkpt lat="48.70367" lon="1.96782">
        <ele>137</ele>
        <time>2025-07-04T10:25:27.350Z</time>
      </trkpt>
      <trkpt lat="48.70363" lon="1.96789">
        <ele>137</ele>
        <time>2025-07-04T10:25:31.506Z</time>
      </trkpt>
      <trkpt lat="48.70359" lon="1.96796">
        <ele>137</ele>
        <time>2025-07-04T10:25:35.729Z</time>
      </trkpt>
      <trkpt lat="48.70355" lon="1.96803">
        <ele>137</ele>
        <time>2025-07-04T10:25:39.850Z</time>
      </trkpt>
      <trkpt lat="48.70351" lon="1.96809">
        <ele>137</ele>
        <time>2025-07-04T10:25:43.988Z</time>
      </trkpt>
      <trkpt lat="48.70347" lon="1.96816">
        <ele>130</ele>
        <time>2025-07-04T10:25:48.272Z</time>
      </trkpt>
      <trkpt lat="48.70343" lon="1.96822">
        <ele>132</ele>
        <time>2025-07-04T10:25:52.487Z</time>
      </trkpt>
      <trkpt lat="48.70339" lon="1.9683">
        <ele>132</ele>
        <time>2025-07-04T10:25:56.668Z</time>
      </trkpt>
      <trkpt lat="48.70337" lon="1.96837">
        <ele>132</ele>
        <time>2025-07-04T10:26:00.969Z</time>
      </trkpt>
      <trkpt lat="48.70334" lon="1.96846">
        <ele>132</ele>
        <time>2025-07-04T10:26:05.090Z</time>
      </trkpt>
      <trkpt lat="48.70333" lon="1.96856">
        <ele>131</ele>
        <time>2025-07-04T10:26:09.408Z</time>
      </trkpt>
      <trkpt lat="48.70331" lon="1.96865">
        <ele>131</ele>
        <time>2025-07-04T10:26:13.523Z</time>
      </trkpt>
      <trkpt lat="48.7033" lon="1.96874">
        <ele>131</ele>
        <time>2025-07-04T10:26:17.846Z</time>
      </trkpt>
      <trkpt lat="48.70328" lon="1.96882">
        <ele>129</ele>
        <time>2025-07-04T10:26:22.087Z</time>
      </trkpt>
      <trkpt lat="48.70327" lon="1.96891">
        <ele>129</ele>
        <time>2025-07-04T10:26:26.515Z</time>
      </trkpt>
      <trkpt lat="48.70325" lon="1.96898">
        <ele>129</ele>
        <time>2025-07-04T10:26:31.191Z</time>
      </trkpt>
      <trkpt lat="48.7032" lon="1.96901">
        <ele>129</ele>
        <time>2025-07-04T10:26:35.372Z</time>
      </trkpt>
      <trkpt lat="48.70315" lon="1.96897">
        <ele>126</ele>
        <time>2025-07-04T10:26:39.516Z</time>
      </trkpt>
      <trkpt lat="48.7031" lon="1.96896">
        <ele>126</ele>
        <time>2025-07-04T10:26:44.520Z</time>
      </trkpt>
      <trkpt lat="48.70309" lon="1.969">
        <ele>126</ele>
        <time>2025-07-04T10:26:48.837Z</time>
      </trkpt>
      <trkpt lat="48.70309" lon="1.96906">
        <ele>126</ele>
        <time>2025-07-04T10:26:53.068Z</time>
      </trkpt>
      <trkpt lat="48.70312" lon="1.96909">
        <ele>126</ele>
        <time>2025-07-04T10:26:57.520Z</time>
      </trkpt>
      <trkpt lat="48.70315" lon="1.96912">
        <ele>126</ele>
        <time>2025-07-04T10:27:02.520Z</time>
      </trkpt>
      <trkpt lat="48.70316" lon="1.96916">
        <ele>126</ele>
        <time>2025-07-04T10:27:07.520Z</time>
      </trkpt>
      <trkpt lat="48.70316" lon="1.96911">
        <ele>126</ele>
        <time>2025-07-04T10:27:12.520Z</time>
      </trkpt>
      <trkpt lat="48.70315" lon="1.96904">
        <ele>126</ele>
        <time>2025-07-04T10:27:17.318Z</time>
      </trkpt>
      <trkpt lat="48.70316" lon="1.96897">
        <ele>126</ele>
        <time>2025-07-04T10:27:22.200Z</time>
      </trkpt>
      <trkpt lat="48.70319" lon="1.96896">
        <ele>126</ele>
        <time>2025-07-04T10:28:09.520Z</time>
      </trkpt>
      <trkpt lat="48.70319" lon="1.96896">
        <ele>126</ele>
        <time>2025-07-04T10:28:14.520Z</time>
      </trkpt>
      <trkpt lat="48.70319" lon="1.96895">
        <ele>126</ele>
        <time>2025-07-04T10:28:19.520Z</time>
      </trkpt>
      <trkpt lat="48.7032" lon="1.96892">
        <ele>129</ele>
        <time>2025-07-04T10:28:24.520Z</time>
      </trkpt>
      <trkpt lat="48.70322" lon="1.96886">
        <ele>129</ele>
        <time>2025-07-04T10:28:29.520Z</time>
      </trkpt>
      <trkpt lat="48.70326" lon="1.96884">
        <ele>129</ele>
        <time>2025-07-04T10:28:33.520Z</time>
      </trkpt>
      <trkpt lat="48.70326" lon="1.96877">
        <ele>129</ele>
        <time>2025-07-04T10:28:37.873Z</time>
      </trkpt>
      <trkpt lat="48.70326" lon="1.9687">
        <ele>131</ele>
        <time>2025-07-04T10:28:42.080Z</time>
      </trkpt>
      <trkpt lat="48.70325" lon="1.96863">
        <ele>131</ele>
        <time>2025-07-04T10:28:46.133Z</time>
      </trkpt>
      <trkpt lat="48.70323" lon="1.96856">
        <ele>131</ele>
        <time>2025-07-04T10:28:50.179Z</time>
      </trkpt>
      <trkpt lat="48.7032" lon="1.96848">
        <ele>131</ele>
        <time>2025-07-04T10:28:54.701Z</time>
      </trkpt>
      <trkpt lat="48.70319" lon="1.96842">
        <ele>128</ele>
        <time>2025-07-04T10:28:59.020Z</time>
      </trkpt>
      <trkpt lat="48.70317" lon="1.96834">
        <ele>128</ele>
        <time>2025-07-04T10:29:03.379Z</time>
      </trkpt>
      <trkpt lat="48.70315" lon="1.96828">
        <ele>128</ele>
        <time>2025-07-04T10:29:07.520Z</time>
      </trkpt>
      <trkpt lat="48.70312" lon="1.9682">
        <ele>128</ele>
        <time>2025-07-04T10:29:11.853Z</time>
      </trkpt>
      <trkpt lat="48.70311" lon="1.96813">
        <ele>128</ele>
        <time>2025-07-04T10:29:15.943Z</time>
      </trkpt>
      <trkpt lat="48.7031" lon="1.96804">
        <ele>128</ele>
        <time>2025-07-04T10:29:20.260Z</time>
      </trkpt>
      <trkpt lat="48.70309" lon="1.96794">
        <ele>128</ele>
        <time>2025-07-04T10:29:24.679Z</time>
      </trkpt>
      <trkpt lat="48.70309" lon="1.96785">
        <ele>127</ele>
        <time>2025-07-04T10:29:29.219Z</time>
      </trkpt>
      <trkpt lat="48.7031" lon="1.96777">
        <ele>127</ele>
        <time>2025-07-04T10:29:33.639Z</time>
      </trkpt>
      <trkpt lat="48.70309" lon="1.96768">
        <ele>127</ele>
        <time>2025-07-04T10:29:38.093Z</time>
      </trkpt>
      <trkpt lat="48.70308" lon="1.96759">
        <ele>128</ele>
        <time>2025-07-04T10:29:42.394Z</time>
      </trkpt>
      <trkpt lat="48.70307" lon="1.9675">
        <ele>128</ele>
        <time>2025-07-04T10:29:46.900Z</time>
      </trkpt>
      <trkpt lat="48.70305" lon="1.96742">
        <ele>128</ele>
        <time>2025-07-04T10:29:51.159Z</time>
      </trkpt>
      <trkpt lat="48.70302" lon="1.96736">
        <ele>128</ele>
        <time>2025-07-04T10:29:55.433Z</time>
      </trkpt>
      <trkpt lat="48.70301" lon="1.96729">
        <ele>129</ele>
        <time>2025-07-04T10:29:59.479Z</time>
      </trkpt>
      <trkpt lat="48.70301" lon="1.96721">
        <ele>129</ele>
        <time>2025-07-04T10:30:03.659Z</time>
      </trkpt>
      <trkpt lat="48.70298" lon="1.96715">
        <ele>129</ele>
        <time>2025-07-04T10:30:08.260Z</time>
      </trkpt>
      <trkpt lat="48.70294" lon="1.96718">
        <ele>129</ele>
        <time>2025-07-04T10:30:12.475Z</time>
      </trkpt>
      <trkpt lat="48.7029" lon="1.96724">
        <ele>128</ele>
        <time>2025-07-04T10:30:16.980Z</time>
      </trkpt>
      <trkpt lat="48.70285" lon="1.96728">
        <ele>128</ele>
        <time>2025-07-04T10:30:21.333Z</time>
      </trkpt>
      <trkpt lat="48.7028" lon="1.9673">
        <ele>128</ele>
        <time>2025-07-04T10:30:25.676Z</time>
      </trkpt>
      <trkpt lat="48.70275" lon="1.96735">
        <ele>128</ele>
        <time>2025-07-04T10:30:30.173Z</time>
      </trkpt>
      <trkpt lat="48.70271" lon="1.96738">
        <ele>127</ele>
        <time>2025-07-04T10:30:34.520Z</time>
      </trkpt>
      <trkpt lat="48.70265" lon="1.9674">
        <ele>127</ele>
        <time>2025-07-04T10:30:39.176Z</time>
      </trkpt>
      <trkpt lat="48.70259" lon="1.9674">
        <ele>128</ele>
        <time>2025-07-04T10:30:43.255Z</time>
      </trkpt>
      <trkpt lat="48.70254" lon="1.96741">
        <ele>128</ele>
        <time>2025-07-04T10:30:47.479Z</time>
      </trkpt>
      <trkpt lat="48.70249" lon="1.96742">
        <ele>128</ele>
        <time>2025-07-04T10:30:51.739Z</time>
      </trkpt>
      <trkpt lat="48.70244" lon="1.96744">
        <ele>128</ele>
        <time>2025-07-04T10:30:56.141Z</time>
      </trkpt>
      <trkpt lat="48.7024" lon="1.96745">
        <ele>128</ele>
        <time>2025-07-04T10:31:00.536Z</time>
      </trkpt>
      <trkpt lat="48.70236" lon="1.96744">
        <ele>129</ele>
        <time>2025-07-04T10:31:04.658Z</time>
      </trkpt>
      <trkpt lat="48.70232" lon="1.96744">
        <ele>129</ele>
        <time>2025-07-04T10:31:08.728Z</time>
      </trkpt>
      <trkpt lat="48.70227" lon="1.96745">
        <ele>129</ele>
        <time>2025-07-04T10:31:12.934Z</time>
      </trkpt>
      <trkpt lat="48.70222" lon="1.96746">
        <ele>129</ele>
        <time>2025-07-04T10:31:17.219Z</time>
      </trkpt>
      <trkpt lat="48.70217" lon="1.96748">
        <ele>129</ele>
        <time>2025-07-04T10:31:21.520Z</time>
      </trkpt>
      <trkpt lat="48.70213" lon="1.96752">
        <ele>129</ele>
        <time>2025-07-04T10:31:26.279Z</time>
      </trkpt>
      <trkpt lat="48.70208" lon="1.96758">
        <ele>130</ele>
        <time>2025-07-04T10:31:30.975Z</time>
      </trkpt>
      <trkpt lat="48.70202" lon="1.96759">
        <ele>130</ele>
        <time>2025-07-04T10:31:34.993Z</time>
      </trkpt>
      <trkpt lat="48.70197" lon="1.96756">
        <ele>130</ele>
        <time>2025-07-04T10:31:39.234Z</time>
      </trkpt>
      <trkpt lat="48.70192" lon="1.96753">
        <ele>130</ele>
        <time>2025-07-04T10:31:43.520Z</time>
      </trkpt>
      <trkpt lat="48.70187" lon="1.9675">
        <ele>130</ele>
        <time>2025-07-04T10:31:47.835Z</time>
      </trkpt>
      <trkpt lat="48.70183" lon="1.96748">
        <ele>130</ele>
        <time>2025-07-04T10:31:52.179Z</time>
      </trkpt>
      <trkpt lat="48.70178" lon="1.96746">
        <ele>131</ele>
        <time>2025-07-04T10:31:56.497Z</time>
      </trkpt>
      <trkpt lat="48.70174" lon="1.96743">
        <ele>131</ele>
        <time>2025-07-04T10:32:00.652Z</time>
      </trkpt>
      <trkpt lat="48.70169" lon="1.96742">
        <ele>131</ele>
        <time>2025-07-04T10:32:04.860Z</time>
      </trkpt>
      <trkpt lat="48.70165" lon="1.96744">
        <ele>131</ele>
        <time>2025-07-04T10:32:08.930Z</time>
      </trkpt>
      <trkpt lat="48.7016" lon="1.96747">
        <ele>131</ele>
        <time>2025-07-04T10:32:13.315Z</time>
      </trkpt>
      <trkpt lat="48.70155" lon="1.9675">
        <ele>131</ele>
        <time>2025-07-04T10:32:17.437Z</time>
      </trkpt>
      <trkpt lat="48.7015" lon="1.96753">
        <ele>133</ele>
        <time>2025-07-04T10:32:21.771Z</time>
      </trkpt>
      <trkpt lat="48.70145" lon="1.96754">
        <ele>133</ele>
        <time>2025-07-04T10:32:25.956Z</time>
      </trkpt>
      <trkpt lat="48.7014" lon="1.96755">
        <ele>133</ele>
        <time>2025-07-04T10:32:30.416Z</time>
      </trkpt>
      <trkpt lat="48.70135" lon="1.96757">
        <ele>133</ele>
        <time>2025-07-04T10:32:34.477Z</time>
      </trkpt>
      <trkpt lat="48.70129" lon="1.96759">
        <ele>133</ele>
        <time>2025-07-04T10:32:39.017Z</time>
      </trkpt>
      <trkpt lat="48.70123" lon="1.96762">
        <ele>135</ele>
        <time>2025-07-04T10:32:43.520Z</time>
      </trkpt>
      <trkpt lat="48.70117" lon="1.96764">
        <ele>135</ele>
        <time>2025-07-04T10:32:48.114Z</time>
      </trkpt>
      <trkpt lat="48.70111" lon="1.96763">
        <ele>135</ele>
        <time>2025-07-04T10:32:52.520Z</time>
      </trkpt>
      <trkpt lat="48.70105" lon="1.96761">
        <ele>135</ele>
        <time>2025-07-04T10:32:57.039Z</time>
      </trkpt>
      <trkpt lat="48.701" lon="1.96757">
        <ele>135</ele>
        <time>2025-07-04T10:33:01.520Z</time>
      </trkpt>
      <trkpt lat="48.70095" lon="1.96753">
        <ele>138</ele>
        <time>2025-07-04T10:33:05.674Z</time>
      </trkpt>
      <trkpt lat="48.70091" lon="1.96749">
        <ele>138</ele>
        <time>2025-07-04T10:33:09.694Z</time>
      </trkpt>
      <trkpt lat="48.70086" lon="1.96746">
        <ele>138</ele>
        <time>2025-07-04T10:33:13.738Z</time>
      </trkpt>
      <trkpt lat="48.70081" lon="1.96744">
        <ele>138</ele>
        <time>2025-07-04T10:33:17.757Z</time>
      </trkpt>
      <trkpt lat="48.70076" lon="1.96745">
        <ele>138</ele>
        <time>2025-07-04T10:33:21.914Z</time>
      </trkpt>
      <trkpt lat="48.70072" lon="1.96746">
        <ele>138</ele>
        <time>2025-07-04T10:33:26.001Z</time>
      </trkpt>
      <trkpt lat="48.70066" lon="1.96747">
        <ele>141</ele>
        <time>2025-07-04T10:33:30.173Z</time>
      </trkpt>
      <trkpt lat="48.70062" lon="1.96749">
        <ele>141</ele>
        <time>2025-07-04T10:33:34.227Z</time>
      </trkpt>
      <trkpt lat="48.70056" lon="1.96753">
        <ele>141</ele>
        <time>2025-07-04T10:33:38.416Z</time>
      </trkpt>
      <trkpt lat="48.70051" lon="1.96754">
        <ele>141</ele>
        <time>2025-07-04T10:33:42.520Z</time>
      </trkpt>
      <trkpt lat="48.70046" lon="1.96754">
        <ele>141</ele>
        <time>2025-07-04T10:33:46.520Z</time>
      </trkpt>
      <trkpt lat="48.70041" lon="1.96754">
        <ele>142</ele>
        <time>2025-07-04T10:33:50.959Z</time>
      </trkpt>
      <trkpt lat="48.70037" lon="1.96754">
        <ele>142</ele>
        <time>2025-07-04T10:33:55.277Z</time>
      </trkpt>
      <trkpt lat="48.70033" lon="1.96754">
        <ele>142</ele>
        <time>2025-07-04T10:33:59.314Z</time>
      </trkpt>
      <trkpt lat="48.70028" lon="1.96753">
        <ele>142</ele>
        <time>2025-07-04T10:34:03.716Z</time>
      </trkpt>
      <trkpt lat="48.70024" lon="1.96752">
        <ele>142</ele>
        <time>2025-07-04T10:34:08.060Z</time>
      </trkpt>
      <trkpt lat="48.70019" lon="1.96751">
        <ele>142</ele>
        <time>2025-07-04T10:34:12.276Z</time>
      </trkpt>
      <trkpt lat="48.70014" lon="1.9675">
        <ele>142</ele>
        <time>2025-07-04T10:34:16.338Z</time>
      </trkpt>
      <trkpt lat="48.70009" lon="1.96751">
        <ele>146</ele>
        <time>2025-07-04T10:34:20.493Z</time>
      </trkpt>
      <trkpt lat="48.70005" lon="1.96751">
        <ele>146</ele>
        <time>2025-07-04T10:34:24.794Z</time>
      </trkpt>
      <trkpt lat="48.7" lon="1.96752">
        <ele>146</ele>
        <time>2025-07-04T10:34:29.119Z</time>
      </trkpt>
      <trkpt lat="48.69995" lon="1.96753">
        <ele>146</ele>
        <time>2025-07-04T10:34:33.854Z</time>
      </trkpt>
      <trkpt lat="48.69991" lon="1.96756">
        <ele>146</ele>
        <time>2025-07-04T10:34:38.520Z</time>
      </trkpt>
      <trkpt lat="48.6999" lon="1.96761">
        <ele>146</ele>
        <time>2025-07-04T10:34:43.520Z</time>
      </trkpt>
      <trkpt lat="48.69989" lon="1.96767">
        <ele>144</ele>
        <time>2025-07-04T10:34:48.055Z</time>
      </trkpt>
      <trkpt lat="48.69991" lon="1.96777">
        <ele>144</ele>
        <time>2025-07-04T10:34:52.516Z</time>
      </trkpt>
      <trkpt lat="48.69992" lon="1.96787">
        <ele>144</ele>
        <time>2025-07-04T10:34:56.979Z</time>
      </trkpt>
      <trkpt lat="48.69992" lon="1.96795">
        <ele>142</ele>
        <time>2025-07-04T10:35:00.998Z</time>
      </trkpt>
      <trkpt lat="48.69993" lon="1.96804">
        <ele>142</ele>
        <time>2025-07-04T10:35:05.060Z</time>
      </trkpt>
      <trkpt lat="48.69992" lon="1.96811">
        <ele>142</ele>
        <time>2025-07-04T10:35:09.078Z</time>
      </trkpt>
      <trkpt lat="48.69993" lon="1.9682">
        <ele>141</ele>
        <time>2025-07-04T10:35:13.520Z</time>
      </trkpt>
      <trkpt lat="48.69993" lon="1.96828">
        <ele>141</ele>
        <time>2025-07-04T10:35:18.072Z</time>
      </trkpt>
      <trkpt lat="48.69994" lon="1.96837">
        <ele>141</ele>
        <time>2025-07-04T10:35:22.492Z</time>
      </trkpt>
      <trkpt lat="48.69995" lon="1.96846">
        <ele>141</ele>
        <time>2025-07-04T10:35:26.939Z</time>
      </trkpt>
      <trkpt lat="48.69993" lon="1.96855">
        <ele>142</ele>
        <time>2025-07-04T10:35:31Z</time>
      </trkpt>
      <trkpt lat="48.69992" lon="1.96864">
        <ele>142</ele>
        <time>2025-07-04T10:35:35.520Z</time>
      </trkpt>
      <trkpt lat="48.6999" lon="1.96874">
        <ele>142</ele>
        <time>2025-07-04T10:35:40.054Z</time>
      </trkpt>
      <trkpt lat="48.69989" lon="1.96882">
        <ele>142</ele>
        <time>2025-07-04T10:35:44.474Z</time>
      </trkpt>
      <trkpt lat="48.69988" lon="1.96891">
        <ele>142</ele>
        <time>2025-07-04T10:35:48.680Z</time>
      </trkpt>
      <trkpt lat="48.69986" lon="1.96899">
        <ele>143</ele>
        <time>2025-07-04T10:35:53.296Z</time>
      </trkpt>
      <trkpt lat="48.69983" lon="1.96904">
        <ele>142</ele>
        <time>2025-07-04T10:35:57.519Z</time>
      </trkpt>
      <trkpt lat="48.69981" lon="1.9691">
        <ele>142</ele>
        <time>2025-07-04T10:36:01.520Z</time>
      </trkpt>
      <trkpt lat="48.69979" lon="1.96902">
        <ele>143</ele>
        <time>2025-07-04T10:36:05.520Z</time>
      </trkpt>
      <trkpt lat="48.69978" lon="1.96894">
        <ele>143</ele>
        <time>2025-07-04T10:36:09.833Z</time>
      </trkpt>
      <trkpt lat="48.69978" lon="1.96887">
        <ele>143</ele>
        <time>2025-07-04T10:36:13.895Z</time>
      </trkpt>
      <trkpt lat="48.69976" lon="1.9688">
        <ele>143</ele>
        <time>2025-07-04T10:36:17.939Z</time>
      </trkpt>
      <trkpt lat="48.69973" lon="1.96874">
        <ele>143</ele>
        <time>2025-07-04T10:36:22.520Z</time>
      </trkpt>
      <trkpt lat="48.69969" lon="1.96868">
        <ele>143</ele>
        <time>2025-07-04T10:36:27.018Z</time>
      </trkpt>
      <trkpt lat="48.69965" lon="1.96863">
        <ele>143</ele>
        <time>2025-07-04T10:36:31.078Z</time>
      </trkpt>
      <trkpt lat="48.69963" lon="1.96857">
        <ele>143</ele>
        <time>2025-07-04T10:36:35.175Z</time>
      </trkpt>
      <trkpt lat="48.69959" lon="1.96852">
        <ele>143</ele>
        <time>2025-07-04T10:36:39.356Z</time>
      </trkpt>
      <trkpt lat="48.69954" lon="1.96849">
        <ele>146</ele>
        <time>2025-07-04T10:36:43.520Z</time>
      </trkpt>
      <trkpt lat="48.6995" lon="1.96844">
        <ele>149</ele>
        <time>2025-07-04T10:36:47.694Z</time>
      </trkpt>
      <trkpt lat="48.69945" lon="1.96841">
        <ele>149</ele>
        <time>2025-07-04T10:36:51.959Z</time>
      </trkpt>
      <trkpt lat="48.6994" lon="1.96839">
        <ele>149</ele>
        <time>2025-07-04T10:36:55.994Z</time>
      </trkpt>
      <trkpt lat="48.69934" lon="1.96837">
        <ele>149</ele>
        <time>2025-07-04T10:37:00.520Z</time>
      </trkpt>
      <trkpt lat="48.69927" lon="1.96834">
        <ele>152</ele>
        <time>2025-07-04T10:37:04.793Z</time>
      </trkpt>
      <trkpt lat="48.69922" lon="1.96831">
        <ele>152</ele>
        <time>2025-07-04T10:37:09.314Z</time>
      </trkpt>
      <trkpt lat="48.69916" lon="1.96827">
        <ele>152</ele>
        <time>2025-07-04T10:37:13.419Z</time>
      </trkpt>
      <trkpt lat="48.6991" lon="1.96824">
        <ele>152</ele>
        <time>2025-07-04T10:37:17.958Z</time>
      </trkpt>
      <trkpt lat="48.69905" lon="1.96822">
        <ele>152</ele>
        <time>2025-07-04T10:37:22.081Z</time>
      </trkpt>
      <trkpt lat="48.69901" lon="1.96819">
        <ele>158</ele>
        <time>2025-07-04T10:37:26.134Z</time>
      </trkpt>
      <trkpt lat="48.69896" lon="1.96816">
        <ele>158</ele>
        <time>2025-07-04T10:37:30.314Z</time>
      </trkpt>
      <trkpt lat="48.6989" lon="1.96811">
        <ele>158</ele>
        <time>2025-07-04T10:37:34.853Z</time>
      </trkpt>
      <trkpt lat="48.69886" lon="1.96804">
        <ele>158</ele>
        <time>2025-07-04T10:37:39.520Z</time>
      </trkpt>
      <trkpt lat="48.69881" lon="1.96799">
        <ele>158</ele>
        <time>2025-07-04T10:37:44.078Z</time>
      </trkpt>
      <trkpt lat="48.69877" lon="1.96798">
        <ele>158</ele>
        <time>2025-07-04T10:37:48.143Z</time>
      </trkpt>
      <trkpt lat="48.69872" lon="1.96797">
        <ele>160</ele>
        <time>2025-07-04T10:37:52.520Z</time>
      </trkpt>
      <trkpt lat="48.69867" lon="1.96794">
        <ele>160</ele>
        <time>2025-07-04T10:37:56.715Z</time>
      </trkpt>
      <trkpt lat="48.69862" lon="1.96792">
        <ele>164</ele>
        <time>2025-07-04T10:38:00.819Z</time>
      </trkpt>
      <trkpt lat="48.69857" lon="1.96789">
        <ele>164</ele>
        <time>2025-07-04T10:38:05.419Z</time>
      </trkpt>
      <trkpt lat="48.69852" lon="1.96785">
        <ele>164</ele>
        <time>2025-07-04T10:38:09.520Z</time>
      </trkpt>
      <trkpt lat="48.69847" lon="1.96783">
        <ele>163</ele>
        <time>2025-07-04T10:38:14.233Z</time>
      </trkpt>
      <trkpt lat="48.69842" lon="1.96778">
        <ele>163</ele>
        <time>2025-07-04T10:38:18.875Z</time>
      </trkpt>
      <trkpt lat="48.69838" lon="1.96773">
        <ele>163</ele>
        <time>2025-07-04T10:38:22.920Z</time>
      </trkpt>
      <trkpt lat="48.69834" lon="1.96767">
        <ele>163</ele>
        <time>2025-07-04T10:38:27.040Z</time>
      </trkpt>
      <trkpt lat="48.6983" lon="1.96763">
        <ele>169</ele>
        <time>2025-07-04T10:38:31.120Z</time>
      </trkpt>
      <trkpt lat="48.69825" lon="1.96758">
        <ele>169</ele>
        <time>2025-07-04T10:38:35.300Z</time>
      </trkpt>
      <trkpt lat="48.69821" lon="1.96753">
        <ele>169</ele>
        <time>2025-07-04T10:38:39.993Z</time>
      </trkpt>
      <trkpt lat="48.69817" lon="1.96748">
        <ele>169</ele>
        <time>2025-07-04T10:38:44.520Z</time>
      </trkpt>
      <trkpt lat="48.69812" lon="1.96741">
        <ele>169</ele>
        <time>2025-07-04T10:38:49.520Z</time>
      </trkpt>
      <trkpt lat="48.6981" lon="1.96733">
        <ele>172</ele>
        <time>2025-07-04T10:38:53.859Z</time>
      </trkpt>
      <trkpt lat="48.69807" lon="1.96726">
        <ele>172</ele>
        <time>2025-07-04T10:38:58.304Z</time>
      </trkpt>
      <trkpt lat="48.69805" lon="1.96719">
        <ele>172</ele>
        <time>2025-07-04T10:39:02.579Z</time>
      </trkpt>
      <trkpt lat="48.69804" lon="1.96713">
        <ele>172</ele>
        <time>2025-07-04T10:39:06.854Z</time>
      </trkpt>
      <trkpt lat="48.69802" lon="1.96707">
        <ele>174</ele>
        <time>2025-07-04T10:39:11Z</time>
      </trkpt>
      <trkpt lat="48.69799" lon="1.96701">
        <ele>174</ele>
        <time>2025-07-04T10:39:15.379Z</time>
      </trkpt>
      <trkpt lat="48.69797" lon="1.96695">
        <ele>174</ele>
        <time>2025-07-04T10:39:19.439Z</time>
      </trkpt>
      <trkpt lat="48.69796" lon="1.96688">
        <ele>174</ele>
        <time>2025-07-04T10:39:23.475Z</time>
      </trkpt>
      <trkpt lat="48.69795" lon="1.96682">
        <ele>174</ele>
        <time>2025-07-04T10:39:27.520Z</time>
      </trkpt>
      <trkpt lat="48.69795" lon="1.96673">
        <ele>176</ele>
        <time>2025-07-04T10:39:32.121Z</time>
      </trkpt>
      <trkpt lat="48.69794" lon="1.96665">
        <ele>176</ele>
        <time>2025-07-04T10:39:36.198Z</time>
      </trkpt>
      <trkpt lat="48.69792" lon="1.96658">
        <ele>176</ele>
        <time>2025-07-04T10:39:40.234Z</time>
      </trkpt>
      <trkpt lat="48.6979" lon="1.96651">
        <ele>179</ele>
        <time>2025-07-04T10:39:44.355Z</time>
      </trkpt>
      <trkpt lat="48.69789" lon="1.96644">
        <ele>179</ele>
        <time>2025-07-04T10:39:48.374Z</time>
      </trkpt>
      <trkpt lat="48.6979" lon="1.96637">
        <ele>179</ele>
        <time>2025-07-04T10:39:52.495Z</time>
      </trkpt>
      <trkpt lat="48.69788" lon="1.96632">
        <ele>179</ele>
        <time>2025-07-04T10:39:56.520Z</time>
      </trkpt>
      <trkpt lat="48.69787" lon="1.96625">
        <ele>179</ele>
        <time>2025-07-04T10:40:01.360Z</time>
      </trkpt>
      <trkpt lat="48.69789" lon="1.96619">
        <ele>179</ele>
        <time>2025-07-04T10:40:05.520Z</time>
      </trkpt>
      <trkpt lat="48.69788" lon="1.96612">
        <ele>179</ele>
        <time>2025-07-04T10:40:10.140Z</time>
      </trkpt>
      <trkpt lat="48.69786" lon="1.96606">
        <ele>179</ele>
        <time>2025-07-04T10:40:14.399Z</time>
      </trkpt>
      <trkpt lat="48.69785" lon="1.96599">
        <ele>179</ele>
        <time>2025-07-04T10:40:18.520Z</time>
      </trkpt>
      <trkpt lat="48.69785" lon="1.96593">
        <ele>180</ele>
        <time>2025-07-04T10:40:22.520Z</time>
      </trkpt>
      <trkpt lat="48.69785" lon="1.96589">
        <ele>180</ele>
        <time>2025-07-04T10:40:27.337Z</time>
      </trkpt>
      <trkpt lat="48.69781" lon="1.96583">
        <ele>180</ele>
        <time>2025-07-04T10:40:31.799Z</time>
      </trkpt>
      <trkpt lat="48.69779" lon="1.96577">
        <ele>180</ele>
        <time>2025-07-04T10:40:36.492Z</time>
      </trkpt>
      <trkpt lat="48.69778" lon="1.9657">
        <ele>180</ele>
        <time>2025-07-04T10:40:40.972Z</time>
      </trkpt>
      <trkpt lat="48.69776" lon="1.96563">
        <ele>180</ele>
        <time>2025-07-04T10:40:45.520Z</time>
      </trkpt>
      <trkpt lat="48.69775" lon="1.96556">
        <ele>180</ele>
        <time>2025-07-04T10:40:50.093Z</time>
      </trkpt>
      <trkpt lat="48.69774" lon="1.96548">
        <ele>180</ele>
        <time>2025-07-04T10:40:54.897Z</time>
      </trkpt>
      <trkpt lat="48.69773" lon="1.96542">
        <ele>180</ele>
        <time>2025-07-04T10:40:58.928Z</time>
      </trkpt>
      <trkpt lat="48.69771" lon="1.96536">
        <ele>180</ele>
        <time>2025-07-04T10:41:03.520Z</time>
      </trkpt>
      <trkpt lat="48.69769" lon="1.96532">
        <ele>180</ele>
        <time>2025-07-04T10:41:07.520Z</time>
      </trkpt>
      <trkpt lat="48.69769" lon="1.96532">
        <ele>180</ele>
        <time>2025-07-04T10:42:06.047Z</time>
      </trkpt>
      <trkpt lat="48.69766" lon="1.96541">
        <ele>180</ele>
        <time>2025-07-04T10:42:10.365Z</time>
      </trkpt>
      <trkpt lat="48.69763" lon="1.96544">
        <ele>181</ele>
        <time>2025-07-04T10:42:14.862Z</time>
      </trkpt>
      <trkpt lat="48.69761" lon="1.96551">
        <ele>181</ele>
        <time>2025-07-04T10:42:19.105Z</time>
      </trkpt>
      <trkpt lat="48.69757" lon="1.96557">
        <ele>181</ele>
        <time>2025-07-04T10:42:23.106Z</time>
      </trkpt>
      <trkpt lat="48.69753" lon="1.96564">
        <ele>181</ele>
        <time>2025-07-04T10:42:27.527Z</time>
      </trkpt>
      <trkpt lat="48.69749" lon="1.96572">
        <ele>180</ele>
        <time>2025-07-04T10:42:32.185Z</time>
      </trkpt>
      <trkpt lat="48.69747" lon="1.96579">
        <ele>180</ele>
        <time>2025-07-04T10:42:36.549Z</time>
      </trkpt>
      <trkpt lat="48.69745" lon="1.96587">
        <ele>180</ele>
        <time>2025-07-04T10:42:41.086Z</time>
      </trkpt>
      <trkpt lat="48.69745" lon="1.96594">
        <ele>180</ele>
        <time>2025-07-04T10:42:45.461Z</time>
      </trkpt>
      <trkpt lat="48.6974" lon="1.966">
        <ele>179</ele>
        <time>2025-07-04T10:42:49.508Z</time>
      </trkpt>
      <trkpt lat="48.69736" lon="1.96605">
        <ele>177</ele>
        <time>2025-07-04T10:42:53.927Z</time>
      </trkpt>
      <trkpt lat="48.69732" lon="1.96611">
        <ele>177</ele>
        <time>2025-07-04T10:42:58.108Z</time>
      </trkpt>
      <trkpt lat="48.69728" lon="1.96616">
        <ele>177</ele>
        <time>2025-07-04T10:43:02.587Z</time>
      </trkpt>
      <trkpt lat="48.69724" lon="1.96623">
        <ele>177</ele>
        <time>2025-07-04T10:43:07.322Z</time>
      </trkpt>
      <trkpt lat="48.69721" lon="1.9663">
        <ele>176</ele>
        <time>2025-07-04T10:43:11.446Z</time>
      </trkpt>
      <trkpt lat="48.69718" lon="1.96638">
        <ele>176</ele>
        <time>2025-07-04T10:43:15.986Z</time>
      </trkpt>
      <trkpt lat="48.69715" lon="1.96643">
        <ele>176</ele>
        <time>2025-07-04T10:43:20.028Z</time>
      </trkpt>
      <trkpt lat="48.69711" lon="1.9665">
        <ele>176</ele>
        <time>2025-07-04T10:43:24.405Z</time>
      </trkpt>
      <trkpt lat="48.69707" lon="1.96656">
        <ele>176</ele>
        <time>2025-07-04T10:43:28.870Z</time>
      </trkpt>
      <trkpt lat="48.69702" lon="1.96657">
        <ele>176</ele>
        <time>2025-07-04T10:43:33.486Z</time>
      </trkpt>
      <trkpt lat="48.69696" lon="1.96652">
        <ele>176</ele>
        <time>2025-07-04T10:43:37.520Z</time>
      </trkpt>
      <trkpt lat="48.69691" lon="1.96649">
        <ele>176</ele>
        <time>2025-07-04T10:43:42.247Z</time>
      </trkpt>
      <trkpt lat="48.69687" lon="1.96648">
        <ele>176</ele>
        <time>2025-07-04T10:43:46.446Z</time>
      </trkpt>
      <trkpt lat="48.69682" lon="1.96646">
        <ele>176</ele>
        <time>2025-07-04T10:43:50.720Z</time>
      </trkpt>
      <trkpt lat="48.69678" lon="1.96644">
        <ele>176</ele>
        <time>2025-07-04T10:43:54.845Z</time>
      </trkpt>
      <trkpt lat="48.69674" lon="1.96642">
        <ele>176</ele>
        <time>2025-07-04T10:43:58.905Z</time>
      </trkpt>
      <trkpt lat="48.69669" lon="1.9664">
        <ele>176</ele>
        <time>2025-07-04T10:44:03.146Z</time>
      </trkpt>
      <trkpt lat="48.69665" lon="1.96637">
        <ele>176</ele>
        <time>2025-07-04T10:44:07.206Z</time>
      </trkpt>
      <trkpt lat="48.6966" lon="1.96633">
        <ele>176</ele>
        <time>2025-07-04T10:44:11.766Z</time>
      </trkpt>
      <trkpt lat="48.69654" lon="1.9663">
        <ele>176</ele>
        <time>2025-07-04T10:44:16.208Z</time>
      </trkpt>
      <trkpt lat="48.69648" lon="1.96629">
        <ele>177</ele>
        <time>2025-07-04T10:44:21.285Z</time>
      </trkpt>
      <trkpt lat="48.69643" lon="1.96628">
        <ele>177</ele>
        <time>2025-07-04T10:44:25.320Z</time>
      </trkpt>
      <trkpt lat="48.69637" lon="1.96624">
        <ele>178</ele>
        <time>2025-07-04T10:44:29.903Z</time>
      </trkpt>
      <trkpt lat="48.69631" lon="1.96621">
        <ele>178</ele>
        <time>2025-07-04T10:44:34.426Z</time>
      </trkpt>
      <trkpt lat="48.69626" lon="1.96618">
        <ele>178</ele>
        <time>2025-07-04T10:44:38.887Z</time>
      </trkpt>
      <trkpt lat="48.6962" lon="1.96614">
        <ele>178</ele>
        <time>2025-07-04T10:44:43.401Z</time>
      </trkpt>
      <trkpt lat="48.69616" lon="1.96608">
        <ele>178</ele>
        <time>2025-07-04T10:44:47.787Z</time>
      </trkpt>
      <trkpt lat="48.69612" lon="1.96601">
        <ele>178</ele>
        <time>2025-07-04T10:44:51.900Z</time>
      </trkpt>
      <trkpt lat="48.69608" lon="1.96594">
        <ele>179</ele>
        <time>2025-07-04T10:44:56.186Z</time>
      </trkpt>
      <trkpt lat="48.69604" lon="1.96588">
        <ele>179</ele>
        <time>2025-07-04T10:45:00.520Z</time>
      </trkpt>
      <trkpt lat="48.69599" lon="1.96582">
        <ele>179</ele>
        <time>2025-07-04T10:45:05.101Z</time>
      </trkpt>
      <trkpt lat="48.69596" lon="1.96576">
        <ele>177</ele>
        <time>2025-07-04T10:45:09.127Z</time>
      </trkpt>
      <trkpt lat="48.69592" lon="1.96569">
        <ele>179</ele>
        <time>2025-07-04T10:45:13.520Z</time>
      </trkpt>
      <trkpt lat="48.69589" lon="1.96562">
        <ele>179</ele>
        <time>2025-07-04T10:45:18.147Z</time>
      </trkpt>
      <trkpt lat="48.69585" lon="1.96556">
        <ele>179</ele>
        <time>2025-07-04T10:45:22.183Z</time>
      </trkpt>
      <trkpt lat="48.69581" lon="1.9655">
        <ele>179</ele>
        <time>2025-07-04T10:45:26.520Z</time>
      </trkpt>
      <trkpt lat="48.69579" lon="1.96544">
        <ele>179</ele>
        <time>2025-07-04T10:45:31.108Z</time>
      </trkpt>
      <trkpt lat="48.69573" lon="1.9654">
        <ele>180</ele>
        <time>2025-07-04T10:45:35.520Z</time>
      </trkpt>
      <trkpt lat="48.6957" lon="1.96529">
        <ele>180</ele>
        <time>2025-07-04T10:45:40.026Z</time>
      </trkpt>
      <trkpt lat="48.69567" lon="1.96521">
        <ele>178</ele>
        <time>2025-07-04T10:45:44.487Z</time>
      </trkpt>
      <trkpt lat="48.69561" lon="1.96518">
        <ele>178</ele>
        <time>2025-07-04T10:45:48.520Z</time>
      </trkpt>
      <trkpt lat="48.69556" lon="1.9651">
        <ele>177</ele>
        <time>2025-07-04T10:45:53.063Z</time>
      </trkpt>
      <trkpt lat="48.69552" lon="1.96503">
        <ele>177</ele>
        <time>2025-07-04T10:45:57.520Z</time>
      </trkpt>
      <trkpt lat="48.69549" lon="1.96496">
        <ele>177</ele>
        <time>2025-07-04T10:46:02.051Z</time>
      </trkpt>
      <trkpt lat="48.69546" lon="1.9649">
        <ele>177</ele>
        <time>2025-07-04T10:46:06.529Z</time>
      </trkpt>
      <trkpt lat="48.69542" lon="1.96483">
        <ele>177</ele>
        <time>2025-07-04T10:46:11.085Z</time>
      </trkpt>
      <trkpt lat="48.69539" lon="1.96477">
        <ele>173</ele>
        <time>2025-07-04T10:46:15.520Z</time>
      </trkpt>
      <trkpt lat="48.69534" lon="1.9647">
        <ele>173</ele>
        <time>2025-07-04T10:46:20.247Z</time>
      </trkpt>
      <trkpt lat="48.6953" lon="1.96464">
        <ele>173</ele>
        <time>2025-07-04T10:46:24.796Z</time>
      </trkpt>
      <trkpt lat="48.69526" lon="1.96458">
        <ele>173</ele>
        <time>2025-07-04T10:46:28.823Z</time>
      </trkpt>
      <trkpt lat="48.69522" lon="1.96452">
        <ele>173</ele>
        <time>2025-07-04T10:46:33.268Z</time>
      </trkpt>
      <trkpt lat="48.69518" lon="1.96445">
        <ele>173</ele>
        <time>2025-07-04T10:46:37.867Z</time>
      </trkpt>
      <trkpt lat="48.69514" lon="1.96438">
        <ele>170</ele>
        <time>2025-07-04T10:46:42.306Z</time>
      </trkpt>
      <trkpt lat="48.69511" lon="1.96432">
        <ele>170</ele>
        <time>2025-07-04T10:46:46.367Z</time>
      </trkpt>
      <trkpt lat="48.69507" lon="1.96426">
        <ele>171</ele>
        <time>2025-07-04T10:46:50.505Z</time>
      </trkpt>
      <trkpt lat="48.69503" lon="1.9642">
        <ele>171</ele>
        <time>2025-07-04T10:46:55.001Z</time>
      </trkpt>
      <trkpt lat="48.69499" lon="1.96414">
        <ele>171</ele>
        <time>2025-07-04T10:46:59.361Z</time>
      </trkpt>
      <trkpt lat="48.69495" lon="1.96407">
        <ele>171</ele>
        <time>2025-07-04T10:47:03.808Z</time>
      </trkpt>
      <trkpt lat="48.69491" lon="1.96401">
        <ele>171</ele>
        <time>2025-07-04T10:47:08.261Z</time>
      </trkpt>
      <trkpt lat="48.69488" lon="1.96395">
        <ele>171</ele>
        <time>2025-07-04T10:47:12.520Z</time>
      </trkpt>
      <trkpt lat="48.69486" lon="1.96389">
        <ele>165</ele>
        <time>2025-07-04T10:47:17.076Z</time>
      </trkpt>
      <trkpt lat="48.69482" lon="1.96383">
        <ele>165</ele>
        <time>2025-07-04T10:47:21.385Z</time>
      </trkpt>
      <trkpt lat="48.69479" lon="1.96377">
        <ele>165</ele>
        <time>2025-07-04T10:47:25.520Z</time>
      </trkpt>
      <trkpt lat="48.69477" lon="1.9637">
        <ele>164</ele>
        <time>2025-07-04T10:47:29.720Z</time>
      </trkpt>
      <trkpt lat="48.69473" lon="1.96364">
        <ele>164</ele>
        <time>2025-07-04T10:47:34.303Z</time>
      </trkpt>
      <trkpt lat="48.6947" lon="1.96358">
        <ele>164</ele>
        <time>2025-07-04T10:47:38.826Z</time>
      </trkpt>
      <trkpt lat="48.69466" lon="1.96353">
        <ele>164</ele>
        <time>2025-07-04T10:47:43.262Z</time>
      </trkpt>
      <trkpt lat="48.69463" lon="1.96349">
        <ele>164</ele>
        <time>2025-07-04T10:47:47.427Z</time>
      </trkpt>
      <trkpt lat="48.69458" lon="1.9635">
        <ele>158</ele>
        <time>2025-07-04T10:47:52.520Z</time>
      </trkpt>
      <trkpt lat="48.69455" lon="1.96345">
        <ele>158</ele>
        <time>2025-07-04T10:47:57.145Z</time>
      </trkpt>
      <trkpt lat="48.69451" lon="1.9634">
        <ele>158</ele>
        <time>2025-07-04T10:48:01.701Z</time>
      </trkpt>
      <trkpt lat="48.69447" lon="1.96335">
        <ele>158</ele>
        <time>2025-07-04T10:48:06.121Z</time>
      </trkpt>
      <trkpt lat="48.69444" lon="1.96328">
        <ele>158</ele>
        <time>2025-07-04T10:48:10.520Z</time>
      </trkpt>
      <trkpt lat="48.69441" lon="1.96321">
        <ele>158</ele>
        <time>2025-07-04T10:48:15.364Z</time>
      </trkpt>
      <trkpt lat="48.69441" lon="1.96317">
        <ele>158</ele>
        <time>2025-07-04T10:48:19.520Z</time>
      </trkpt>
      <trkpt lat="48.6944" lon="1.96318">
        <ele>158</ele>
        <time>2025-07-04T10:48:24.519Z</time>
      </trkpt>
      <trkpt lat="48.6944" lon="1.96318">
        <ele>158</ele>
        <time>2025-07-04T10:48:29.467Z</time>
      </trkpt>
      <trkpt lat="48.69435" lon="1.96314">
        <ele>158</ele>
        <time>2025-07-04T10:48:33.497Z</time>
      </trkpt>
      <trkpt lat="48.69432" lon="1.96316">
        <ele>158</ele>
        <time>2025-07-04T10:48:37.881Z</time>
      </trkpt>
      <trkpt lat="48.69429" lon="1.96311">
        <ele>154</ele>
        <time>2025-07-04T10:48:42.520Z</time>
      </trkpt>
      <trkpt lat="48.69425" lon="1.96309">
        <ele>154</ele>
        <time>2025-07-04T10:48:46.688Z</time>
      </trkpt>
      <trkpt lat="48.6942" lon="1.96307">
        <ele>154</ele>
        <time>2025-07-04T10:48:51.168Z</time>
      </trkpt>
      <trkpt lat="48.6942" lon="1.96289">
        <ele>155</ele>
        <time>2025-07-04T10:48:55.520Z</time>
      </trkpt>
      <trkpt lat="48.69418" lon="1.96274">
        <ele>155</ele>
        <time>2025-07-04T10:49:00.026Z</time>
      </trkpt>
      <trkpt lat="48.69412" lon="1.96269">
        <ele>155</ele>
        <time>2025-07-04T10:49:04.520Z</time>
      </trkpt>
      <trkpt lat="48.69408" lon="1.96263">
        <ele>156</ele>
        <time>2025-07-04T10:49:09.027Z</time>
      </trkpt>
      <trkpt lat="48.69404" lon="1.96254">
        <ele>156</ele>
        <time>2025-07-04T10:49:13.481Z</time>
      </trkpt>
      <trkpt lat="48.69402" lon="1.96247">
        <ele>155</ele>
        <time>2025-07-04T10:49:17.927Z</time>
      </trkpt>
      <trkpt lat="48.69398" lon="1.9624">
        <ele>155</ele>
        <time>2025-07-04T10:49:22.382Z</time>
      </trkpt>
      <trkpt lat="48.69393" lon="1.96234">
        <ele>155</ele>
        <time>2025-07-04T10:49:26.921Z</time>
      </trkpt>
      <trkpt lat="48.69388" lon="1.96228">
        <ele>155</ele>
        <time>2025-07-04T10:49:31.368Z</time>
      </trkpt>
      <trkpt lat="48.69385" lon="1.96221">
        <ele>155</ele>
        <time>2025-07-04T10:49:35.821Z</time>
      </trkpt>
      <trkpt lat="48.69381" lon="1.96215">
        <ele>155</ele>
        <time>2025-07-04T10:49:40.506Z</time>
      </trkpt>
      <trkpt lat="48.69376" lon="1.96208">
        <ele>155</ele>
        <time>2025-07-04T10:49:45.480Z</time>
      </trkpt>
      <trkpt lat="48.69372" lon="1.96201">
        <ele>158</ele>
        <time>2025-07-04T10:49:49.520Z</time>
      </trkpt>
      <trkpt lat="48.69368" lon="1.96193">
        <ele>158</ele>
        <time>2025-07-04T10:49:53.902Z</time>
      </trkpt>
      <trkpt lat="48.69364" lon="1.96186">
        <ele>158</ele>
        <time>2025-07-04T10:49:58.468Z</time>
      </trkpt>
      <trkpt lat="48.69361" lon="1.96179">
        <ele>158</ele>
        <time>2025-07-04T10:50:03.026Z</time>
      </trkpt>
      <trkpt lat="48.69357" lon="1.96174">
        <ele>158</ele>
        <time>2025-07-04T10:50:07.086Z</time>
      </trkpt>
      <trkpt lat="48.69353" lon="1.96169">
        <ele>158</ele>
        <time>2025-07-04T10:50:11.520Z</time>
      </trkpt>
      <trkpt lat="48.6935" lon="1.96164">
        <ele>158</ele>
        <time>2025-07-04T10:50:16.087Z</time>
      </trkpt>
      <trkpt lat="48.69346" lon="1.96158">
        <ele>163</ele>
        <time>2025-07-04T10:50:20.141Z</time>
      </trkpt>
      <trkpt lat="48.69343" lon="1.96152">
        <ele>163</ele>
        <time>2025-07-04T10:50:24.167Z</time>
      </trkpt>
      <trkpt lat="48.6934" lon="1.96147">
        <ele>163</ele>
        <time>2025-07-04T10:50:28.247Z</time>
      </trkpt>
      <trkpt lat="48.69337" lon="1.96141">
        <ele>163</ele>
        <time>2025-07-04T10:50:32.746Z</time>
      </trkpt>
      <trkpt lat="48.69333" lon="1.96135">
        <ele>163</ele>
        <time>2025-07-04T10:50:37.186Z</time>
      </trkpt>
      <trkpt lat="48.69329" lon="1.9613">
        <ele>163</ele>
        <time>2025-07-04T10:50:41.729Z</time>
      </trkpt>
      <trkpt lat="48.69325" lon="1.96123">
        <ele>162</ele>
        <time>2025-07-04T10:50:46.268Z</time>
      </trkpt>
      <trkpt lat="48.69321" lon="1.96117">
        <ele>162</ele>
        <time>2025-07-04T10:50:50.290Z</time>
      </trkpt>
      <trkpt lat="48.69317" lon="1.9611">
        <ele>166</ele>
        <time>2025-07-04T10:50:54.947Z</time>
      </trkpt>
      <trkpt lat="48.69312" lon="1.96103">
        <ele>166</ele>
        <time>2025-07-04T10:50:59.280Z</time>
      </trkpt>
      <trkpt lat="48.69309" lon="1.96097">
        <ele>165</ele>
        <time>2025-07-04T10:51:03.667Z</time>
      </trkpt>
      <trkpt lat="48.69306" lon="1.9609">
        <ele>165</ele>
        <time>2025-07-04T10:51:08.002Z</time>
      </trkpt>
      <trkpt lat="48.69302" lon="1.96083">
        <ele>165</ele>
        <time>2025-07-04T10:51:12.447Z</time>
      </trkpt>
      <trkpt lat="48.69297" lon="1.96078">
        <ele>165</ele>
        <time>2025-07-04T10:51:16.960Z</time>
      </trkpt>
      <trkpt lat="48.69293" lon="1.96072">
        <ele>165</ele>
        <time>2025-07-04T10:51:21.482Z</time>
      </trkpt>
      <trkpt lat="48.69289" lon="1.96065">
        <ele>167</ele>
        <time>2025-07-04T10:51:26.081Z</time>
      </trkpt>
      <trkpt lat="48.69285" lon="1.96057">
        <ele>167</ele>
        <time>2025-07-04T10:51:30.520Z</time>
      </trkpt>
      <trkpt lat="48.69282" lon="1.96049">
        <ele>167</ele>
        <time>2025-07-04T10:51:35.008Z</time>
      </trkpt>
      <trkpt lat="48.69277" lon="1.96042">
        <ele>167</ele>
        <time>2025-07-04T10:51:39.445Z</time>
      </trkpt>
      <trkpt lat="48.69273" lon="1.96035">
        <ele>167</ele>
        <time>2025-07-04T10:51:43.865Z</time>
      </trkpt>
      <trkpt lat="48.69269" lon="1.96027">
        <ele>167</ele>
        <time>2025-07-04T10:51:48.106Z</time>
      </trkpt>
      <trkpt lat="48.69265" lon="1.96022">
        <ele>167</ele>
        <time>2025-07-04T10:51:52.448Z</time>
      </trkpt>
      <trkpt lat="48.69264" lon="1.96014">
        <ele>173</ele>
        <time>2025-07-04T10:51:56.885Z</time>
      </trkpt>
      <trkpt lat="48.69263" lon="1.96006">
        <ele>173</ele>
        <time>2025-07-04T10:52:01.082Z</time>
      </trkpt>
      <trkpt lat="48.69258" lon="1.96003">
        <ele>173</ele>
        <time>2025-07-04T10:52:05.520Z</time>
      </trkpt>
      <trkpt lat="48.69253" lon="1.96">
        <ele>173</ele>
        <time>2025-07-04T10:52:09.821Z</time>
      </trkpt>
      <trkpt lat="48.69249" lon="1.95996">
        <ele>173</ele>
        <time>2025-07-04T10:52:14.105Z</time>
      </trkpt>
      <trkpt lat="48.69245" lon="1.95992">
        <ele>173</ele>
        <time>2025-07-04T10:52:18.527Z</time>
      </trkpt>
      <trkpt lat="48.69242" lon="1.95987">
        <ele>173</ele>
        <time>2025-07-04T10:52:22.826Z</time>
      </trkpt>
      <trkpt lat="48.69239" lon="1.95982">
        <ele>173</ele>
        <time>2025-07-04T10:52:27.261Z</time>
      </trkpt>
      <trkpt lat="48.69236" lon="1.95976">
        <ele>173</ele>
        <time>2025-07-04T10:52:31.520Z</time>
      </trkpt>
      <trkpt lat="48.69233" lon="1.9597">
        <ele>177</ele>
        <time>2025-07-04T10:52:36.348Z</time>
      </trkpt>
      <trkpt lat="48.69231" lon="1.95965">
        <ele>177</ele>
        <time>2025-07-04T10:52:40.521Z</time>
      </trkpt>
      <trkpt lat="48.6923" lon="1.9596">
        <ele>177</ele>
        <time>2025-07-04T10:52:45.427Z</time>
      </trkpt>
      <trkpt lat="48.69227" lon="1.95956">
        <ele>177</ele>
        <time>2025-07-04T10:52:49.518Z</time>
      </trkpt>
      <trkpt lat="48.69224" lon="1.95956">
        <ele>177</ele>
        <time>2025-07-04T10:52:53.520Z</time>
      </trkpt>
      <trkpt lat="48.69223" lon="1.95955">
        <ele>177</ele>
        <time>2025-07-04T10:52:57.528Z</time>
      </trkpt>
      <trkpt lat="48.69217" lon="1.95953">
        <ele>177</ele>
        <time>2025-07-04T10:53:02.186Z</time>
      </trkpt>
      <trkpt lat="48.69214" lon="1.95952">
        <ele>177</ele>
        <time>2025-07-04T10:53:06.520Z</time>
      </trkpt>
      <trkpt lat="48.69212" lon="1.95949">
        <ele>177</ele>
        <time>2025-07-04T10:53:11.267Z</time>
      </trkpt>
      <trkpt lat="48.6921" lon="1.95945">
        <ele>177</ele>
        <time>2025-07-04T10:53:15.520Z</time>
      </trkpt>
      <trkpt lat="48.69208" lon="1.95943">
        <ele>178</ele>
        <time>2025-07-04T10:53:20.520Z</time>
      </trkpt>
      <trkpt lat="48.69206" lon="1.95943">
        <ele>178</ele>
        <time>2025-07-04T10:53:24.967Z</time>
      </trkpt>
      <trkpt lat="48.69203" lon="1.9594">
        <ele>178</ele>
        <time>2025-07-04T10:53:29.107Z</time>
      </trkpt>
      <trkpt lat="48.69199" lon="1.95937">
        <ele>178</ele>
        <time>2025-07-04T10:53:33.201Z</time>
      </trkpt>
      <trkpt lat="48.69195" lon="1.95936">
        <ele>178</ele>
        <time>2025-07-04T10:53:37.265Z</time>
      </trkpt>
      <trkpt lat="48.6919" lon="1.95942">
        <ele>178</ele>
        <time>2025-07-04T10:53:41.828Z</time>
      </trkpt>
      <trkpt lat="48.69185" lon="1.95948">
        <ele>178</ele>
        <time>2025-07-04T10:53:46.282Z</time>
      </trkpt>
      <trkpt lat="48.6918" lon="1.95954">
        <ele>179</ele>
        <time>2025-07-04T10:53:50.626Z</time>
      </trkpt>
      <trkpt lat="48.69174" lon="1.95959">
        <ele>178</ele>
        <time>2025-07-04T10:53:55.020Z</time>
      </trkpt>
      <trkpt lat="48.69169" lon="1.95962">
        <ele>178</ele>
        <time>2025-07-04T10:53:59.482Z</time>
      </trkpt>
      <trkpt lat="48.69163" lon="1.95965">
        <ele>178</ele>
        <time>2025-07-04T10:54:03.842Z</time>
      </trkpt>
      <trkpt lat="48.69157" lon="1.95965">
        <ele>178</ele>
        <time>2025-07-04T10:54:08.306Z</time>
      </trkpt>
      <trkpt lat="48.69151" lon="1.95965">
        <ele>178</ele>
        <time>2025-07-04T10:54:12.801Z</time>
      </trkpt>
      <trkpt lat="48.69145" lon="1.95968">
        <ele>178</ele>
        <time>2025-07-04T10:54:17.266Z</time>
      </trkpt>
      <trkpt lat="48.69139" lon="1.95971">
        <ele>178</ele>
        <time>2025-07-04T10:54:21.520Z</time>
      </trkpt>
      <trkpt lat="48.69133" lon="1.95971">
        <ele>178</ele>
        <time>2025-07-04T10:54:25.986Z</time>
      </trkpt>
      <trkpt lat="48.69127" lon="1.95973">
        <ele>178</ele>
        <time>2025-07-04T10:54:30.347Z</time>
      </trkpt>
      <trkpt lat="48.69122" lon="1.9598">
        <ele>180</ele>
        <time>2025-07-04T10:54:34.725Z</time>
      </trkpt>
      <trkpt lat="48.69118" lon="1.95988">
        <ele>179</ele>
        <time>2025-07-04T10:54:39.066Z</time>
      </trkpt>
      <trkpt lat="48.69113" lon="1.95992">
        <ele>179</ele>
        <time>2025-07-04T10:54:43.520Z</time>
      </trkpt>
      <trkpt lat="48.6911" lon="1.95999">
        <ele>179</ele>
        <time>2025-07-04T10:54:48.187Z</time>
      </trkpt>
      <trkpt lat="48.69107" lon="1.96007">
        <ele>179</ele>
        <time>2025-07-04T10:54:52.520Z</time>
      </trkpt>
      <trkpt lat="48.69099" lon="1.96012">
        <ele>179</ele>
        <time>2025-07-04T11:43:12.516Z</time>
      </trkpt>
      <trkpt lat="48.69098" lon="1.96017">
        <ele>179</ele>
        <time>2025-07-04T11:43:16.515Z</time>
      </trkpt>
      <trkpt lat="48.69094" lon="1.96023">
        <ele>180</ele>
        <time>2025-07-04T11:43:21.516Z</time>
      </trkpt>
      <trkpt lat="48.69092" lon="1.96026">
        <ele>180</ele>
        <time>2025-07-04T11:43:26.136Z</time>
      </trkpt>
      <trkpt lat="48.69089" lon="1.9603">
        <ele>180</ele>
        <time>2025-07-04T11:43:30.438Z</time>
      </trkpt>
      <trkpt lat="48.6909" lon="1.96036">
        <ele>180</ele>
        <time>2025-07-04T11:43:34.518Z</time>
      </trkpt>
      <trkpt lat="48.6909" lon="1.96043">
        <ele>179</ele>
        <time>2025-07-04T11:43:39.520Z</time>
      </trkpt>
      <trkpt lat="48.69088" lon="1.96049">
        <ele>179</ele>
        <time>2025-07-04T11:43:44.040Z</time>
      </trkpt>
      <trkpt lat="48.69083" lon="1.96054">
        <ele>179</ele>
        <time>2025-07-04T11:43:48.513Z</time>
      </trkpt>
      <trkpt lat="48.69079" lon="1.96059">
        <ele>179</ele>
        <time>2025-07-04T11:43:53.258Z</time>
      </trkpt>
      <trkpt lat="48.69075" lon="1.96062">
        <ele>179</ele>
        <time>2025-07-04T11:43:57.319Z</time>
      </trkpt>
      <trkpt lat="48.69071" lon="1.96064">
        <ele>179</ele>
        <time>2025-07-04T11:44:01.900Z</time>
      </trkpt>
      <trkpt lat="48.69067" lon="1.96067">
        <ele>179</ele>
        <time>2025-07-04T11:44:06.180Z</time>
      </trkpt>
      <trkpt lat="48.69064" lon="1.9607">
        <ele>177</ele>
        <time>2025-07-04T11:44:10.520Z</time>
      </trkpt>
      <trkpt lat="48.6906" lon="1.96075">
        <ele>177</ele>
        <time>2025-07-04T11:44:15.240Z</time>
      </trkpt>
      <trkpt lat="48.69055" lon="1.96078">
        <ele>177</ele>
        <time>2025-07-04T11:44:19.702Z</time>
      </trkpt>
      <trkpt lat="48.69053" lon="1.96082">
        <ele>177</ele>
        <time>2025-07-04T11:44:23.901Z</time>
      </trkpt>
      <trkpt lat="48.69046" lon="1.96086">
        <ele>177</ele>
        <time>2025-07-04T11:44:28.516Z</time>
      </trkpt>
      <trkpt lat="48.69041" lon="1.96088">
        <ele>175</ele>
        <time>2025-07-04T11:44:32.683Z</time>
      </trkpt>
      <trkpt lat="48.69036" lon="1.96092">
        <ele>175</ele>
        <time>2025-07-04T11:44:36.702Z</time>
      </trkpt>
      <trkpt lat="48.69032" lon="1.96096">
        <ele>175</ele>
        <time>2025-07-04T11:44:40.841Z</time>
      </trkpt>
      <trkpt lat="48.69031" lon="1.96104">
        <ele>174</ele>
        <time>2025-07-04T11:44:45.500Z</time>
      </trkpt>
      <trkpt lat="48.69031" lon="1.96112">
        <ele>174</ele>
        <time>2025-07-04T11:44:49.981Z</time>
      </trkpt>
      <trkpt lat="48.69032" lon="1.96119">
        <ele>174</ele>
        <time>2025-07-04T11:44:54.123Z</time>
      </trkpt>
      <trkpt lat="48.69033" lon="1.96127">
        <ele>172</ele>
        <time>2025-07-04T11:44:58.513Z</time>
      </trkpt>
      <trkpt lat="48.69034" lon="1.96135">
        <ele>172</ele>
        <time>2025-07-04T11:45:02.721Z</time>
      </trkpt>
      <trkpt lat="48.69035" lon="1.96139">
        <ele>172</ele>
        <time>2025-07-04T11:45:06.818Z</time>
      </trkpt>
      <trkpt lat="48.69037" lon="1.96145">
        <ele>172</ele>
        <time>2025-07-04T11:45:10.862Z</time>
      </trkpt>
      <trkpt lat="48.69036" lon="1.96151">
        <ele>172</ele>
        <time>2025-07-04T11:45:15.137Z</time>
      </trkpt>
      <trkpt lat="48.69032" lon="1.96157">
        <ele>170</ele>
        <time>2025-07-04T11:45:19.456Z</time>
      </trkpt>
      <trkpt lat="48.69031" lon="1.96162">
        <ele>170</ele>
        <time>2025-07-04T11:45:23.757Z</time>
      </trkpt>
      <trkpt lat="48.69032" lon="1.96169">
        <ele>170</ele>
        <time>2025-07-04T11:45:27.898Z</time>
      </trkpt>
      <trkpt lat="48.69036" lon="1.96176">
        <ele>170</ele>
        <time>2025-07-04T11:45:32.401Z</time>
      </trkpt>
      <trkpt lat="48.69038" lon="1.96182">
        <ele>168</ele>
        <time>2025-07-04T11:45:37.001Z</time>
      </trkpt>
      <trkpt lat="48.69042" lon="1.96187">
        <ele>172</ele>
        <time>2025-07-04T11:45:41.396Z</time>
      </trkpt>
      <trkpt lat="48.69044" lon="1.96193">
        <ele>172</ele>
        <time>2025-07-04T11:45:45.757Z</time>
      </trkpt>
      <trkpt lat="48.69045" lon="1.96201">
        <ele>172</ele>
        <time>2025-07-04T11:45:50.279Z</time>
      </trkpt>
      <trkpt lat="48.69042" lon="1.96207">
        <ele>172</ele>
        <time>2025-07-04T11:45:54.514Z</time>
      </trkpt>
      <trkpt lat="48.69039" lon="1.96212">
        <ele>165</ele>
        <time>2025-07-04T11:45:58.984Z</time>
      </trkpt>
      <trkpt lat="48.69036" lon="1.96216">
        <ele>165</ele>
        <time>2025-07-04T11:46:03.345Z</time>
      </trkpt>
      <trkpt lat="48.69031" lon="1.96217">
        <ele>165</ele>
        <time>2025-07-04T11:46:07.662Z</time>
      </trkpt>
      <trkpt lat="48.69026" lon="1.9622">
        <ele>165</ele>
        <time>2025-07-04T11:46:12.321Z</time>
      </trkpt>
      <trkpt lat="48.69023" lon="1.96224">
        <ele>165</ele>
        <time>2025-07-04T11:46:16.341Z</time>
      </trkpt>
      <trkpt lat="48.6902" lon="1.96229">
        <ele>165</ele>
        <time>2025-07-04T11:46:21.358Z</time>
      </trkpt>
      <trkpt lat="48.69016" lon="1.96234">
        <ele>165</ele>
        <time>2025-07-04T11:46:25.404Z</time>
      </trkpt>
      <trkpt lat="48.69016" lon="1.9624">
        <ele>162</ele>
        <time>2025-07-04T11:46:29.520Z</time>
      </trkpt>
      <trkpt lat="48.69014" lon="1.96248">
        <ele>162</ele>
        <time>2025-07-04T11:46:34.201Z</time>
      </trkpt>
      <trkpt lat="48.69012" lon="1.96255">
        <ele>157</ele>
        <time>2025-07-04T11:46:38.621Z</time>
      </trkpt>
      <trkpt lat="48.6901" lon="1.96262">
        <ele>157</ele>
        <time>2025-07-04T11:46:43.325Z</time>
      </trkpt>
      <trkpt lat="48.69008" lon="1.96268">
        <ele>155</ele>
        <time>2025-07-04T11:46:47.513Z</time>
      </trkpt>
      <trkpt lat="48.69007" lon="1.96274">
        <ele>155</ele>
        <time>2025-07-04T11:46:51.798Z</time>
      </trkpt>
      <trkpt lat="48.69007" lon="1.96279">
        <ele>155</ele>
        <time>2025-07-04T11:46:56.141Z</time>
      </trkpt>
      <trkpt lat="48.69007" lon="1.96284">
        <ele>155</ele>
        <time>2025-07-04T11:47:00.514Z</time>
      </trkpt>
      <trkpt lat="48.69007" lon="1.96291">
        <ele>155</ele>
        <time>2025-07-04T11:47:04.956Z</time>
      </trkpt>
      <trkpt lat="48.69007" lon="1.96298">
        <ele>154</ele>
        <time>2025-07-04T11:47:09.105Z</time>
      </trkpt>
      <trkpt lat="48.69009" lon="1.96306">
        <ele>154</ele>
        <time>2025-07-04T11:47:13.481Z</time>
      </trkpt>
      <trkpt lat="48.69008" lon="1.96313">
        <ele>154</ele>
        <time>2025-07-04T11:47:17.842Z</time>
      </trkpt>
      <trkpt lat="48.69007" lon="1.9632">
        <ele>153</ele>
        <time>2025-07-04T11:47:22.262Z</time>
      </trkpt>
      <trkpt lat="48.69007" lon="1.96322">
        <ele>153</ele>
        <time>2025-07-04T11:47:26.316Z</time>
      </trkpt>
      <trkpt lat="48.69007" lon="1.96326">
        <ele>153</ele>
        <time>2025-07-04T11:47:30.523Z</time>
      </trkpt>
      <trkpt lat="48.69009" lon="1.96335">
        <ele>153</ele>
        <time>2025-07-04T11:47:35.139Z</time>
      </trkpt>
      <trkpt lat="48.69011" lon="1.96343">
        <ele>153</ele>
        <time>2025-07-04T11:47:39.218Z</time>
      </trkpt>
      <trkpt lat="48.6901" lon="1.9635">
        <ele>152</ele>
        <time>2025-07-04T11:47:43.515Z</time>
      </trkpt>
      <trkpt lat="48.69004" lon="1.96353">
        <ele>152</ele>
        <time>2025-07-04T11:47:47.983Z</time>
      </trkpt>
      <trkpt lat="48.68999" lon="1.96355">
        <ele>152</ele>
        <time>2025-07-04T11:47:52.241Z</time>
      </trkpt>
      <trkpt lat="48.68995" lon="1.96354">
        <ele>152</ele>
        <time>2025-07-04T11:47:56.780Z</time>
      </trkpt>
      <trkpt lat="48.68991" lon="1.9635">
        <ele>152</ele>
        <time>2025-07-04T11:48:01.338Z</time>
      </trkpt>
      <trkpt lat="48.68987" lon="1.96344">
        <ele>153</ele>
        <time>2025-07-04T11:48:05.921Z</time>
      </trkpt>
      <trkpt lat="48.68985" lon="1.9634">
        <ele>148</ele>
        <time>2025-07-04T11:48:09.939Z</time>
      </trkpt>
      <trkpt lat="48.68982" lon="1.96335">
        <ele>148</ele>
        <time>2025-07-04T11:48:14.198Z</time>
      </trkpt>
      <trkpt lat="48.6898" lon="1.9633">
        <ele>148</ele>
        <time>2025-07-04T11:48:18.337Z</time>
      </trkpt>
      <trkpt lat="48.68978" lon="1.96325">
        <ele>148</ele>
        <time>2025-07-04T11:48:22.515Z</time>
      </trkpt>
      <trkpt lat="48.68977" lon="1.9632">
        <ele>148</ele>
        <time>2025-07-04T11:48:26.785Z</time>
      </trkpt>
      <trkpt lat="48.68977" lon="1.96315">
        <ele>150</ele>
        <time>2025-07-04T11:48:31.419Z</time>
      </trkpt>
      <trkpt lat="48.68978" lon="1.96309">
        <ele>150</ele>
        <time>2025-07-04T11:48:35.766Z</time>
      </trkpt>
      <trkpt lat="48.68977" lon="1.96303">
        <ele>150</ele>
        <time>2025-07-04T11:48:39.902Z</time>
      </trkpt>
      <trkpt lat="48.68974" lon="1.96297">
        <ele>150</ele>
        <time>2025-07-04T11:48:44.353Z</time>
      </trkpt>
      <trkpt lat="48.68973" lon="1.9629">
        <ele>150</ele>
        <time>2025-07-04T11:48:48.820Z</time>
      </trkpt>
      <trkpt lat="48.68973" lon="1.96283">
        <ele>150</ele>
        <time>2025-07-04T11:48:52.918Z</time>
      </trkpt>
      <trkpt lat="48.68973" lon="1.96276">
        <ele>150</ele>
        <time>2025-07-04T11:48:56.938Z</time>
      </trkpt>
      <trkpt lat="48.68973" lon="1.96269">
        <ele>150</ele>
        <time>2025-07-04T11:49:01.445Z</time>
      </trkpt>
      <trkpt lat="48.68972" lon="1.96262">
        <ele>151</ele>
        <time>2025-07-04T11:49:05.513Z</time>
      </trkpt>
      <trkpt lat="48.68968" lon="1.96256">
        <ele>151</ele>
        <time>2025-07-04T11:49:09.775Z</time>
      </trkpt>
      <trkpt lat="48.68964" lon="1.96251">
        <ele>151</ele>
        <time>2025-07-04T11:49:13.782Z</time>
      </trkpt>
      <trkpt lat="48.6896" lon="1.96244">
        <ele>151</ele>
        <time>2025-07-04T11:49:18.382Z</time>
      </trkpt>
      <trkpt lat="48.68957" lon="1.96238">
        <ele>146</ele>
        <time>2025-07-04T11:49:22.496Z</time>
      </trkpt>
      <trkpt lat="48.68954" lon="1.96233">
        <ele>150</ele>
        <time>2025-07-04T11:49:26.513Z</time>
      </trkpt>
      <trkpt lat="48.68949" lon="1.96229">
        <ele>150</ele>
        <time>2025-07-04T11:49:31.116Z</time>
      </trkpt>
      <trkpt lat="48.68943" lon="1.9623">
        <ele>150</ele>
        <time>2025-07-04T11:49:35.417Z</time>
      </trkpt>
      <trkpt lat="48.68936" lon="1.96233">
        <ele>150</ele>
        <time>2025-07-04T11:49:39.717Z</time>
      </trkpt>
      <trkpt lat="48.68929" lon="1.96235">
        <ele>149</ele>
        <time>2025-07-04T11:49:43.960Z</time>
      </trkpt>
      <trkpt lat="48.68922" lon="1.96236">
        <ele>144</ele>
        <time>2025-07-04T11:49:48.380Z</time>
      </trkpt>
      <trkpt lat="48.68915" lon="1.96238">
        <ele>144</ele>
        <time>2025-07-04T11:49:53.219Z</time>
      </trkpt>
      <trkpt lat="48.68909" lon="1.96242">
        <ele>144</ele>
        <time>2025-07-04T11:49:57.520Z</time>
      </trkpt>
      <trkpt lat="48.68903" lon="1.96244">
        <ele>144</ele>
        <time>2025-07-04T11:50:02.045Z</time>
      </trkpt>
      <trkpt lat="48.68898" lon="1.96247">
        <ele>145</ele>
        <time>2025-07-04T11:50:06.512Z</time>
      </trkpt>
      <trkpt lat="48.68893" lon="1.96251">
        <ele>145</ele>
        <time>2025-07-04T11:50:10.859Z</time>
      </trkpt>
      <trkpt lat="48.68888" lon="1.96255">
        <ele>145</ele>
        <time>2025-07-04T11:50:15.144Z</time>
      </trkpt>
      <trkpt lat="48.68883" lon="1.96257">
        <ele>145</ele>
        <time>2025-07-04T11:50:19.484Z</time>
      </trkpt>
      <trkpt lat="48.68878" lon="1.96257">
        <ele>145</ele>
        <time>2025-07-04T11:50:23.512Z</time>
      </trkpt>
      <trkpt lat="48.68873" lon="1.96258">
        <ele>147</ele>
        <time>2025-07-04T11:50:28.020Z</time>
      </trkpt>
      <trkpt lat="48.68867" lon="1.96259">
        <ele>147</ele>
        <time>2025-07-04T11:50:32.202Z</time>
      </trkpt>
      <trkpt lat="48.68862" lon="1.96256">
        <ele>147</ele>
        <time>2025-07-04T11:50:36.435Z</time>
      </trkpt>
      <trkpt lat="48.68859" lon="1.96251">
        <ele>147</ele>
        <time>2025-07-04T11:50:40.513Z</time>
      </trkpt>
      <trkpt lat="48.68856" lon="1.96246">
        <ele>147</ele>
        <time>2025-07-04T11:50:44.637Z</time>
      </trkpt>
      <trkpt lat="48.68853" lon="1.96241">
        <ele>147</ele>
        <time>2025-07-04T11:50:48.877Z</time>
      </trkpt>
      <trkpt lat="48.6885" lon="1.96236">
        <ele>147</ele>
        <time>2025-07-04T11:50:52.983Z</time>
      </trkpt>
      <trkpt lat="48.68846" lon="1.96234">
        <ele>151</ele>
        <time>2025-07-04T11:50:57.344Z</time>
      </trkpt>
      <trkpt lat="48.68841" lon="1.96235">
        <ele>151</ele>
        <time>2025-07-04T11:51:01.858Z</time>
      </trkpt>
      <trkpt lat="48.68838" lon="1.9624">
        <ele>148</ele>
        <time>2025-07-04T11:51:05.979Z</time>
      </trkpt>
      <trkpt lat="48.68834" lon="1.96245">
        <ele>148</ele>
        <time>2025-07-04T11:51:10.160Z</time>
      </trkpt>
      <trkpt lat="48.6883" lon="1.9625">
        <ele>148</ele>
        <time>2025-07-04T11:51:14.479Z</time>
      </trkpt>
      <trkpt lat="48.68828" lon="1.96258">
        <ele>148</ele>
        <time>2025-07-04T11:51:19.122Z</time>
      </trkpt>
      <trkpt lat="48.68827" lon="1.96266">
        <ele>148</ele>
        <time>2025-07-04T11:51:23.917Z</time>
      </trkpt>
      <trkpt lat="48.68827" lon="1.96274">
        <ele>148</ele>
        <time>2025-07-04T11:51:28.298Z</time>
      </trkpt>
      <trkpt lat="48.68826" lon="1.9628">
        <ele>148</ele>
        <time>2025-07-04T11:51:32.520Z</time>
      </trkpt>
      <trkpt lat="48.68823" lon="1.96285">
        <ele>148</ele>
        <time>2025-07-04T11:51:36.511Z</time>
      </trkpt>
      <trkpt lat="48.68813" lon="1.9629">
        <ele>148</ele>
        <time>2025-07-04T11:52:13.513Z</time>
      </trkpt>
      <trkpt lat="48.68813" lon="1.96289">
        <ele>148</ele>
        <time>2025-07-04T11:52:17.632Z</time>
      </trkpt>
      <trkpt lat="48.68811" lon="1.96285">
        <ele>148</ele>
        <time>2025-07-04T11:52:21.960Z</time>
      </trkpt>
      <trkpt lat="48.68808" lon="1.96279">
        <ele>148</ele>
        <time>2025-07-04T11:52:25.978Z</time>
      </trkpt>
      <trkpt lat="48.68803" lon="1.96275">
        <ele>148</ele>
        <time>2025-07-04T11:52:30.202Z</time>
      </trkpt>
      <trkpt lat="48.688" lon="1.96271">
        <ele>148</ele>
        <time>2025-07-04T11:52:34.513Z</time>
      </trkpt>
      <trkpt lat="48.68799" lon="1.96266">
        <ele>148</ele>
        <time>2025-07-04T11:52:39.257Z</time>
      </trkpt>
      <trkpt lat="48.688" lon="1.96263">
        <ele>149</ele>
        <time>2025-07-04T11:52:43.513Z</time>
      </trkpt>
      <trkpt lat="48.68798" lon="1.96255">
        <ele>149</ele>
        <time>2025-07-04T11:52:48.039Z</time>
      </trkpt>
      <trkpt lat="48.68795" lon="1.96253">
        <ele>149</ele>
        <time>2025-07-04T11:52:52.220Z</time>
      </trkpt>
      <trkpt lat="48.68792" lon="1.96249">
        <ele>149</ele>
        <time>2025-07-04T11:52:56.257Z</time>
      </trkpt>
      <trkpt lat="48.68788" lon="1.96245">
        <ele>153</ele>
        <time>2025-07-04T11:53:00.398Z</time>
      </trkpt>
      <trkpt lat="48.68785" lon="1.96242">
        <ele>153</ele>
        <time>2025-07-04T11:53:04.442Z</time>
      </trkpt>
      <trkpt lat="48.68781" lon="1.96241">
        <ele>153</ele>
        <time>2025-07-04T11:53:08.507Z</time>
      </trkpt>
      <trkpt lat="48.68781" lon="1.96241">
        <ele>153</ele>
        <time>2025-07-04T11:53:14.043Z</time>
      </trkpt>
      <trkpt lat="48.68779" lon="1.96239">
        <ele>153</ele>
        <time>2025-07-04T11:53:18.241Z</time>
      </trkpt>
      <trkpt lat="48.68773" lon="1.96234">
        <ele>159</ele>
        <time>2025-07-04T11:53:22.507Z</time>
      </trkpt>
      <trkpt lat="48.68769" lon="1.96227">
        <ele>159</ele>
        <time>2025-07-04T11:53:26.510Z</time>
      </trkpt>
      <trkpt lat="48.68765" lon="1.96222">
        <ele>159</ele>
        <time>2025-07-04T11:53:31.222Z</time>
      </trkpt>
      <trkpt lat="48.68761" lon="1.96218">
        <ele>161</ele>
        <time>2025-07-04T11:53:35.464Z</time>
      </trkpt>
      <trkpt lat="48.68759" lon="1.96215">
        <ele>161</ele>
        <time>2025-07-04T11:53:39.519Z</time>
      </trkpt>
      <trkpt lat="48.68757" lon="1.96212">
        <ele>161</ele>
        <time>2025-07-04T11:53:44.143Z</time>
      </trkpt>
      <trkpt lat="48.68755" lon="1.9621">
        <ele>161</ele>
        <time>2025-07-04T11:53:48.508Z</time>
      </trkpt>
      <trkpt lat="48.68756" lon="1.96213">
        <ele>161</ele>
        <time>2025-07-04T11:53:52.976Z</time>
      </trkpt>
      <trkpt lat="48.68758" lon="1.96216">
        <ele>161</ele>
        <time>2025-07-04T11:53:57.482Z</time>
      </trkpt>
      <trkpt lat="48.68761" lon="1.9622">
        <ele>161</ele>
        <time>2025-07-04T11:54:01.520Z</time>
      </trkpt>
      <trkpt lat="48.68763" lon="1.96222">
        <ele>161</ele>
        <time>2025-07-04T11:54:06.059Z</time>
      </trkpt>
      <trkpt lat="48.68765" lon="1.96224">
        <ele>159</ele>
        <time>2025-07-04T11:54:10.516Z</time>
      </trkpt>
      <trkpt lat="48.68772" lon="1.96233">
        <ele>159</ele>
        <time>2025-07-04T11:54:15.002Z</time>
      </trkpt>
      <trkpt lat="48.68778" lon="1.96242">
        <ele>153</ele>
        <time>2025-07-04T11:54:19.511Z</time>
      </trkpt>
      <trkpt lat="48.68781" lon="1.96247">
        <ele>153</ele>
        <time>2025-07-04T11:54:23.980Z</time>
      </trkpt>
      <trkpt lat="48.68779" lon="1.9625">
        <ele>153</ele>
        <time>2025-07-04T11:54:28.514Z</time>
      </trkpt>
      <trkpt lat="48.6878" lon="1.96251">
        <ele>153</ele>
        <time>2025-07-04T11:54:33.512Z</time>
      </trkpt>
      <trkpt lat="48.6878" lon="1.96253">
        <ele>153</ele>
        <time>2025-07-04T11:54:37.519Z</time>
      </trkpt>
      <trkpt lat="48.68774" lon="1.96256">
        <ele>153</ele>
        <time>2025-07-04T11:54:42.511Z</time>
      </trkpt>
      <trkpt lat="48.68771" lon="1.96255">
        <ele>153</ele>
        <time>2025-07-04T11:54:47.065Z</time>
      </trkpt>
      <trkpt lat="48.68765" lon="1.96253">
        <ele>153</ele>
        <time>2025-07-04T11:54:51.203Z</time>
      </trkpt>
      <trkpt lat="48.68759" lon="1.96252">
        <ele>157</ele>
        <time>2025-07-04T11:54:55.360Z</time>
      </trkpt>
      <trkpt lat="48.68752" lon="1.96253">
        <ele>157</ele>
        <time>2025-07-04T11:54:59.513Z</time>
      </trkpt>
      <trkpt lat="48.68745" lon="1.96257">
        <ele>157</ele>
        <time>2025-07-04T11:55:03.904Z</time>
      </trkpt>
      <trkpt lat="48.68734" lon="1.96277">
        <ele>156</ele>
        <time>2025-07-04T11:55:21.258Z</time>
      </trkpt>
      <trkpt lat="48.68734" lon="1.96279">
        <ele>156</ele>
        <time>2025-07-04T11:55:25.338Z</time>
      </trkpt>
      <trkpt lat="48.68731" lon="1.96277">
        <ele>156</ele>
        <time>2025-07-04T11:55:29.510Z</time>
      </trkpt>
      <trkpt lat="48.68727" lon="1.96277">
        <ele>156</ele>
        <time>2025-07-04T11:55:33.518Z</time>
      </trkpt>
      <trkpt lat="48.68725" lon="1.96276">
        <ele>156</ele>
        <time>2025-07-04T11:55:37.840Z</time>
      </trkpt>
      <trkpt lat="48.6872" lon="1.96271">
        <ele>156</ele>
        <time>2025-07-04T11:55:42.379Z</time>
      </trkpt>
      <trkpt lat="48.68714" lon="1.96265">
        <ele>156</ele>
        <time>2025-07-04T11:55:47.236Z</time>
      </trkpt>
      <trkpt lat="48.68708" lon="1.96266">
        <ele>156</ele>
        <time>2025-07-04T11:55:51.519Z</time>
      </trkpt>
      <trkpt lat="48.68704" lon="1.96268">
        <ele>155</ele>
        <time>2025-07-04T11:55:55.642Z</time>
      </trkpt>
      <trkpt lat="48.68699" lon="1.96265">
        <ele>155</ele>
        <time>2025-07-04T11:56:00.465Z</time>
      </trkpt>
      <trkpt lat="48.68691" lon="1.96262">
        <ele>156</ele>
        <time>2025-07-04T11:56:05.037Z</time>
      </trkpt>
      <trkpt lat="48.68687" lon="1.96261">
        <ele>156</ele>
        <time>2025-07-04T11:56:09.099Z</time>
      </trkpt>
      <trkpt lat="48.68681" lon="1.9626">
        <ele>156</ele>
        <time>2025-07-04T11:56:13.358Z</time>
      </trkpt>
      <trkpt lat="48.68675" lon="1.96258">
        <ele>156</ele>
        <time>2025-07-04T11:56:17.924Z</time>
      </trkpt>
      <trkpt lat="48.6867" lon="1.96255">
        <ele>156</ele>
        <time>2025-07-04T11:56:22.480Z</time>
      </trkpt>
      <trkpt lat="48.68666" lon="1.96253">
        <ele>156</ele>
        <time>2025-07-04T11:56:26.513Z</time>
      </trkpt>
      <trkpt lat="48.68661" lon="1.9625">
        <ele>156</ele>
        <time>2025-07-04T11:56:31.519Z</time>
      </trkpt>
      <trkpt lat="48.68657" lon="1.96245">
        <ele>156</ele>
        <time>2025-07-04T11:56:36.100Z</time>
      </trkpt>
      <trkpt lat="48.68652" lon="1.96243">
        <ele>156</ele>
        <time>2025-07-04T11:56:40.436Z</time>
      </trkpt>
      <trkpt lat="48.68647" lon="1.96243">
        <ele>156</ele>
        <time>2025-07-04T11:56:44.975Z</time>
      </trkpt>
      <trkpt lat="48.68644" lon="1.96243">
        <ele>156</ele>
        <time>2025-07-04T11:56:49.080Z</time>
      </trkpt>
      <trkpt lat="48.68641" lon="1.96239">
        <ele>156</ele>
        <time>2025-07-04T11:56:53.512Z</time>
      </trkpt>
      <trkpt lat="48.68638" lon="1.96235">
        <ele>161</ele>
        <time>2025-07-04T11:56:57.980Z</time>
      </trkpt>
      <trkpt lat="48.68636" lon="1.96228">
        <ele>161</ele>
        <time>2025-07-04T11:57:02.435Z</time>
      </trkpt>
      <trkpt lat="48.68634" lon="1.96221">
        <ele>161</ele>
        <time>2025-07-04T11:57:07.299Z</time>
      </trkpt>
      <trkpt lat="48.68633" lon="1.96214">
        <ele>161</ele>
        <time>2025-07-04T11:57:11.736Z</time>
      </trkpt>
      <trkpt lat="48.68632" lon="1.96209">
        <ele>161</ele>
        <time>2025-07-04T11:57:16.021Z</time>
      </trkpt>
      <trkpt lat="48.68628" lon="1.96206">
        <ele>165</ele>
        <time>2025-07-04T11:57:20.501Z</time>
      </trkpt>
      <trkpt lat="48.68625" lon="1.96204">
        <ele>165</ele>
        <time>2025-07-04T11:57:24.510Z</time>
      </trkpt>
      <trkpt lat="48.68623" lon="1.962">
        <ele>164</ele>
        <time>2025-07-04T11:57:29.197Z</time>
      </trkpt>
      <trkpt lat="48.6862" lon="1.96195">
        <ele>164</ele>
        <time>2025-07-04T11:57:33.378Z</time>
      </trkpt>
      <trkpt lat="48.68619" lon="1.96189">
        <ele>164</ele>
        <time>2025-07-04T11:57:37.520Z</time>
      </trkpt>
      <trkpt lat="48.68616" lon="1.96184">
        <ele>164</ele>
        <time>2025-07-04T11:57:42.100Z</time>
      </trkpt>
      <trkpt lat="48.68614" lon="1.96179">
        <ele>168</ele>
        <time>2025-07-04T11:57:46.400Z</time>
      </trkpt>
      <trkpt lat="48.68613" lon="1.96174">
        <ele>168</ele>
        <time>2025-07-04T11:57:51.043Z</time>
      </trkpt>
      <trkpt lat="48.68618" lon="1.96169">
        <ele>168</ele>
        <time>2025-07-04T11:57:55.405Z</time>
      </trkpt>
      <trkpt lat="48.68621" lon="1.96165">
        <ele>168</ele>
        <time>2025-07-04T11:57:59.512Z</time>
      </trkpt>
      <trkpt lat="48.68624" lon="1.96161">
        <ele>168</ele>
        <time>2025-07-04T11:58:03.860Z</time>
      </trkpt>
      <trkpt lat="48.68626" lon="1.96158">
        <ele>170</ele>
        <time>2025-07-04T11:58:08.417Z</time>
      </trkpt>
      <trkpt lat="48.68629" lon="1.96156">
        <ele>170</ele>
        <time>2025-07-04T11:58:12.513Z</time>
      </trkpt>
      <trkpt lat="48.68632" lon="1.96155">
        <ele>170</ele>
        <time>2025-07-04T11:58:16.976Z</time>
      </trkpt>
      <trkpt lat="48.68635" lon="1.9615">
        <ele>175</ele>
        <time>2025-07-04T11:58:21.521Z</time>
      </trkpt>
      <trkpt lat="48.68635" lon="1.96144">
        <ele>175</ele>
        <time>2025-07-04T11:58:25.860Z</time>
      </trkpt>
      <trkpt lat="48.68637" lon="1.96138">
        <ele>175</ele>
        <time>2025-07-04T11:58:30.262Z</time>
      </trkpt>
      <trkpt lat="48.68639" lon="1.96132">
        <ele>175</ele>
        <time>2025-07-04T11:58:34.510Z</time>
      </trkpt>
      <trkpt lat="48.68642" lon="1.96126">
        <ele>175</ele>
        <time>2025-07-04T11:58:38.941Z</time>
      </trkpt>
      <trkpt lat="48.68644" lon="1.9612">
        <ele>178</ele>
        <time>2025-07-04T11:58:43.277Z</time>
      </trkpt>
      <trkpt lat="48.68646" lon="1.96115">
        <ele>178</ele>
        <time>2025-07-04T11:58:47.511Z</time>
      </trkpt>
      <trkpt lat="48.68646" lon="1.96111">
        <ele>178</ele>
        <time>2025-07-04T11:58:51.517Z</time>
      </trkpt>
      <trkpt lat="48.68644" lon="1.96112">
        <ele>178</ele>
        <time>2025-07-04T11:59:01.511Z</time>
      </trkpt>
      <trkpt lat="48.68644" lon="1.96112">
        <ele>178</ele>
        <time>2025-07-04T11:59:06.512Z</time>
      </trkpt>
      <trkpt lat="48.68644" lon="1.96112">
        <ele>178</ele>
        <time>2025-07-04T11:59:23.509Z</time>
      </trkpt>
      <trkpt lat="48.68646" lon="1.96107">
        <ele>178</ele>
        <time>2025-07-04T11:59:28.512Z</time>
      </trkpt>
      <trkpt lat="48.68651" lon="1.96101">
        <ele>178</ele>
        <time>2025-07-04T11:59:32.514Z</time>
      </trkpt>
      <trkpt lat="48.68658" lon="1.96095">
        <ele>179</ele>
        <time>2025-07-04T11:59:36.509Z</time>
      </trkpt>
      <trkpt lat="48.68661" lon="1.96088">
        <ele>179</ele>
        <time>2025-07-04T11:59:40.740Z</time>
      </trkpt>
      <trkpt lat="48.68663" lon="1.96082">
        <ele>179</ele>
        <time>2025-07-04T11:59:45.016Z</time>
      </trkpt>
      <trkpt lat="48.68662" lon="1.96075">
        <ele>179</ele>
        <time>2025-07-04T11:59:49.516Z</time>
      </trkpt>
      <trkpt lat="48.68659" lon="1.96071">
        <ele>179</ele>
        <time>2025-07-04T11:59:53.899Z</time>
      </trkpt>
      <trkpt lat="48.6866" lon="1.96064">
        <ele>178</ele>
        <time>2025-07-04T11:59:58.065Z</time>
      </trkpt>
      <trkpt lat="48.68661" lon="1.96055">
        <ele>178</ele>
        <time>2025-07-04T12:00:02.511Z</time>
      </trkpt>
      <trkpt lat="48.68661" lon="1.96046">
        <ele>178</ele>
        <time>2025-07-04T12:00:06.980Z</time>
      </trkpt>
      <trkpt lat="48.68662" lon="1.96038">
        <ele>176</ele>
        <time>2025-07-04T12:00:11.436Z</time>
      </trkpt>
      <trkpt lat="48.68661" lon="1.96031">
        <ele>176</ele>
        <time>2025-07-04T12:00:15.736Z</time>
      </trkpt>
      <trkpt lat="48.68661" lon="1.96023">
        <ele>176</ele>
        <time>2025-07-04T12:00:19.917Z</time>
      </trkpt>
      <trkpt lat="48.68659" lon="1.96016">
        <ele>176</ele>
        <time>2025-07-04T12:00:24.082Z</time>
      </trkpt>
      <trkpt lat="48.6866" lon="1.96008">
        <ele>175</ele>
        <time>2025-07-04T12:00:28.511Z</time>
      </trkpt>
      <trkpt lat="48.68663" lon="1.96001">
        <ele>175</ele>
        <time>2025-07-04T12:00:32.745Z</time>
      </trkpt>
      <trkpt lat="48.68666" lon="1.95996">
        <ele>175</ele>
        <time>2025-07-04T12:00:37.182Z</time>
      </trkpt>
      <trkpt lat="48.68668" lon="1.9599">
        <ele>175</ele>
        <time>2025-07-04T12:00:41.518Z</time>
      </trkpt>
      <trkpt lat="48.68667" lon="1.95987">
        <ele>175</ele>
        <time>2025-07-04T12:00:46.319Z</time>
      </trkpt>
      <trkpt lat="48.68665" lon="1.95984">
        <ele>174</ele>
        <time>2025-07-04T12:00:50.877Z</time>
      </trkpt>
      <trkpt lat="48.68663" lon="1.95979">
        <ele>174</ele>
        <time>2025-07-04T12:00:55.281Z</time>
      </trkpt>
      <trkpt lat="48.68662" lon="1.95974">
        <ele>174</ele>
        <time>2025-07-04T12:00:59.614Z</time>
      </trkpt>
      <trkpt lat="48.68664" lon="1.95966">
        <ele>174</ele>
        <time>2025-07-04T12:01:03.918Z</time>
      </trkpt>
      <trkpt lat="48.68666" lon="1.95958">
        <ele>173</ele>
        <time>2025-07-04T12:01:08.184Z</time>
      </trkpt>
      <trkpt lat="48.68668" lon="1.95951">
        <ele>173</ele>
        <time>2025-07-04T12:01:12.517Z</time>
      </trkpt>
      <trkpt lat="48.68667" lon="1.95942">
        <ele>173</ele>
        <time>2025-07-04T12:01:17.024Z</time>
      </trkpt>
      <trkpt lat="48.68668" lon="1.95934">
        <ele>173</ele>
        <time>2025-07-04T12:01:21.460Z</time>
      </trkpt>
      <trkpt lat="48.68664" lon="1.95929">
        <ele>173</ele>
        <time>2025-07-04T12:01:25.510Z</time>
      </trkpt>
      <trkpt lat="48.68659" lon="1.95924">
        <ele>173</ele>
        <time>2025-07-04T12:01:30.141Z</time>
      </trkpt>
      <trkpt lat="48.68654" lon="1.9592">
        <ele>173</ele>
        <time>2025-07-04T12:01:34.202Z</time>
      </trkpt>
      <trkpt lat="48.68649" lon="1.95916">
        <ele>173</ele>
        <time>2025-07-04T12:01:38.254Z</time>
      </trkpt>
      <trkpt lat="48.68644" lon="1.95912">
        <ele>173</ele>
        <time>2025-07-04T12:01:42.523Z</time>
      </trkpt>
      <trkpt lat="48.68638" lon="1.95912">
        <ele>173</ele>
        <time>2025-07-04T12:01:46.790Z</time>
      </trkpt>
      <trkpt lat="48.68632" lon="1.95911">
        <ele>173</ele>
        <time>2025-07-04T12:01:51.090Z</time>
      </trkpt>
      <trkpt lat="48.68626" lon="1.95911">
        <ele>173</ele>
        <time>2025-07-04T12:01:55.509Z</time>
      </trkpt>
      <trkpt lat="48.68621" lon="1.95909">
        <ele>174</ele>
        <time>2025-07-04T12:01:59.685Z</time>
      </trkpt>
      <trkpt lat="48.68616" lon="1.95906">
        <ele>174</ele>
        <time>2025-07-04T12:02:03.918Z</time>
      </trkpt>
      <trkpt lat="48.68612" lon="1.95902">
        <ele>173</ele>
        <time>2025-07-04T12:02:07.935Z</time>
      </trkpt>
      <trkpt lat="48.68607" lon="1.959">
        <ele>173</ele>
        <time>2025-07-04T12:02:12.509Z</time>
      </trkpt>
      <trkpt lat="48.68601" lon="1.95898">
        <ele>173</ele>
        <time>2025-07-04T12:02:16.718Z</time>
      </trkpt>
      <trkpt lat="48.68596" lon="1.95898">
        <ele>170</ele>
        <time>2025-07-04T12:02:20.940Z</time>
      </trkpt>
      <trkpt lat="48.68591" lon="1.959">
        <ele>170</ele>
        <time>2025-07-04T12:02:25.302Z</time>
      </trkpt>
      <trkpt lat="48.68584" lon="1.95904">
        <ele>171</ele>
        <time>2025-07-04T12:02:34.513Z</time>
      </trkpt>
      <trkpt lat="48.68584" lon="1.95904">
        <ele>171</ele>
        <time>2025-07-04T12:02:40.510Z</time>
      </trkpt>
      <trkpt lat="48.68583" lon="1.95903">
        <ele>171</ele>
        <time>2025-07-04T12:02:45.322Z</time>
      </trkpt>
      <trkpt lat="48.68579" lon="1.959">
        <ele>170</ele>
        <time>2025-07-04T12:02:49.515Z</time>
      </trkpt>
      <trkpt lat="48.68575" lon="1.95894">
        <ele>170</ele>
        <time>2025-07-04T12:02:54.302Z</time>
      </trkpt>
      <trkpt lat="48.68571" lon="1.95891">
        <ele>170</ele>
        <time>2025-07-04T12:02:58.506Z</time>
      </trkpt>
      <trkpt lat="48.68565" lon="1.95886">
        <ele>167</ele>
        <time>2025-07-04T12:03:03.277Z</time>
      </trkpt>
      <trkpt lat="48.68562" lon="1.95882">
        <ele>167</ele>
        <time>2025-07-04T12:03:07.514Z</time>
      </trkpt>
      <trkpt lat="48.68557" lon="1.95884">
        <ele>167</ele>
        <time>2025-07-04T12:03:11.700Z</time>
      </trkpt>
      <trkpt lat="48.68555" lon="1.95891">
        <ele>167</ele>
        <time>2025-07-04T12:03:21.404Z</time>
      </trkpt>
      <trkpt lat="48.68554" lon="1.95893">
        <ele>167</ele>
        <time>2025-07-04T12:03:25.513Z</time>
      </trkpt>
      <trkpt lat="48.68555" lon="1.95893">
        <ele>167</ele>
        <time>2025-07-04T12:03:33.060Z</time>
      </trkpt>
      <trkpt lat="48.68555" lon="1.959">
        <ele>167</ele>
        <time>2025-07-04T12:03:37.336Z</time>
      </trkpt>
      <trkpt lat="48.68552" lon="1.95911">
        <ele>167</ele>
        <time>2025-07-04T12:03:41.511Z</time>
      </trkpt>
      <trkpt lat="48.6855" lon="1.95921">
        <ele>167</ele>
        <time>2025-07-04T12:03:46.224Z</time>
      </trkpt>
      <trkpt lat="48.68548" lon="1.95929">
        <ele>167</ele>
        <time>2025-07-04T12:03:50.510Z</time>
      </trkpt>
      <trkpt lat="48.68545" lon="1.95937">
        <ele>168</ele>
        <time>2025-07-04T12:03:55.164Z</time>
      </trkpt>
      <trkpt lat="48.68541" lon="1.95943">
        <ele>163</ele>
        <time>2025-07-04T12:03:59.198Z</time>
      </trkpt>
      <trkpt lat="48.68538" lon="1.95949">
        <ele>163</ele>
        <time>2025-07-04T12:04:03.499Z</time>
      </trkpt>
      <trkpt lat="48.68535" lon="1.95956">
        <ele>163</ele>
        <time>2025-07-04T12:04:07.717Z</time>
      </trkpt>
      <trkpt lat="48.68533" lon="1.95965">
        <ele>164</ele>
        <time>2025-07-04T12:04:12.077Z</time>
      </trkpt>
      <trkpt lat="48.68531" lon="1.95974">
        <ele>164</ele>
        <time>2025-07-04T12:04:16.378Z</time>
      </trkpt>
      <trkpt lat="48.6853" lon="1.95983">
        <ele>164</ele>
        <time>2025-07-04T12:04:20.575Z</time>
      </trkpt>
      <trkpt lat="48.6853" lon="1.95992">
        <ele>165</ele>
        <time>2025-07-04T12:04:24.903Z</time>
      </trkpt>
      <trkpt lat="48.68529" lon="1.96002">
        <ele>165</ele>
        <time>2025-07-04T12:04:29.324Z</time>
      </trkpt>
      <trkpt lat="48.68528" lon="1.96011">
        <ele>165</ele>
        <time>2025-07-04T12:04:33.760Z</time>
      </trkpt>
      <trkpt lat="48.68525" lon="1.96019">
        <ele>166</ele>
        <time>2025-07-04T12:04:38.284Z</time>
      </trkpt>
      <trkpt lat="48.68523" lon="1.96028">
        <ele>166</ele>
        <time>2025-07-04T12:04:42.575Z</time>
      </trkpt>
      <trkpt lat="48.68521" lon="1.96037">
        <ele>166</ele>
        <time>2025-07-04T12:04:46.962Z</time>
      </trkpt>
      <trkpt lat="48.68518" lon="1.96045">
        <ele>167</ele>
        <time>2025-07-04T12:04:51.324Z</time>
      </trkpt>
      <trkpt lat="48.68514" lon="1.96052">
        <ele>167</ele>
        <time>2025-07-04T12:04:55.598Z</time>
      </trkpt>
      <trkpt lat="48.6851" lon="1.96058">
        <ele>160</ele>
        <time>2025-07-04T12:04:59.821Z</time>
      </trkpt>
      <trkpt lat="48.68505" lon="1.96064">
        <ele>160</ele>
        <time>2025-07-04T12:05:04.184Z</time>
      </trkpt>
      <trkpt lat="48.685" lon="1.96069">
        <ele>160</ele>
        <time>2025-07-04T12:05:08.441Z</time>
      </trkpt>
      <trkpt lat="48.68496" lon="1.96072">
        <ele>160</ele>
        <time>2025-07-04T12:05:12.717Z</time>
      </trkpt>
      <trkpt lat="48.68491" lon="1.96077">
        <ele>160</ele>
        <time>2025-07-04T12:05:16.976Z</time>
      </trkpt>
      <trkpt lat="48.68487" lon="1.96081">
        <ele>160</ele>
        <time>2025-07-04T12:05:21.141Z</time>
      </trkpt>
      <trkpt lat="48.68482" lon="1.96086">
        <ele>158</ele>
        <time>2025-07-04T12:05:25.356Z</time>
      </trkpt>
      <trkpt lat="48.68476" lon="1.9609">
        <ele>158</ele>
        <time>2025-07-04T12:05:29.513Z</time>
      </trkpt>
      <trkpt lat="48.6847" lon="1.96094">
        <ele>158</ele>
        <time>2025-07-04T12:05:33.855Z</time>
      </trkpt>
      <trkpt lat="48.68464" lon="1.96096">
        <ele>158</ele>
        <time>2025-07-04T12:05:38.241Z</time>
      </trkpt>
      <trkpt lat="48.68459" lon="1.96099">
        <ele>157</ele>
        <time>2025-07-04T12:05:42.519Z</time>
      </trkpt>
      <trkpt lat="48.68445" lon="1.96106">
        <ele>157</ele>
        <time>2025-07-04T12:06:00.336Z</time>
      </trkpt>
      <trkpt lat="48.68439" lon="1.96106">
        <ele>157</ele>
        <time>2025-07-04T12:06:04.514Z</time>
      </trkpt>
      <trkpt lat="48.68433" lon="1.96107">
        <ele>157</ele>
        <time>2025-07-04T12:06:09.024Z</time>
      </trkpt>
      <trkpt lat="48.68428" lon="1.96107">
        <ele>161</ele>
        <time>2025-07-04T12:06:13.417Z</time>
      </trkpt>
      <trkpt lat="48.68424" lon="1.96108">
        <ele>161</ele>
        <time>2025-07-04T12:06:17.510Z</time>
      </trkpt>
      <trkpt lat="48.6842" lon="1.9611">
        <ele>161</ele>
        <time>2025-07-04T12:06:21.514Z</time>
      </trkpt>
      <trkpt lat="48.68415" lon="1.9611">
        <ele>161</ele>
        <time>2025-07-04T12:06:26.022Z</time>
      </trkpt>
      <trkpt lat="48.6841" lon="1.96111">
        <ele>161</ele>
        <time>2025-07-04T12:06:30.076Z</time>
      </trkpt>
      <trkpt lat="48.68405" lon="1.96112">
        <ele>161</ele>
        <time>2025-07-04T12:06:34.819Z</time>
      </trkpt>
      <trkpt lat="48.68401" lon="1.96112">
        <ele>170</ele>
        <time>2025-07-04T12:06:39.496Z</time>
      </trkpt>
      <trkpt lat="48.68397" lon="1.96114">
        <ele>170</ele>
        <time>2025-07-04T12:06:44.514Z</time>
      </trkpt>
      <trkpt lat="48.68397" lon="1.96117">
        <ele>170</ele>
        <time>2025-07-04T12:06:48.728Z</time>
      </trkpt>
      <trkpt lat="48.68394" lon="1.96119">
        <ele>170</ele>
        <time>2025-07-04T12:06:53.380Z</time>
      </trkpt>
      <trkpt lat="48.68393" lon="1.9612">
        <ele>170</ele>
        <time>2025-07-04T12:06:57.514Z</time>
      </trkpt>
      <trkpt lat="48.68394" lon="1.9612">
        <ele>170</ele>
        <time>2025-07-04T12:07:01.777Z</time>
      </trkpt>
      <trkpt lat="48.68392" lon="1.96122">
        <ele>170</ele>
        <time>2025-07-04T12:07:05.856Z</time>
      </trkpt>
      <trkpt lat="48.68387" lon="1.96127">
        <ele>171</ele>
        <time>2025-07-04T12:07:09.876Z</time>
      </trkpt>
      <trkpt lat="48.68381" lon="1.96127">
        <ele>171</ele>
        <time>2025-07-04T12:07:13.920Z</time>
      </trkpt>
      <trkpt lat="48.68376" lon="1.96127">
        <ele>171</ele>
        <time>2025-07-04T12:07:18.077Z</time>
      </trkpt>
      <trkpt lat="48.68371" lon="1.96128">
        <ele>173</ele>
        <time>2025-07-04T12:07:22.224Z</time>
      </trkpt>
      <trkpt lat="48.68365" lon="1.96129">
        <ele>173</ele>
        <time>2025-07-04T12:07:26.776Z</time>
      </trkpt>
      <trkpt lat="48.68359" lon="1.9613">
        <ele>173</ele>
        <time>2025-07-04T12:07:30.919Z</time>
      </trkpt>
      <trkpt lat="48.68354" lon="1.9613">
        <ele>173</ele>
        <time>2025-07-04T12:07:34.981Z</time>
      </trkpt>
      <trkpt lat="48.68348" lon="1.96131">
        <ele>173</ele>
        <time>2025-07-04T12:07:39.016Z</time>
      </trkpt>
      <trkpt lat="48.68343" lon="1.96132">
        <ele>174</ele>
        <time>2025-07-04T12:07:43.507Z</time>
      </trkpt>
      <trkpt lat="48.68336" lon="1.96135">
        <ele>174</ele>
        <time>2025-07-04T12:07:48.157Z</time>
      </trkpt>
      <trkpt lat="48.6833" lon="1.96137">
        <ele>174</ele>
        <time>2025-07-04T12:07:52.695Z</time>
      </trkpt>
      <trkpt lat="48.68325" lon="1.9614">
        <ele>174</ele>
        <time>2025-07-04T12:07:57.176Z</time>
      </trkpt>
      <trkpt lat="48.68318" lon="1.96143">
        <ele>174</ele>
        <time>2025-07-04T12:08:01.510Z</time>
      </trkpt>
      <trkpt lat="48.68312" lon="1.96147">
        <ele>174</ele>
        <time>2025-07-04T12:08:06.136Z</time>
      </trkpt>
      <trkpt lat="48.68306" lon="1.9615">
        <ele>174</ele>
        <time>2025-07-04T12:08:10.376Z</time>
      </trkpt>
      <trkpt lat="48.68301" lon="1.96154">
        <ele>174</ele>
        <time>2025-07-04T12:08:14.776Z</time>
      </trkpt>
      <trkpt lat="48.68296" lon="1.96158">
        <ele>174</ele>
        <time>2025-07-04T12:08:18.996Z</time>
      </trkpt>
      <trkpt lat="48.6829" lon="1.96163">
        <ele>175</ele>
        <time>2025-07-04T12:08:23.501Z</time>
      </trkpt>
      <trkpt lat="48.68285" lon="1.96167">
        <ele>175</ele>
        <time>2025-07-04T12:08:27.837Z</time>
      </trkpt>
      <trkpt lat="48.68279" lon="1.9617">
        <ele>175</ele>
        <time>2025-07-04T12:08:32.164Z</time>
      </trkpt>
      <trkpt lat="48.68273" lon="1.96174">
        <ele>175</ele>
        <time>2025-07-04T12:08:36.644Z</time>
      </trkpt>
      <trkpt lat="48.68268" lon="1.96178">
        <ele>175</ele>
        <time>2025-07-04T12:08:41.020Z</time>
      </trkpt>
      <trkpt lat="48.68262" lon="1.96181">
        <ele>176</ele>
        <time>2025-07-04T12:08:45.338Z</time>
      </trkpt>
      <trkpt lat="48.68256" lon="1.96183">
        <ele>176</ele>
        <time>2025-07-04T12:08:49.788Z</time>
      </trkpt>
      <trkpt lat="48.6825" lon="1.96185">
        <ele>176</ele>
        <time>2025-07-04T12:08:54.221Z</time>
      </trkpt>
      <trkpt lat="48.68244" lon="1.96189">
        <ele>176</ele>
        <time>2025-07-04T12:08:58.784Z</time>
      </trkpt>
      <trkpt lat="48.68239" lon="1.96196">
        <ele>176</ele>
        <time>2025-07-04T12:09:03.198Z</time>
      </trkpt>
      <trkpt lat="48.68234" lon="1.96201">
        <ele>176</ele>
        <time>2025-07-04T12:09:07.440Z</time>
      </trkpt>
      <trkpt lat="48.68228" lon="1.96204">
        <ele>176</ele>
        <time>2025-07-04T12:09:11.620Z</time>
      </trkpt>
      <trkpt lat="48.68222" lon="1.96207">
        <ele>176</ele>
        <time>2025-07-04T12:09:16.041Z</time>
      </trkpt>
      <trkpt lat="48.68216" lon="1.96208">
        <ele>174</ele>
        <time>2025-07-04T12:09:20.478Z</time>
      </trkpt>
      <trkpt lat="48.68209" lon="1.96211">
        <ele>174</ele>
        <time>2025-07-04T12:09:25.511Z</time>
      </trkpt>
      <trkpt lat="48.68203" lon="1.96214">
        <ele>173</ele>
        <time>2025-07-04T12:09:30.077Z</time>
      </trkpt>
      <trkpt lat="48.682" lon="1.96219">
        <ele>173</ele>
        <time>2025-07-04T12:09:34.510Z</time>
      </trkpt>
      <trkpt lat="48.682" lon="1.96221">
        <ele>173</ele>
        <time>2025-07-04T12:09:52.514Z</time>
      </trkpt>
      <trkpt lat="48.682" lon="1.96221">
        <ele>173</ele>
        <time>2025-07-04T12:09:57.513Z</time>
      </trkpt>
      <trkpt lat="48.682" lon="1.96221">
        <ele>173</ele>
        <time>2025-07-04T12:10:02.510Z</time>
      </trkpt>
      <trkpt lat="48.68195" lon="1.96223">
        <ele>173</ele>
        <time>2025-07-04T12:10:07.511Z</time>
      </trkpt>
      <trkpt lat="48.68187" lon="1.96226">
        <ele>173</ele>
        <time>2025-07-04T12:10:11.659Z</time>
      </trkpt>
      <trkpt lat="48.68182" lon="1.96228">
        <ele>173</ele>
        <time>2025-07-04T12:10:16.216Z</time>
      </trkpt>
      <trkpt lat="48.68177" lon="1.96231">
        <ele>171</ele>
        <time>2025-07-04T12:10:20.508Z</time>
      </trkpt>
      <trkpt lat="48.68171" lon="1.96234">
        <ele>171</ele>
        <time>2025-07-04T12:10:24.779Z</time>
      </trkpt>
      <trkpt lat="48.68166" lon="1.96237">
        <ele>171</ele>
        <time>2025-07-04T12:10:29.059Z</time>
      </trkpt>
      <trkpt lat="48.6816" lon="1.96242">
        <ele>171</ele>
        <time>2025-07-04T12:10:33.404Z</time>
      </trkpt>
      <trkpt lat="48.68155" lon="1.96247">
        <ele>171</ele>
        <time>2025-07-04T12:10:37.840Z</time>
      </trkpt>
      <trkpt lat="48.68149" lon="1.9625">
        <ele>169</ele>
        <time>2025-07-04T12:10:42.260Z</time>
      </trkpt>
      <trkpt lat="48.68143" lon="1.96255">
        <ele>169</ele>
        <time>2025-07-04T12:10:46.859Z</time>
      </trkpt>
      <trkpt lat="48.68138" lon="1.96259">
        <ele>169</ele>
        <time>2025-07-04T12:10:51.176Z</time>
      </trkpt>
      <trkpt lat="48.68133" lon="1.96262">
        <ele>169</ele>
        <time>2025-07-04T12:10:55.510Z</time>
      </trkpt>
      <trkpt lat="48.68128" lon="1.96266">
        <ele>169</ele>
        <time>2025-07-04T12:11:00.180Z</time>
      </trkpt>
      <trkpt lat="48.68124" lon="1.96268">
        <ele>169</ele>
        <time>2025-07-04T12:11:04.420Z</time>
      </trkpt>
      <trkpt lat="48.68118" lon="1.96268">
        <ele>169</ele>
        <time>2025-07-04T12:11:08.857Z</time>
      </trkpt>
      <trkpt lat="48.68112" lon="1.96269">
        <ele>169</ele>
        <time>2025-07-04T12:11:13.158Z</time>
      </trkpt>
      <trkpt lat="48.68107" lon="1.9627">
        <ele>169</ele>
        <time>2025-07-04T12:11:17.509Z</time>
      </trkpt>
      <trkpt lat="48.681" lon="1.9627">
        <ele>169</ele>
        <time>2025-07-04T12:11:22.076Z</time>
      </trkpt>
      <trkpt lat="48.68094" lon="1.96271">
        <ele>173</ele>
        <time>2025-07-04T12:11:26.508Z</time>
      </trkpt>
      <trkpt lat="48.68089" lon="1.96271">
        <ele>173</ele>
        <time>2025-07-04T12:11:30.644Z</time>
      </trkpt>
      <trkpt lat="48.68083" lon="1.9627">
        <ele>173</ele>
        <time>2025-07-04T12:11:34.696Z</time>
      </trkpt>
      <trkpt lat="48.68078" lon="1.96269">
        <ele>173</ele>
        <time>2025-07-04T12:11:38.800Z</time>
      </trkpt>
      <trkpt lat="48.68072" lon="1.96268">
        <ele>173</ele>
        <time>2025-07-04T12:11:42.956Z</time>
      </trkpt>
      <trkpt lat="48.68067" lon="1.9627">
        <ele>175</ele>
        <time>2025-07-04T12:11:47.376Z</time>
      </trkpt>
      <trkpt lat="48.68062" lon="1.96275">
        <ele>175</ele>
        <time>2025-07-04T12:11:51.736Z</time>
      </trkpt>
      <trkpt lat="48.68056" lon="1.96279">
        <ele>175</ele>
        <time>2025-07-04T12:11:56.126Z</time>
      </trkpt>
      <trkpt lat="48.68051" lon="1.96281">
        <ele>175</ele>
        <time>2025-07-04T12:12:00.508Z</time>
      </trkpt>
      <trkpt lat="48.68047" lon="1.96278">
        <ele>175</ele>
        <time>2025-07-04T12:12:04.708Z</time>
      </trkpt>
      <trkpt lat="48.68042" lon="1.96283">
        <ele>175</ele>
        <time>2025-07-04T12:12:09.148Z</time>
      </trkpt>
      <trkpt lat="48.68035" lon="1.96284">
        <ele>176</ele>
        <time>2025-07-04T12:12:13.195Z</time>
      </trkpt>
      <trkpt lat="48.68029" lon="1.96285">
        <ele>176</ele>
        <time>2025-07-04T12:12:17.374Z</time>
      </trkpt>
      <trkpt lat="48.68023" lon="1.96287">
        <ele>176</ele>
        <time>2025-07-04T12:12:21.751Z</time>
      </trkpt>
      <trkpt lat="48.68016" lon="1.96288">
        <ele>176</ele>
        <time>2025-07-04T12:12:26.130Z</time>
      </trkpt>
      <trkpt lat="48.6801" lon="1.96286">
        <ele>180</ele>
        <time>2025-07-04T12:12:30.510Z</time>
      </trkpt>
      <trkpt lat="48.68004" lon="1.96287">
        <ele>180</ele>
        <time>2025-07-04T12:12:34.955Z</time>
      </trkpt>
      <trkpt lat="48.67997" lon="1.96289">
        <ele>180</ele>
        <time>2025-07-04T12:12:39.449Z</time>
      </trkpt>
      <trkpt lat="48.67991" lon="1.96291">
        <ele>180</ele>
        <time>2025-07-04T12:12:43.792Z</time>
      </trkpt>
      <trkpt lat="48.67985" lon="1.96294">
        <ele>181</ele>
        <time>2025-07-04T12:12:47.795Z</time>
      </trkpt>
      <trkpt lat="48.67979" lon="1.96298">
        <ele>181</ele>
        <time>2025-07-04T12:12:52.087Z</time>
      </trkpt>
      <trkpt lat="48.67973" lon="1.963">
        <ele>181</ele>
        <time>2025-07-04T12:12:56.507Z</time>
      </trkpt>
      <trkpt lat="48.67966" lon="1.96301">
        <ele>181</ele>
        <time>2025-07-04T12:13:01.029Z</time>
      </trkpt>
      <trkpt lat="48.67961" lon="1.96301">
        <ele>181</ele>
        <time>2025-07-04T12:13:05.254Z</time>
      </trkpt>
      <trkpt lat="48.67956" lon="1.96301">
        <ele>179</ele>
        <time>2025-07-04T12:13:09.289Z</time>
      </trkpt>
      <trkpt lat="48.67951" lon="1.96302">
        <ele>179</ele>
        <time>2025-07-04T12:13:13.427Z</time>
      </trkpt>
      <trkpt lat="48.67945" lon="1.96302">
        <ele>179</ele>
        <time>2025-07-04T12:13:17.651Z</time>
      </trkpt>
      <trkpt lat="48.67939" lon="1.96302">
        <ele>179</ele>
        <time>2025-07-04T12:13:22.209Z</time>
      </trkpt>
      <trkpt lat="48.67933" lon="1.96302">
        <ele>179</ele>
        <time>2025-07-04T12:13:26.448Z</time>
      </trkpt>
      <trkpt lat="48.67927" lon="1.96303">
        <ele>179</ele>
        <time>2025-07-04T12:13:30.971Z</time>
      </trkpt>
      <trkpt lat="48.67922" lon="1.96305">
        <ele>179</ele>
        <time>2025-07-04T12:13:35.007Z</time>
      </trkpt>
      <trkpt lat="48.67916" lon="1.96307">
        <ele>179</ele>
        <time>2025-07-04T12:13:39.367Z</time>
      </trkpt>
      <trkpt lat="48.6791" lon="1.96308">
        <ele>179</ele>
        <time>2025-07-04T12:13:43.874Z</time>
      </trkpt>
      <trkpt lat="48.67905" lon="1.96309">
        <ele>179</ele>
        <time>2025-07-04T12:13:48.028Z</time>
      </trkpt>
      <trkpt lat="48.679" lon="1.96312">
        <ele>179</ele>
        <time>2025-07-04T12:13:52.512Z</time>
      </trkpt>
      <trkpt lat="48.67897" lon="1.9631">
        <ele>179</ele>
        <time>2025-07-04T12:13:57.509Z</time>
      </trkpt>
      <trkpt lat="48.67895" lon="1.96314">
        <ele>179</ele>
        <time>2025-07-04T12:14:32.511Z</time>
      </trkpt>
      <trkpt lat="48.67898" lon="1.96317">
        <ele>179</ele>
        <time>2025-07-04T12:14:36.894Z</time>
      </trkpt>
      <trkpt lat="48.679" lon="1.96324">
        <ele>174</ele>
        <time>2025-07-04T12:14:41.155Z</time>
      </trkpt>
      <trkpt lat="48.67901" lon="1.96334">
        <ele>174</ele>
        <time>2025-07-04T12:14:45.508Z</time>
      </trkpt>
      <trkpt lat="48.67897" lon="1.96339">
        <ele>174</ele>
        <time>2025-07-04T12:14:50.149Z</time>
      </trkpt>
      <trkpt lat="48.67892" lon="1.96341">
        <ele>174</ele>
        <time>2025-07-04T12:14:54.512Z</time>
      </trkpt>
      <trkpt lat="48.67886" lon="1.9634">
        <ele>174</ele>
        <time>2025-07-04T12:14:59.014Z</time>
      </trkpt>
      <trkpt lat="48.6788" lon="1.96339">
        <ele>174</ele>
        <time>2025-07-04T12:15:03.153Z</time>
      </trkpt>
      <trkpt lat="48.67875" lon="1.9634">
        <ele>174</ele>
        <time>2025-07-04T12:15:07.367Z</time>
      </trkpt>
      <trkpt lat="48.6787" lon="1.96339">
        <ele>170</ele>
        <time>2025-07-04T12:15:11.890Z</time>
      </trkpt>
      <trkpt lat="48.67865" lon="1.96341">
        <ele>170</ele>
        <time>2025-07-04T12:15:16.234Z</time>
      </trkpt>
      <trkpt lat="48.67861" lon="1.96339">
        <ele>170</ele>
        <time>2025-07-04T12:15:20.448Z</time>
      </trkpt>
      <trkpt lat="48.67857" lon="1.96335">
        <ele>170</ele>
        <time>2025-07-04T12:15:24.791Z</time>
      </trkpt>
      <trkpt lat="48.67854" lon="1.96329">
        <ele>170</ele>
        <time>2025-07-04T12:15:29.390Z</time>
      </trkpt>
      <trkpt lat="48.67851" lon="1.96326">
        <ele>170</ele>
        <time>2025-07-04T12:15:33.589Z</time>
      </trkpt>
      <trkpt lat="48.67847" lon="1.96322">
        <ele>163</ele>
        <time>2025-07-04T12:15:37.694Z</time>
      </trkpt>
      <trkpt lat="48.67843" lon="1.96319">
        <ele>169</ele>
        <time>2025-07-04T12:15:41.849Z</time>
      </trkpt>
      <trkpt lat="48.67839" lon="1.96317">
        <ele>169</ele>
        <time>2025-07-04T12:15:46.149Z</time>
      </trkpt>
      <trkpt lat="48.67833" lon="1.96316">
        <ele>169</ele>
        <time>2025-07-04T12:15:50.689Z</time>
      </trkpt>
      <trkpt lat="48.67828" lon="1.96312">
        <ele>169</ele>
        <time>2025-07-04T12:15:55.210Z</time>
      </trkpt>
      <trkpt lat="48.67824" lon="1.96308">
        <ele>169</ele>
        <time>2025-07-04T12:15:59.334Z</time>
      </trkpt>
      <trkpt lat="48.6782" lon="1.96304">
        <ele>169</ele>
        <time>2025-07-04T12:16:03.428Z</time>
      </trkpt>
      <trkpt lat="48.67815" lon="1.963">
        <ele>162</ele>
        <time>2025-07-04T12:16:07.831Z</time>
      </trkpt>
      <trkpt lat="48.67813" lon="1.96292">
        <ele>162</ele>
        <time>2025-07-04T12:16:12.016Z</time>
      </trkpt>
      <trkpt lat="48.67812" lon="1.96284">
        <ele>165</ele>
        <time>2025-07-04T12:16:16.151Z</time>
      </trkpt>
      <trkpt lat="48.67811" lon="1.96277">
        <ele>165</ele>
        <time>2025-07-04T12:16:34.234Z</time>
      </trkpt>
      <trkpt lat="48.67811" lon="1.96269">
        <ele>165</ele>
        <time>2025-07-04T12:16:38.353Z</time>
      </trkpt>
      <trkpt lat="48.67811" lon="1.96265">
        <ele>165</ele>
        <time>2025-07-04T12:16:42.512Z</time>
      </trkpt>
      <trkpt lat="48.67811" lon="1.9626">
        <ele>167</ele>
        <time>2025-07-04T12:16:46.509Z</time>
      </trkpt>
      <trkpt lat="48.67809" lon="1.9625">
        <ele>167</ele>
        <time>2025-07-04T12:16:51.510Z</time>
      </trkpt>
      <trkpt lat="48.67807" lon="1.96241">
        <ele>167</ele>
        <time>2025-07-04T12:16:55.914Z</time>
      </trkpt>
      <trkpt lat="48.67805" lon="1.96233">
        <ele>169</ele>
        <time>2025-07-04T12:17:00.452Z</time>
      </trkpt>
      <trkpt lat="48.67803" lon="1.96225">
        <ele>169</ele>
        <time>2025-07-04T12:17:04.510Z</time>
      </trkpt>
      <trkpt lat="48.678" lon="1.96216">
        <ele>169</ele>
        <time>2025-07-04T12:17:09.072Z</time>
      </trkpt>
      <trkpt lat="48.67798" lon="1.96208">
        <ele>171</ele>
        <time>2025-07-04T12:17:13.193Z</time>
      </trkpt>
      <trkpt lat="48.67796" lon="1.96198">
        <ele>171</ele>
        <time>2025-07-04T12:17:17.511Z</time>
      </trkpt>
      <trkpt lat="48.67793" lon="1.96192">
        <ele>171</ele>
        <time>2025-07-04T12:17:22.154Z</time>
      </trkpt>
      <trkpt lat="48.67789" lon="1.96185">
        <ele>164</ele>
        <time>2025-07-04T12:17:26.454Z</time>
      </trkpt>
      <trkpt lat="48.67785" lon="1.96178">
        <ele>166</ele>
        <time>2025-07-04T12:17:30.489Z</time>
      </trkpt>
      <trkpt lat="48.67783" lon="1.9617">
        <ele>166</ele>
        <time>2025-07-04T12:17:34.514Z</time>
      </trkpt>
      <trkpt lat="48.6778" lon="1.96162">
        <ele>166</ele>
        <time>2025-07-04T12:17:39.132Z</time>
      </trkpt>
      <trkpt lat="48.6778" lon="1.96157">
        <ele>166</ele>
        <time>2025-07-04T12:17:43.195Z</time>
      </trkpt>
      <trkpt lat="48.67782" lon="1.96146">
        <ele>166</ele>
        <time>2025-07-04T12:17:47.736Z</time>
      </trkpt>
      <trkpt lat="48.67785" lon="1.96138">
        <ele>166</ele>
        <time>2025-07-04T12:17:52.034Z</time>
      </trkpt>
      <trkpt lat="48.67789" lon="1.96131">
        <ele>166</ele>
        <time>2025-07-04T12:17:56.512Z</time>
      </trkpt>
      <trkpt lat="48.67789" lon="1.96119">
        <ele>167</ele>
        <time>2025-07-04T12:18:01.472Z</time>
      </trkpt>
      <trkpt lat="48.67789" lon="1.96111">
        <ele>167</ele>
        <time>2025-07-04T12:18:05.995Z</time>
      </trkpt>
      <trkpt lat="48.67793" lon="1.96104">
        <ele>174</ele>
        <time>2025-07-04T12:18:10.355Z</time>
      </trkpt>
      <trkpt lat="48.67794" lon="1.96098">
        <ele>174</ele>
        <time>2025-07-04T12:18:14.810Z</time>
      </trkpt>
      <trkpt lat="48.67796" lon="1.96091">
        <ele>172</ele>
        <time>2025-07-04T12:18:18.852Z</time>
      </trkpt>
      <trkpt lat="48.67799" lon="1.96084">
        <ele>172</ele>
        <time>2025-07-04T12:18:22.872Z</time>
      </trkpt>
      <trkpt lat="48.67802" lon="1.96076">
        <ele>172</ele>
        <time>2025-07-04T12:18:27.113Z</time>
      </trkpt>
      <trkpt lat="48.67806" lon="1.96069">
        <ele>166</ele>
        <time>2025-07-04T12:18:31.489Z</time>
      </trkpt>
      <trkpt lat="48.67808" lon="1.9606">
        <ele>166</ele>
        <time>2025-07-04T12:18:35.774Z</time>
      </trkpt>
      <trkpt lat="48.67809" lon="1.96051">
        <ele>166</ele>
        <time>2025-07-04T12:18:40.049Z</time>
      </trkpt>
      <trkpt lat="48.67811" lon="1.96043">
        <ele>166</ele>
        <time>2025-07-04T12:18:44.508Z</time>
      </trkpt>
      <trkpt lat="48.67814" lon="1.96036">
        <ele>162</ele>
        <time>2025-07-04T12:18:49.060Z</time>
      </trkpt>
      <trkpt lat="48.67818" lon="1.96031">
        <ele>162</ele>
        <time>2025-07-04T12:18:53.510Z</time>
      </trkpt>
      <trkpt lat="48.67822" lon="1.96025">
        <ele>171</ele>
        <time>2025-07-04T12:18:58.309Z</time>
      </trkpt>
      <trkpt lat="48.67826" lon="1.96019">
        <ele>171</ele>
        <time>2025-07-04T12:19:02.766Z</time>
      </trkpt>
      <trkpt lat="48.67829" lon="1.96012">
        <ele>170</ele>
        <time>2025-07-04T12:19:07.072Z</time>
      </trkpt>
      <trkpt lat="48.67833" lon="1.96005">
        <ele>170</ele>
        <time>2025-07-04T12:19:11.509Z</time>
      </trkpt>
      <trkpt lat="48.67838" lon="1.95999">
        <ele>170</ele>
        <time>2025-07-04T12:19:16.134Z</time>
      </trkpt>
      <trkpt lat="48.67842" lon="1.95992">
        <ele>170</ele>
        <time>2025-07-04T12:19:20.435Z</time>
      </trkpt>
      <trkpt lat="48.67847" lon="1.95985">
        <ele>167</ele>
        <time>2025-07-04T12:19:24.854Z</time>
      </trkpt>
      <trkpt lat="48.67851" lon="1.95981">
        <ele>176</ele>
        <time>2025-07-04T12:19:29.190Z</time>
      </trkpt>
      <trkpt lat="48.67856" lon="1.95973">
        <ele>176</ele>
        <time>2025-07-04T12:19:33.652Z</time>
      </trkpt>
      <trkpt lat="48.67862" lon="1.95967">
        <ele>176</ele>
        <time>2025-07-04T12:19:38.209Z</time>
      </trkpt>
      <trkpt lat="48.67866" lon="1.9596">
        <ele>176</ele>
        <time>2025-07-04T12:19:42.672Z</time>
      </trkpt>
      <trkpt lat="48.67869" lon="1.95953">
        <ele>172</ele>
        <time>2025-07-04T12:19:47.253Z</time>
      </trkpt>
      <trkpt lat="48.67873" lon="1.95945">
        <ele>172</ele>
        <time>2025-07-04T12:19:51.793Z</time>
      </trkpt>
      <trkpt lat="48.67875" lon="1.95938">
        <ele>172</ele>
        <time>2025-07-04T12:19:55.889Z</time>
      </trkpt>
      <trkpt lat="48.67878" lon="1.9593">
        <ele>177</ele>
        <time>2025-07-04T12:20:00.357Z</time>
      </trkpt>
      <trkpt lat="48.67882" lon="1.95923">
        <ele>177</ele>
        <time>2025-07-04T12:20:04.813Z</time>
      </trkpt>
      <trkpt lat="48.67885" lon="1.95915">
        <ele>177</ele>
        <time>2025-07-04T12:20:09.294Z</time>
      </trkpt>
      <trkpt lat="48.67888" lon="1.95909">
        <ele>177</ele>
        <time>2025-07-04T12:20:13.372Z</time>
      </trkpt>
      <trkpt lat="48.67891" lon="1.95903">
        <ele>177</ele>
        <time>2025-07-04T12:20:17.391Z</time>
      </trkpt>
      <trkpt lat="48.67893" lon="1.95897">
        <ele>174</ele>
        <time>2025-07-04T12:20:21.513Z</time>
      </trkpt>
      <trkpt lat="48.67895" lon="1.95888">
        <ele>174</ele>
        <time>2025-07-04T12:20:25.992Z</time>
      </trkpt>
      <trkpt lat="48.67898" lon="1.9588">
        <ele>174</ele>
        <time>2025-07-04T12:20:30.011Z</time>
      </trkpt>
      <trkpt lat="48.679" lon="1.95871">
        <ele>172</ele>
        <time>2025-07-04T12:20:34.506Z</time>
      </trkpt>
      <trkpt lat="48.67903" lon="1.95863">
        <ele>172</ele>
        <time>2025-07-04T12:20:39.013Z</time>
      </trkpt>
      <trkpt lat="48.67905" lon="1.95856">
        <ele>177</ele>
        <time>2025-07-04T12:20:43.314Z</time>
      </trkpt>
      <trkpt lat="48.67909" lon="1.95849">
        <ele>177</ele>
        <time>2025-07-04T12:20:47.649Z</time>
      </trkpt>
      <trkpt lat="48.67912" lon="1.95841">
        <ele>176</ele>
        <time>2025-07-04T12:20:52.009Z</time>
      </trkpt>
      <trkpt lat="48.67914" lon="1.95833">
        <ele>176</ele>
        <time>2025-07-04T12:20:56.327Z</time>
      </trkpt>
      <trkpt lat="48.67916" lon="1.95825">
        <ele>176</ele>
        <time>2025-07-04T12:21:00.792Z</time>
      </trkpt>
      <trkpt lat="48.67918" lon="1.95817">
        <ele>175</ele>
        <time>2025-07-04T12:21:04.808Z</time>
      </trkpt>
      <trkpt lat="48.67921" lon="1.95809">
        <ele>175</ele>
        <time>2025-07-04T12:21:09.433Z</time>
      </trkpt>
      <trkpt lat="48.67924" lon="1.95802">
        <ele>175</ele>
        <time>2025-07-04T12:21:13.509Z</time>
      </trkpt>
      <trkpt lat="48.67927" lon="1.95795">
        <ele>175</ele>
        <time>2025-07-04T12:21:17.829Z</time>
      </trkpt>
      <trkpt lat="48.67931" lon="1.95788">
        <ele>178</ele>
        <time>2025-07-04T12:21:22.267Z</time>
      </trkpt>
      <trkpt lat="48.67933" lon="1.9578">
        <ele>178</ele>
        <time>2025-07-04T12:21:26.729Z</time>
      </trkpt>
      <trkpt lat="48.67936" lon="1.95772">
        <ele>178</ele>
        <time>2025-07-04T12:21:31.293Z</time>
      </trkpt>
      <trkpt lat="48.67937" lon="1.95764">
        <ele>178</ele>
        <time>2025-07-04T12:21:35.313Z</time>
      </trkpt>
      <trkpt lat="48.67938" lon="1.95757">
        <ele>176</ele>
        <time>2025-07-04T12:21:39.409Z</time>
      </trkpt>
      <trkpt lat="48.67941" lon="1.9575">
        <ele>176</ele>
        <time>2025-07-04T12:21:43.446Z</time>
      </trkpt>
      <trkpt lat="48.67943" lon="1.95742">
        <ele>176</ele>
        <time>2025-07-04T12:21:47.890Z</time>
      </trkpt>
      <trkpt lat="48.67946" lon="1.95735">
        <ele>171</ele>
        <time>2025-07-04T12:21:52.227Z</time>
      </trkpt>
      <trkpt lat="48.67949" lon="1.95727">
        <ele>171</ele>
        <time>2025-07-04T12:21:56.688Z</time>
      </trkpt>
      <trkpt lat="48.67952" lon="1.95719">
        <ele>171</ele>
        <time>2025-07-04T12:22:01.126Z</time>
      </trkpt>
      <trkpt lat="48.67954" lon="1.9571">
        <ele>171</ele>
        <time>2025-07-04T12:22:05.408Z</time>
      </trkpt>
      <trkpt lat="48.67956" lon="1.95701">
        <ele>167</ele>
        <time>2025-07-04T12:22:09.993Z</time>
      </trkpt>
      <trkpt lat="48.67958" lon="1.95694">
        <ele>174</ele>
        <time>2025-07-04T12:22:14.386Z</time>
      </trkpt>
      <trkpt lat="48.6796" lon="1.95686">
        <ele>174</ele>
        <time>2025-07-04T12:22:18.513Z</time>
      </trkpt>
      <trkpt lat="48.67963" lon="1.95678">
        <ele>169</ele>
        <time>2025-07-04T12:22:23.107Z</time>
      </trkpt>
      <trkpt lat="48.67966" lon="1.9567">
        <ele>169</ele>
        <time>2025-07-04T12:22:27.491Z</time>
      </trkpt>
      <trkpt lat="48.67968" lon="1.95661">
        <ele>169</ele>
        <time>2025-07-04T12:22:32.090Z</time>
      </trkpt>
      <trkpt lat="48.6797" lon="1.95654">
        <ele>169</ele>
        <time>2025-07-04T12:22:36.110Z</time>
      </trkpt>
      <trkpt lat="48.67973" lon="1.95647">
        <ele>167</ele>
        <time>2025-07-04T12:22:40.231Z</time>
      </trkpt>
      <trkpt lat="48.67974" lon="1.95642">
        <ele>167</ele>
        <time>2025-07-04T12:23:10.512Z</time>
      </trkpt>
      <trkpt lat="48.67974" lon="1.95642">
        <ele>167</ele>
        <time>2025-07-04T12:23:15.515Z</time>
      </trkpt>
      <trkpt lat="48.67974" lon="1.95642">
        <ele>167</ele>
        <time>2025-07-04T12:23:31.507Z</time>
      </trkpt>
      <trkpt lat="48.67976" lon="1.95637">
        <ele>167</ele>
        <time>2025-07-04T12:23:35.510Z</time>
      </trkpt>
      <trkpt lat="48.67981" lon="1.95633">
        <ele>167</ele>
        <time>2025-07-04T12:23:40.088Z</time>
      </trkpt>
      <trkpt lat="48.67984" lon="1.95627">
        <ele>167</ele>
        <time>2025-07-04T12:23:44.184Z</time>
      </trkpt>
      <trkpt lat="48.67989" lon="1.9562">
        <ele>174</ele>
        <time>2025-07-04T12:23:48.508Z</time>
      </trkpt>
      <trkpt lat="48.67993" lon="1.95613">
        <ele>174</ele>
        <time>2025-07-04T12:23:53.049Z</time>
      </trkpt>
      <trkpt lat="48.67996" lon="1.95606">
        <ele>174</ele>
        <time>2025-07-04T12:23:57.368Z</time>
      </trkpt>
      <trkpt lat="48.67998" lon="1.95597">
        <ele>172</ele>
        <time>2025-07-04T12:24:01.728Z</time>
      </trkpt>
      <trkpt lat="48.68" lon="1.95588">
        <ele>172</ele>
        <time>2025-07-04T12:24:06.131Z</time>
      </trkpt>
      <trkpt lat="48.68001" lon="1.95581">
        <ele>172</ele>
        <time>2025-07-04T12:24:10.176Z</time>
      </trkpt>
      <trkpt lat="48.68003" lon="1.95572">
        <ele>172</ele>
        <time>2025-07-04T12:24:14.689Z</time>
      </trkpt>
      <trkpt lat="48.68005" lon="1.95564">
        <ele>168</ele>
        <time>2025-07-04T12:24:19.229Z</time>
      </trkpt>
      <trkpt lat="48.68008" lon="1.95556">
        <ele>168</ele>
        <time>2025-07-04T12:24:23.510Z</time>
      </trkpt>
      <trkpt lat="48.6801" lon="1.95547">
        <ele>168</ele>
        <time>2025-07-04T12:24:27.889Z</time>
      </trkpt>
      <trkpt lat="48.68013" lon="1.95538">
        <ele>164</ele>
        <time>2025-07-04T12:24:32.284Z</time>
      </trkpt>
      <trkpt lat="48.68016" lon="1.9553">
        <ele>173</ele>
        <time>2025-07-04T12:24:36.790Z</time>
      </trkpt>
      <trkpt lat="48.68019" lon="1.95523">
        <ele>173</ele>
        <time>2025-07-04T12:24:40.970Z</time>
      </trkpt>
      <trkpt lat="48.68022" lon="1.95515">
        <ele>173</ele>
        <time>2025-07-04T12:24:45.331Z</time>
      </trkpt>
      <trkpt lat="48.68025" lon="1.95507">
        <ele>168</ele>
        <time>2025-07-04T12:24:49.845Z</time>
      </trkpt>
      <trkpt lat="48.68028" lon="1.95498">
        <ele>168</ele>
        <time>2025-07-04T12:24:54.170Z</time>
      </trkpt>
      <trkpt lat="48.68032" lon="1.95491">
        <ele>168</ele>
        <time>2025-07-04T12:24:58.504Z</time>
      </trkpt>
      <trkpt lat="48.68036" lon="1.95483">
        <ele>166</ele>
        <time>2025-07-04T12:25:03.206Z</time>
      </trkpt>
      <trkpt lat="48.68039" lon="1.95474">
        <ele>166</ele>
        <time>2025-07-04T12:25:07.507Z</time>
      </trkpt>
      <trkpt lat="48.6804" lon="1.95465">
        <ele>166</ele>
        <time>2025-07-04T12:25:12.089Z</time>
      </trkpt>
      <trkpt lat="48.68041" lon="1.95456">
        <ele>166</ele>
        <time>2025-07-04T12:25:16.509Z</time>
      </trkpt>
      <trkpt lat="48.68042" lon="1.95448">
        <ele>166</ele>
        <time>2025-07-04T12:25:21.007Z</time>
      </trkpt>
      <trkpt lat="48.68043" lon="1.9544">
        <ele>173</ele>
        <time>2025-07-04T12:25:25.427Z</time>
      </trkpt>
      <trkpt lat="48.68043" lon="1.95432">
        <ele>173</ele>
        <time>2025-07-04T12:25:29.727Z</time>
      </trkpt>
      <trkpt lat="48.68044" lon="1.95423">
        <ele>173</ele>
        <time>2025-07-04T12:25:34.269Z</time>
      </trkpt>
      <trkpt lat="48.68044" lon="1.95414">
        <ele>173</ele>
        <time>2025-07-04T12:25:38.729Z</time>
      </trkpt>
      <trkpt lat="48.68046" lon="1.95406">
        <ele>173</ele>
        <time>2025-07-04T12:25:43.192Z</time>
      </trkpt>
      <trkpt lat="48.68048" lon="1.95397">
        <ele>171</ele>
        <time>2025-07-04T12:25:47.512Z</time>
      </trkpt>
      <trkpt lat="48.68049" lon="1.95388">
        <ele>171</ele>
        <time>2025-07-04T12:25:51.690Z</time>
      </trkpt>
      <trkpt lat="48.68051" lon="1.9538">
        <ele>171</ele>
        <time>2025-07-04T12:25:56.505Z</time>
      </trkpt>
      <trkpt lat="48.68054" lon="1.95371">
        <ele>170</ele>
        <time>2025-07-04T12:26:00.994Z</time>
      </trkpt>
      <trkpt lat="48.68057" lon="1.95364">
        <ele>170</ele>
        <time>2025-07-04T12:26:05.387Z</time>
      </trkpt>
      <trkpt lat="48.6806" lon="1.95356">
        <ele>170</ele>
        <time>2025-07-04T12:26:09.831Z</time>
      </trkpt>
      <trkpt lat="48.68064" lon="1.95349">
        <ele>170</ele>
        <time>2025-07-04T12:26:14.149Z</time>
      </trkpt>
      <trkpt lat="48.68063" lon="1.95344">
        <ele>169</ele>
        <time>2025-07-04T12:26:18.509Z</time>
      </trkpt>
      <trkpt lat="48.68065" lon="1.95341">
        <ele>169</ele>
        <time>2025-07-04T12:27:02.512Z</time>
      </trkpt>
      <trkpt lat="48.68065" lon="1.95341">
        <ele>169</ele>
        <time>2025-07-04T12:27:12.509Z</time>
      </trkpt>
      <trkpt lat="48.68065" lon="1.95341">
        <ele>169</ele>
        <time>2025-07-04T12:27:16.508Z</time>
      </trkpt>
      <trkpt lat="48.68066" lon="1.95338">
        <ele>169</ele>
        <time>2025-07-04T12:27:21.509Z</time>
      </trkpt>
      <trkpt lat="48.68072" lon="1.95335">
        <ele>175</ele>
        <time>2025-07-04T12:27:25.782Z</time>
      </trkpt>
      <trkpt lat="48.68076" lon="1.95337">
        <ele>175</ele>
        <time>2025-07-04T12:27:30.141Z</time>
      </trkpt>
      <trkpt lat="48.6808" lon="1.95333">
        <ele>175</ele>
        <time>2025-07-04T12:27:34.784Z</time>
      </trkpt>
      <trkpt lat="48.68081" lon="1.95327">
        <ele>175</ele>
        <time>2025-07-04T12:27:39.150Z</time>
      </trkpt>
      <trkpt lat="48.68082" lon="1.9532">
        <ele>175</ele>
        <time>2025-07-04T12:27:43.512Z</time>
      </trkpt>
      <trkpt lat="48.68081" lon="1.95314">
        <ele>172</ele>
        <time>2025-07-04T12:27:47.746Z</time>
      </trkpt>
      <trkpt lat="48.68081" lon="1.95306">
        <ele>172</ele>
        <time>2025-07-04T12:27:52.506Z</time>
      </trkpt>
      <trkpt lat="48.68083" lon="1.95302">
        <ele>172</ele>
        <time>2025-07-04T12:27:57.183Z</time>
      </trkpt>
      <trkpt lat="48.68086" lon="1.95297">
        <ele>172</ele>
        <time>2025-07-04T12:28:01.509Z</time>
      </trkpt>
      <trkpt lat="48.6809" lon="1.95297">
        <ele>172</ele>
        <time>2025-07-04T12:28:06.484Z</time>
      </trkpt>
      <trkpt lat="48.68094" lon="1.95302">
        <ele>172</ele>
        <time>2025-07-04T12:28:10.938Z</time>
      </trkpt>
      <trkpt lat="48.68098" lon="1.95295">
        <ele>175</ele>
        <time>2025-07-04T12:28:15.103Z</time>
      </trkpt>
      <trkpt lat="48.68098" lon="1.9529">
        <ele>172</ele>
        <time>2025-07-04T12:28:19.198Z</time>
      </trkpt>
      <trkpt lat="48.68099" lon="1.95287">
        <ele>172</ele>
        <time>2025-07-04T12:28:23.404Z</time>
      </trkpt>
      <trkpt lat="48.68101" lon="1.95284">
        <ele>172</ele>
        <time>2025-07-04T12:28:27.769Z</time>
      </trkpt>
      <trkpt lat="48.68103" lon="1.95279">
        <ele>172</ele>
        <time>2025-07-04T12:28:32.099Z</time>
      </trkpt>
      <trkpt lat="48.68098" lon="1.95274">
        <ele>172</ele>
        <time>2025-07-04T12:28:36.179Z</time>
      </trkpt>
      <trkpt lat="48.68098" lon="1.95267">
        <ele>172</ele>
        <time>2025-07-04T12:28:40.420Z</time>
      </trkpt>
      <trkpt lat="48.68097" lon="1.95262">
        <ele>163</ele>
        <time>2025-07-04T12:28:44.505Z</time>
      </trkpt>
      <trkpt lat="48.681" lon="1.95256">
        <ele>169</ele>
        <time>2025-07-04T12:28:49.064Z</time>
      </trkpt>
      <trkpt lat="48.68103" lon="1.95251">
        <ele>169</ele>
        <time>2025-07-04T12:28:53.142Z</time>
      </trkpt>
      <trkpt lat="48.68107" lon="1.95244">
        <ele>169</ele>
        <time>2025-07-04T12:28:57.425Z</time>
      </trkpt>
      <trkpt lat="48.68109" lon="1.95238">
        <ele>169</ele>
        <time>2025-07-04T12:29:01.828Z</time>
      </trkpt>
      <trkpt lat="48.68111" lon="1.9523">
        <ele>167</ele>
        <time>2025-07-04T12:29:06.265Z</time>
      </trkpt>
      <trkpt lat="48.68114" lon="1.95224">
        <ele>167</ele>
        <time>2025-07-04T12:29:10.481Z</time>
      </trkpt>
      <trkpt lat="48.68118" lon="1.95217">
        <ele>167</ele>
        <time>2025-07-04T12:29:14.738Z</time>
      </trkpt>
      <trkpt lat="48.68122" lon="1.95211">
        <ele>167</ele>
        <time>2025-07-04T12:29:18.945Z</time>
      </trkpt>
      <trkpt lat="48.68125" lon="1.95205">
        <ele>173</ele>
        <time>2025-07-04T12:29:22.964Z</time>
      </trkpt>
      <trkpt lat="48.68129" lon="1.95199">
        <ele>173</ele>
        <time>2025-07-04T12:29:27.060Z</time>
      </trkpt>
      <trkpt lat="48.68131" lon="1.95192">
        <ele>173</ele>
        <time>2025-07-04T12:29:31.344Z</time>
      </trkpt>
      <trkpt lat="48.68134" lon="1.95184">
        <ele>173</ele>
        <time>2025-07-04T12:29:35.505Z</time>
      </trkpt>
      <trkpt lat="48.68136" lon="1.95176">
        <ele>173</ele>
        <time>2025-07-04T12:29:39.508Z</time>
      </trkpt>
      <trkpt lat="48.68137" lon="1.95168">
        <ele>173</ele>
        <time>2025-07-04T12:29:43.801Z</time>
      </trkpt>
      <trkpt lat="48.68136" lon="1.9516">
        <ele>173</ele>
        <time>2025-07-04T12:29:48.298Z</time>
      </trkpt>
      <trkpt lat="48.68134" lon="1.95151">
        <ele>172</ele>
        <time>2025-07-04T12:29:52.564Z</time>
      </trkpt>
      <trkpt lat="48.68133" lon="1.95143">
        <ele>172</ele>
        <time>2025-07-04T12:29:56.916Z</time>
      </trkpt>
      <trkpt lat="48.68132" lon="1.95133">
        <ele>172</ele>
        <time>2025-07-04T12:30:01.422Z</time>
      </trkpt>
      <trkpt lat="48.68131" lon="1.95124">
        <ele>170</ele>
        <time>2025-07-04T12:30:05.979Z</time>
      </trkpt>
      <trkpt lat="48.68131" lon="1.95115">
        <ele>170</ele>
        <time>2025-07-04T12:30:10.506Z</time>
      </trkpt>
      <trkpt lat="48.68131" lon="1.95107">
        <ele>170</ele>
        <time>2025-07-04T12:30:14.605Z</time>
      </trkpt>
      <trkpt lat="48.68133" lon="1.95098">
        <ele>170</ele>
        <time>2025-07-04T12:30:19.084Z</time>
      </trkpt>
      <trkpt lat="48.68133" lon="1.95091">
        <ele>166</ele>
        <time>2025-07-04T12:30:23.180Z</time>
      </trkpt>
      <trkpt lat="48.68134" lon="1.95082">
        <ele>166</ele>
        <time>2025-07-04T12:30:27.703Z</time>
      </trkpt>
      <trkpt lat="48.68137" lon="1.95076">
        <ele>166</ele>
        <time>2025-07-04T12:30:31.935Z</time>
      </trkpt>
      <trkpt lat="48.68141" lon="1.95068">
        <ele>163</ele>
        <time>2025-07-04T12:30:36.506Z</time>
      </trkpt>
      <trkpt lat="48.68144" lon="1.9506">
        <ele>163</ele>
        <time>2025-07-04T12:30:41.365Z</time>
      </trkpt>
      <trkpt lat="48.68148" lon="1.95053">
        <ele>163</ele>
        <time>2025-07-04T12:30:45.742Z</time>
      </trkpt>
      <trkpt lat="48.68152" lon="1.95047">
        <ele>163</ele>
        <time>2025-07-04T12:30:50.085Z</time>
      </trkpt>
      <trkpt lat="48.68156" lon="1.9504">
        <ele>168</ele>
        <time>2025-07-04T12:30:54.444Z</time>
      </trkpt>
      <trkpt lat="48.68159" lon="1.95033">
        <ele>168</ele>
        <time>2025-07-04T12:30:58.504Z</time>
      </trkpt>
      <trkpt lat="48.68163" lon="1.95027">
        <ele>168</ele>
        <time>2025-07-04T12:31:02.511Z</time>
      </trkpt>
      <trkpt lat="48.68166" lon="1.9502">
        <ele>168</ele>
        <time>2025-07-04T12:31:06.954Z</time>
      </trkpt>
      <trkpt lat="48.6817" lon="1.95013">
        <ele>166</ele>
        <time>2025-07-04T12:31:11.508Z</time>
      </trkpt>
      <trkpt lat="48.68174" lon="1.95007">
        <ele>166</ele>
        <time>2025-07-04T12:31:15.964Z</time>
      </trkpt>
      <trkpt lat="48.68178" lon="1.95001">
        <ele>166</ele>
        <time>2025-07-04T12:31:20.359Z</time>
      </trkpt>
      <trkpt lat="48.68182" lon="1.94995">
        <ele>173</ele>
        <time>2025-07-04T12:31:24.804Z</time>
      </trkpt>
      <trkpt lat="48.68186" lon="1.94988">
        <ele>173</ele>
        <time>2025-07-04T12:31:29.183Z</time>
      </trkpt>
      <trkpt lat="48.68189" lon="1.94981">
        <ele>171</ele>
        <time>2025-07-04T12:31:33.507Z</time>
      </trkpt>
      <trkpt lat="48.68193" lon="1.94973">
        <ele>171</ele>
        <time>2025-07-04T12:31:38.503Z</time>
      </trkpt>
      <trkpt lat="48.68196" lon="1.94967">
        <ele>171</ele>
        <time>2025-07-04T12:31:42.665Z</time>
      </trkpt>
      <trkpt lat="48.682" lon="1.9496">
        <ele>171</ele>
        <time>2025-07-04T12:31:46.921Z</time>
      </trkpt>
      <trkpt lat="48.68204" lon="1.94954">
        <ele>167</ele>
        <time>2025-07-04T12:31:51.299Z</time>
      </trkpt>
      <trkpt lat="48.6821" lon="1.9495">
        <ele>171</ele>
        <time>2025-07-04T12:31:55.600Z</time>
      </trkpt>
      <trkpt lat="48.68215" lon="1.94946">
        <ele>171</ele>
        <time>2025-07-04T12:32:00.504Z</time>
      </trkpt>
      <trkpt lat="48.68221" lon="1.94943">
        <ele>171</ele>
        <time>2025-07-04T12:32:05.002Z</time>
      </trkpt>
      <trkpt lat="48.68225" lon="1.94939">
        <ele>171</ele>
        <time>2025-07-04T12:32:09.021Z</time>
      </trkpt>
      <trkpt lat="48.68229" lon="1.94935">
        <ele>171</ele>
        <time>2025-07-04T12:32:13.129Z</time>
      </trkpt>
      <trkpt lat="48.68233" lon="1.94931">
        <ele>171</ele>
        <time>2025-07-04T12:32:17.223Z</time>
      </trkpt>
      <trkpt lat="48.68238" lon="1.94927">
        <ele>171</ele>
        <time>2025-07-04T12:32:21.267Z</time>
      </trkpt>
      <trkpt lat="48.68242" lon="1.94925">
        <ele>171</ele>
        <time>2025-07-04T12:32:25.319Z</time>
      </trkpt>
      <trkpt lat="48.68246" lon="1.94923">
        <ele>171</ele>
        <time>2025-07-04T12:32:29.424Z</time>
      </trkpt>
      <trkpt lat="48.68251" lon="1.94921">
        <ele>171</ele>
        <time>2025-07-04T12:32:33.508Z</time>
      </trkpt>
      <trkpt lat="48.68256" lon="1.94917">
        <ele>171</ele>
        <time>2025-07-04T12:32:38.501Z</time>
      </trkpt>
      <trkpt lat="48.68261" lon="1.94914">
        <ele>171</ele>
        <time>2025-07-04T12:32:43.510Z</time>
      </trkpt>
      <trkpt lat="48.68265" lon="1.94911">
        <ele>173</ele>
        <time>2025-07-04T12:32:47.743Z</time>
      </trkpt>
      <trkpt lat="48.6827" lon="1.94908">
        <ele>173</ele>
        <time>2025-07-04T12:32:51.865Z</time>
      </trkpt>
      <trkpt lat="48.68274" lon="1.94905">
        <ele>173</ele>
        <time>2025-07-04T12:32:56.302Z</time>
      </trkpt>
      <trkpt lat="48.68279" lon="1.94904">
        <ele>173</ele>
        <time>2025-07-04T12:33:00.304Z</time>
      </trkpt>
      <trkpt lat="48.68284" lon="1.94902">
        <ele>172</ele>
        <time>2025-07-04T12:33:04.506Z</time>
      </trkpt>
      <trkpt lat="48.6829" lon="1.94899">
        <ele>172</ele>
        <time>2025-07-04T12:33:08.964Z</time>
      </trkpt>
      <trkpt lat="48.68295" lon="1.94894">
        <ele>174</ele>
        <time>2025-07-04T12:33:13.507Z</time>
      </trkpt>
      <trkpt lat="48.68299" lon="1.94888">
        <ele>174</ele>
        <time>2025-07-04T12:33:17.924Z</time>
      </trkpt>
      <trkpt lat="48.68303" lon="1.94882">
        <ele>174</ele>
        <time>2025-07-04T12:33:22.318Z</time>
      </trkpt>
      <trkpt lat="48.68306" lon="1.94875">
        <ele>174</ele>
        <time>2025-07-04T12:33:26.869Z</time>
      </trkpt>
      <trkpt lat="48.68308" lon="1.94868">
        <ele>174</ele>
        <time>2025-07-04T12:33:31.320Z</time>
      </trkpt>
      <trkpt lat="48.6831" lon="1.94858">
        <ele>174</ele>
        <time>2025-07-04T12:33:35.902Z</time>
      </trkpt>
      <trkpt lat="48.68313" lon="1.9485">
        <ele>174</ele>
        <time>2025-07-04T12:33:40.442Z</time>
      </trkpt>
      <trkpt lat="48.68317" lon="1.94843">
        <ele>173</ele>
        <time>2025-07-04T12:33:44.845Z</time>
      </trkpt>
      <trkpt lat="48.6832" lon="1.94836">
        <ele>174</ele>
        <time>2025-07-04T12:33:48.983Z</time>
      </trkpt>
      <trkpt lat="48.68324" lon="1.9483">
        <ele>174</ele>
        <time>2025-07-04T12:33:53.361Z</time>
      </trkpt>
      <trkpt lat="48.68327" lon="1.94823">
        <ele>174</ele>
        <time>2025-07-04T12:34:06.514Z</time>
      </trkpt>
      <trkpt lat="48.68327" lon="1.94822">
        <ele>174</ele>
        <time>2025-07-04T12:34:13.506Z</time>
      </trkpt>
      <trkpt lat="48.68328" lon="1.94821">
        <ele>174</ele>
        <time>2025-07-04T12:34:18.503Z</time>
      </trkpt>
      <trkpt lat="48.6833" lon="1.94818">
        <ele>174</ele>
        <time>2025-07-04T12:34:22.780Z</time>
      </trkpt>
      <trkpt lat="48.68334" lon="1.94813">
        <ele>174</ele>
        <time>2025-07-04T12:34:26.800Z</time>
      </trkpt>
      <trkpt lat="48.68337" lon="1.94808">
        <ele>174</ele>
        <time>2025-07-04T12:34:30.938Z</time>
      </trkpt>
      <trkpt lat="48.68341" lon="1.94803">
        <ele>174</ele>
        <time>2025-07-04T12:34:35.241Z</time>
      </trkpt>
      <trkpt lat="48.68344" lon="1.94798">
        <ele>174</ele>
        <time>2025-07-04T12:34:39.508Z</time>
      </trkpt>
      <trkpt lat="48.68347" lon="1.94791">
        <ele>175</ele>
        <time>2025-07-04T12:34:44.505Z</time>
      </trkpt>
      <trkpt lat="48.68349" lon="1.94786">
        <ele>177</ele>
        <time>2025-07-04T12:34:48.585Z</time>
      </trkpt>
      <trkpt lat="48.68351" lon="1.94779">
        <ele>177</ele>
        <time>2025-07-04T12:34:52.843Z</time>
      </trkpt>
      <trkpt lat="48.68353" lon="1.94774">
        <ele>177</ele>
        <time>2025-07-04T12:34:56.963Z</time>
      </trkpt>
      <trkpt lat="48.68356" lon="1.94768">
        <ele>177</ele>
        <time>2025-07-04T12:35:01.070Z</time>
      </trkpt>
      <trkpt lat="48.68358" lon="1.94762">
        <ele>177</ele>
        <time>2025-07-04T12:35:05.207Z</time>
      </trkpt>
      <trkpt lat="48.6836" lon="1.94755">
        <ele>177</ele>
        <time>2025-07-04T12:35:09.729Z</time>
      </trkpt>
      <trkpt lat="48.68363" lon="1.94748">
        <ele>177</ele>
        <time>2025-07-04T12:35:13.808Z</time>
      </trkpt>
      <trkpt lat="48.68366" lon="1.94742">
        <ele>177</ele>
        <time>2025-07-04T12:35:17.870Z</time>
      </trkpt>
      <trkpt lat="48.68369" lon="1.94736">
        <ele>177</ele>
        <time>2025-07-04T12:35:22.371Z</time>
      </trkpt>
      <trkpt lat="48.68372" lon="1.9473">
        <ele>177</ele>
        <time>2025-07-04T12:35:26.447Z</time>
      </trkpt>
      <trkpt lat="48.68375" lon="1.94723">
        <ele>177</ele>
        <time>2025-07-04T12:35:31.028Z</time>
      </trkpt>
      <trkpt lat="48.68378" lon="1.94717">
        <ele>177</ele>
        <time>2025-07-04T12:35:35.124Z</time>
      </trkpt>
      <trkpt lat="48.6838" lon="1.9471">
        <ele>177</ele>
        <time>2025-07-04T12:35:39.248Z</time>
      </trkpt>
      <trkpt lat="48.68383" lon="1.94704">
        <ele>176</ele>
        <time>2025-07-04T12:35:43.786Z</time>
      </trkpt>
      <trkpt lat="48.68386" lon="1.94697">
        <ele>176</ele>
        <time>2025-07-04T12:35:47.847Z</time>
      </trkpt>
      <trkpt lat="48.68388" lon="1.94691">
        <ele>176</ele>
        <time>2025-07-04T12:35:51.927Z</time>
      </trkpt>
      <trkpt lat="48.68392" lon="1.94685">
        <ele>176</ele>
        <time>2025-07-04T12:35:56.047Z</time>
      </trkpt>
      <trkpt lat="48.68395" lon="1.94679">
        <ele>176</ele>
        <time>2025-07-04T12:36:00.109Z</time>
      </trkpt>
      <trkpt lat="48.68397" lon="1.94672">
        <ele>176</ele>
        <time>2025-07-04T12:36:04.607Z</time>
      </trkpt>
      <trkpt lat="48.684" lon="1.94665">
        <ele>176</ele>
        <time>2025-07-04T12:36:09.129Z</time>
      </trkpt>
      <trkpt lat="48.68404" lon="1.94658">
        <ele>177</ele>
        <time>2025-07-04T12:36:13.643Z</time>
      </trkpt>
      <trkpt lat="48.68408" lon="1.94651">
        <ele>176</ele>
        <time>2025-07-04T12:36:18.166Z</time>
      </trkpt>
      <trkpt lat="48.68411" lon="1.94644">
        <ele>176</ele>
        <time>2025-07-04T12:36:22.728Z</time>
      </trkpt>
      <trkpt lat="48.68415" lon="1.94637">
        <ele>176</ele>
        <time>2025-07-04T12:36:27.507Z</time>
      </trkpt>
      <trkpt lat="48.68418" lon="1.9463">
        <ele>176</ele>
        <time>2025-07-04T12:36:31.793Z</time>
      </trkpt>
      <trkpt lat="48.68421" lon="1.94623">
        <ele>175</ele>
        <time>2025-07-04T12:36:36.067Z</time>
      </trkpt>
      <trkpt lat="48.68423" lon="1.94617">
        <ele>175</ele>
        <time>2025-07-04T12:36:40.129Z</time>
      </trkpt>
      <trkpt lat="48.68427" lon="1.94611">
        <ele>175</ele>
        <time>2025-07-04T12:36:44.148Z</time>
      </trkpt>
      <trkpt lat="48.6843" lon="1.94605">
        <ele>175</ele>
        <time>2025-07-04T12:36:48.287Z</time>
      </trkpt>
      <trkpt lat="48.68433" lon="1.94599">
        <ele>177</ele>
        <time>2025-07-04T12:36:52.504Z</time>
      </trkpt>
      <trkpt lat="48.68436" lon="1.94591">
        <ele>175</ele>
        <time>2025-07-04T12:36:57.067Z</time>
      </trkpt>
      <trkpt lat="48.68439" lon="1.94584">
        <ele>175</ele>
        <time>2025-07-04T12:37:01.462Z</time>
      </trkpt>
      <trkpt lat="48.68441" lon="1.94576">
        <ele>175</ele>
        <time>2025-07-04T12:37:06.027Z</time>
      </trkpt>
      <trkpt lat="48.68443" lon="1.94569">
        <ele>173</ele>
        <time>2025-07-04T12:37:10.064Z</time>
      </trkpt>
      <trkpt lat="48.68446" lon="1.94562">
        <ele>173</ele>
        <time>2025-07-04T12:37:14.505Z</time>
      </trkpt>
      <trkpt lat="48.68451" lon="1.94555">
        <ele>173</ele>
        <time>2025-07-04T12:37:19.508Z</time>
      </trkpt>
      <trkpt lat="48.68454" lon="1.94548">
        <ele>173</ele>
        <time>2025-07-04T12:37:23.948Z</time>
      </trkpt>
      <trkpt lat="48.68457" lon="1.94542">
        <ele>173</ele>
        <time>2025-07-04T12:37:28.187Z</time>
      </trkpt>
      <trkpt lat="48.6846" lon="1.94537">
        <ele>174</ele>
        <time>2025-07-04T12:37:32.506Z</time>
      </trkpt>
      <trkpt lat="48.68463" lon="1.94531">
        <ele>174</ele>
        <time>2025-07-04T12:37:36.823Z</time>
      </trkpt>
      <trkpt lat="48.68466" lon="1.94525">
        <ele>174</ele>
        <time>2025-07-04T12:37:40.944Z</time>
      </trkpt>
      <trkpt lat="48.68469" lon="1.94519">
        <ele>174</ele>
        <time>2025-07-04T12:37:45.244Z</time>
      </trkpt>
      <trkpt lat="48.68473" lon="1.94513">
        <ele>174</ele>
        <time>2025-07-04T12:37:49.810Z</time>
      </trkpt>
      <trkpt lat="48.68476" lon="1.94507">
        <ele>174</ele>
        <time>2025-07-04T12:37:53.864Z</time>
      </trkpt>
      <trkpt lat="48.6848" lon="1.945">
        <ele>174</ele>
        <time>2025-07-04T12:37:58.428Z</time>
      </trkpt>
      <trkpt lat="48.68483" lon="1.94494">
        <ele>174</ele>
        <time>2025-07-04T12:38:02.447Z</time>
      </trkpt>
      <trkpt lat="48.68486" lon="1.94488">
        <ele>174</ele>
        <time>2025-07-04T12:38:06.467Z</time>
      </trkpt>
      <trkpt lat="48.68488" lon="1.9448">
        <ele>176</ele>
        <time>2025-07-04T12:38:10.812Z</time>
      </trkpt>
      <trkpt lat="48.68491" lon="1.94472">
        <ele>176</ele>
        <time>2025-07-04T12:38:15.204Z</time>
      </trkpt>
      <trkpt lat="48.68493" lon="1.94465">
        <ele>176</ele>
        <time>2025-07-04T12:38:19.310Z</time>
      </trkpt>
      <trkpt lat="48.68496" lon="1.94458">
        <ele>176</ele>
        <time>2025-07-04T12:38:23.370Z</time>
      </trkpt>
      <trkpt lat="48.68497" lon="1.94453">
        <ele>176</ele>
        <time>2025-07-04T12:38:27.505Z</time>
      </trkpt>
      <trkpt lat="48.685" lon="1.94445">
        <ele>176</ele>
        <time>2025-07-04T12:38:32.269Z</time>
      </trkpt>
      <trkpt lat="48.68503" lon="1.94439">
        <ele>176</ele>
        <time>2025-07-04T12:38:36.289Z</time>
      </trkpt>
      <trkpt lat="48.68506" lon="1.94433">
        <ele>176</ele>
        <time>2025-07-04T12:38:40.307Z</time>
      </trkpt>
      <trkpt lat="48.6851" lon="1.94426">
        <ele>175</ele>
        <time>2025-07-04T12:38:44.806Z</time>
      </trkpt>
      <trkpt lat="48.68513" lon="1.94419">
        <ele>175</ele>
        <time>2025-07-04T12:38:49.327Z</time>
      </trkpt>
      <trkpt lat="48.68517" lon="1.94413">
        <ele>174</ele>
        <time>2025-07-04T12:38:53.507Z</time>
      </trkpt>
      <trkpt lat="48.6852" lon="1.94406">
        <ele>174</ele>
        <time>2025-07-04T12:38:57.988Z</time>
      </trkpt>
      <trkpt lat="48.68523" lon="1.94399">
        <ele>174</ele>
        <time>2025-07-04T12:39:02.383Z</time>
      </trkpt>
      <trkpt lat="48.68526" lon="1.94391">
        <ele>174</ele>
        <time>2025-07-04T12:39:06.787Z</time>
      </trkpt>
      <trkpt lat="48.68528" lon="1.94383">
        <ele>174</ele>
        <time>2025-07-04T12:39:11.103Z</time>
      </trkpt>
      <trkpt lat="48.68531" lon="1.94376">
        <ele>174</ele>
        <time>2025-07-04T12:39:15.505Z</time>
      </trkpt>
      <trkpt lat="48.68535" lon="1.94368">
        <ele>172</ele>
        <time>2025-07-04T12:39:19.986Z</time>
      </trkpt>
      <trkpt lat="48.68538" lon="1.94361">
        <ele>172</ele>
        <time>2025-07-04T12:39:24.364Z</time>
      </trkpt>
      <trkpt lat="48.6854" lon="1.94354">
        <ele>172</ele>
        <time>2025-07-04T12:39:28.789Z</time>
      </trkpt>
      <trkpt lat="48.68544" lon="1.94347">
        <ele>171</ele>
        <time>2025-07-04T12:39:33.007Z</time>
      </trkpt>
      <trkpt lat="48.68548" lon="1.9434">
        <ele>171</ele>
        <time>2025-07-04T12:39:37.504Z</time>
      </trkpt>
      <trkpt lat="48.6855" lon="1.94332">
        <ele>171</ele>
        <time>2025-07-04T12:39:41.967Z</time>
      </trkpt>
      <trkpt lat="48.68552" lon="1.94323">
        <ele>171</ele>
        <time>2025-07-04T12:39:46.449Z</time>
      </trkpt>
      <trkpt lat="48.68554" lon="1.94316">
        <ele>168</ele>
        <time>2025-07-04T12:39:51.028Z</time>
      </trkpt>
      <trkpt lat="48.68557" lon="1.94309">
        <ele>168</ele>
        <time>2025-07-04T12:39:55.408Z</time>
      </trkpt>
      <trkpt lat="48.6856" lon="1.94304">
        <ele>168</ele>
        <time>2025-07-04T12:39:59.886Z</time>
      </trkpt>
      <trkpt lat="48.68565" lon="1.943">
        <ele>168</ele>
        <time>2025-07-04T12:40:04.428Z</time>
      </trkpt>
      <trkpt lat="48.68565" lon="1.94293">
        <ele>168</ele>
        <time>2025-07-04T12:40:08.510Z</time>
      </trkpt>
      <trkpt lat="48.68563" lon="1.94287">
        <ele>163</ele>
        <time>2025-07-04T12:40:12.890Z</time>
      </trkpt>
      <trkpt lat="48.68562" lon="1.94281">
        <ele>163</ele>
        <time>2025-07-04T12:40:17.507Z</time>
      </trkpt>
      <trkpt lat="48.68561" lon="1.94275">
        <ele>163</ele>
        <time>2025-07-04T12:40:21.674Z</time>
      </trkpt>
      <trkpt lat="48.68562" lon="1.9427">
        <ele>163</ele>
        <time>2025-07-04T12:40:26.107Z</time>
      </trkpt>
      <trkpt lat="48.68565" lon="1.94268">
        <ele>163</ele>
        <time>2025-07-04T12:40:30.504Z</time>
      </trkpt>
      <trkpt lat="48.68565" lon="1.94269">
        <ele>163</ele>
        <time>2025-07-04T12:40:35.507Z</time>
      </trkpt>
      <trkpt lat="48.68565" lon="1.9427">
        <ele>163</ele>
        <time>2025-07-04T12:40:40.504Z</time>
      </trkpt>
      <trkpt lat="48.68566" lon="1.9427">
        <ele>163</ele>
        <time>2025-07-04T12:40:44.888Z</time>
      </trkpt>
      <trkpt lat="48.68569" lon="1.94265">
        <ele>163</ele>
        <time>2025-07-04T12:40:49.510Z</time>
      </trkpt>
      <trkpt lat="48.68572" lon="1.94261">
        <ele>169</ele>
        <time>2025-07-04T12:40:53.927Z</time>
      </trkpt>
      <trkpt lat="48.68576" lon="1.94261">
        <ele>169</ele>
        <time>2025-07-04T12:40:58.182Z</time>
      </trkpt>
      <trkpt lat="48.6858" lon="1.94262">
        <ele>169</ele>
        <time>2025-07-04T12:41:02.330Z</time>
      </trkpt>
      <trkpt lat="48.68582" lon="1.94258">
        <ele>169</ele>
        <time>2025-07-04T12:41:06.665Z</time>
      </trkpt>
      <trkpt lat="48.68584" lon="1.94251">
        <ele>169</ele>
        <time>2025-07-04T12:41:10.906Z</time>
      </trkpt>
      <trkpt lat="48.68587" lon="1.94242">
        <ele>169</ele>
        <time>2025-07-04T12:41:15.509Z</time>
      </trkpt>
      <trkpt lat="48.68589" lon="1.94235">
        <ele>170</ele>
        <time>2025-07-04T12:41:19.746Z</time>
      </trkpt>
      <trkpt lat="48.68591" lon="1.94225">
        <ele>170</ele>
        <time>2025-07-04T12:41:24.046Z</time>
      </trkpt>
      <trkpt lat="48.68594" lon="1.94218">
        <ele>170</ele>
        <time>2025-07-04T12:41:28.198Z</time>
      </trkpt>
      <trkpt lat="48.68596" lon="1.9421">
        <ele>170</ele>
        <time>2025-07-04T12:41:32.508Z</time>
      </trkpt>
      <trkpt lat="48.686" lon="1.94206">
        <ele>176</ele>
        <time>2025-07-04T12:41:36.967Z</time>
      </trkpt>
      <trkpt lat="48.68604" lon="1.94201">
        <ele>176</ele>
        <time>2025-07-04T12:41:41.370Z</time>
      </trkpt>
      <trkpt lat="48.68608" lon="1.94198">
        <ele>176</ele>
        <time>2025-07-04T12:41:45.803Z</time>
      </trkpt>
      <trkpt lat="48.68612" lon="1.94194">
        <ele>176</ele>
        <time>2025-07-04T12:41:50.210Z</time>
      </trkpt>
      <trkpt lat="48.68614" lon="1.94188">
        <ele>176</ele>
        <time>2025-07-04T12:41:54.795Z</time>
      </trkpt>
      <trkpt lat="48.68616" lon="1.94182">
        <ele>176</ele>
        <time>2025-07-04T12:41:59.348Z</time>
      </trkpt>
      <trkpt lat="48.68618" lon="1.94176">
        <ele>174</ele>
        <time>2025-07-04T12:42:04.017Z</time>
      </trkpt>
      <trkpt lat="48.6862" lon="1.9417">
        <ele>174</ele>
        <time>2025-07-04T12:42:08.232Z</time>
      </trkpt>
      <trkpt lat="48.68622" lon="1.94164">
        <ele>174</ele>
        <time>2025-07-04T12:42:12.293Z</time>
      </trkpt>
      <trkpt lat="48.68624" lon="1.94159">
        <ele>174</ele>
        <time>2025-07-04T12:42:16.833Z</time>
      </trkpt>
      <trkpt lat="48.68627" lon="1.94152">
        <ele>177</ele>
        <time>2025-07-04T12:42:21.271Z</time>
      </trkpt>
      <trkpt lat="48.68631" lon="1.94148">
        <ele>177</ele>
        <time>2025-07-04T12:42:25.676Z</time>
      </trkpt>
      <trkpt lat="48.68634" lon="1.94143">
        <ele>177</ele>
        <time>2025-07-04T12:42:29.916Z</time>
      </trkpt>
      <trkpt lat="48.68637" lon="1.94138">
        <ele>177</ele>
        <time>2025-07-04T12:42:34.157Z</time>
      </trkpt>
      <trkpt lat="48.68639" lon="1.94132">
        <ele>177</ele>
        <time>2025-07-04T12:42:38.413Z</time>
      </trkpt>
      <trkpt lat="48.68642" lon="1.94125">
        <ele>177</ele>
        <time>2025-07-04T12:42:42.508Z</time>
      </trkpt>
      <trkpt lat="48.68645" lon="1.94118">
        <ele>175</ele>
        <time>2025-07-04T12:42:47.169Z</time>
      </trkpt>
      <trkpt lat="48.68648" lon="1.94111">
        <ele>175</ele>
        <time>2025-07-04T12:42:51.213Z</time>
      </trkpt>
      <trkpt lat="48.6865" lon="1.94105">
        <ele>175</ele>
        <time>2025-07-04T12:42:55.251Z</time>
      </trkpt>
      <trkpt lat="48.68652" lon="1.94098">
        <ele>175</ele>
        <time>2025-07-04T12:42:59.696Z</time>
      </trkpt>
      <trkpt lat="48.68655" lon="1.94091">
        <ele>178</ele>
        <time>2025-07-04T12:43:04.133Z</time>
      </trkpt>
      <trkpt lat="48.68658" lon="1.94084">
        <ele>178</ele>
        <time>2025-07-04T12:43:08.136Z</time>
      </trkpt>
      <trkpt lat="48.68661" lon="1.94077">
        <ele>178</ele>
        <time>2025-07-04T12:43:12.507Z</time>
      </trkpt>
      <trkpt lat="48.68664" lon="1.94069">
        <ele>175</ele>
        <time>2025-07-04T12:43:17.129Z</time>
      </trkpt>
      <trkpt lat="48.68666" lon="1.94063">
        <ele>175</ele>
        <time>2025-07-04T12:43:21.233Z</time>
      </trkpt>
      <trkpt lat="48.68669" lon="1.94057">
        <ele>175</ele>
        <time>2025-07-04T12:43:25.492Z</time>
      </trkpt>
      <trkpt lat="48.68673" lon="1.94053">
        <ele>175</ele>
        <time>2025-07-04T12:43:29.493Z</time>
      </trkpt>
      <trkpt lat="48.68676" lon="1.94048">
        <ele>175</ele>
        <time>2025-07-04T12:43:33.506Z</time>
      </trkpt>
      <trkpt lat="48.68679" lon="1.94043">
        <ele>175</ele>
        <time>2025-07-04T12:43:37.508Z</time>
      </trkpt>
      <trkpt lat="48.68682" lon="1.94038">
        <ele>176</ele>
        <time>2025-07-04T12:43:41.833Z</time>
      </trkpt>
      <trkpt lat="48.68684" lon="1.94031">
        <ele>176</ele>
        <time>2025-07-04T12:43:45.989Z</time>
      </trkpt>
      <trkpt lat="48.68685" lon="1.94025">
        <ele>176</ele>
        <time>2025-07-04T12:43:50.196Z</time>
      </trkpt>
      <trkpt lat="48.68687" lon="1.94018">
        <ele>176</ele>
        <time>2025-07-04T12:43:54.274Z</time>
      </trkpt>
      <trkpt lat="48.6869" lon="1.94013">
        <ele>176</ele>
        <time>2025-07-04T12:43:58.801Z</time>
      </trkpt>
      <trkpt lat="48.68692" lon="1.94006">
        <ele>176</ele>
        <time>2025-07-04T12:44:03.328Z</time>
      </trkpt>
      <trkpt lat="48.68694" lon="1.94">
        <ele>176</ele>
        <time>2025-07-04T12:44:07.671Z</time>
      </trkpt>
      <trkpt lat="48.68696" lon="1.93993">
        <ele>176</ele>
        <time>2025-07-04T12:44:11.870Z</time>
      </trkpt>
      <trkpt lat="48.68698" lon="1.93988">
        <ele>176</ele>
        <time>2025-07-04T12:44:15.949Z</time>
      </trkpt>
      <trkpt lat="48.68702" lon="1.93983">
        <ele>175</ele>
        <time>2025-07-04T12:44:20.277Z</time>
      </trkpt>
      <trkpt lat="48.68705" lon="1.93977">
        <ele>175</ele>
        <time>2025-07-04T12:44:24.449Z</time>
      </trkpt>
      <trkpt lat="48.68707" lon="1.93971">
        <ele>175</ele>
        <time>2025-07-04T12:44:28.869Z</time>
      </trkpt>
      <trkpt lat="48.68711" lon="1.93967">
        <ele>178</ele>
        <time>2025-07-04T12:44:33.136Z</time>
      </trkpt>
      <trkpt lat="48.68714" lon="1.93962">
        <ele>178</ele>
        <time>2025-07-04T12:44:37.505Z</time>
      </trkpt>
      <trkpt lat="48.68717" lon="1.93957">
        <ele>175</ele>
        <time>2025-07-04T12:44:42.129Z</time>
      </trkpt>
      <trkpt lat="48.6872" lon="1.93951">
        <ele>175</ele>
        <time>2025-07-04T12:44:46.729Z</time>
      </trkpt>
      <trkpt lat="48.68722" lon="1.93945">
        <ele>175</ele>
        <time>2025-07-04T12:44:51.117Z</time>
      </trkpt>
      <trkpt lat="48.68725" lon="1.93939">
        <ele>175</ele>
        <time>2025-07-04T12:44:55.476Z</time>
      </trkpt>
      <trkpt lat="48.68724" lon="1.93921">
        <ele>173</ele>
        <time>2025-07-04T12:45:46.514Z</time>
      </trkpt>
      <trkpt lat="48.68719" lon="1.9392">
        <ele>173</ele>
        <time>2025-07-04T12:45:50.926Z</time>
      </trkpt>
      <trkpt lat="48.68715" lon="1.93922">
        <ele>173</ele>
        <time>2025-07-04T12:45:55.502Z</time>
      </trkpt>
      <trkpt lat="48.6871" lon="1.93922">
        <ele>173</ele>
        <time>2025-07-04T12:46:00.483Z</time>
      </trkpt>
      <trkpt lat="48.68707" lon="1.93923">
        <ele>171</ele>
        <time>2025-07-04T12:46:04.508Z</time>
      </trkpt>
      <trkpt lat="48.68706" lon="1.93923">
        <ele>171</ele>
        <time>2025-07-04T12:46:22.503Z</time>
      </trkpt>
      <trkpt lat="48.68706" lon="1.93923">
        <ele>171</ele>
        <time>2025-07-04T12:46:46.504Z</time>
      </trkpt>
      <trkpt lat="48.68701" lon="1.93922">
        <ele>171</ele>
        <time>2025-07-04T12:46:51.504Z</time>
      </trkpt>
      <trkpt lat="48.68697" lon="1.93919">
        <ele>171</ele>
        <time>2025-07-04T12:46:56.029Z</time>
      </trkpt>
      <trkpt lat="48.68692" lon="1.93917">
        <ele>171</ele>
        <time>2025-07-04T12:47:00.466Z</time>
      </trkpt>
      <trkpt lat="48.68688" lon="1.93914">
        <ele>171</ele>
        <time>2025-07-04T12:47:04.503Z</time>
      </trkpt>
      <trkpt lat="48.68683" lon="1.93913">
        <ele>171</ele>
        <time>2025-07-04T12:47:09.203Z</time>
      </trkpt>
      <trkpt lat="48.68678" lon="1.93912">
        <ele>169</ele>
        <time>2025-07-04T12:47:13.266Z</time>
      </trkpt>
      <trkpt lat="48.68673" lon="1.9391">
        <ele>169</ele>
        <time>2025-07-04T12:47:17.848Z</time>
      </trkpt>
      <trkpt lat="48.68669" lon="1.93906">
        <ele>169</ele>
        <time>2025-07-04T12:47:22.081Z</time>
      </trkpt>
      <trkpt lat="48.68664" lon="1.93903">
        <ele>169</ele>
        <time>2025-07-04T12:47:26.663Z</time>
      </trkpt>
      <trkpt lat="48.68659" lon="1.93901">
        <ele>167</ele>
        <time>2025-07-04T12:47:30.709Z</time>
      </trkpt>
      <trkpt lat="48.68655" lon="1.93898">
        <ele>167</ele>
        <time>2025-07-04T12:47:35.282Z</time>
      </trkpt>
      <trkpt lat="48.68649" lon="1.93895">
        <ele>168</ele>
        <time>2025-07-04T12:47:39.702Z</time>
      </trkpt>
      <trkpt lat="48.68644" lon="1.93892">
        <ele>168</ele>
        <time>2025-07-04T12:47:44.226Z</time>
      </trkpt>
      <trkpt lat="48.68639" lon="1.93891">
        <ele>168</ele>
        <time>2025-07-04T12:47:48.322Z</time>
      </trkpt>
      <trkpt lat="48.68635" lon="1.93892">
        <ele>168</ele>
        <time>2025-07-04T12:47:52.501Z</time>
      </trkpt>
      <trkpt lat="48.6863" lon="1.93892">
        <ele>168</ele>
        <time>2025-07-04T12:47:56.907Z</time>
      </trkpt>
      <trkpt lat="48.68626" lon="1.93894">
        <ele>168</ele>
        <time>2025-07-04T12:48:01.327Z</time>
      </trkpt>
      <trkpt lat="48.68624" lon="1.93895">
        <ele>167</ele>
        <time>2025-07-04T12:48:05.508Z</time>
      </trkpt>
      <trkpt lat="48.68622" lon="1.93895">
        <ele>167</ele>
        <time>2025-07-04T12:48:10.108Z</time>
      </trkpt>
      <trkpt lat="48.68617" lon="1.93898">
        <ele>167</ele>
        <time>2025-07-04T12:48:14.128Z</time>
      </trkpt>
      <trkpt lat="48.68613" lon="1.93904">
        <ele>167</ele>
        <time>2025-07-04T12:48:18.502Z</time>
      </trkpt>
      <trkpt lat="48.68608" lon="1.93907">
        <ele>167</ele>
        <time>2025-07-04T12:48:23.181Z</time>
      </trkpt>
      <trkpt lat="48.68603" lon="1.9391">
        <ele>167</ele>
        <time>2025-07-04T12:48:27.782Z</time>
      </trkpt>
      <trkpt lat="48.68599" lon="1.93914">
        <ele>167</ele>
        <time>2025-07-04T12:48:32.087Z</time>
      </trkpt>
      <trkpt lat="48.68593" lon="1.93916">
        <ele>165</ele>
        <time>2025-07-04T12:48:36.306Z</time>
      </trkpt>
      <trkpt lat="48.68587" lon="1.93918">
        <ele>165</ele>
        <time>2025-07-04T12:48:40.640Z</time>
      </trkpt>
      <trkpt lat="48.68582" lon="1.9392">
        <ele>165</ele>
        <time>2025-07-04T12:48:44.702Z</time>
      </trkpt>
      <trkpt lat="48.68577" lon="1.93919">
        <ele>165</ele>
        <time>2025-07-04T12:48:49.167Z</time>
      </trkpt>
      <trkpt lat="48.68572" lon="1.93923">
        <ele>165</ele>
        <time>2025-07-04T12:48:53.201Z</time>
      </trkpt>
      <trkpt lat="48.68567" lon="1.93929">
        <ele>162</ele>
        <time>2025-07-04T12:48:58.168Z</time>
      </trkpt>
      <trkpt lat="48.68563" lon="1.93934">
        <ele>163</ele>
        <time>2025-07-04T12:49:02.726Z</time>
      </trkpt>
      <trkpt lat="48.68558" lon="1.93938">
        <ele>163</ele>
        <time>2025-07-04T12:49:07.072Z</time>
      </trkpt>
      <trkpt lat="48.68554" lon="1.93942">
        <ele>163</ele>
        <time>2025-07-04T12:49:11.326Z</time>
      </trkpt>
      <trkpt lat="48.6855" lon="1.93947">
        <ele>163</ele>
        <time>2025-07-04T12:49:15.406Z</time>
      </trkpt>
      <trkpt lat="48.68546" lon="1.93954">
        <ele>163</ele>
        <time>2025-07-04T12:49:20.048Z</time>
      </trkpt>
      <trkpt lat="48.68542" lon="1.93959">
        <ele>163</ele>
        <time>2025-07-04T12:49:24.506Z</time>
      </trkpt>
      <trkpt lat="48.68539" lon="1.93966">
        <ele>161</ele>
        <time>2025-07-04T12:49:29.222Z</time>
      </trkpt>
      <trkpt lat="48.68536" lon="1.93971">
        <ele>161</ele>
        <time>2025-07-04T12:49:33.667Z</time>
      </trkpt>
      <trkpt lat="48.68533" lon="1.93977">
        <ele>161</ele>
        <time>2025-07-04T12:49:38.121Z</time>
      </trkpt>
      <trkpt lat="48.68529" lon="1.93983">
        <ele>161</ele>
        <time>2025-07-04T12:49:43.121Z</time>
      </trkpt>
      <trkpt lat="48.68524" lon="1.93987">
        <ele>162</ele>
        <time>2025-07-04T12:49:47.515Z</time>
      </trkpt>
      <trkpt lat="48.68519" lon="1.93992">
        <ele>162</ele>
        <time>2025-07-04T12:49:52.124Z</time>
      </trkpt>
      <trkpt lat="48.68513" lon="1.93995">
        <ele>160</ele>
        <time>2025-07-04T12:49:56.143Z</time>
      </trkpt>
      <trkpt lat="48.68508" lon="1.93997">
        <ele>160</ele>
        <time>2025-07-04T12:50:00.511Z</time>
      </trkpt>
      <trkpt lat="48.68502" lon="1.94">
        <ele>160</ele>
        <time>2025-07-04T12:50:05.087Z</time>
      </trkpt>
      <trkpt lat="48.68499" lon="1.94004">
        <ele>160</ele>
        <time>2025-07-04T12:50:09.107Z</time>
      </trkpt>
      <trkpt lat="48.68494" lon="1.94008">
        <ele>160</ele>
        <time>2025-07-04T12:50:13.503Z</time>
      </trkpt>
      <trkpt lat="48.68489" lon="1.9401">
        <ele>160</ele>
        <time>2025-07-04T12:50:17.622Z</time>
      </trkpt>
      <trkpt lat="48.68485" lon="1.94015">
        <ele>158</ele>
        <time>2025-07-04T12:50:21.922Z</time>
      </trkpt>
      <trkpt lat="48.68482" lon="1.94021">
        <ele>158</ele>
        <time>2025-07-04T12:50:26.207Z</time>
      </trkpt>
      <trkpt lat="48.6848" lon="1.94027">
        <ele>158</ele>
        <time>2025-07-04T12:50:30.505Z</time>
      </trkpt>
      <trkpt lat="48.68477" lon="1.94033">
        <ele>158</ele>
        <time>2025-07-04T12:50:35.506Z</time>
      </trkpt>
      <trkpt lat="48.68472" lon="1.94032">
        <ele>158</ele>
        <time>2025-07-04T12:53:33.504Z</time>
      </trkpt>
      <trkpt lat="48.6847" lon="1.9403">
        <ele>158</ele>
        <time>2025-07-04T12:53:37.504Z</time>
      </trkpt>
      <trkpt lat="48.6847" lon="1.94027">
        <ele>158</ele>
        <time>2025-07-04T12:53:42.079Z</time>
      </trkpt>
      <trkpt lat="48.68471" lon="1.9402">
        <ele>158</ele>
        <time>2025-07-04T12:53:46.384Z</time>
      </trkpt>
      <trkpt lat="48.68473" lon="1.94015">
        <ele>158</ele>
        <time>2025-07-04T12:53:50.668Z</time>
      </trkpt>
      <trkpt lat="48.68477" lon="1.94014">
        <ele>158</ele>
        <time>2025-07-04T12:53:54.688Z</time>
      </trkpt>
      <trkpt lat="48.68482" lon="1.94012">
        <ele>154</ele>
        <time>2025-07-04T12:53:58.947Z</time>
      </trkpt>
      <trkpt lat="48.68483" lon="1.94006">
        <ele>154</ele>
        <time>2025-07-04T12:54:03.263Z</time>
      </trkpt>
      <trkpt lat="48.68482" lon="1.93999">
        <ele>154</ele>
        <time>2025-07-04T12:54:07.506Z</time>
      </trkpt>
      <trkpt lat="48.68479" lon="1.93995">
        <ele>154</ele>
        <time>2025-07-04T12:54:12.184Z</time>
      </trkpt>
      <trkpt lat="48.68475" lon="1.93993">
        <ele>154</ele>
        <time>2025-07-04T12:54:16.327Z</time>
      </trkpt>
      <trkpt lat="48.68473" lon="1.9399">
        <ele>154</ele>
        <time>2025-07-04T12:54:20.347Z</time>
      </trkpt>
      <trkpt lat="48.68471" lon="1.9399">
        <ele>154</ele>
        <time>2025-07-04T12:54:25.407Z</time>
      </trkpt>
      <trkpt lat="48.68468" lon="1.93988">
        <ele>154</ele>
        <time>2025-07-04T12:54:29.504Z</time>
      </trkpt>
      <trkpt lat="48.68467" lon="1.93988">
        <ele>154</ele>
        <time>2025-07-04T12:54:34.503Z</time>
      </trkpt>
      <trkpt lat="48.68465" lon="1.93986">
        <ele>154</ele>
        <time>2025-07-04T12:54:38.966Z</time>
      </trkpt>
      <trkpt lat="48.68462" lon="1.93982">
        <ele>148</ele>
        <time>2025-07-04T12:54:43.403Z</time>
      </trkpt>
      <trkpt lat="48.6846" lon="1.93987">
        <ele>154</ele>
        <time>2025-07-04T12:54:47.661Z</time>
      </trkpt>
      <trkpt lat="48.68456" lon="1.93988">
        <ele>145</ele>
        <time>2025-07-04T12:54:51.948Z</time>
      </trkpt>
      <trkpt lat="48.68452" lon="1.93989">
        <ele>145</ele>
        <time>2025-07-04T12:54:56.503Z</time>
      </trkpt>
      <trkpt lat="48.6845" lon="1.93988">
        <ele>145</ele>
        <time>2025-07-04T12:55:00.504Z</time>
      </trkpt>
      <trkpt lat="48.68447" lon="1.93984">
        <ele>141</ele>
        <time>2025-07-04T12:55:05.189Z</time>
      </trkpt>
      <trkpt lat="48.68444" lon="1.93984">
        <ele>141</ele>
        <time>2025-07-04T12:55:09.505Z</time>
      </trkpt>
      <trkpt lat="48.68443" lon="1.93987">
        <ele>145</ele>
        <time>2025-07-04T12:55:14.505Z</time>
      </trkpt>
      <trkpt lat="48.68441" lon="1.9398">
        <ele>141</ele>
        <time>2025-07-04T12:55:33.505Z</time>
      </trkpt>
      <trkpt lat="48.68444" lon="1.93974">
        <ele>141</ele>
        <time>2025-07-04T12:55:37.963Z</time>
      </trkpt>
      <trkpt lat="48.68449" lon="1.93968">
        <ele>141</ele>
        <time>2025-07-04T12:55:42.384Z</time>
      </trkpt>
      <trkpt lat="48.68453" lon="1.93965">
        <ele>141</ele>
        <time>2025-07-04T12:55:46.504Z</time>
      </trkpt>
      <trkpt lat="48.68454" lon="1.93959">
        <ele>141</ele>
        <time>2025-07-04T12:55:51.087Z</time>
      </trkpt>
      <trkpt lat="48.68453" lon="1.93956">
        <ele>136</ele>
        <time>2025-07-04T12:56:07.108Z</time>
      </trkpt>
      <trkpt lat="48.68455" lon="1.93953">
        <ele>136</ele>
        <time>2025-07-04T12:56:11.363Z</time>
      </trkpt>
      <trkpt lat="48.68457" lon="1.9395">
        <ele>136</ele>
        <time>2025-07-04T12:56:15.501Z</time>
      </trkpt>
      <trkpt lat="48.6846" lon="1.93947">
        <ele>143</ele>
        <time>2025-07-04T12:56:20.504Z</time>
      </trkpt>
      <trkpt lat="48.68461" lon="1.93945">
        <ele>143</ele>
        <time>2025-07-04T12:56:25.508Z</time>
      </trkpt>
      <trkpt lat="48.68458" lon="1.93945">
        <ele>136</ele>
        <time>2025-07-04T12:56:42.025Z</time>
      </trkpt>
      <trkpt lat="48.68459" lon="1.93939">
        <ele>143</ele>
        <time>2025-07-04T12:56:46.367Z</time>
      </trkpt>
      <trkpt lat="48.68461" lon="1.93931">
        <ele>143</ele>
        <time>2025-07-04T12:56:51.087Z</time>
      </trkpt>
      <trkpt lat="48.68462" lon="1.93925">
        <ele>139</ele>
        <time>2025-07-04T12:56:55.503Z</time>
      </trkpt>
      <trkpt lat="48.68465" lon="1.9392">
        <ele>139</ele>
        <time>2025-07-04T12:57:00.284Z</time>
      </trkpt>
      <trkpt lat="48.68467" lon="1.93918">
        <ele>139</ele>
        <time>2025-07-04T12:57:04.439Z</time>
      </trkpt>
      <trkpt lat="48.6847" lon="1.93916">
        <ele>139</ele>
        <time>2025-07-04T12:57:08.503Z</time>
      </trkpt>
      <trkpt lat="48.68473" lon="1.93914">
        <ele>139</ele>
        <time>2025-07-04T12:57:12.507Z</time>
      </trkpt>
      <trkpt lat="48.68475" lon="1.9391">
        <ele>139</ele>
        <time>2025-07-04T12:57:17.060Z</time>
      </trkpt>
      <trkpt lat="48.68478" lon="1.93907">
        <ele>139</ele>
        <time>2025-07-04T12:57:21.242Z</time>
      </trkpt>
      <trkpt lat="48.68481" lon="1.93904">
        <ele>139</ele>
        <time>2025-07-04T12:57:25.507Z</time>
      </trkpt>
      <trkpt lat="48.68484" lon="1.93901">
        <ele>136</ele>
        <time>2025-07-04T12:57:29.804Z</time>
      </trkpt>
      <trkpt lat="48.68487" lon="1.939">
        <ele>144</ele>
        <time>2025-07-04T12:57:33.847Z</time>
      </trkpt>
      <trkpt lat="48.68491" lon="1.93897">
        <ele>144</ele>
        <time>2025-07-04T12:57:37.984Z</time>
      </trkpt>
      <trkpt lat="48.68493" lon="1.93895">
        <ele>144</ele>
        <time>2025-07-04T12:57:42.140Z</time>
      </trkpt>
      <trkpt lat="48.68496" lon="1.9389">
        <ele>144</ele>
        <time>2025-07-04T12:57:46.842Z</time>
      </trkpt>
      <trkpt lat="48.68499" lon="1.93888">
        <ele>144</ele>
        <time>2025-07-04T12:57:51.082Z</time>
      </trkpt>
      <trkpt lat="48.68503" lon="1.93888">
        <ele>144</ele>
        <time>2025-07-04T12:57:55.367Z</time>
      </trkpt>
      <trkpt lat="48.68506" lon="1.93888">
        <ele>144</ele>
        <time>2025-07-04T12:57:59.505Z</time>
      </trkpt>
      <trkpt lat="48.68509" lon="1.93885">
        <ele>144</ele>
        <time>2025-07-04T12:58:03.704Z</time>
      </trkpt>
      <trkpt lat="48.68511" lon="1.93882">
        <ele>144</ele>
        <time>2025-07-04T12:58:07.744Z</time>
      </trkpt>
      <trkpt lat="48.68515" lon="1.93881">
        <ele>151</ele>
        <time>2025-07-04T12:58:11.830Z</time>
      </trkpt>
      <trkpt lat="48.68519" lon="1.9388">
        <ele>151</ele>
        <time>2025-07-04T12:58:16.282Z</time>
      </trkpt>
      <trkpt lat="48.68523" lon="1.93878">
        <ele>151</ele>
        <time>2025-07-04T12:58:20.498Z</time>
      </trkpt>
      <trkpt lat="48.68526" lon="1.93873">
        <ele>146</ele>
        <time>2025-07-04T12:58:25.003Z</time>
      </trkpt>
      <trkpt lat="48.68528" lon="1.93869">
        <ele>146</ele>
        <time>2025-07-04T12:58:29.380Z</time>
      </trkpt>
      <trkpt lat="48.6853" lon="1.93862">
        <ele>146</ele>
        <time>2025-07-04T12:58:33.442Z</time>
      </trkpt>
      <trkpt lat="48.68532" lon="1.93857">
        <ele>146</ele>
        <time>2025-07-04T12:58:37.502Z</time>
      </trkpt>
      <trkpt lat="48.68536" lon="1.93852">
        <ele>146</ele>
        <time>2025-07-04T12:58:42.060Z</time>
      </trkpt>
      <trkpt lat="48.68538" lon="1.93848">
        <ele>146</ele>
        <time>2025-07-04T12:58:46.501Z</time>
      </trkpt>
      <trkpt lat="48.68539" lon="1.93843">
        <ele>140</ele>
        <time>2025-07-04T12:58:50.986Z</time>
      </trkpt>
      <trkpt lat="48.68542" lon="1.93838">
        <ele>149</ele>
        <time>2025-07-04T12:58:55.467Z</time>
      </trkpt>
      <trkpt lat="48.68545" lon="1.93833">
        <ele>149</ele>
        <time>2025-07-04T12:58:59.499Z</time>
      </trkpt>
      <trkpt lat="48.68548" lon="1.93827">
        <ele>149</ele>
        <time>2025-07-04T12:59:04.426Z</time>
      </trkpt>
      <trkpt lat="48.68552" lon="1.93822">
        <ele>149</ele>
        <time>2025-07-04T12:59:09.001Z</time>
      </trkpt>
      <trkpt lat="48.68556" lon="1.93819">
        <ele>144</ele>
        <time>2025-07-04T12:59:13.343Z</time>
      </trkpt>
      <trkpt lat="48.68559" lon="1.9382">
        <ele>149</ele>
        <time>2025-07-04T12:59:17.742Z</time>
      </trkpt>
      <trkpt lat="48.68562" lon="1.93817">
        <ele>144</ele>
        <time>2025-07-04T12:59:22.006Z</time>
      </trkpt>
      <trkpt lat="48.68566" lon="1.93813">
        <ele>144</ele>
        <time>2025-07-04T12:59:26.486Z</time>
      </trkpt>
      <trkpt lat="48.68568" lon="1.93808">
        <ele>144</ele>
        <time>2025-07-04T12:59:30.501Z</time>
      </trkpt>
      <trkpt lat="48.68571" lon="1.93803">
        <ele>151</ele>
        <time>2025-07-04T12:59:35.183Z</time>
      </trkpt>
      <trkpt lat="48.68574" lon="1.93796">
        <ele>151</ele>
        <time>2025-07-04T12:59:39.421Z</time>
      </trkpt>
      <trkpt lat="48.68578" lon="1.93792">
        <ele>151</ele>
        <time>2025-07-04T12:59:43.928Z</time>
      </trkpt>
      <trkpt lat="48.68583" lon="1.93788">
        <ele>147</ele>
        <time>2025-07-04T12:59:48.467Z</time>
      </trkpt>
      <trkpt lat="48.68587" lon="1.93785">
        <ele>147</ele>
        <time>2025-07-04T12:59:52.843Z</time>
      </trkpt>
      <trkpt lat="48.68592" lon="1.93782">
        <ele>147</ele>
        <time>2025-07-04T12:59:57.508Z</time>
      </trkpt>
      <trkpt lat="48.68597" lon="1.93778">
        <ele>147</ele>
        <time>2025-07-04T13:00:02.502Z</time>
      </trkpt>
      <trkpt lat="48.686" lon="1.93773">
        <ele>151</ele>
        <time>2025-07-04T13:00:07Z</time>
      </trkpt>
      <trkpt lat="48.68599" lon="1.93767">
        <ele>151</ele>
        <time>2025-07-04T13:00:11.464Z</time>
      </trkpt>
      <trkpt lat="48.68597" lon="1.93759">
        <ele>145</ele>
        <time>2025-07-04T13:00:15.502Z</time>
      </trkpt>
      <trkpt lat="48.68596" lon="1.93751">
        <ele>145</ele>
        <time>2025-07-04T13:00:20.007Z</time>
      </trkpt>
      <trkpt lat="48.68592" lon="1.93746">
        <ele>145</ele>
        <time>2025-07-04T13:00:24.400Z</time>
      </trkpt>
      <trkpt lat="48.68589" lon="1.93742">
        <ele>145</ele>
        <time>2025-07-04T13:00:28.499Z</time>
      </trkpt>
      <trkpt lat="48.68585" lon="1.93739">
        <ele>145</ele>
        <time>2025-07-04T13:00:32.807Z</time>
      </trkpt>
      <trkpt lat="48.68581" lon="1.93738">
        <ele>145</ele>
        <time>2025-07-04T13:00:36.962Z</time>
      </trkpt>
      <trkpt lat="48.68578" lon="1.93736">
        <ele>145</ele>
        <time>2025-07-04T13:00:41.306Z</time>
      </trkpt>
      <trkpt lat="48.68574" lon="1.93735">
        <ele>143</ele>
        <time>2025-07-04T13:00:45.341Z</time>
      </trkpt>
      <trkpt lat="48.6857" lon="1.93734">
        <ele>143</ele>
        <time>2025-07-04T13:00:49.607Z</time>
      </trkpt>
      <trkpt lat="48.68566" lon="1.93733">
        <ele>138</ele>
        <time>2025-07-04T13:00:53.987Z</time>
      </trkpt>
      <trkpt lat="48.6856" lon="1.93731">
        <ele>138</ele>
        <time>2025-07-04T13:00:58.346Z</time>
      </trkpt>
      <trkpt lat="48.68558" lon="1.93725">
        <ele>138</ele>
        <time>2025-07-04T13:01:02.502Z</time>
      </trkpt>
      <trkpt lat="48.68559" lon="1.93716">
        <ele>138</ele>
        <time>2025-07-04T13:01:06.802Z</time>
      </trkpt>
      <trkpt lat="48.68558" lon="1.93708">
        <ele>138</ele>
        <time>2025-07-04T13:01:11.102Z</time>
      </trkpt>
      <trkpt lat="48.68555" lon="1.93704">
        <ele>135</ele>
        <time>2025-07-04T13:01:15.480Z</time>
      </trkpt>
      <trkpt lat="48.6855" lon="1.93707">
        <ele>135</ele>
        <time>2025-07-04T13:01:19.928Z</time>
      </trkpt>
      <trkpt lat="48.68545" lon="1.93708">
        <ele>135</ele>
        <time>2025-07-04T13:01:24.346Z</time>
      </trkpt>
      <trkpt lat="48.68541" lon="1.9371">
        <ele>133</ele>
        <time>2025-07-04T13:01:28.502Z</time>
      </trkpt>
      <trkpt lat="48.68537" lon="1.93714">
        <ele>133</ele>
        <time>2025-07-04T13:01:32.666Z</time>
      </trkpt>
      <trkpt lat="48.68533" lon="1.93717">
        <ele>133</ele>
        <time>2025-07-04T13:01:37.146Z</time>
      </trkpt>
      <trkpt lat="48.68529" lon="1.93717">
        <ele>133</ele>
        <time>2025-07-04T13:01:41.503Z</time>
      </trkpt>
      <trkpt lat="48.68524" lon="1.93715">
        <ele>133</ele>
        <time>2025-07-04T13:01:45.928Z</time>
      </trkpt>
      <trkpt lat="48.68519" lon="1.93716">
        <ele>133</ele>
        <time>2025-07-04T13:01:49.980Z</time>
      </trkpt>
      <trkpt lat="48.68515" lon="1.93718">
        <ele>133</ele>
        <time>2025-07-04T13:01:54.506Z</time>
      </trkpt>
      <trkpt lat="48.68512" lon="1.93718">
        <ele>127</ele>
        <time>2025-07-04T13:01:58.906Z</time>
      </trkpt>
      <trkpt lat="48.6851" lon="1.93713">
        <ele>127</ele>
        <time>2025-07-04T13:02:02.944Z</time>
      </trkpt>
      <trkpt lat="48.6851" lon="1.93708">
        <ele>125</ele>
        <time>2025-07-04T13:02:07.502Z</time>
      </trkpt>
      <trkpt lat="48.68507" lon="1.93699">
        <ele>125</ele>
        <time>2025-07-04T13:02:11.739Z</time>
      </trkpt>
      <trkpt lat="48.68508" lon="1.93696">
        <ele>125</ele>
        <time>2025-07-04T13:02:16.181Z</time>
      </trkpt>
      <trkpt lat="48.68508" lon="1.93688">
        <ele>125</ele>
        <time>2025-07-04T13:03:35.639Z</time>
      </trkpt>
      <trkpt lat="48.6851" lon="1.93687">
        <ele>125</ele>
        <time>2025-07-04T13:03:40.507Z</time>
      </trkpt>
      <trkpt lat="48.6851" lon="1.93686">
        <ele>125</ele>
        <time>2025-07-04T13:03:46.500Z</time>
      </trkpt>
      <trkpt lat="48.68511" lon="1.93686">
        <ele>125</ele>
        <time>2025-07-04T13:03:51.258Z</time>
      </trkpt>
      <trkpt lat="48.68512" lon="1.93683">
        <ele>125</ele>
        <time>2025-07-04T13:03:55.457Z</time>
      </trkpt>
      <trkpt lat="48.68513" lon="1.93676">
        <ele>125</ele>
        <time>2025-07-04T13:03:59.501Z</time>
      </trkpt>
      <trkpt lat="48.68515" lon="1.93669">
        <ele>127</ele>
        <time>2025-07-04T13:04:04.138Z</time>
      </trkpt>
      <trkpt lat="48.68516" lon="1.93663">
        <ele>127</ele>
        <time>2025-07-04T13:04:08.784Z</time>
      </trkpt>
      <trkpt lat="48.68516" lon="1.93656">
        <ele>127</ele>
        <time>2025-07-04T13:04:13.303Z</time>
      </trkpt>
      <trkpt lat="48.68517" lon="1.9365">
        <ele>127</ele>
        <time>2025-07-04T13:04:17.499Z</time>
      </trkpt>
      <trkpt lat="48.6852" lon="1.93645">
        <ele>127</ele>
        <time>2025-07-04T13:04:22.238Z</time>
      </trkpt>
      <trkpt lat="48.68523" lon="1.93639">
        <ele>127</ele>
        <time>2025-07-04T13:04:26.258Z</time>
      </trkpt>
      <trkpt lat="48.68525" lon="1.93633">
        <ele>127</ele>
        <time>2025-07-04T13:04:30.502Z</time>
      </trkpt>
      <trkpt lat="48.68527" lon="1.93627">
        <ele>127</ele>
        <time>2025-07-04T13:04:34.509Z</time>
      </trkpt>
      <trkpt lat="48.68531" lon="1.93621">
        <ele>126</ele>
        <time>2025-07-04T13:04:39.138Z</time>
      </trkpt>
      <trkpt lat="48.68532" lon="1.93614">
        <ele>126</ele>
        <time>2025-07-04T13:04:43.336Z</time>
      </trkpt>
      <trkpt lat="48.68536" lon="1.93608">
        <ele>126</ele>
        <time>2025-07-04T13:04:47.901Z</time>
      </trkpt>
      <trkpt lat="48.6854" lon="1.93602">
        <ele>126</ele>
        <time>2025-07-04T13:04:52.381Z</time>
      </trkpt>
      <trkpt lat="48.68545" lon="1.93598">
        <ele>129</ele>
        <time>2025-07-04T13:04:56.938Z</time>
      </trkpt>
      <trkpt lat="48.6855" lon="1.93593">
        <ele>127</ele>
        <time>2025-07-04T13:05:01.511Z</time>
      </trkpt>
      <trkpt lat="48.68554" lon="1.93586">
        <ele>127</ele>
        <time>2025-07-04T13:05:06.121Z</time>
      </trkpt>
      <trkpt lat="48.68557" lon="1.93579">
        <ele>127</ele>
        <time>2025-07-04T13:05:10.320Z</time>
      </trkpt>
      <trkpt lat="48.68559" lon="1.93572">
        <ele>127</ele>
        <time>2025-07-04T13:05:14.459Z</time>
      </trkpt>
      <trkpt lat="48.6856" lon="1.93564">
        <ele>125</ele>
        <time>2025-07-04T13:05:18.880Z</time>
      </trkpt>
      <trkpt lat="48.6856" lon="1.93557">
        <ele>125</ele>
        <time>2025-07-04T13:05:23.405Z</time>
      </trkpt>
      <trkpt lat="48.68562" lon="1.93549">
        <ele>125</ele>
        <time>2025-07-04T13:05:27.857Z</time>
      </trkpt>
      <trkpt lat="48.68563" lon="1.93541">
        <ele>124</ele>
        <time>2025-07-04T13:05:32.321Z</time>
      </trkpt>
      <trkpt lat="48.68565" lon="1.93532">
        <ele>124</ele>
        <time>2025-07-04T13:05:36.796Z</time>
      </trkpt>
      <trkpt lat="48.68566" lon="1.93524">
        <ele>124</ele>
        <time>2025-07-04T13:05:41Z</time>
      </trkpt>
      <trkpt lat="48.68567" lon="1.93516">
        <ele>124</ele>
        <time>2025-07-04T13:05:45.324Z</time>
      </trkpt>
      <trkpt lat="48.68568" lon="1.93509">
        <ele>125</ele>
        <time>2025-07-04T13:05:49.482Z</time>
      </trkpt>
      <trkpt lat="48.68569" lon="1.93501">
        <ele>125</ele>
        <time>2025-07-04T13:05:53.835Z</time>
      </trkpt>
      <trkpt lat="48.68569" lon="1.93494">
        <ele>128</ele>
        <time>2025-07-04T13:05:58.315Z</time>
      </trkpt>
      <trkpt lat="48.68571" lon="1.93488">
        <ele>128</ele>
        <time>2025-07-04T13:06:02.677Z</time>
      </trkpt>
      <trkpt lat="48.68574" lon="1.93482">
        <ele>128</ele>
        <time>2025-07-04T13:06:06.918Z</time>
      </trkpt>
      <trkpt lat="48.68577" lon="1.93477">
        <ele>128</ele>
        <time>2025-07-04T13:06:11.160Z</time>
      </trkpt>
      <trkpt lat="48.68581" lon="1.93472">
        <ele>128</ele>
        <time>2025-07-04T13:06:15.461Z</time>
      </trkpt>
      <trkpt lat="48.68585" lon="1.93467">
        <ele>128</ele>
        <time>2025-07-04T13:06:19.675Z</time>
      </trkpt>
      <trkpt lat="48.68588" lon="1.93462">
        <ele>128</ele>
        <time>2025-07-04T13:06:23.960Z</time>
      </trkpt>
      <trkpt lat="48.68592" lon="1.93458">
        <ele>129</ele>
        <time>2025-07-04T13:06:28.025Z</time>
      </trkpt>
      <trkpt lat="48.68596" lon="1.93453">
        <ele>129</ele>
        <time>2025-07-04T13:06:32.500Z</time>
      </trkpt>
      <trkpt lat="48.68599" lon="1.93447">
        <ele>133</ele>
        <time>2025-07-04T13:06:37.120Z</time>
      </trkpt>
      <trkpt lat="48.68602" lon="1.93443">
        <ele>133</ele>
        <time>2025-07-04T13:06:41.301Z</time>
      </trkpt>
      <trkpt lat="48.68605" lon="1.93438">
        <ele>133</ele>
        <time>2025-07-04T13:06:46.005Z</time>
      </trkpt>
      <trkpt lat="48.68608" lon="1.93434">
        <ele>133</ele>
        <time>2025-07-04T13:06:50.099Z</time>
      </trkpt>
      <trkpt lat="48.6861" lon="1.93428">
        <ele>132</ele>
        <time>2025-07-04T13:06:54.478Z</time>
      </trkpt>
      <trkpt lat="48.68612" lon="1.93423">
        <ele>132</ele>
        <time>2025-07-04T13:06:58.503Z</time>
      </trkpt>
      <trkpt lat="48.68614" lon="1.93419">
        <ele>132</ele>
        <time>2025-07-04T13:07:02.501Z</time>
      </trkpt>
      <trkpt lat="48.68616" lon="1.93414">
        <ele>132</ele>
        <time>2025-07-04T13:07:06.877Z</time>
      </trkpt>
      <trkpt lat="48.68619" lon="1.93409">
        <ele>132</ele>
        <time>2025-07-04T13:07:11.256Z</time>
      </trkpt>
      <trkpt lat="48.68621" lon="1.93404">
        <ele>132</ele>
        <time>2025-07-04T13:07:15.359Z</time>
      </trkpt>
      <trkpt lat="48.68624" lon="1.93399">
        <ele>132</ele>
        <time>2025-07-04T13:07:19.421Z</time>
      </trkpt>
      <trkpt lat="48.68627" lon="1.93395">
        <ele>136</ele>
        <time>2025-07-04T13:07:23.782Z</time>
      </trkpt>
      <trkpt lat="48.68631" lon="1.93391">
        <ele>136</ele>
        <time>2025-07-04T13:07:27.955Z</time>
      </trkpt>
      <trkpt lat="48.68635" lon="1.93388">
        <ele>136</ele>
        <time>2025-07-04T13:07:32.045Z</time>
      </trkpt>
      <trkpt lat="48.68639" lon="1.93385">
        <ele>136</ele>
        <time>2025-07-04T13:07:36.096Z</time>
      </trkpt>
      <trkpt lat="48.68643" lon="1.93382">
        <ele>136</ele>
        <time>2025-07-04T13:07:40.142Z</time>
      </trkpt>
      <trkpt lat="48.68648" lon="1.93379">
        <ele>136</ele>
        <time>2025-07-04T13:07:44.400Z</time>
      </trkpt>
      <trkpt lat="48.68653" lon="1.93377">
        <ele>136</ele>
        <time>2025-07-04T13:07:48.958Z</time>
      </trkpt>
      <trkpt lat="48.68658" lon="1.93375">
        <ele>138</ele>
        <time>2025-07-04T13:07:53.419Z</time>
      </trkpt>
      <trkpt lat="48.68663" lon="1.93373">
        <ele>138</ele>
        <time>2025-07-04T13:07:57.501Z</time>
      </trkpt>
      <trkpt lat="48.68667" lon="1.93366">
        <ele>138</ele>
        <time>2025-07-04T13:08:02.500Z</time>
      </trkpt>
      <trkpt lat="48.68669" lon="1.93357">
        <ele>138</ele>
        <time>2025-07-04T13:08:07.083Z</time>
      </trkpt>
      <trkpt lat="48.68669" lon="1.93349">
        <ele>138</ele>
        <time>2025-07-04T13:08:11.478Z</time>
      </trkpt>
      <trkpt lat="48.68666" lon="1.93339">
        <ele>138</ele>
        <time>2025-07-04T13:08:16.001Z</time>
      </trkpt>
      <trkpt lat="48.68663" lon="1.93332">
        <ele>138</ele>
        <time>2025-07-04T13:08:20.020Z</time>
      </trkpt>
      <trkpt lat="48.68659" lon="1.93324">
        <ele>138</ele>
        <time>2025-07-04T13:08:24.498Z</time>
      </trkpt>
      <trkpt lat="48.68656" lon="1.93318">
        <ele>139</ele>
        <time>2025-07-04T13:08:28.639Z</time>
      </trkpt>
      <trkpt lat="48.68653" lon="1.93311">
        <ele>139</ele>
        <time>2025-07-04T13:08:32.761Z</time>
      </trkpt>
      <trkpt lat="48.68651" lon="1.93304">
        <ele>132</ele>
        <time>2025-07-04T13:08:36.795Z</time>
      </trkpt>
      <trkpt lat="48.68648" lon="1.93297">
        <ele>132</ele>
        <time>2025-07-04T13:08:41.260Z</time>
      </trkpt>
      <trkpt lat="48.68645" lon="1.93289">
        <ele>133</ele>
        <time>2025-07-04T13:08:45.725Z</time>
      </trkpt>
      <trkpt lat="48.68643" lon="1.93281">
        <ele>133</ele>
        <time>2025-07-04T13:08:50.237Z</time>
      </trkpt>
      <trkpt lat="48.68642" lon="1.93273">
        <ele>133</ele>
        <time>2025-07-04T13:08:54.240Z</time>
      </trkpt>
      <trkpt lat="48.68641" lon="1.93264">
        <ele>133</ele>
        <time>2025-07-04T13:08:58.481Z</time>
      </trkpt>
      <trkpt lat="48.68641" lon="1.93256">
        <ele>134</ele>
        <time>2025-07-04T13:09:03.081Z</time>
      </trkpt>
      <trkpt lat="48.68641" lon="1.93248">
        <ele>134</ele>
        <time>2025-07-04T13:09:07.100Z</time>
      </trkpt>
      <trkpt lat="48.68641" lon="1.93241">
        <ele>134</ele>
        <time>2025-07-04T13:09:11.136Z</time>
      </trkpt>
      <trkpt lat="48.68642" lon="1.93233">
        <ele>134</ele>
        <time>2025-07-04T13:09:15.181Z</time>
      </trkpt>
      <trkpt lat="48.68643" lon="1.93226">
        <ele>134</ele>
        <time>2025-07-04T13:09:19.247Z</time>
      </trkpt>
      <trkpt lat="48.68645" lon="1.93218">
        <ele>134</ele>
        <time>2025-07-04T13:09:23.740Z</time>
      </trkpt>
      <trkpt lat="48.68647" lon="1.93211">
        <ele>134</ele>
        <time>2025-07-04T13:09:28.041Z</time>
      </trkpt>
      <trkpt lat="48.68648" lon="1.93205">
        <ele>134</ele>
        <time>2025-07-04T13:09:32.182Z</time>
      </trkpt>
      <trkpt lat="48.68649" lon="1.93199">
        <ele>134</ele>
        <time>2025-07-04T13:09:36.302Z</time>
      </trkpt>
      <trkpt lat="48.6865" lon="1.93192">
        <ele>134</ele>
        <time>2025-07-04T13:09:40.339Z</time>
      </trkpt>
      <trkpt lat="48.68651" lon="1.93184">
        <ele>134</ele>
        <time>2025-07-04T13:09:44.818Z</time>
      </trkpt>
      <trkpt lat="48.68652" lon="1.93177">
        <ele>133</ele>
        <time>2025-07-04T13:09:48.855Z</time>
      </trkpt>
      <trkpt lat="48.68653" lon="1.9317">
        <ele>133</ele>
        <time>2025-07-04T13:09:53.318Z</time>
      </trkpt>
      <trkpt lat="48.68655" lon="1.93162">
        <ele>140</ele>
        <time>2025-07-04T13:09:57.783Z</time>
      </trkpt>
      <trkpt lat="48.68657" lon="1.93154">
        <ele>140</ele>
        <time>2025-07-04T13:10:02.219Z</time>
      </trkpt>
      <trkpt lat="48.6866" lon="1.93145">
        <ele>139</ele>
        <time>2025-07-04T13:10:06.681Z</time>
      </trkpt>
      <trkpt lat="48.68663" lon="1.93138">
        <ele>139</ele>
        <time>2025-07-04T13:10:11.119Z</time>
      </trkpt>
      <trkpt lat="48.68665" lon="1.93129">
        <ele>139</ele>
        <time>2025-07-04T13:10:15.503Z</time>
      </trkpt>
      <trkpt lat="48.68665" lon="1.9312">
        <ele>139</ele>
        <time>2025-07-04T13:10:20.079Z</time>
      </trkpt>
      <trkpt lat="48.68666" lon="1.93112">
        <ele>139</ele>
        <time>2025-07-04T13:10:24.499Z</time>
      </trkpt>
      <trkpt lat="48.68666" lon="1.93102">
        <ele>139</ele>
        <time>2025-07-04T13:10:28.962Z</time>
      </trkpt>
      <trkpt lat="48.68667" lon="1.93094">
        <ele>139</ele>
        <time>2025-07-04T13:10:33.400Z</time>
      </trkpt>
      <trkpt lat="48.68668" lon="1.93086">
        <ele>139</ele>
        <time>2025-07-04T13:10:37.862Z</time>
      </trkpt>
      <trkpt lat="48.68668" lon="1.93077">
        <ele>139</ele>
        <time>2025-07-04T13:10:42.317Z</time>
      </trkpt>
      <trkpt lat="48.68668" lon="1.9307">
        <ele>139</ele>
        <time>2025-07-04T13:10:46.505Z</time>
      </trkpt>
      <trkpt lat="48.68667" lon="1.93061">
        <ele>138</ele>
        <time>2025-07-04T13:10:50.979Z</time>
      </trkpt>
      <trkpt lat="48.68668" lon="1.93053">
        <ele>138</ele>
        <time>2025-07-04T13:10:55.382Z</time>
      </trkpt>
      <trkpt lat="48.68669" lon="1.93044">
        <ele>138</ele>
        <time>2025-07-04T13:10:59.503Z</time>
      </trkpt>
      <trkpt lat="48.6867" lon="1.93035">
        <ele>136</ele>
        <time>2025-07-04T13:11:03.975Z</time>
      </trkpt>
      <trkpt lat="48.68672" lon="1.93027">
        <ele>136</ele>
        <time>2025-07-04T13:11:08.361Z</time>
      </trkpt>
      <trkpt lat="48.68673" lon="1.93019">
        <ele>136</ele>
        <time>2025-07-04T13:11:12.662Z</time>
      </trkpt>
      <trkpt lat="48.68676" lon="1.93011">
        <ele>134</ele>
        <time>2025-07-04T13:11:17.040Z</time>
      </trkpt>
      <trkpt lat="48.68679" lon="1.93003">
        <ele>134</ele>
        <time>2025-07-04T13:11:21.499Z</time>
      </trkpt>
      <trkpt lat="48.68681" lon="1.92995">
        <ele>139</ele>
        <time>2025-07-04T13:11:25.881Z</time>
      </trkpt>
      <trkpt lat="48.68682" lon="1.92988">
        <ele>139</ele>
        <time>2025-07-04T13:11:29.943Z</time>
      </trkpt>
      <trkpt lat="48.68684" lon="1.92981">
        <ele>138</ele>
        <time>2025-07-04T13:11:34.320Z</time>
      </trkpt>
      <trkpt lat="48.68685" lon="1.92973">
        <ele>138</ele>
        <time>2025-07-04T13:11:38.322Z</time>
      </trkpt>
      <trkpt lat="48.68686" lon="1.92966">
        <ele>138</ele>
        <time>2025-07-04T13:11:42.359Z</time>
      </trkpt>
      <trkpt lat="48.68687" lon="1.92961">
        <ele>138</ele>
        <time>2025-07-04T13:11:46.378Z</time>
      </trkpt>
      <trkpt lat="48.68689" lon="1.92955">
        <ele>136</ele>
        <time>2025-07-04T13:11:50.425Z</time>
      </trkpt>
      <trkpt lat="48.68691" lon="1.92949">
        <ele>136</ele>
        <time>2025-07-04T13:11:54.442Z</time>
      </trkpt>
      <trkpt lat="48.68693" lon="1.92942">
        <ele>136</ele>
        <time>2025-07-04T13:11:58.981Z</time>
      </trkpt>
      <trkpt lat="48.68695" lon="1.92936">
        <ele>136</ele>
        <time>2025-07-04T13:12:03.027Z</time>
      </trkpt>
      <trkpt lat="48.68696" lon="1.92929">
        <ele>135</ele>
        <time>2025-07-04T13:12:07.063Z</time>
      </trkpt>
      <trkpt lat="48.68698" lon="1.92922">
        <ele>135</ele>
        <time>2025-07-04T13:12:11.467Z</time>
      </trkpt>
      <trkpt lat="48.68701" lon="1.92916">
        <ele>135</ele>
        <time>2025-07-04T13:12:15.905Z</time>
      </trkpt>
      <trkpt lat="48.68703" lon="1.92908">
        <ele>135</ele>
        <time>2025-07-04T13:12:20.385Z</time>
      </trkpt>
      <trkpt lat="48.68706" lon="1.929">
        <ele>133</ele>
        <time>2025-07-04T13:12:24.805Z</time>
      </trkpt>
      <trkpt lat="48.68708" lon="1.92892">
        <ele>133</ele>
        <time>2025-07-04T13:12:29.387Z</time>
      </trkpt>
      <trkpt lat="48.68711" lon="1.92886">
        <ele>135</ele>
        <time>2025-07-04T13:12:33.497Z</time>
      </trkpt>
      <trkpt lat="48.68714" lon="1.9288">
        <ele>135</ele>
        <time>2025-07-04T13:12:37.681Z</time>
      </trkpt>
      <trkpt lat="48.68717" lon="1.92873">
        <ele>134</ele>
        <time>2025-07-04T13:12:42.262Z</time>
      </trkpt>
      <trkpt lat="48.68719" lon="1.92867">
        <ele>134</ele>
        <time>2025-07-04T13:12:46.301Z</time>
      </trkpt>
      <trkpt lat="48.68722" lon="1.9286">
        <ele>134</ele>
        <time>2025-07-04T13:12:50.865Z</time>
      </trkpt>
      <trkpt lat="48.68725" lon="1.92853">
        <ele>134</ele>
        <time>2025-07-04T13:12:55.362Z</time>
      </trkpt>
      <trkpt lat="48.68728" lon="1.92847">
        <ele>133</ele>
        <time>2025-07-04T13:12:59.381Z</time>
      </trkpt>
      <trkpt lat="48.68731" lon="1.92839">
        <ele>133</ele>
        <time>2025-07-04T13:13:03.905Z</time>
      </trkpt>
      <trkpt lat="48.68734" lon="1.92831">
        <ele>133</ele>
        <time>2025-07-04T13:13:08.385Z</time>
      </trkpt>
      <trkpt lat="48.68737" lon="1.92823">
        <ele>137</ele>
        <time>2025-07-04T13:13:12.821Z</time>
      </trkpt>
      <trkpt lat="48.6874" lon="1.92816">
        <ele>135</ele>
        <time>2025-07-04T13:13:16.823Z</time>
      </trkpt>
      <trkpt lat="48.68744" lon="1.9281">
        <ele>135</ele>
        <time>2025-07-04T13:13:21.405Z</time>
      </trkpt>
      <trkpt lat="48.68749" lon="1.92804">
        <ele>135</ele>
        <time>2025-07-04T13:13:25.787Z</time>
      </trkpt>
      <trkpt lat="48.68755" lon="1.92798">
        <ele>135</ele>
        <time>2025-07-04T13:13:30.206Z</time>
      </trkpt>
      <trkpt lat="48.6876" lon="1.92791">
        <ele>133</ele>
        <time>2025-07-04T13:13:34.700Z</time>
      </trkpt>
      <trkpt lat="48.68764" lon="1.92785">
        <ele>140</ele>
        <time>2025-07-04T13:13:39.022Z</time>
      </trkpt>
      <trkpt lat="48.68768" lon="1.92778">
        <ele>140</ele>
        <time>2025-07-04T13:13:43.446Z</time>
      </trkpt>
      <trkpt lat="48.68771" lon="1.92771">
        <ele>140</ele>
        <time>2025-07-04T13:13:48.008Z</time>
      </trkpt>
      <trkpt lat="48.68774" lon="1.92763">
        <ele>138</ele>
        <time>2025-07-04T13:13:52.461Z</time>
      </trkpt>
      <trkpt lat="48.68776" lon="1.92754">
        <ele>138</ele>
        <time>2025-07-04T13:13:56.968Z</time>
      </trkpt>
      <trkpt lat="48.68777" lon="1.92745">
        <ele>138</ele>
        <time>2025-07-04T13:14:01.448Z</time>
      </trkpt>
      <trkpt lat="48.68779" lon="1.92736">
        <ele>138</ele>
        <time>2025-07-04T13:14:06.005Z</time>
      </trkpt>
      <trkpt lat="48.6878" lon="1.92729">
        <ele>137</ele>
        <time>2025-07-04T13:14:10.143Z</time>
      </trkpt>
      <trkpt lat="48.68781" lon="1.92721">
        <ele>137</ele>
        <time>2025-07-04T13:14:14.162Z</time>
      </trkpt>
      <trkpt lat="48.68783" lon="1.92713">
        <ele>137</ele>
        <time>2025-07-04T13:14:18.502Z</time>
      </trkpt>
      <trkpt lat="48.68784" lon="1.92705">
        <ele>135</ele>
        <time>2025-07-04T13:14:23.148Z</time>
      </trkpt>
      <trkpt lat="48.68786" lon="1.92697">
        <ele>135</ele>
        <time>2025-07-04T13:14:27.729Z</time>
      </trkpt>
      <trkpt lat="48.68787" lon="1.92689">
        <ele>135</ele>
        <time>2025-07-04T13:14:32.210Z</time>
      </trkpt>
      <trkpt lat="48.68789" lon="1.9268">
        <ele>133</ele>
        <time>2025-07-04T13:14:36.947Z</time>
      </trkpt>
      <trkpt lat="48.68792" lon="1.92672">
        <ele>137</ele>
        <time>2025-07-04T13:14:41.469Z</time>
      </trkpt>
      <trkpt lat="48.68795" lon="1.92667">
        <ele>137</ele>
        <time>2025-07-04T13:14:45.490Z</time>
      </trkpt>
      <trkpt lat="48.688" lon="1.92662">
        <ele>137</ele>
        <time>2025-07-04T13:14:49.968Z</time>
      </trkpt>
      <trkpt lat="48.68803" lon="1.92658">
        <ele>137</ele>
        <time>2025-07-04T13:14:54.362Z</time>
      </trkpt>
      <trkpt lat="48.68807" lon="1.92653">
        <ele>137</ele>
        <time>2025-07-04T13:14:58.885Z</time>
      </trkpt>
      <trkpt lat="48.68811" lon="1.92648">
        <ele>135</ele>
        <time>2025-07-04T13:15:02.990Z</time>
      </trkpt>
      <trkpt lat="48.68814" lon="1.92644">
        <ele>135</ele>
        <time>2025-07-04T13:15:07.009Z</time>
      </trkpt>
      <trkpt lat="48.68818" lon="1.9264">
        <ele>135</ele>
        <time>2025-07-04T13:15:11.088Z</time>
      </trkpt>
      <trkpt lat="48.68822" lon="1.92635">
        <ele>140</ele>
        <time>2025-07-04T13:15:15.497Z</time>
      </trkpt>
      <trkpt lat="48.68826" lon="1.9263">
        <ele>140</ele>
        <time>2025-07-04T13:15:19.630Z</time>
      </trkpt>
      <trkpt lat="48.6883" lon="1.92625">
        <ele>137</ele>
        <time>2025-07-04T13:15:23.709Z</time>
      </trkpt>
      <trkpt lat="48.68834" lon="1.9262">
        <ele>137</ele>
        <time>2025-07-04T13:15:27.727Z</time>
      </trkpt>
      <trkpt lat="48.68838" lon="1.92614">
        <ele>137</ele>
        <time>2025-07-04T13:15:32.285Z</time>
      </trkpt>
      <trkpt lat="48.68842" lon="1.92609">
        <ele>137</ele>
        <time>2025-07-04T13:15:36.500Z</time>
      </trkpt>
      <trkpt lat="48.68846" lon="1.92605">
        <ele>137</ele>
        <time>2025-07-04T13:15:41.499Z</time>
      </trkpt>
      <trkpt lat="48.68848" lon="1.92603">
        <ele>140</ele>
        <time>2025-07-04T13:15:46.347Z</time>
      </trkpt>
      <trkpt lat="48.68852" lon="1.92607">
        <ele>140</ele>
        <time>2025-07-04T13:15:50.772Z</time>
      </trkpt>
      <trkpt lat="48.68857" lon="1.92611">
        <ele>140</ele>
        <time>2025-07-04T13:15:54.906Z</time>
      </trkpt>
      <trkpt lat="48.68861" lon="1.92615">
        <ele>140</ele>
        <time>2025-07-04T13:15:59.470Z</time>
      </trkpt>
      <trkpt lat="48.68865" lon="1.92618">
        <ele>140</ele>
        <time>2025-07-04T13:16:03.500Z</time>
      </trkpt>
      <trkpt lat="48.68869" lon="1.92621">
        <ele>140</ele>
        <time>2025-07-04T13:16:07.969Z</time>
      </trkpt>
      <trkpt lat="48.68874" lon="1.92625">
        <ele>140</ele>
        <time>2025-07-04T13:16:12.466Z</time>
      </trkpt>
      <trkpt lat="48.68876" lon="1.92631">
        <ele>147</ele>
        <time>2025-07-04T13:16:16.827Z</time>
      </trkpt>
      <trkpt lat="48.68879" lon="1.92638">
        <ele>147</ele>
        <time>2025-07-04T13:16:21.503Z</time>
      </trkpt>
      <trkpt lat="48.68883" lon="1.92644">
        <ele>147</ele>
        <time>2025-07-04T13:16:26.128Z</time>
      </trkpt>
      <trkpt lat="48.68887" lon="1.92649">
        <ele>147</ele>
        <time>2025-07-04T13:16:30.447Z</time>
      </trkpt>
      <trkpt lat="48.6889" lon="1.92653">
        <ele>149</ele>
        <time>2025-07-04T13:16:34.646Z</time>
      </trkpt>
      <trkpt lat="48.68894" lon="1.92658">
        <ele>149</ele>
        <time>2025-07-04T13:16:38.886Z</time>
      </trkpt>
      <trkpt lat="48.68898" lon="1.92662">
        <ele>149</ele>
        <time>2025-07-04T13:16:43.262Z</time>
      </trkpt>
      <trkpt lat="48.68901" lon="1.92666">
        <ele>149</ele>
        <time>2025-07-04T13:16:47.509Z</time>
      </trkpt>
      <trkpt lat="48.68905" lon="1.9267">
        <ele>153</ele>
        <time>2025-07-04T13:16:51.719Z</time>
      </trkpt>
      <trkpt lat="48.68909" lon="1.92674">
        <ele>153</ele>
        <time>2025-07-04T13:16:55.986Z</time>
      </trkpt>
      <trkpt lat="48.68912" lon="1.92679">
        <ele>153</ele>
        <time>2025-07-04T13:17:00.186Z</time>
      </trkpt>
      <trkpt lat="48.68916" lon="1.92684">
        <ele>153</ele>
        <time>2025-07-04T13:17:04.366Z</time>
      </trkpt>
      <trkpt lat="48.6892" lon="1.9269">
        <ele>153</ele>
        <time>2025-07-04T13:17:08.447Z</time>
      </trkpt>
      <trkpt lat="48.68923" lon="1.92696">
        <ele>153</ele>
        <time>2025-07-04T13:17:12.502Z</time>
      </trkpt>
      <trkpt lat="48.68927" lon="1.92702">
        <ele>153</ele>
        <time>2025-07-04T13:17:16.787Z</time>
      </trkpt>
      <trkpt lat="48.68931" lon="1.92708">
        <ele>153</ele>
        <time>2025-07-04T13:17:20.971Z</time>
      </trkpt>
      <trkpt lat="48.68933" lon="1.92713">
        <ele>157</ele>
        <time>2025-07-04T13:17:25.126Z</time>
      </trkpt>
      <trkpt lat="48.68936" lon="1.92718">
        <ele>157</ele>
        <time>2025-07-04T13:17:29.386Z</time>
      </trkpt>
      <trkpt lat="48.6894" lon="1.92724">
        <ele>157</ele>
        <time>2025-07-04T13:17:33.496Z</time>
      </trkpt>
      <trkpt lat="48.68943" lon="1.9273">
        <ele>157</ele>
        <time>2025-07-04T13:17:37.883Z</time>
      </trkpt>
      <trkpt lat="48.68947" lon="1.92735">
        <ele>157</ele>
        <time>2025-07-04T13:17:42.422Z</time>
      </trkpt>
      <trkpt lat="48.6895" lon="1.92741">
        <ele>157</ele>
        <time>2025-07-04T13:17:46.506Z</time>
      </trkpt>
      <trkpt lat="48.68953" lon="1.92749">
        <ele>157</ele>
        <time>2025-07-04T13:17:51.145Z</time>
      </trkpt>
      <trkpt lat="48.68955" lon="1.92756">
        <ele>157</ele>
        <time>2025-07-04T13:17:55.326Z</time>
      </trkpt>
      <trkpt lat="48.68958" lon="1.92763">
        <ele>157</ele>
        <time>2025-07-04T13:17:59.839Z</time>
      </trkpt>
      <trkpt lat="48.68961" lon="1.92768">
        <ele>158</ele>
        <time>2025-07-04T13:18:04.079Z</time>
      </trkpt>
      <trkpt lat="48.68965" lon="1.92773">
        <ele>158</ele>
        <time>2025-07-04T13:18:08.380Z</time>
      </trkpt>
      <trkpt lat="48.68969" lon="1.92778">
        <ele>158</ele>
        <time>2025-07-04T13:18:12.495Z</time>
      </trkpt>
      <trkpt lat="48.68972" lon="1.92783">
        <ele>158</ele>
        <time>2025-07-04T13:18:16.922Z</time>
      </trkpt>
      <trkpt lat="48.68976" lon="1.92788">
        <ele>158</ele>
        <time>2025-07-04T13:18:21.104Z</time>
      </trkpt>
      <trkpt lat="48.68981" lon="1.92791">
        <ele>158</ele>
        <time>2025-07-04T13:18:25.286Z</time>
      </trkpt>
      <trkpt lat="48.68985" lon="1.92795">
        <ele>158</ele>
        <time>2025-07-04T13:18:29.422Z</time>
      </trkpt>
      <trkpt lat="48.68989" lon="1.92799">
        <ele>161</ele>
        <time>2025-07-04T13:18:33.496Z</time>
      </trkpt>
      <trkpt lat="48.68994" lon="1.92804">
        <ele>161</ele>
        <time>2025-07-04T13:18:38.203Z</time>
      </trkpt>
      <trkpt lat="48.68999" lon="1.92807">
        <ele>161</ele>
        <time>2025-07-04T13:18:42.249Z</time>
      </trkpt>
      <trkpt lat="48.69003" lon="1.9281">
        <ele>161</ele>
        <time>2025-07-04T13:18:46.310Z</time>
      </trkpt>
      <trkpt lat="48.69008" lon="1.92813">
        <ele>161</ele>
        <time>2025-07-04T13:18:50.388Z</time>
      </trkpt>
      <trkpt lat="48.69013" lon="1.92816">
        <ele>161</ele>
        <time>2025-07-04T13:18:54.450Z</time>
      </trkpt>
      <trkpt lat="48.69018" lon="1.92817">
        <ele>166</ele>
        <time>2025-07-04T13:18:58.929Z</time>
      </trkpt>
      <trkpt lat="48.69023" lon="1.92818">
        <ele>166</ele>
        <time>2025-07-04T13:19:03.448Z</time>
      </trkpt>
      <trkpt lat="48.69028" lon="1.92816">
        <ele>166</ele>
        <time>2025-07-04T13:19:07.489Z</time>
      </trkpt>
      <trkpt lat="48.69033" lon="1.92812">
        <ele>166</ele>
        <time>2025-07-04T13:19:11.501Z</time>
      </trkpt>
      <trkpt lat="48.69037" lon="1.92807">
        <ele>166</ele>
        <time>2025-07-04T13:19:15.498Z</time>
      </trkpt>
      <trkpt lat="48.69042" lon="1.92803">
        <ele>169</ele>
        <time>2025-07-04T13:19:20.083Z</time>
      </trkpt>
      <trkpt lat="48.69048" lon="1.92799">
        <ele>169</ele>
        <time>2025-07-04T13:19:24.290Z</time>
      </trkpt>
      <trkpt lat="48.69053" lon="1.92795">
        <ele>169</ele>
        <time>2025-07-04T13:19:28.710Z</time>
      </trkpt>
      <trkpt lat="48.69059" lon="1.9279">
        <ele>169</ele>
        <time>2025-07-04T13:19:33.249Z</time>
      </trkpt>
      <trkpt lat="48.69064" lon="1.92786">
        <ele>169</ele>
        <time>2025-07-04T13:19:37.328Z</time>
      </trkpt>
      <trkpt lat="48.69069" lon="1.92782">
        <ele>169</ele>
        <time>2025-07-04T13:19:41.366Z</time>
      </trkpt>
      <trkpt lat="48.69074" lon="1.92778">
        <ele>167</ele>
        <time>2025-07-04T13:19:45.409Z</time>
      </trkpt>
      <trkpt lat="48.69078" lon="1.92775">
        <ele>167</ele>
        <time>2025-07-04T13:19:49.503Z</time>
      </trkpt>
      <trkpt lat="48.69084" lon="1.92773">
        <ele>167</ele>
        <time>2025-07-04T13:19:54.047Z</time>
      </trkpt>
      <trkpt lat="48.69089" lon="1.92771">
        <ele>167</ele>
        <time>2025-07-04T13:19:58.465Z</time>
      </trkpt>
      <trkpt lat="48.69095" lon="1.92769">
        <ele>167</ele>
        <time>2025-07-04T13:20:03.007Z</time>
      </trkpt>
      <trkpt lat="48.691" lon="1.9277">
        <ele>167</ele>
        <time>2025-07-04T13:20:07.048Z</time>
      </trkpt>
      <trkpt lat="48.69105" lon="1.9277">
        <ele>167</ele>
        <time>2025-07-04T13:20:11.497Z</time>
      </trkpt>
      <trkpt lat="48.6911" lon="1.92771">
        <ele>167</ele>
        <time>2025-07-04T13:20:15.803Z</time>
      </trkpt>
      <trkpt lat="48.69115" lon="1.92772">
        <ele>167</ele>
        <time>2025-07-04T13:20:19.822Z</time>
      </trkpt>
      <trkpt lat="48.69121" lon="1.92772">
        <ele>167</ele>
        <time>2025-07-04T13:20:24.465Z</time>
      </trkpt>
      <trkpt lat="48.69126" lon="1.92771">
        <ele>169</ele>
        <time>2025-07-04T13:20:28.496Z</time>
      </trkpt>
      <trkpt lat="48.69131" lon="1.92769">
        <ele>169</ele>
        <time>2025-07-04T13:20:32.606Z</time>
      </trkpt>
      <trkpt lat="48.69137" lon="1.92768">
        <ele>169</ele>
        <time>2025-07-04T13:20:36.905Z</time>
      </trkpt>
      <trkpt lat="48.69142" lon="1.92765">
        <ele>169</ele>
        <time>2025-07-04T13:20:41.501Z</time>
      </trkpt>
      <trkpt lat="48.69148" lon="1.92763">
        <ele>168</ele>
        <time>2025-07-04T13:20:46.163Z</time>
      </trkpt>
      <trkpt lat="48.69153" lon="1.92762">
        <ele>172</ele>
        <time>2025-07-04T13:20:50.268Z</time>
      </trkpt>
      <trkpt lat="48.69158" lon="1.92761">
        <ele>172</ele>
        <time>2025-07-04T13:20:54.422Z</time>
      </trkpt>
      <trkpt lat="48.69163" lon="1.9276">
        <ele>172</ele>
        <time>2025-07-04T13:20:58.500Z</time>
      </trkpt>
      <trkpt lat="48.69168" lon="1.92761">
        <ele>172</ele>
        <time>2025-07-04T13:21:02.606Z</time>
      </trkpt>
      <trkpt lat="48.69173" lon="1.92761">
        <ele>172</ele>
        <time>2025-07-04T13:21:06.967Z</time>
      </trkpt>
      <trkpt lat="48.69178" lon="1.9276">
        <ele>172</ele>
        <time>2025-07-04T13:21:11.494Z</time>
      </trkpt>
      <trkpt lat="48.69183" lon="1.92756">
        <ele>174</ele>
        <time>2025-07-04T13:21:32.493Z</time>
      </trkpt>
      <trkpt lat="48.69183" lon="1.92756">
        <ele>174</ele>
        <time>2025-07-04T13:21:42.498Z</time>
      </trkpt>
      <trkpt lat="48.69182" lon="1.92753">
        <ele>174</ele>
        <time>2025-07-04T13:21:47.498Z</time>
      </trkpt>
      <trkpt lat="48.69186" lon="1.92745">
        <ele>174</ele>
        <time>2025-07-04T13:21:52.125Z</time>
      </trkpt>
      <trkpt lat="48.69187" lon="1.92741">
        <ele>174</ele>
        <time>2025-07-04T13:21:56.503Z</time>
      </trkpt>
      <trkpt lat="48.69186" lon="1.92737">
        <ele>174</ele>
        <time>2025-07-04T13:22:00.888Z</time>
      </trkpt>
      <trkpt lat="48.69182" lon="1.92729">
        <ele>175</ele>
        <time>2025-07-04T13:22:05.248Z</time>
      </trkpt>
      <trkpt lat="48.69177" lon="1.92723">
        <ele>172</ele>
        <time>2025-07-04T13:22:09.497Z</time>
      </trkpt>
      <trkpt lat="48.69172" lon="1.9272">
        <ele>172</ele>
        <time>2025-07-04T13:22:14.029Z</time>
      </trkpt>
      <trkpt lat="48.69167" lon="1.92717">
        <ele>172</ele>
        <time>2025-07-04T13:22:18.466Z</time>
      </trkpt>
      <trkpt lat="48.69164" lon="1.92712">
        <ele>172</ele>
        <time>2025-07-04T13:22:23.168Z</time>
      </trkpt>
      <trkpt lat="48.69162" lon="1.92706">
        <ele>175</ele>
        <time>2025-07-04T13:22:27.230Z</time>
      </trkpt>
      <trkpt lat="48.69161" lon="1.927">
        <ele>175</ele>
        <time>2025-07-04T13:22:31.427Z</time>
      </trkpt>
      <trkpt lat="48.69159" lon="1.92695">
        <ele>175</ele>
        <time>2025-07-04T13:22:35.791Z</time>
      </trkpt>
      <trkpt lat="48.69156" lon="1.92688">
        <ele>175</ele>
        <time>2025-07-04T13:22:40.412Z</time>
      </trkpt>
      <trkpt lat="48.69152" lon="1.92683">
        <ele>174</ele>
        <time>2025-07-04T13:22:44.431Z</time>
      </trkpt>
      <trkpt lat="48.69147" lon="1.92679">
        <ele>177</ele>
        <time>2025-07-04T13:22:48.497Z</time>
      </trkpt>
      <trkpt lat="48.69144" lon="1.92675">
        <ele>177</ele>
        <time>2025-07-04T13:22:52.495Z</time>
      </trkpt>
      <trkpt lat="48.69138" lon="1.92673">
        <ele>177</ele>
        <time>2025-07-04T13:22:56.788Z</time>
      </trkpt>
      <trkpt lat="48.69135" lon="1.92668">
        <ele>177</ele>
        <time>2025-07-04T13:23:00.900Z</time>
      </trkpt>
      <trkpt lat="48.69132" lon="1.92663">
        <ele>177</ele>
        <time>2025-07-04T13:23:05.228Z</time>
      </trkpt>
      <trkpt lat="48.69129" lon="1.9266">
        <ele>177</ele>
        <time>2025-07-04T13:23:09.498Z</time>
      </trkpt>
      <trkpt lat="48.69125" lon="1.92654">
        <ele>177</ele>
        <time>2025-07-04T13:23:14.222Z</time>
      </trkpt>
      <trkpt lat="48.6912" lon="1.92651">
        <ele>179</ele>
        <time>2025-07-04T13:23:18.502Z</time>
      </trkpt>
      <trkpt lat="48.69115" lon="1.9265">
        <ele>179</ele>
        <time>2025-07-04T13:23:22.611Z</time>
      </trkpt>
      <trkpt lat="48.69111" lon="1.92648">
        <ele>179</ele>
        <time>2025-07-04T13:23:26.787Z</time>
      </trkpt>
      <trkpt lat="48.69106" lon="1.92647">
        <ele>179</ele>
        <time>2025-07-04T13:23:31.187Z</time>
      </trkpt>
      <trkpt lat="48.69101" lon="1.92646">
        <ele>179</ele>
        <time>2025-07-04T13:23:35.507Z</time>
      </trkpt>
      <trkpt lat="48.69096" lon="1.92644">
        <ele>179</ele>
        <time>2025-07-04T13:23:40.028Z</time>
      </trkpt>
      <trkpt lat="48.69093" lon="1.92642">
        <ele>179</ele>
        <time>2025-07-04T13:23:44.364Z</time>
      </trkpt>
      <trkpt lat="48.69089" lon="1.92641">
        <ele>179</ele>
        <time>2025-07-04T13:23:48.496Z</time>
      </trkpt>
      <trkpt lat="48.69086" lon="1.92638">
        <ele>179</ele>
        <time>2025-07-04T13:23:53.025Z</time>
      </trkpt>
      <trkpt lat="48.69083" lon="1.92635">
        <ele>179</ele>
        <time>2025-07-04T13:23:57.488Z</time>
      </trkpt>
      <trkpt lat="48.69079" lon="1.92632">
        <ele>179</ele>
        <time>2025-07-04T13:24:01.789Z</time>
      </trkpt>
      <trkpt lat="48.69074" lon="1.92629">
        <ele>179</ele>
        <time>2025-07-04T13:24:05.988Z</time>
      </trkpt>
      <trkpt lat="48.6907" lon="1.92627">
        <ele>179</ele>
        <time>2025-07-04T13:24:10.495Z</time>
      </trkpt>
      <trkpt lat="48.69065" lon="1.92624">
        <ele>179</ele>
        <time>2025-07-04T13:24:14.983Z</time>
      </trkpt>
      <trkpt lat="48.69061" lon="1.92622">
        <ele>179</ele>
        <time>2025-07-04T13:24:19.205Z</time>
      </trkpt>
      <trkpt lat="48.69057" lon="1.92618">
        <ele>179</ele>
        <time>2025-07-04T13:24:23.468Z</time>
      </trkpt>
      <trkpt lat="48.69054" lon="1.92615">
        <ele>179</ele>
        <time>2025-07-04T13:24:27.808Z</time>
      </trkpt>
      <trkpt lat="48.6905" lon="1.92613">
        <ele>179</ele>
        <time>2025-07-04T13:24:31.845Z</time>
      </trkpt>
      <trkpt lat="48.69047" lon="1.92607">
        <ele>179</ele>
        <time>2025-07-04T13:24:35.982Z</time>
      </trkpt>
      <trkpt lat="48.69044" lon="1.92602">
        <ele>179</ele>
        <time>2025-07-04T13:24:40.087Z</time>
      </trkpt>
      <trkpt lat="48.6904" lon="1.92596">
        <ele>177</ele>
        <time>2025-07-04T13:24:44.328Z</time>
      </trkpt>
      <trkpt lat="48.69037" lon="1.92589">
        <ele>177</ele>
        <time>2025-07-04T13:24:48.988Z</time>
      </trkpt>
      <trkpt lat="48.69035" lon="1.92582">
        <ele>177</ele>
        <time>2025-07-04T13:24:53.485Z</time>
      </trkpt>
      <trkpt lat="48.69034" lon="1.92574">
        <ele>177</ele>
        <time>2025-07-04T13:24:57.948Z</time>
      </trkpt>
      <trkpt lat="48.69036" lon="1.92565">
        <ele>174</ele>
        <time>2025-07-04T13:25:02.487Z</time>
      </trkpt>
      <trkpt lat="48.69038" lon="1.92559">
        <ele>174</ele>
        <time>2025-07-04T13:25:06.496Z</time>
      </trkpt>
      <trkpt lat="48.69041" lon="1.92553">
        <ele>174</ele>
        <time>2025-07-04T13:25:10.663Z</time>
      </trkpt>
      <trkpt lat="48.69045" lon="1.92547">
        <ele>176</ele>
        <time>2025-07-04T13:25:15.083Z</time>
      </trkpt>
      <trkpt lat="48.69049" lon="1.92543">
        <ele>176</ele>
        <time>2025-07-04T13:25:19.102Z</time>
      </trkpt>
      <trkpt lat="48.69052" lon="1.92536">
        <ele>174</ele>
        <time>2025-07-04T13:25:24.009Z</time>
      </trkpt>
      <trkpt lat="48.69055" lon="1.9253">
        <ele>174</ele>
        <time>2025-07-04T13:25:28.028Z</time>
      </trkpt>
      <trkpt lat="48.69057" lon="1.92521">
        <ele>174</ele>
        <time>2025-07-04T13:25:32.503Z</time>
      </trkpt>
      <trkpt lat="48.6906" lon="1.92514">
        <ele>173</ele>
        <time>2025-07-04T13:25:36.809Z</time>
      </trkpt>
      <trkpt lat="48.69061" lon="1.92512">
        <ele>173</ele>
        <time>2025-07-04T13:25:38.397Z</time>
      </trkpt>
      <trkpt lat="48.6906" lon="1.92506">
        <ele>173</ele>
        <time>2025-07-04T13:25:47.499Z</time>
      </trkpt>
      <trkpt lat="48.6906" lon="1.92498">
        <ele>173</ele>
        <time>2025-07-04T13:25:52.103Z</time>
      </trkpt>
      <trkpt lat="48.69064" lon="1.92492">
        <ele>173</ele>
        <time>2025-07-04T13:25:56.423Z</time>
      </trkpt>
      <trkpt lat="48.69068" lon="1.92483">
        <ele>170</ele>
        <time>2025-07-04T13:26:00.495Z</time>
      </trkpt>
      <trkpt lat="48.69071" lon="1.92476">
        <ele>175</ele>
        <time>2025-07-04T13:26:04.496Z</time>
      </trkpt>
      <trkpt lat="48.69074" lon="1.92467">
        <ele>175</ele>
        <time>2025-07-04T13:26:09.109Z</time>
      </trkpt>
      <trkpt lat="48.69075" lon="1.92458">
        <ele>173</ele>
        <time>2025-07-04T13:26:13.492Z</time>
      </trkpt>
      <trkpt lat="48.69077" lon="1.9245">
        <ele>173</ele>
        <time>2025-07-04T13:26:17.784Z</time>
      </trkpt>
      <trkpt lat="48.69076" lon="1.92442">
        <ele>173</ele>
        <time>2025-07-04T13:26:22.385Z</time>
      </trkpt>
      <trkpt lat="48.6908" lon="1.92433">
        <ele>173</ele>
        <time>2025-07-04T13:26:26.908Z</time>
      </trkpt>
      <trkpt lat="48.69084" lon="1.92426">
        <ele>171</ele>
        <time>2025-07-04T13:26:31.363Z</time>
      </trkpt>
      <trkpt lat="48.69088" lon="1.92426">
        <ele>171</ele>
        <time>2025-07-04T13:26:35.843Z</time>
      </trkpt>
      <trkpt lat="48.69092" lon="1.92413">
        <ele>171</ele>
        <time>2025-07-04T13:26:40.498Z</time>
      </trkpt>
      <trkpt lat="48.69093" lon="1.92406">
        <ele>171</ele>
        <time>2025-07-04T13:26:44.727Z</time>
      </trkpt>
      <trkpt lat="48.69095" lon="1.92399">
        <ele>169</ele>
        <time>2025-07-04T13:26:48.943Z</time>
      </trkpt>
      <trkpt lat="48.69096" lon="1.9239">
        <ele>169</ele>
        <time>2025-07-04T13:26:53.495Z</time>
      </trkpt>
      <trkpt lat="48.69097" lon="1.92382">
        <ele>172</ele>
        <time>2025-07-04T13:26:57.724Z</time>
      </trkpt>
      <trkpt lat="48.691" lon="1.92375">
        <ele>172</ele>
        <time>2025-07-04T13:27:01.965Z</time>
      </trkpt>
      <trkpt lat="48.69102" lon="1.92369">
        <ele>171</ele>
        <time>2025-07-04T13:27:06.497Z</time>
      </trkpt>
      <trkpt lat="48.69106" lon="1.92366">
        <ele>171</ele>
        <time>2025-07-04T13:27:10.901Z</time>
      </trkpt>
      <trkpt lat="48.6911" lon="1.92365">
        <ele>171</ele>
        <time>2025-07-04T13:27:15.039Z</time>
      </trkpt>
      <trkpt lat="48.69114" lon="1.92367">
        <ele>171</ele>
        <time>2025-07-04T13:27:19.118Z</time>
      </trkpt>
      <trkpt lat="48.69118" lon="1.92369">
        <ele>171</ele>
        <time>2025-07-04T13:27:23.497Z</time>
      </trkpt>
      <trkpt lat="48.69122" lon="1.92371">
        <ele>171</ele>
        <time>2025-07-04T13:27:28.215Z</time>
      </trkpt>
      <trkpt lat="48.69127" lon="1.92369">
        <ele>174</ele>
        <time>2025-07-04T13:27:32.501Z</time>
      </trkpt>
      <trkpt lat="48.69131" lon="1.92367">
        <ele>174</ele>
        <time>2025-07-04T13:27:37.115Z</time>
      </trkpt>
      <trkpt lat="48.69135" lon="1.92363">
        <ele>174</ele>
        <time>2025-07-04T13:27:41.400Z</time>
      </trkpt>
      <trkpt lat="48.69139" lon="1.92358">
        <ele>174</ele>
        <time>2025-07-04T13:27:45.498Z</time>
      </trkpt>
      <trkpt lat="48.69143" lon="1.92353">
        <ele>174</ele>
        <time>2025-07-04T13:27:49.694Z</time>
      </trkpt>
      <trkpt lat="48.69148" lon="1.92349">
        <ele>174</ele>
        <time>2025-07-04T13:27:53.995Z</time>
      </trkpt>
      <trkpt lat="48.69152" lon="1.92345">
        <ele>175</ele>
        <time>2025-07-04T13:27:58.507Z</time>
      </trkpt>
      <trkpt lat="48.69155" lon="1.92341">
        <ele>177</ele>
        <time>2025-07-04T13:28:02.683Z</time>
      </trkpt>
      <trkpt lat="48.69158" lon="1.92333">
        <ele>177</ele>
        <time>2025-07-04T13:28:07.240Z</time>
      </trkpt>
      <trkpt lat="48.6916" lon="1.92328">
        <ele>177</ele>
        <time>2025-07-04T13:28:11.498Z</time>
      </trkpt>
      <trkpt lat="48.69164" lon="1.92323">
        <ele>177</ele>
        <time>2025-07-04T13:28:16.024Z</time>
      </trkpt>
      <trkpt lat="48.69166" lon="1.92316">
        <ele>178</ele>
        <time>2025-07-04T13:28:20.237Z</time>
      </trkpt>
      <trkpt lat="48.69169" lon="1.92311">
        <ele>178</ele>
        <time>2025-07-04T13:28:24.508Z</time>
      </trkpt>
      <trkpt lat="48.69171" lon="1.92304">
        <ele>178</ele>
        <time>2025-07-04T13:28:28.882Z</time>
      </trkpt>
      <trkpt lat="48.69173" lon="1.92298">
        <ele>178</ele>
        <time>2025-07-04T13:28:33.216Z</time>
      </trkpt>
      <trkpt lat="48.69175" lon="1.92291">
        <ele>178</ele>
        <time>2025-07-04T13:28:37.500Z</time>
      </trkpt>
      <trkpt lat="48.69176" lon="1.92283">
        <ele>178</ele>
        <time>2025-07-04T13:28:41.862Z</time>
      </trkpt>
      <trkpt lat="48.69174" lon="1.92276">
        <ele>178</ele>
        <time>2025-07-04T13:28:45.982Z</time>
      </trkpt>
      <trkpt lat="48.69171" lon="1.92268">
        <ele>178</ele>
        <time>2025-07-04T13:28:50.078Z</time>
      </trkpt>
      <trkpt lat="48.69169" lon="1.92261">
        <ele>178</ele>
        <time>2025-07-04T13:28:54.120Z</time>
      </trkpt>
      <trkpt lat="48.69166" lon="1.92253">
        <ele>178</ele>
        <time>2025-07-04T13:28:58.499Z</time>
      </trkpt>
      <trkpt lat="48.69165" lon="1.92243">
        <ele>178</ele>
        <time>2025-07-04T13:29:03.237Z</time>
      </trkpt>
      <trkpt lat="48.69164" lon="1.92236">
        <ele>178</ele>
        <time>2025-07-04T13:29:07.375Z</time>
      </trkpt>
      <trkpt lat="48.69162" lon="1.92228">
        <ele>178</ele>
        <time>2025-07-04T13:29:11.499Z</time>
      </trkpt>
      <trkpt lat="48.69159" lon="1.92221">
        <ele>178</ele>
        <time>2025-07-04T13:29:15.728Z</time>
      </trkpt>
      <trkpt lat="48.69156" lon="1.92214">
        <ele>178</ele>
        <time>2025-07-04T13:29:20.082Z</time>
      </trkpt>
      <trkpt lat="48.69153" lon="1.92208">
        <ele>178</ele>
        <time>2025-07-04T13:29:24.374Z</time>
      </trkpt>
      <trkpt lat="48.6915" lon="1.92203">
        <ele>175</ele>
        <time>2025-07-04T13:29:28.718Z</time>
      </trkpt>
      <trkpt lat="48.69147" lon="1.92197">
        <ele>175</ele>
        <time>2025-07-04T13:29:32.798Z</time>
      </trkpt>
      <trkpt lat="48.69144" lon="1.92191">
        <ele>175</ele>
        <time>2025-07-04T13:29:37.097Z</time>
      </trkpt>
      <trkpt lat="48.69141" lon="1.92185">
        <ele>175</ele>
        <time>2025-07-04T13:29:41.160Z</time>
      </trkpt>
      <trkpt lat="48.69138" lon="1.92179">
        <ele>175</ele>
        <time>2025-07-04T13:29:45.462Z</time>
      </trkpt>
      <trkpt lat="48.69134" lon="1.92173">
        <ele>175</ele>
        <time>2025-07-04T13:29:49.498Z</time>
      </trkpt>
      <trkpt lat="48.69131" lon="1.92166">
        <ele>175</ele>
        <time>2025-07-04T13:29:54.276Z</time>
      </trkpt>
      <trkpt lat="48.69128" lon="1.9216">
        <ele>175</ele>
        <time>2025-07-04T13:29:58.501Z</time>
      </trkpt>
      <trkpt lat="48.69127" lon="1.92154">
        <ele>175</ele>
        <time>2025-07-04T13:30:02.801Z</time>
      </trkpt>
      <trkpt lat="48.69128" lon="1.92146">
        <ele>174</ele>
        <time>2025-07-04T13:30:07.282Z</time>
      </trkpt>
      <trkpt lat="48.69129" lon="1.92139">
        <ele>174</ele>
        <time>2025-07-04T13:30:11.881Z</time>
      </trkpt>
      <trkpt lat="48.69131" lon="1.92133">
        <ele>174</ele>
        <time>2025-07-04T13:30:16.003Z</time>
      </trkpt>
      <trkpt lat="48.69133" lon="1.92126">
        <ele>174</ele>
        <time>2025-07-04T13:30:20.055Z</time>
      </trkpt>
      <trkpt lat="48.69135" lon="1.92119">
        <ele>173</ele>
        <time>2025-07-04T13:30:24.322Z</time>
      </trkpt>
      <trkpt lat="48.69137" lon="1.92112">
        <ele>173</ele>
        <time>2025-07-04T13:30:28.497Z</time>
      </trkpt>
      <trkpt lat="48.69139" lon="1.92106">
        <ele>173</ele>
        <time>2025-07-04T13:30:32.974Z</time>
      </trkpt>
      <trkpt lat="48.6914" lon="1.921">
        <ele>173</ele>
        <time>2025-07-04T13:30:37.156Z</time>
      </trkpt>
      <trkpt lat="48.69143" lon="1.92094">
        <ele>172</ele>
        <time>2025-07-04T13:30:41.440Z</time>
      </trkpt>
      <trkpt lat="48.69145" lon="1.92088">
        <ele>172</ele>
        <time>2025-07-04T13:30:45.655Z</time>
      </trkpt>
      <trkpt lat="48.69148" lon="1.92083">
        <ele>172</ele>
        <time>2025-07-04T13:30:49.880Z</time>
      </trkpt>
      <trkpt lat="48.69152" lon="1.92078">
        <ele>172</ele>
        <time>2025-07-04T13:30:53.959Z</time>
      </trkpt>
      <trkpt lat="48.69155" lon="1.92074">
        <ele>178</ele>
        <time>2025-07-04T13:30:58.038Z</time>
      </trkpt>
      <trkpt lat="48.69157" lon="1.92067">
        <ele>175</ele>
        <time>2025-07-04T13:31:02.497Z</time>
      </trkpt>
      <trkpt lat="48.6916" lon="1.92061">
        <ele>175</ele>
        <time>2025-07-04T13:31:06.578Z</time>
      </trkpt>
      <trkpt lat="48.69163" lon="1.92055">
        <ele>175</ele>
        <time>2025-07-04T13:31:11.162Z</time>
      </trkpt>
      <trkpt lat="48.69166" lon="1.92049">
        <ele>175</ele>
        <time>2025-07-04T13:31:15.643Z</time>
      </trkpt>
      <trkpt lat="48.6917" lon="1.92045">
        <ele>175</ele>
        <time>2025-07-04T13:31:20.061Z</time>
      </trkpt>
      <trkpt lat="48.69175" lon="1.92042">
        <ele>175</ele>
        <time>2025-07-04T13:31:24.496Z</time>
      </trkpt>
      <trkpt lat="48.6918" lon="1.92042">
        <ele>175</ele>
        <time>2025-07-04T13:31:28.979Z</time>
      </trkpt>
      <trkpt lat="48.69185" lon="1.92044">
        <ele>176</ele>
        <time>2025-07-04T13:31:33.043Z</time>
      </trkpt>
      <trkpt lat="48.6919" lon="1.92046">
        <ele>176</ele>
        <time>2025-07-04T13:31:37.402Z</time>
      </trkpt>
      <trkpt lat="48.69195" lon="1.92048">
        <ele>176</ele>
        <time>2025-07-04T13:31:41.975Z</time>
      </trkpt>
      <trkpt lat="48.692" lon="1.92048">
        <ele>176</ele>
        <time>2025-07-04T13:31:46.498Z</time>
      </trkpt>
      <trkpt lat="48.69205" lon="1.92048">
        <ele>176</ele>
        <time>2025-07-04T13:31:51.098Z</time>
      </trkpt>
      <trkpt lat="48.69211" lon="1.9205">
        <ele>175</ele>
        <time>2025-07-04T13:31:55.654Z</time>
      </trkpt>
      <trkpt lat="48.69216" lon="1.92051">
        <ele>175</ele>
        <time>2025-07-04T13:32:00.194Z</time>
      </trkpt>
      <trkpt lat="48.69221" lon="1.92052">
        <ele>175</ele>
        <time>2025-07-04T13:32:04.500Z</time>
      </trkpt>
      <trkpt lat="48.69227" lon="1.92054">
        <ele>175</ele>
        <time>2025-07-04T13:32:09.240Z</time>
      </trkpt>
      <trkpt lat="48.69233" lon="1.92053">
        <ele>175</ele>
        <time>2025-07-04T13:32:13.779Z</time>
      </trkpt>
      <trkpt lat="48.69239" lon="1.92053">
        <ele>174</ele>
        <time>2025-07-04T13:32:18.320Z</time>
      </trkpt>
      <trkpt lat="48.69244" lon="1.92051">
        <ele>174</ele>
        <time>2025-07-04T13:32:22.859Z</time>
      </trkpt>
      <trkpt lat="48.6925" lon="1.9205">
        <ele>174</ele>
        <time>2025-07-04T13:32:27.219Z</time>
      </trkpt>
      <trkpt lat="48.69255" lon="1.92045">
        <ele>174</ele>
        <time>2025-07-04T13:32:31.501Z</time>
      </trkpt>
      <trkpt lat="48.6926" lon="1.9204">
        <ele>172</ele>
        <time>2025-07-04T13:32:36.061Z</time>
      </trkpt>
      <trkpt lat="48.69265" lon="1.92035">
        <ele>175</ele>
        <time>2025-07-04T13:32:40.500Z</time>
      </trkpt>
      <trkpt lat="48.69267" lon="1.92033">
        <ele>175</ele>
        <time>2025-07-04T13:32:45.378Z</time>
      </trkpt>
      <trkpt lat="48.69269" lon="1.92032">
        <ele>175</ele>
        <time>2025-07-04T13:32:49.499Z</time>
      </trkpt>
      <trkpt lat="48.69276" lon="1.92021">
        <ele>175</ele>
        <time>2025-07-04T13:32:54.014Z</time>
      </trkpt>
      <trkpt lat="48.69279" lon="1.92016">
        <ele>175</ele>
        <time>2025-07-04T13:32:58.358Z</time>
      </trkpt>
      <trkpt lat="48.69282" lon="1.92012">
        <ele>173</ele>
        <time>2025-07-04T13:33:02.496Z</time>
      </trkpt>
      <trkpt lat="48.69285" lon="1.92006">
        <ele>173</ele>
        <time>2025-07-04T13:33:06.960Z</time>
      </trkpt>
      <trkpt lat="48.69287" lon="1.92001">
        <ele>173</ele>
        <time>2025-07-04T13:33:11.277Z</time>
      </trkpt>
      <trkpt lat="48.69289" lon="1.91996">
        <ele>173</ele>
        <time>2025-07-04T13:33:15.498Z</time>
      </trkpt>
      <trkpt lat="48.69292" lon="1.9199">
        <ele>177</ele>
        <time>2025-07-04T13:33:20.177Z</time>
      </trkpt>
      <trkpt lat="48.69294" lon="1.91983">
        <ele>177</ele>
        <time>2025-07-04T13:33:24.497Z</time>
      </trkpt>
      <trkpt lat="48.69295" lon="1.91975">
        <ele>177</ele>
        <time>2025-07-04T13:33:28.736Z</time>
      </trkpt>
      <trkpt lat="48.69296" lon="1.91969">
        <ele>177</ele>
        <time>2025-07-04T13:33:32.756Z</time>
      </trkpt>
      <trkpt lat="48.69297" lon="1.91961">
        <ele>177</ele>
        <time>2025-07-04T13:33:37.262Z</time>
      </trkpt>
      <trkpt lat="48.69298" lon="1.91953">
        <ele>176</ele>
        <time>2025-07-04T13:33:41.775Z</time>
      </trkpt>
      <trkpt lat="48.69297" lon="1.91944">
        <ele>176</ele>
        <time>2025-07-04T13:33:46.222Z</time>
      </trkpt>
      <trkpt lat="48.69297" lon="1.91935">
        <ele>176</ele>
        <time>2025-07-04T13:33:51.283Z</time>
      </trkpt>
      <trkpt lat="48.69297" lon="1.91928">
        <ele>176</ele>
        <time>2025-07-04T13:33:55.498Z</time>
      </trkpt>
      <trkpt lat="48.69298" lon="1.9192">
        <ele>176</ele>
        <time>2025-07-04T13:33:59.738Z</time>
      </trkpt>
      <trkpt lat="48.69299" lon="1.91912">
        <ele>176</ele>
        <time>2025-07-04T13:34:03.801Z</time>
      </trkpt>
      <trkpt lat="48.69301" lon="1.91905">
        <ele>176</ele>
        <time>2025-07-04T13:34:07.818Z</time>
      </trkpt>
      <trkpt lat="48.69304" lon="1.91897">
        <ele>177</ele>
        <time>2025-07-04T13:34:12.376Z</time>
      </trkpt>
      <trkpt lat="48.69306" lon="1.91888">
        <ele>177</ele>
        <time>2025-07-04T13:34:16.942Z</time>
      </trkpt>
      <trkpt lat="48.69307" lon="1.9188">
        <ele>177</ele>
        <time>2025-07-04T13:34:20.962Z</time>
      </trkpt>
      <trkpt lat="48.69307" lon="1.91872">
        <ele>177</ele>
        <time>2025-07-04T13:34:25.116Z</time>
      </trkpt>
      <trkpt lat="48.69309" lon="1.91864">
        <ele>177</ele>
        <time>2025-07-04T13:34:29.222Z</time>
      </trkpt>
      <trkpt lat="48.6931" lon="1.91857">
        <ele>177</ele>
        <time>2025-07-04T13:34:33.239Z</time>
      </trkpt>
      <trkpt lat="48.69312" lon="1.9185">
        <ele>177</ele>
        <time>2025-07-04T13:34:37.363Z</time>
      </trkpt>
      <trkpt lat="48.69314" lon="1.91843">
        <ele>176</ele>
        <time>2025-07-04T13:34:41.738Z</time>
      </trkpt>
      <trkpt lat="48.69316" lon="1.91835">
        <ele>176</ele>
        <time>2025-07-04T13:34:46.142Z</time>
      </trkpt>
      <trkpt lat="48.69318" lon="1.91827">
        <ele>176</ele>
        <time>2025-07-04T13:34:50.496Z</time>
      </trkpt>
      <trkpt lat="48.69321" lon="1.91818">
        <ele>178</ele>
        <time>2025-07-04T13:34:55.195Z</time>
      </trkpt>
      <trkpt lat="48.69322" lon="1.9181">
        <ele>178</ele>
        <time>2025-07-04T13:34:59.702Z</time>
      </trkpt>
      <trkpt lat="48.69324" lon="1.91803">
        <ele>178</ele>
        <time>2025-07-04T13:35:03.959Z</time>
      </trkpt>
      <trkpt lat="48.69326" lon="1.91794">
        <ele>178</ele>
        <time>2025-07-04T13:35:08.259Z</time>
      </trkpt>
      <trkpt lat="48.69329" lon="1.91787">
        <ele>174</ele>
        <time>2025-07-04T13:35:12.799Z</time>
      </trkpt>
      <trkpt lat="48.69331" lon="1.9178">
        <ele>174</ele>
        <time>2025-07-04T13:35:17.301Z</time>
      </trkpt>
      <trkpt lat="48.69334" lon="1.91772">
        <ele>174</ele>
        <time>2025-07-04T13:35:21.862Z</time>
      </trkpt>
      <trkpt lat="48.69337" lon="1.91766">
        <ele>174</ele>
        <time>2025-07-04T13:35:26.493Z</time>
      </trkpt>
      <trkpt lat="48.6934" lon="1.91758">
        <ele>170</ele>
        <time>2025-07-04T13:35:30.916Z</time>
      </trkpt>
      <trkpt lat="48.69343" lon="1.91751">
        <ele>170</ele>
        <time>2025-07-04T13:35:35.335Z</time>
      </trkpt>
      <trkpt lat="48.69345" lon="1.91744">
        <ele>170</ele>
        <time>2025-07-04T13:35:39.456Z</time>
      </trkpt>
      <trkpt lat="48.69348" lon="1.91739">
        <ele>172</ele>
        <time>2025-07-04T13:35:43.802Z</time>
      </trkpt>
      <trkpt lat="48.6935" lon="1.91734">
        <ele>169</ele>
        <time>2025-07-04T13:35:48.502Z</time>
      </trkpt>
      <trkpt lat="48.69351" lon="1.91734">
        <ele>169</ele>
        <time>2025-07-04T13:35:53.496Z</time>
      </trkpt>
      <trkpt lat="48.69351" lon="1.91734">
        <ele>169</ele>
        <time>2025-07-04T13:35:59.152Z</time>
      </trkpt>
      <trkpt lat="48.69352" lon="1.91732">
        <ele>169</ele>
        <time>2025-07-04T13:38:20.499Z</time>
      </trkpt>
      <trkpt lat="48.69352" lon="1.91732">
        <ele>169</ele>
        <time>2025-07-04T13:38:24.500Z</time>
      </trkpt>
      <trkpt lat="48.69352" lon="1.91731">
        <ele>169</ele>
        <time>2025-07-04T13:38:31.494Z</time>
      </trkpt>
      <trkpt lat="48.69354" lon="1.91728">
        <ele>169</ele>
        <time>2025-07-04T13:38:35.499Z</time>
      </trkpt>
      <trkpt lat="48.69355" lon="1.9172">
        <ele>169</ele>
        <time>2025-07-04T13:38:40.382Z</time>
      </trkpt>
      <trkpt lat="48.69356" lon="1.91716">
        <ele>169</ele>
        <time>2025-07-04T13:38:44.497Z</time>
      </trkpt>
      <trkpt lat="48.69358" lon="1.91712">
        <ele>169</ele>
        <time>2025-07-04T13:38:48.737Z</time>
      </trkpt>
      <trkpt lat="48.69359" lon="1.91706">
        <ele>166</ele>
        <time>2025-07-04T13:38:52.959Z</time>
      </trkpt>
      <trkpt lat="48.69359" lon="1.91701">
        <ele>166</ele>
        <time>2025-07-04T13:38:57.243Z</time>
      </trkpt>
      <trkpt lat="48.69359" lon="1.91696">
        <ele>166</ele>
        <time>2025-07-04T13:39:01.279Z</time>
      </trkpt>
      <trkpt lat="48.69358" lon="1.9169">
        <ele>166</ele>
        <time>2025-07-04T13:39:05.497Z</time>
      </trkpt>
      <trkpt lat="48.69356" lon="1.91685">
        <ele>166</ele>
        <time>2025-07-04T13:39:09.823Z</time>
      </trkpt>
      <trkpt lat="48.69355" lon="1.91679">
        <ele>162</ele>
        <time>2025-07-04T13:39:14.064Z</time>
      </trkpt>
      <trkpt lat="48.69356" lon="1.91672">
        <ele>162</ele>
        <time>2025-07-04T13:39:18.422Z</time>
      </trkpt>
      <trkpt lat="48.69359" lon="1.91668">
        <ele>162</ele>
        <time>2025-07-04T13:39:22.740Z</time>
      </trkpt>
      <trkpt lat="48.69363" lon="1.9167">
        <ele>162</ele>
        <time>2025-07-04T13:39:27.075Z</time>
      </trkpt>
      <trkpt lat="48.69367" lon="1.91674">
        <ele>162</ele>
        <time>2025-07-04T13:39:31.496Z</time>
      </trkpt>
      <trkpt lat="48.6937" lon="1.91679">
        <ele>162</ele>
        <time>2025-07-04T13:39:35.659Z</time>
      </trkpt>
      <trkpt lat="48.69373" lon="1.91682">
        <ele>166</ele>
        <time>2025-07-04T13:39:39.680Z</time>
      </trkpt>
      <trkpt lat="48.69377" lon="1.91685">
        <ele>163</ele>
        <time>2025-07-04T13:39:44.107Z</time>
      </trkpt>
      <trkpt lat="48.6938" lon="1.91689">
        <ele>163</ele>
        <time>2025-07-04T13:39:48.126Z</time>
      </trkpt>
      <trkpt lat="48.69384" lon="1.91691">
        <ele>163</ele>
        <time>2025-07-04T13:39:52.500Z</time>
      </trkpt>
      <trkpt lat="48.69388" lon="1.91695">
        <ele>163</ele>
        <time>2025-07-04T13:39:57.257Z</time>
      </trkpt>
      <trkpt lat="48.69392" lon="1.91697">
        <ele>163</ele>
        <time>2025-07-04T13:40:01.507Z</time>
      </trkpt>
      <trkpt lat="48.69396" lon="1.917">
        <ele>163</ele>
        <time>2025-07-04T13:40:06.097Z</time>
      </trkpt>
      <trkpt lat="48.694" lon="1.91703">
        <ele>163</ele>
        <time>2025-07-04T13:40:10.236Z</time>
      </trkpt>
      <trkpt lat="48.69404" lon="1.91706">
        <ele>155</ele>
        <time>2025-07-04T13:40:14.498Z</time>
      </trkpt>
      <trkpt lat="48.69409" lon="1.91711">
        <ele>160</ele>
        <time>2025-07-04T13:40:19.154Z</time>
      </trkpt>
      <trkpt lat="48.69412" lon="1.91713">
        <ele>160</ele>
        <time>2025-07-04T13:40:23.497Z</time>
      </trkpt>
      <trkpt lat="48.69416" lon="1.91707">
        <ele>155</ele>
        <time>2025-07-04T13:40:32.396Z</time>
      </trkpt>
      <trkpt lat="48.69415" lon="1.91704">
        <ele>155</ele>
        <time>2025-07-04T13:40:36.503Z</time>
      </trkpt>
      <trkpt lat="48.69416" lon="1.91703">
        <ele>155</ele>
        <time>2025-07-04T13:40:41.497Z</time>
      </trkpt>
      <trkpt lat="48.69416" lon="1.91701">
        <ele>155</ele>
        <time>2025-07-04T13:40:45.955Z</time>
      </trkpt>
      <trkpt lat="48.69418" lon="1.91696">
        <ele>155</ele>
        <time>2025-07-04T13:40:50.119Z</time>
      </trkpt>
      <trkpt lat="48.69416" lon="1.91688">
        <ele>155</ele>
        <time>2025-07-04T13:40:54.498Z</time>
      </trkpt>
      <trkpt lat="48.69412" lon="1.91682">
        <ele>155</ele>
        <time>2025-07-04T13:40:59.292Z</time>
      </trkpt>
      <trkpt lat="48.69412" lon="1.91677">
        <ele>151</ele>
        <time>2025-07-04T13:41:03.354Z</time>
      </trkpt>
      <trkpt lat="48.69411" lon="1.91671">
        <ele>151</ele>
        <time>2025-07-04T13:41:07.953Z</time>
      </trkpt>
      <trkpt lat="48.69408" lon="1.91666">
        <ele>151</ele>
        <time>2025-07-04T13:41:12.075Z</time>
      </trkpt>
      <trkpt lat="48.69406" lon="1.9166">
        <ele>151</ele>
        <time>2025-07-04T13:41:16.478Z</time>
      </trkpt>
      <trkpt lat="48.69405" lon="1.91654">
        <ele>151</ele>
        <time>2025-07-04T13:41:20.499Z</time>
      </trkpt>
      <trkpt lat="48.69405" lon="1.91649">
        <ele>149</ele>
        <time>2025-07-04T13:41:24.836Z</time>
      </trkpt>
      <trkpt lat="48.69407" lon="1.91644">
        <ele>149</ele>
        <time>2025-07-04T13:41:29.498Z</time>
      </trkpt>
      <trkpt lat="48.69411" lon="1.91639">
        <ele>149</ele>
        <time>2025-07-04T13:41:34.338Z</time>
      </trkpt>
      <trkpt lat="48.69413" lon="1.91635">
        <ele>149</ele>
        <time>2025-07-04T13:41:38.493Z</time>
      </trkpt>
      <trkpt lat="48.69416" lon="1.91631">
        <ele>149</ele>
        <time>2025-07-04T13:41:42.632Z</time>
      </trkpt>
      <trkpt lat="48.69419" lon="1.91626">
        <ele>149</ele>
        <time>2025-07-04T13:41:47.198Z</time>
      </trkpt>
      <trkpt lat="48.6942" lon="1.9162">
        <ele>146</ele>
        <time>2025-07-04T13:41:51.379Z</time>
      </trkpt>
      <trkpt lat="48.69421" lon="1.91614">
        <ele>146</ele>
        <time>2025-07-04T13:41:55.496Z</time>
      </trkpt>
      <trkpt lat="48.69422" lon="1.91608">
        <ele>146</ele>
        <time>2025-07-04T13:42:00.219Z</time>
      </trkpt>
      <trkpt lat="48.69423" lon="1.91602">
        <ele>146</ele>
        <time>2025-07-04T13:42:04.493Z</time>
      </trkpt>
      <trkpt lat="48.69425" lon="1.91595">
        <ele>144</ele>
        <time>2025-07-04T13:42:09.127Z</time>
      </trkpt>
      <trkpt lat="48.69425" lon="1.91589">
        <ele>144</ele>
        <time>2025-07-04T13:42:13.147Z</time>
      </trkpt>
      <trkpt lat="48.69428" lon="1.91583">
        <ele>144</ele>
        <time>2025-07-04T13:42:17.803Z</time>
      </trkpt>
      <trkpt lat="48.69431" lon="1.91584">
        <ele>145</ele>
        <time>2025-07-04T13:42:22.247Z</time>
      </trkpt>
      <trkpt lat="48.69435" lon="1.91585">
        <ele>145</ele>
        <time>2025-07-04T13:42:26.501Z</time>
      </trkpt>
      <trkpt lat="48.69437" lon="1.91585">
        <ele>145</ele>
        <time>2025-07-04T13:42:31.498Z</time>
      </trkpt>
      <trkpt lat="48.69442" lon="1.91586">
        <ele>145</ele>
        <time>2025-07-04T13:42:36.498Z</time>
      </trkpt>
      <trkpt lat="48.69446" lon="1.91588">
        <ele>145</ele>
        <time>2025-07-04T13:42:46.066Z</time>
      </trkpt>
      <trkpt lat="48.69447" lon="1.91591">
        <ele>145</ele>
        <time>2025-07-04T13:42:50.120Z</time>
      </trkpt>
      <trkpt lat="48.69446" lon="1.91596">
        <ele>145</ele>
        <time>2025-07-04T13:42:54.492Z</time>
      </trkpt>
      <trkpt lat="48.69447" lon="1.916">
        <ele>146</ele>
        <time>2025-07-04T13:42:59.302Z</time>
      </trkpt>
      <trkpt lat="48.69449" lon="1.91603">
        <ele>146</ele>
        <time>2025-07-04T13:43:03.903Z</time>
      </trkpt>
      <trkpt lat="48.69451" lon="1.91607">
        <ele>146</ele>
        <time>2025-07-04T13:43:08.305Z</time>
      </trkpt>
      <trkpt lat="48.69453" lon="1.9161">
        <ele>146</ele>
        <time>2025-07-04T13:43:12.887Z</time>
      </trkpt>
      <trkpt lat="48.69455" lon="1.91614">
        <ele>146</ele>
        <time>2025-07-04T13:43:17.266Z</time>
      </trkpt>
      <trkpt lat="48.69457" lon="1.91618">
        <ele>146</ele>
        <time>2025-07-04T13:43:21.300Z</time>
      </trkpt>
      <trkpt lat="48.69459" lon="1.91621">
        <ele>149</ele>
        <time>2025-07-04T13:43:25.496Z</time>
      </trkpt>
      <trkpt lat="48.69461" lon="1.91626">
        <ele>149</ele>
        <time>2025-07-04T13:43:30.405Z</time>
      </trkpt>
      <trkpt lat="48.69463" lon="1.91631">
        <ele>149</ele>
        <time>2025-07-04T13:43:34.503Z</time>
      </trkpt>
      <trkpt lat="48.69467" lon="1.91634">
        <ele>149</ele>
        <time>2025-07-04T13:43:39.042Z</time>
      </trkpt>
      <trkpt lat="48.6947" lon="1.91637">
        <ele>149</ele>
        <time>2025-07-04T13:43:43.188Z</time>
      </trkpt>
      <trkpt lat="48.69473" lon="1.9164">
        <ele>149</ele>
        <time>2025-07-04T13:43:47.492Z</time>
      </trkpt>
      <trkpt lat="48.69476" lon="1.91645">
        <ele>149</ele>
        <time>2025-07-04T13:43:51.926Z</time>
      </trkpt>
      <trkpt lat="48.69479" lon="1.91649">
        <ele>149</ele>
        <time>2025-07-04T13:43:56.303Z</time>
      </trkpt>
      <trkpt lat="48.69482" lon="1.91653">
        <ele>148</ele>
        <time>2025-07-04T13:44:00.348Z</time>
      </trkpt>
      <trkpt lat="48.69485" lon="1.91655">
        <ele>148</ele>
        <time>2025-07-04T13:44:04.402Z</time>
      </trkpt>
      <trkpt lat="48.69489" lon="1.91652">
        <ele>155</ele>
        <time>2025-07-04T13:44:08.499Z</time>
      </trkpt>
      <trkpt lat="48.6949" lon="1.91646">
        <ele>155</ele>
        <time>2025-07-04T13:44:12.986Z</time>
      </trkpt>
      <trkpt lat="48.69491" lon="1.91639">
        <ele>155</ele>
        <time>2025-07-04T13:44:17.494Z</time>
      </trkpt>
      <trkpt lat="48.6949" lon="1.91632">
        <ele>155</ele>
        <time>2025-07-04T13:44:21.987Z</time>
      </trkpt>
      <trkpt lat="48.69491" lon="1.91625">
        <ele>155</ele>
        <time>2025-07-04T13:44:26.497Z</time>
      </trkpt>
      <trkpt lat="48.69492" lon="1.91618">
        <ele>155</ele>
        <time>2025-07-04T13:44:30.947Z</time>
      </trkpt>
      <trkpt lat="48.69492" lon="1.91613">
        <ele>155</ele>
        <time>2025-07-04T13:44:35.248Z</time>
      </trkpt>
      <trkpt lat="48.69492" lon="1.91607">
        <ele>155</ele>
        <time>2025-07-04T13:44:39.463Z</time>
      </trkpt>
      <trkpt lat="48.69494" lon="1.91602">
        <ele>155</ele>
        <time>2025-07-04T13:44:43.495Z</time>
      </trkpt>
      <trkpt lat="48.69498" lon="1.91598">
        <ele>155</ele>
        <time>2025-07-04T13:44:47.946Z</time>
      </trkpt>
      <trkpt lat="48.69503" lon="1.91597">
        <ele>154</ele>
        <time>2025-07-04T13:44:52.067Z</time>
      </trkpt>
      <trkpt lat="48.69508" lon="1.91599">
        <ele>155</ele>
        <time>2025-07-04T13:44:56.643Z</time>
      </trkpt>
      <trkpt lat="48.69513" lon="1.916">
        <ele>155</ele>
        <time>2025-07-04T13:45:00.848Z</time>
      </trkpt>
      <trkpt lat="48.69518" lon="1.91599">
        <ele>162</ele>
        <time>2025-07-04T13:45:05.046Z</time>
      </trkpt>
      <trkpt lat="48.69522" lon="1.91599">
        <ele>162</ele>
        <time>2025-07-04T13:45:09.497Z</time>
      </trkpt>
      <trkpt lat="48.69526" lon="1.91599">
        <ele>162</ele>
        <time>2025-07-04T13:45:13.788Z</time>
      </trkpt>
      <trkpt lat="48.6953" lon="1.91598">
        <ele>162</ele>
        <time>2025-07-04T13:45:17.983Z</time>
      </trkpt>
      <trkpt lat="48.69534" lon="1.91597">
        <ele>162</ele>
        <time>2025-07-04T13:45:22.148Z</time>
      </trkpt>
      <trkpt lat="48.69538" lon="1.91595">
        <ele>160</ele>
        <time>2025-07-04T13:45:26.406Z</time>
      </trkpt>
      <trkpt lat="48.69542" lon="1.91594">
        <ele>160</ele>
        <time>2025-07-04T13:45:30.742Z</time>
      </trkpt>
      <trkpt lat="48.69545" lon="1.91593">
        <ele>167</ele>
        <time>2025-07-04T13:45:35.067Z</time>
      </trkpt>
      <trkpt lat="48.69549" lon="1.91594">
        <ele>167</ele>
        <time>2025-07-04T13:45:39.266Z</time>
      </trkpt>
      <trkpt lat="48.69553" lon="1.91594">
        <ele>167</ele>
        <time>2025-07-04T13:45:43.493Z</time>
      </trkpt>
      <trkpt lat="48.69559" lon="1.91593">
        <ele>167</ele>
        <time>2025-07-04T13:45:47.826Z</time>
      </trkpt>
      <trkpt lat="48.69563" lon="1.91592">
        <ele>167</ele>
        <time>2025-07-04T13:45:51.844Z</time>
      </trkpt>
      <trkpt lat="48.69569" lon="1.91591">
        <ele>167</ele>
        <time>2025-07-04T13:45:56.427Z</time>
      </trkpt>
      <trkpt lat="48.69574" lon="1.91591">
        <ele>173</ele>
        <time>2025-07-04T13:46:00.984Z</time>
      </trkpt>
      <trkpt lat="48.69579" lon="1.91591">
        <ele>173</ele>
        <time>2025-07-04T13:46:05.046Z</time>
      </trkpt>
      <trkpt lat="48.69585" lon="1.91591">
        <ele>173</ele>
        <time>2025-07-04T13:46:09.184Z</time>
      </trkpt>
      <trkpt lat="48.6959" lon="1.91592">
        <ele>173</ele>
        <time>2025-07-04T13:46:13.189Z</time>
      </trkpt>
      <trkpt lat="48.69595" lon="1.91591">
        <ele>173</ele>
        <time>2025-07-04T13:46:17.702Z</time>
      </trkpt>
      <trkpt lat="48.696" lon="1.9159">
        <ele>175</ele>
        <time>2025-07-04T13:46:21.909Z</time>
      </trkpt>
      <trkpt lat="48.69605" lon="1.9159">
        <ele>175</ele>
        <time>2025-07-04T13:46:26.494Z</time>
      </trkpt>
      <trkpt lat="48.69605" lon="1.91587">
        <ele>175</ele>
        <time>2025-07-04T13:46:31.497Z</time>
      </trkpt>
      <trkpt lat="48.69605" lon="1.91583">
        <ele>175</ele>
        <time>2025-07-04T13:46:51.495Z</time>
      </trkpt>
      <trkpt lat="48.69605" lon="1.91583">
        <ele>175</ele>
        <time>2025-07-04T13:46:55.494Z</time>
      </trkpt>
      <trkpt lat="48.69605" lon="1.9158">
        <ele>175</ele>
        <time>2025-07-04T13:47:00.223Z</time>
      </trkpt>
      <trkpt lat="48.6961" lon="1.91579">
        <ele>175</ele>
        <time>2025-07-04T13:47:04.302Z</time>
      </trkpt>
      <trkpt lat="48.69618" lon="1.91581">
        <ele>175</ele>
        <time>2025-07-04T13:47:08.876Z</time>
      </trkpt>
      <trkpt lat="48.69625" lon="1.91582">
        <ele>176</ele>
        <time>2025-07-04T13:47:13.459Z</time>
      </trkpt>
      <trkpt lat="48.69631" lon="1.91582">
        <ele>176</ele>
        <time>2025-07-04T13:47:17.905Z</time>
      </trkpt>
      <trkpt lat="48.69637" lon="1.91584">
        <ele>176</ele>
        <time>2025-07-04T13:47:22.461Z</time>
      </trkpt>
      <trkpt lat="48.69643" lon="1.91588">
        <ele>176</ele>
        <time>2025-07-04T13:47:27.492Z</time>
      </trkpt>
      <trkpt lat="48.69648" lon="1.91593">
        <ele>176</ele>
        <time>2025-07-04T13:47:32.138Z</time>
      </trkpt>
      <trkpt lat="48.69652" lon="1.91598">
        <ele>175</ele>
        <time>2025-07-04T13:47:36.679Z</time>
      </trkpt>
      <trkpt lat="48.69657" lon="1.91602">
        <ele>177</ele>
        <time>2025-07-04T13:47:41.203Z</time>
      </trkpt>
      <trkpt lat="48.69662" lon="1.91608">
        <ele>177</ele>
        <time>2025-07-04T13:47:45.716Z</time>
      </trkpt>
      <trkpt lat="48.69667" lon="1.91614">
        <ele>177</ele>
        <time>2025-07-04T13:47:50.119Z</time>
      </trkpt>
      <trkpt lat="48.69672" lon="1.9162">
        <ele>177</ele>
        <time>2025-07-04T13:47:54.599Z</time>
      </trkpt>
      <trkpt lat="48.69676" lon="1.91626">
        <ele>176</ele>
        <time>2025-07-04T13:47:59.242Z</time>
      </trkpt>
      <trkpt lat="48.69681" lon="1.91631">
        <ele>177</ele>
        <time>2025-07-04T13:48:03.858Z</time>
      </trkpt>
      <trkpt lat="48.69686" lon="1.91635">
        <ele>177</ele>
        <time>2025-07-04T13:48:08.082Z</time>
      </trkpt>
      <trkpt lat="48.69691" lon="1.9164">
        <ele>177</ele>
        <time>2025-07-04T13:48:12.493Z</time>
      </trkpt>
      <trkpt lat="48.69696" lon="1.91645">
        <ele>177</ele>
        <time>2025-07-04T13:48:17Z</time>
      </trkpt>
      <trkpt lat="48.69701" lon="1.91649">
        <ele>177</ele>
        <time>2025-07-04T13:48:21.497Z</time>
      </trkpt>
      <trkpt lat="48.69706" lon="1.91653">
        <ele>176</ele>
        <time>2025-07-04T13:48:25.959Z</time>
      </trkpt>
      <trkpt lat="48.69712" lon="1.91658">
        <ele>177</ele>
        <time>2025-07-04T13:48:30.495Z</time>
      </trkpt>
      <trkpt lat="48.69718" lon="1.91664">
        <ele>177</ele>
        <time>2025-07-04T13:48:34.920Z</time>
      </trkpt>
      <trkpt lat="48.69723" lon="1.91669">
        <ele>177</ele>
        <time>2025-07-04T13:48:39.203Z</time>
      </trkpt>
      <trkpt lat="48.69728" lon="1.91675">
        <ele>177</ele>
        <time>2025-07-04T13:48:43.500Z</time>
      </trkpt>
      <trkpt lat="48.69733" lon="1.91681">
        <ele>176</ele>
        <time>2025-07-04T13:48:47.796Z</time>
      </trkpt>
      <trkpt lat="48.69737" lon="1.91687">
        <ele>178</ele>
        <time>2025-07-04T13:48:52.182Z</time>
      </trkpt>
      <trkpt lat="48.69741" lon="1.91692">
        <ele>178</ele>
        <time>2025-07-04T13:48:56.722Z</time>
      </trkpt>
      <trkpt lat="48.69745" lon="1.91698">
        <ele>178</ele>
        <time>2025-07-04T13:49:01.101Z</time>
      </trkpt>
      <trkpt lat="48.6975" lon="1.91703">
        <ele>178</ele>
        <time>2025-07-04T13:49:05.402Z</time>
      </trkpt>
      <trkpt lat="48.69755" lon="1.91707">
        <ele>178</ele>
        <time>2025-07-04T13:49:09.437Z</time>
      </trkpt>
      <trkpt lat="48.6976" lon="1.91713">
        <ele>177</ele>
        <time>2025-07-04T13:49:14.036Z</time>
      </trkpt>
      <trkpt lat="48.69764" lon="1.91717">
        <ele>179</ele>
        <time>2025-07-04T13:49:18.423Z</time>
      </trkpt>
      <trkpt lat="48.69768" lon="1.91721">
        <ele>179</ele>
        <time>2025-07-04T13:49:22.902Z</time>
      </trkpt>
      <trkpt lat="48.69772" lon="1.91725">
        <ele>179</ele>
        <time>2025-07-04T13:49:26.938Z</time>
      </trkpt>
      <trkpt lat="48.69777" lon="1.91729">
        <ele>179</ele>
        <time>2025-07-04T13:49:31.061Z</time>
      </trkpt>
      <trkpt lat="48.69781" lon="1.91733">
        <ele>179</ele>
        <time>2025-07-04T13:49:35.498Z</time>
      </trkpt>
      <trkpt lat="48.69785" lon="1.91738">
        <ele>178</ele>
        <time>2025-07-04T13:49:39.884Z</time>
      </trkpt>
      <trkpt lat="48.69791" lon="1.91743">
        <ele>178</ele>
        <time>2025-07-04T13:49:44.495Z</time>
      </trkpt>
      <trkpt lat="48.69795" lon="1.91747">
        <ele>181</ele>
        <time>2025-07-04T13:49:48.997Z</time>
      </trkpt>
      <trkpt lat="48.698" lon="1.9175">
        <ele>181</ele>
        <time>2025-07-04T13:49:53.016Z</time>
      </trkpt>
      <trkpt lat="48.69805" lon="1.91753">
        <ele>181</ele>
        <time>2025-07-04T13:49:57.462Z</time>
      </trkpt>
      <trkpt lat="48.69811" lon="1.91756">
        <ele>181</ele>
        <time>2025-07-04T13:50:01.916Z</time>
      </trkpt>
      <trkpt lat="48.69817" lon="1.91759">
        <ele>181</ele>
        <time>2025-07-04T13:50:06.500Z</time>
      </trkpt>
      <trkpt lat="48.69821" lon="1.91761">
        <ele>183</ele>
        <time>2025-07-04T13:50:10.495Z</time>
      </trkpt>
      <trkpt lat="48.69827" lon="1.91764">
        <ele>183</ele>
        <time>2025-07-04T13:50:14.999Z</time>
      </trkpt>
      <trkpt lat="48.69832" lon="1.91765">
        <ele>181</ele>
        <time>2025-07-04T13:50:19.478Z</time>
      </trkpt>
      <trkpt lat="48.69837" lon="1.91768">
        <ele>181</ele>
        <time>2025-07-04T13:50:23.498Z</time>
      </trkpt>
      <trkpt lat="48.69842" lon="1.91772">
        <ele>181</ele>
        <time>2025-07-04T13:50:27.961Z</time>
      </trkpt>
      <trkpt lat="48.69847" lon="1.91773">
        <ele>181</ele>
        <time>2025-07-04T13:50:32.084Z</time>
      </trkpt>
      <trkpt lat="48.69852" lon="1.91776">
        <ele>182</ele>
        <time>2025-07-04T13:50:36.496Z</time>
      </trkpt>
      <trkpt lat="48.69856" lon="1.91777">
        <ele>182</ele>
        <time>2025-07-04T13:50:40.965Z</time>
      </trkpt>
      <trkpt lat="48.6986" lon="1.91777">
        <ele>182</ele>
        <time>2025-07-04T13:50:45.242Z</time>
      </trkpt>
      <trkpt lat="48.69862" lon="1.91778">
        <ele>182</ele>
        <time>2025-07-04T13:50:49.494Z</time>
      </trkpt>
      <trkpt lat="48.69862" lon="1.91778">
        <ele>182</ele>
        <time>2025-07-04T13:50:54.303Z</time>
      </trkpt>
      <trkpt lat="48.69866" lon="1.91778">
        <ele>182</ele>
        <time>2025-07-04T13:50:58.382Z</time>
      </trkpt>
      <trkpt lat="48.6987" lon="1.9178">
        <ele>182</ele>
        <time>2025-07-04T13:51:02.498Z</time>
      </trkpt>
      <trkpt lat="48.69873" lon="1.91783">
        <ele>182</ele>
        <time>2025-07-04T13:51:07.120Z</time>
      </trkpt>
      <trkpt lat="48.69877" lon="1.91787">
        <ele>181</ele>
        <time>2025-07-04T13:51:11.438Z</time>
      </trkpt>
      <trkpt lat="48.69881" lon="1.91785">
        <ele>181</ele>
        <time>2025-07-04T13:51:15.842Z</time>
      </trkpt>
      <trkpt lat="48.69886" lon="1.9178">
        <ele>181</ele>
        <time>2025-07-04T13:51:20.494Z</time>
      </trkpt>
      <trkpt lat="48.69891" lon="1.91777">
        <ele>181</ele>
        <time>2025-07-04T13:51:25.159Z</time>
      </trkpt>
      <trkpt lat="48.69896" lon="1.91775">
        <ele>181</ele>
        <time>2025-07-04T13:51:29.297Z</time>
      </trkpt>
      <trkpt lat="48.69901" lon="1.91773">
        <ele>181</ele>
        <time>2025-07-04T13:51:33.503Z</time>
      </trkpt>
      <trkpt lat="48.69906" lon="1.9177">
        <ele>182</ele>
        <time>2025-07-04T13:51:38.402Z</time>
      </trkpt>
      <trkpt lat="48.69909" lon="1.91767">
        <ele>182</ele>
        <time>2025-07-04T13:51:42.495Z</time>
      </trkpt>
      <trkpt lat="48.69914" lon="1.91763">
        <ele>180</ele>
        <time>2025-07-04T13:51:46.637Z</time>
      </trkpt>
      <trkpt lat="48.69918" lon="1.9176">
        <ele>180</ele>
        <time>2025-07-04T13:51:50.655Z</time>
      </trkpt>
      <trkpt lat="48.69923" lon="1.91757">
        <ele>180</ele>
        <time>2025-07-04T13:51:54.718Z</time>
      </trkpt>
      <trkpt lat="48.69927" lon="1.91754">
        <ele>180</ele>
        <time>2025-07-04T13:51:59.062Z</time>
      </trkpt>
      <trkpt lat="48.69929" lon="1.91753">
        <ele>180</ele>
        <time>2025-07-04T13:52:03.495Z</time>
      </trkpt>
      <trkpt lat="48.6993" lon="1.91752">
        <ele>180</ele>
        <time>2025-07-04T13:52:07.962Z</time>
      </trkpt>
      <trkpt lat="48.69929" lon="1.91745">
        <ele>180</ele>
        <time>2025-07-04T13:52:12.398Z</time>
      </trkpt>
      <trkpt lat="48.69927" lon="1.91736">
        <ele>176</ele>
        <time>2025-07-04T13:52:16.759Z</time>
      </trkpt>
      <trkpt lat="48.69925" lon="1.91728">
        <ele>176</ele>
        <time>2025-07-04T13:52:20.822Z</time>
      </trkpt>
      <trkpt lat="48.69925" lon="1.91721">
        <ele>176</ele>
        <time>2025-07-04T13:52:25.257Z</time>
      </trkpt>
      <trkpt lat="48.69924" lon="1.91714">
        <ele>176</ele>
        <time>2025-07-04T13:52:29.857Z</time>
      </trkpt>
      <trkpt lat="48.69923" lon="1.91708">
        <ele>171</ele>
        <time>2025-07-04T13:52:33.876Z</time>
      </trkpt>
      <trkpt lat="48.69923" lon="1.91702">
        <ele>171</ele>
        <time>2025-07-04T13:52:38.102Z</time>
      </trkpt>
      <trkpt lat="48.69925" lon="1.91695">
        <ele>171</ele>
        <time>2025-07-04T13:52:42.510Z</time>
      </trkpt>
      <trkpt lat="48.69928" lon="1.91687">
        <ele>171</ele>
        <time>2025-07-04T13:52:46.883Z</time>
      </trkpt>
      <trkpt lat="48.69932" lon="1.91681">
        <ele>175</ele>
        <time>2025-07-04T13:52:51.497Z</time>
      </trkpt>
      <trkpt lat="48.69935" lon="1.91677">
        <ele>171</ele>
        <time>2025-07-04T13:52:55.723Z</time>
      </trkpt>
      <trkpt lat="48.69939" lon="1.91674">
        <ele>171</ele>
        <time>2025-07-04T13:52:59.879Z</time>
      </trkpt>
      <trkpt lat="48.69943" lon="1.91669">
        <ele>171</ele>
        <time>2025-07-04T13:53:04.084Z</time>
      </trkpt>
      <trkpt lat="48.69947" lon="1.91665">
        <ele>171</ele>
        <time>2025-07-04T13:53:08.491Z</time>
      </trkpt>
      <trkpt lat="48.69949" lon="1.91657">
        <ele>171</ele>
        <time>2025-07-04T13:53:13.492Z</time>
      </trkpt>
      <trkpt lat="48.6995" lon="1.91648">
        <ele>169</ele>
        <time>2025-07-04T13:53:17.959Z</time>
      </trkpt>
      <trkpt lat="48.69953" lon="1.91643">
        <ele>169</ele>
        <time>2025-07-04T13:53:21.978Z</time>
      </trkpt>
      <trkpt lat="48.69954" lon="1.91638">
        <ele>169</ele>
        <time>2025-07-04T13:53:26.142Z</time>
      </trkpt>
      <trkpt lat="48.69954" lon="1.9163">
        <ele>169</ele>
        <time>2025-07-04T13:53:30.443Z</time>
      </trkpt>
      <trkpt lat="48.69956" lon="1.91624">
        <ele>168</ele>
        <time>2025-07-04T13:53:34.462Z</time>
      </trkpt>
      <trkpt lat="48.69957" lon="1.91618">
        <ele>168</ele>
        <time>2025-07-04T13:53:39.018Z</time>
      </trkpt>
      <trkpt lat="48.69957" lon="1.91611">
        <ele>168</ele>
        <time>2025-07-04T13:53:43.493Z</time>
      </trkpt>
      <trkpt lat="48.69958" lon="1.91605">
        <ele>168</ele>
        <time>2025-07-04T13:53:47.843Z</time>
      </trkpt>
      <trkpt lat="48.69958" lon="1.91599">
        <ele>168</ele>
        <time>2025-07-04T13:53:52.262Z</time>
      </trkpt>
      <trkpt lat="48.69959" lon="1.91594">
        <ele>176</ele>
        <time>2025-07-04T13:53:56.491Z</time>
      </trkpt>
      <trkpt lat="48.69962" lon="1.91588">
        <ele>176</ele>
        <time>2025-07-04T13:54:01.494Z</time>
      </trkpt>
      <trkpt lat="48.69963" lon="1.91584">
        <ele>176</ele>
        <time>2025-07-04T13:54:06.492Z</time>
      </trkpt>
      <trkpt lat="48.69962" lon="1.91584">
        <ele>176</ele>
        <time>2025-07-04T13:54:11.198Z</time>
      </trkpt>
      <trkpt lat="48.69963" lon="1.91576">
        <ele>176</ele>
        <time>2025-07-04T13:54:15.422Z</time>
      </trkpt>
      <trkpt lat="48.69962" lon="1.91568">
        <ele>175</ele>
        <time>2025-07-04T13:54:19.962Z</time>
      </trkpt>
      <trkpt lat="48.6996" lon="1.9156">
        <ele>175</ele>
        <time>2025-07-04T13:54:24.262Z</time>
      </trkpt>
      <trkpt lat="48.69959" lon="1.91554">
        <ele>175</ele>
        <time>2025-07-04T13:54:28.492Z</time>
      </trkpt>
      <trkpt lat="48.69957" lon="1.91547">
        <ele>165</ele>
        <time>2025-07-04T13:54:32.642Z</time>
      </trkpt>
      <trkpt lat="48.69956" lon="1.91539">
        <ele>165</ele>
        <time>2025-07-04T13:54:37.198Z</time>
      </trkpt>
      <trkpt lat="48.69955" lon="1.91532">
        <ele>165</ele>
        <time>2025-07-04T13:54:41.493Z</time>
      </trkpt>
      <trkpt lat="48.69955" lon="1.91524">
        <ele>165</ele>
        <time>2025-07-04T13:54:46.494Z</time>
      </trkpt>
      <trkpt lat="48.69956" lon="1.91517">
        <ele>165</ele>
        <time>2025-07-04T13:54:51.490Z</time>
      </trkpt>
      <trkpt lat="48.69958" lon="1.91511">
        <ele>165</ele>
        <time>2025-07-04T13:54:56.364Z</time>
      </trkpt>
      <trkpt lat="48.69959" lon="1.91507">
        <ele>173</ele>
        <time>2025-07-04T13:55:00.507Z</time>
      </trkpt>
      <trkpt lat="48.69958" lon="1.91501">
        <ele>173</ele>
        <time>2025-07-04T13:55:05.495Z</time>
      </trkpt>
      <trkpt lat="48.69958" lon="1.91494">
        <ele>165</ele>
        <time>2025-07-04T13:55:09.863Z</time>
      </trkpt>
      <trkpt lat="48.69956" lon="1.91488">
        <ele>165</ele>
        <time>2025-07-04T13:55:14.344Z</time>
      </trkpt>
      <trkpt lat="48.69957" lon="1.91469">
        <ele>164</ele>
        <time>2025-07-04T13:55:37.500Z</time>
      </trkpt>
      <trkpt lat="48.69957" lon="1.91469">
        <ele>164</ele>
        <time>2025-07-04T13:55:42.495Z</time>
      </trkpt>
      <trkpt lat="48.69959" lon="1.9147">
        <ele>173</ele>
        <time>2025-07-04T13:55:47.077Z</time>
      </trkpt>
      <trkpt lat="48.69963" lon="1.91475">
        <ele>173</ele>
        <time>2025-07-04T13:55:51.284Z</time>
      </trkpt>
      <trkpt lat="48.69967" lon="1.91479">
        <ele>173</ele>
        <time>2025-07-04T13:55:55.899Z</time>
      </trkpt>
      <trkpt lat="48.69971" lon="1.91484">
        <ele>173</ele>
        <time>2025-07-04T13:56:00.379Z</time>
      </trkpt>
      <trkpt lat="48.69974" lon="1.91488">
        <ele>173</ele>
        <time>2025-07-04T13:56:04.996Z</time>
      </trkpt>
      <trkpt lat="48.69977" lon="1.91491">
        <ele>173</ele>
        <time>2025-07-04T13:56:09.237Z</time>
      </trkpt>
      <trkpt lat="48.69979" lon="1.91496">
        <ele>173</ele>
        <time>2025-07-04T13:56:13.818Z</time>
      </trkpt>
      <trkpt lat="48.69985" lon="1.91501">
        <ele>173</ele>
        <time>2025-07-04T13:56:37.183Z</time>
      </trkpt>
      <trkpt lat="48.69986" lon="1.91498">
        <ele>179</ele>
        <time>2025-07-04T13:56:41.740Z</time>
      </trkpt>
      <trkpt lat="48.69988" lon="1.91489">
        <ele>179</ele>
        <time>2025-07-04T13:56:46.442Z</time>
      </trkpt>
      <trkpt lat="48.6999" lon="1.91482">
        <ele>180</ele>
        <time>2025-07-04T13:56:50.492Z</time>
      </trkpt>
      <trkpt lat="48.69992" lon="1.91474">
        <ele>180</ele>
        <time>2025-07-04T13:56:55.023Z</time>
      </trkpt>
      <trkpt lat="48.6999" lon="1.91465">
        <ele>180</ele>
        <time>2025-07-04T13:56:59.495Z</time>
      </trkpt>
      <trkpt lat="48.6999" lon="1.91456">
        <ele>180</ele>
        <time>2025-07-04T13:57:03.964Z</time>
      </trkpt>
      <trkpt lat="48.69992" lon="1.91449">
        <ele>180</ele>
        <time>2025-07-04T13:57:08.479Z</time>
      </trkpt>
      <trkpt lat="48.69993" lon="1.91442">
        <ele>180</ele>
        <time>2025-07-04T13:57:12.498Z</time>
      </trkpt>
      <trkpt lat="48.69995" lon="1.91438">
        <ele>180</ele>
        <time>2025-07-04T13:57:16.853Z</time>
      </trkpt>
      <trkpt lat="48.69995" lon="1.91429">
        <ele>180</ele>
        <time>2025-07-04T13:57:21.299Z</time>
      </trkpt>
      <trkpt lat="48.69992" lon="1.91423">
        <ele>180</ele>
        <time>2025-07-04T13:57:26.368Z</time>
      </trkpt>
      <trkpt lat="48.6999" lon="1.91417">
        <ele>180</ele>
        <time>2025-07-04T13:57:30.557Z</time>
      </trkpt>
      <trkpt lat="48.69988" lon="1.91408">
        <ele>180</ele>
        <time>2025-07-04T13:57:35.115Z</time>
      </trkpt>
      <trkpt lat="48.69989" lon="1.91397">
        <ele>179</ele>
        <time>2025-07-04T13:57:39.219Z</time>
      </trkpt>
      <trkpt lat="48.69992" lon="1.91386">
        <ele>179</ele>
        <time>2025-07-04T13:57:43.674Z</time>
      </trkpt>
      <trkpt lat="48.69993" lon="1.91377">
        <ele>179</ele>
        <time>2025-07-04T13:57:47.821Z</time>
      </trkpt>
      <trkpt lat="48.69994" lon="1.91368">
        <ele>177</ele>
        <time>2025-07-04T13:57:51.857Z</time>
      </trkpt>
      <trkpt lat="48.69994" lon="1.91359">
        <ele>177</ele>
        <time>2025-07-04T13:57:56.054Z</time>
      </trkpt>
      <trkpt lat="48.69992" lon="1.91351">
        <ele>177</ele>
        <time>2025-07-04T13:58:00.074Z</time>
      </trkpt>
      <trkpt lat="48.69993" lon="1.91343">
        <ele>174</ele>
        <time>2025-07-04T13:58:04.238Z</time>
      </trkpt>
      <trkpt lat="48.69993" lon="1.91336">
        <ele>174</ele>
        <time>2025-07-04T13:58:08.419Z</time>
      </trkpt>
      <trkpt lat="48.69994" lon="1.91329">
        <ele>174</ele>
        <time>2025-07-04T13:58:12.501Z</time>
      </trkpt>
      <trkpt lat="48.69996" lon="1.91323">
        <ele>174</ele>
        <time>2025-07-04T13:58:16.918Z</time>
      </trkpt>
      <trkpt lat="48.69998" lon="1.91315">
        <ele>171</ele>
        <time>2025-07-04T13:58:21.494Z</time>
      </trkpt>
      <trkpt lat="48.7" lon="1.91307">
        <ele>171</ele>
        <time>2025-07-04T13:58:26.118Z</time>
      </trkpt>
      <trkpt lat="48.70002" lon="1.91299">
        <ele>171</ele>
        <time>2025-07-04T13:58:30.616Z</time>
      </trkpt>
      <trkpt lat="48.70005" lon="1.91292">
        <ele>171</ele>
        <time>2025-07-04T13:58:35.120Z</time>
      </trkpt>
      <trkpt lat="48.7001" lon="1.91289">
        <ele>168</ele>
        <time>2025-07-04T13:58:39.659Z</time>
      </trkpt>
      <trkpt lat="48.70017" lon="1.91287">
        <ele>174</ele>
        <time>2025-07-04T13:58:44.395Z</time>
      </trkpt>
      <trkpt lat="48.70021" lon="1.91285">
        <ele>174</ele>
        <time>2025-07-04T13:58:48.494Z</time>
      </trkpt>
      <trkpt lat="48.70026" lon="1.91281">
        <ele>174</ele>
        <time>2025-07-04T13:58:52.954Z</time>
      </trkpt>
      <trkpt lat="48.70031" lon="1.91276">
        <ele>174</ele>
        <time>2025-07-04T13:58:57.399Z</time>
      </trkpt>
      <trkpt lat="48.70036" lon="1.91274">
        <ele>174</ele>
        <time>2025-07-04T13:59:01.492Z</time>
      </trkpt>
      <trkpt lat="48.70043" lon="1.91273">
        <ele>179</ele>
        <time>2025-07-04T13:59:06.121Z</time>
      </trkpt>
      <trkpt lat="48.70047" lon="1.91268">
        <ele>179</ele>
        <time>2025-07-04T13:59:10.499Z</time>
      </trkpt>
      <trkpt lat="48.70052" lon="1.91264">
        <ele>179</ele>
        <time>2025-07-04T13:59:14.875Z</time>
      </trkpt>
      <trkpt lat="48.70058" lon="1.91261">
        <ele>179</ele>
        <time>2025-07-04T13:59:19.415Z</time>
      </trkpt>
      <trkpt lat="48.70062" lon="1.91257">
        <ele>179</ele>
        <time>2025-07-04T13:59:23.476Z</time>
      </trkpt>
      <trkpt lat="48.70066" lon="1.91254">
        <ele>179</ele>
        <time>2025-07-04T13:59:27.492Z</time>
      </trkpt>
      <trkpt lat="48.7007" lon="1.91247">
        <ele>184</ele>
        <time>2025-07-04T13:59:31.786Z</time>
      </trkpt>
      <trkpt lat="48.70073" lon="1.9124">
        <ele>184</ele>
        <time>2025-07-04T13:59:36.175Z</time>
      </trkpt>
      <trkpt lat="48.70074" lon="1.91232">
        <ele>185</ele>
        <time>2025-07-04T13:59:41.497Z</time>
      </trkpt>
      <trkpt lat="48.70073" lon="1.91231">
        <ele>185</ele>
        <time>2025-07-04T13:59:46.260Z</time>
      </trkpt>
      <trkpt lat="48.70073" lon="1.91226">
        <ele>185</ele>
        <time>2025-07-04T13:59:50.494Z</time>
      </trkpt>
      <trkpt lat="48.70074" lon="1.91223">
        <ele>185</ele>
        <time>2025-07-04T13:59:54.878Z</time>
      </trkpt>
      <trkpt lat="48.70074" lon="1.91224">
        <ele>185</ele>
        <time>2025-07-04T14:00:37.495Z</time>
      </trkpt>
      <trkpt lat="48.70075" lon="1.91225">
        <ele>185</ele>
        <time>2025-07-04T14:00:42.493Z</time>
      </trkpt>
      <trkpt lat="48.70078" lon="1.91226">
        <ele>185</ele>
        <time>2025-07-04T14:00:47.495Z</time>
      </trkpt>
      <trkpt lat="48.7008" lon="1.91225">
        <ele>185</ele>
        <time>2025-07-04T14:00:52.282Z</time>
      </trkpt>
      <trkpt lat="48.70083" lon="1.91224">
        <ele>185</ele>
        <time>2025-07-04T14:00:56.360Z</time>
      </trkpt>
      <trkpt lat="48.70089" lon="1.91226">
        <ele>185</ele>
        <time>2025-07-04T14:01:00.814Z</time>
      </trkpt>
      <trkpt lat="48.70093" lon="1.91229">
        <ele>185</ele>
        <time>2025-07-04T14:01:05.098Z</time>
      </trkpt>
      <trkpt lat="48.70096" lon="1.9123">
        <ele>185</ele>
        <time>2025-07-04T14:01:09.116Z</time>
      </trkpt>
      <trkpt lat="48.70102" lon="1.91231">
        <ele>187</ele>
        <time>2025-07-04T14:01:13.496Z</time>
      </trkpt>
      <trkpt lat="48.70106" lon="1.91226">
        <ele>187</ele>
        <time>2025-07-04T14:01:18.136Z</time>
      </trkpt>
      <trkpt lat="48.7011" lon="1.91217">
        <ele>187</ele>
        <time>2025-07-04T14:01:22.703Z</time>
      </trkpt>
      <trkpt lat="48.70113" lon="1.9121">
        <ele>187</ele>
        <time>2025-07-04T14:01:26.994Z</time>
      </trkpt>
      <trkpt lat="48.70117" lon="1.91204">
        <ele>187</ele>
        <time>2025-07-04T14:01:31.380Z</time>
      </trkpt>
      <trkpt lat="48.7012" lon="1.91201">
        <ele>187</ele>
        <time>2025-07-04T14:01:35.494Z</time>
      </trkpt>
      <trkpt lat="48.70124" lon="1.91201">
        <ele>187</ele>
        <time>2025-07-04T14:01:39.793Z</time>
      </trkpt>
      <trkpt lat="48.7013" lon="1.91202">
        <ele>186</ele>
        <time>2025-07-04T14:01:44.256Z</time>
      </trkpt>
      <trkpt lat="48.70135" lon="1.91203">
        <ele>186</ele>
        <time>2025-07-04T14:01:48.420Z</time>
      </trkpt>
      <trkpt lat="48.70138" lon="1.912">
        <ele>186</ele>
        <time>2025-07-04T14:01:58.496Z</time>
      </trkpt>
      <trkpt lat="48.70137" lon="1.91199">
        <ele>186</ele>
        <time>2025-07-04T14:02:03.492Z</time>
      </trkpt>
      <trkpt lat="48.70136" lon="1.91199">
        <ele>186</ele>
        <time>2025-07-04T14:02:08.097Z</time>
      </trkpt>
      <trkpt lat="48.70133" lon="1.91198">
        <ele>186</ele>
        <time>2025-07-04T14:02:12.338Z</time>
      </trkpt>
      <trkpt lat="48.70127" lon="1.91191">
        <ele>186</ele>
        <time>2025-07-04T14:02:16.921Z</time>
      </trkpt>
      <trkpt lat="48.70127" lon="1.91183">
        <ele>186</ele>
        <time>2025-07-04T14:02:21.195Z</time>
      </trkpt>
      <trkpt lat="48.7013" lon="1.91178">
        <ele>186</ele>
        <time>2025-07-04T14:02:25.507Z</time>
      </trkpt>
      <trkpt lat="48.70128" lon="1.91176">
        <ele>186</ele>
        <time>2025-07-04T14:02:30.301Z</time>
      </trkpt>
      <trkpt lat="48.70126" lon="1.91169">
        <ele>186</ele>
        <time>2025-07-04T14:02:34.721Z</time>
      </trkpt>
      <trkpt lat="48.70118" lon="1.91148">
        <ele>187</ele>
        <time>2025-07-04T14:02:51.795Z</time>
      </trkpt>
      <trkpt lat="48.7012" lon="1.9114">
        <ele>187</ele>
        <time>2025-07-04T14:02:56.096Z</time>
      </trkpt>
      <trkpt lat="48.70122" lon="1.91133">
        <ele>187</ele>
        <time>2025-07-04T14:03:00.495Z</time>
      </trkpt>
      <trkpt lat="48.70126" lon="1.91126">
        <ele>186</ele>
        <time>2025-07-04T14:03:05.218Z</time>
      </trkpt>
      <trkpt lat="48.70128" lon="1.91121">
        <ele>185</ele>
        <time>2025-07-04T14:03:09.416Z</time>
      </trkpt>
      <trkpt lat="48.70131" lon="1.91115">
        <ele>185</ele>
        <time>2025-07-04T14:03:13.492Z</time>
      </trkpt>
      <trkpt lat="48.70132" lon="1.91106">
        <ele>185</ele>
        <time>2025-07-04T14:03:17.720Z</time>
      </trkpt>
      <trkpt lat="48.70133" lon="1.91097">
        <ele>183</ele>
        <time>2025-07-04T14:03:22.378Z</time>
      </trkpt>
      <trkpt lat="48.70135" lon="1.91089">
        <ele>183</ele>
        <time>2025-07-04T14:03:26.501Z</time>
      </trkpt>
      <trkpt lat="48.70137" lon="1.91081">
        <ele>183</ele>
        <time>2025-07-04T14:03:30.638Z</time>
      </trkpt>
      <trkpt lat="48.70139" lon="1.91073">
        <ele>183</ele>
        <time>2025-07-04T14:03:34.836Z</time>
      </trkpt>
      <trkpt lat="48.7014" lon="1.91064">
        <ele>180</ele>
        <time>2025-07-04T14:03:39.215Z</time>
      </trkpt>
      <trkpt lat="48.7014" lon="1.91056">
        <ele>180</ele>
        <time>2025-07-04T14:03:43.500Z</time>
      </trkpt>
      <trkpt lat="48.70139" lon="1.91048">
        <ele>180</ele>
        <time>2025-07-04T14:03:48.275Z</time>
      </trkpt>
      <trkpt lat="48.70141" lon="1.91041">
        <ele>178</ele>
        <time>2025-07-04T14:03:52.492Z</time>
      </trkpt>
      <trkpt lat="48.70144" lon="1.91035">
        <ele>178</ele>
        <time>2025-07-04T14:03:57.457Z</time>
      </trkpt>
      <trkpt lat="48.70147" lon="1.91036">
        <ele>178</ele>
        <time>2025-07-04T14:04:01.494Z</time>
      </trkpt>
      <trkpt lat="48.7015" lon="1.91034">
        <ele>178</ele>
        <time>2025-07-04T14:04:06.033Z</time>
      </trkpt>
      <trkpt lat="48.70153" lon="1.91027">
        <ele>175</ele>
        <time>2025-07-04T14:04:10.436Z</time>
      </trkpt>
      <trkpt lat="48.70154" lon="1.91022">
        <ele>175</ele>
        <time>2025-07-04T14:04:14.915Z</time>
      </trkpt>
      <trkpt lat="48.70155" lon="1.91014">
        <ele>175</ele>
        <time>2025-07-04T14:04:19.492Z</time>
      </trkpt>
      <trkpt lat="48.70157" lon="1.91005">
        <ele>175</ele>
        <time>2025-07-04T14:04:24.260Z</time>
      </trkpt>
      <trkpt lat="48.70159" lon="1.90999">
        <ele>175</ele>
        <time>2025-07-04T14:04:28.493Z</time>
      </trkpt>
      <trkpt lat="48.7016" lon="1.90992">
        <ele>175</ele>
        <time>2025-07-04T14:04:33.221Z</time>
      </trkpt>
      <trkpt lat="48.70162" lon="1.90985">
        <ele>177</ele>
        <time>2025-07-04T14:04:37.282Z</time>
      </trkpt>
      <trkpt lat="48.70163" lon="1.90976">
        <ele>177</ele>
        <time>2025-07-04T14:04:42.255Z</time>
      </trkpt>
      <trkpt lat="48.70166" lon="1.90968">
        <ele>177</ele>
        <time>2025-07-04T14:04:46.492Z</time>
      </trkpt>
      <trkpt lat="48.70168" lon="1.90959">
        <ele>177</ele>
        <time>2025-07-04T14:04:51.183Z</time>
      </trkpt>
      <trkpt lat="48.70171" lon="1.90951">
        <ele>179</ele>
        <time>2025-07-04T14:04:55.379Z</time>
      </trkpt>
      <trkpt lat="48.70173" lon="1.90943">
        <ele>179</ele>
        <time>2025-07-04T14:04:59.894Z</time>
      </trkpt>
      <trkpt lat="48.70175" lon="1.90935">
        <ele>179</ele>
        <time>2025-07-04T14:05:04.475Z</time>
      </trkpt>
      <trkpt lat="48.70177" lon="1.90926">
        <ele>180</ele>
        <time>2025-07-04T14:05:08.819Z</time>
      </trkpt>
      <trkpt lat="48.70179" lon="1.90918">
        <ele>180</ele>
        <time>2025-07-04T14:05:13.376Z</time>
      </trkpt>
      <trkpt lat="48.70181" lon="1.90909">
        <ele>176</ele>
        <time>2025-07-04T14:05:17.778Z</time>
      </trkpt>
      <trkpt lat="48.70183" lon="1.909">
        <ele>175</ele>
        <time>2025-07-04T14:05:22.242Z</time>
      </trkpt>
      <trkpt lat="48.70186" lon="1.90891">
        <ele>175</ele>
        <time>2025-07-04T14:05:26.842Z</time>
      </trkpt>
      <trkpt lat="48.70189" lon="1.90884">
        <ele>175</ele>
        <time>2025-07-04T14:05:31.262Z</time>
      </trkpt>
      <trkpt lat="48.70191" lon="1.90876">
        <ele>175</ele>
        <time>2025-07-04T14:05:35.496Z</time>
      </trkpt>
      <trkpt lat="48.70193" lon="1.90866">
        <ele>175</ele>
        <time>2025-07-04T14:05:40.102Z</time>
      </trkpt>
      <trkpt lat="48.70196" lon="1.90858">
        <ele>175</ele>
        <time>2025-07-04T14:05:44.494Z</time>
      </trkpt>
      <trkpt lat="48.70199" lon="1.90849">
        <ele>175</ele>
        <time>2025-07-04T14:05:48.808Z</time>
      </trkpt>
      <trkpt lat="48.70201" lon="1.90841">
        <ele>176</ele>
        <time>2025-07-04T14:05:53.080Z</time>
      </trkpt>
      <trkpt lat="48.70204" lon="1.90832">
        <ele>176</ele>
        <time>2025-07-04T14:05:57.339Z</time>
      </trkpt>
      <trkpt lat="48.70205" lon="1.90823">
        <ele>176</ele>
        <time>2025-07-04T14:06:01.802Z</time>
      </trkpt>
      <trkpt lat="48.70207" lon="1.90815">
        <ele>179</ele>
        <time>2025-07-04T14:06:06.075Z</time>
      </trkpt>
      <trkpt lat="48.7021" lon="1.90807">
        <ele>175</ele>
        <time>2025-07-04T14:06:10.479Z</time>
      </trkpt>
      <trkpt lat="48.70212" lon="1.90799">
        <ele>175</ele>
        <time>2025-07-04T14:06:14.495Z</time>
      </trkpt>
      <trkpt lat="48.70215" lon="1.90791">
        <ele>176</ele>
        <time>2025-07-04T14:06:18.797Z</time>
      </trkpt>
      <trkpt lat="48.70218" lon="1.90782">
        <ele>176</ele>
        <time>2025-07-04T14:06:23.234Z</time>
      </trkpt>
      <trkpt lat="48.70222" lon="1.90773">
        <ele>176</ele>
        <time>2025-07-04T14:06:28.322Z</time>
      </trkpt>
      <trkpt lat="48.70224" lon="1.90765">
        <ele>176</ele>
        <time>2025-07-04T14:06:32.860Z</time>
      </trkpt>
      <trkpt lat="48.70227" lon="1.90757">
        <ele>177</ele>
        <time>2025-07-04T14:06:37.254Z</time>
      </trkpt>
      <trkpt lat="48.70229" lon="1.90748">
        <ele>177</ele>
        <time>2025-07-04T14:06:41.643Z</time>
      </trkpt>
      <trkpt lat="48.7023" lon="1.9074">
        <ele>177</ele>
        <time>2025-07-04T14:06:45.720Z</time>
      </trkpt>
      <trkpt lat="48.70232" lon="1.9073">
        <ele>178</ele>
        <time>2025-07-04T14:06:50.362Z</time>
      </trkpt>
      <trkpt lat="48.70233" lon="1.90724">
        <ele>178</ele>
        <time>2025-07-04T14:06:54.492Z</time>
      </trkpt>
      <trkpt lat="48.70233" lon="1.90717">
        <ele>178</ele>
        <time>2025-07-04T14:06:58.594Z</time>
      </trkpt>
      <trkpt lat="48.70231" lon="1.9071">
        <ele>178</ele>
        <time>2025-07-04T14:07:02.617Z</time>
      </trkpt>
      <trkpt lat="48.70233" lon="1.90701">
        <ele>179</ele>
        <time>2025-07-04T14:07:07.154Z</time>
      </trkpt>
      <trkpt lat="48.70237" lon="1.90694">
        <ele>180</ele>
        <time>2025-07-04T14:07:11.489Z</time>
      </trkpt>
      <trkpt lat="48.7024" lon="1.90686">
        <ele>180</ele>
        <time>2025-07-04T14:07:15.902Z</time>
      </trkpt>
      <trkpt lat="48.7024" lon="1.90677">
        <ele>181</ele>
        <time>2025-07-04T14:07:19.894Z</time>
      </trkpt>
      <trkpt lat="48.70239" lon="1.90666">
        <ele>181</ele>
        <time>2025-07-04T14:07:24.496Z</time>
      </trkpt>
      <trkpt lat="48.70239" lon="1.90657">
        <ele>181</ele>
        <time>2025-07-04T14:07:29.058Z</time>
      </trkpt>
      <trkpt lat="48.70238" lon="1.90648">
        <ele>182</ele>
        <time>2025-07-04T14:07:33.491Z</time>
      </trkpt>
      <trkpt lat="48.70237" lon="1.90638">
        <ele>182</ele>
        <time>2025-07-04T14:07:37.959Z</time>
      </trkpt>
      <trkpt lat="48.70238" lon="1.9063">
        <ele>182</ele>
        <time>2025-07-04T14:07:42.020Z</time>
      </trkpt>
      <trkpt lat="48.70238" lon="1.90621">
        <ele>184</ele>
        <time>2025-07-04T14:07:46.341Z</time>
      </trkpt>
      <trkpt lat="48.7024" lon="1.90613">
        <ele>184</ele>
        <time>2025-07-04T14:07:50.491Z</time>
      </trkpt>
      <trkpt lat="48.70242" lon="1.90604">
        <ele>184</ele>
        <time>2025-07-04T14:07:55.045Z</time>
      </trkpt>
      <trkpt lat="48.70243" lon="1.90594">
        <ele>184</ele>
        <time>2025-07-04T14:07:59.358Z</time>
      </trkpt>
      <trkpt lat="48.70243" lon="1.90584">
        <ele>184</ele>
        <time>2025-07-04T14:08:04.077Z</time>
      </trkpt>
      <trkpt lat="48.70243" lon="1.90576">
        <ele>184</ele>
        <time>2025-07-04T14:08:08.492Z</time>
      </trkpt>
      <trkpt lat="48.70243" lon="1.90568">
        <ele>184</ele>
        <time>2025-07-04T14:08:12.695Z</time>
      </trkpt>
      <trkpt lat="48.70243" lon="1.90559">
        <ele>184</ele>
        <time>2025-07-04T14:08:17.491Z</time>
      </trkpt>
      <trkpt lat="48.70243" lon="1.9055">
        <ele>184</ele>
        <time>2025-07-04T14:08:21.920Z</time>
      </trkpt>
      <trkpt lat="48.70244" lon="1.90543">
        <ele>184</ele>
        <time>2025-07-04T14:08:25.998Z</time>
      </trkpt>
      <trkpt lat="48.70244" lon="1.90533">
        <ele>183</ele>
        <time>2025-07-04T14:08:30.491Z</time>
      </trkpt>
      <trkpt lat="48.70245" lon="1.90525">
        <ele>183</ele>
        <time>2025-07-04T14:08:35.002Z</time>
      </trkpt>
      <trkpt lat="48.70246" lon="1.90517">
        <ele>183</ele>
        <time>2025-07-04T14:08:39.037Z</time>
      </trkpt>
      <trkpt lat="48.70246" lon="1.90508">
        <ele>182</ele>
        <time>2025-07-04T14:08:43.489Z</time>
      </trkpt>
      <trkpt lat="48.70246" lon="1.905">
        <ele>182</ele>
        <time>2025-07-04T14:08:47.801Z</time>
      </trkpt>
      <trkpt lat="48.70245" lon="1.90493">
        <ele>182</ele>
        <time>2025-07-04T14:08:51.879Z</time>
      </trkpt>
      <trkpt lat="48.70245" lon="1.90485">
        <ele>182</ele>
        <time>2025-07-04T14:08:56.034Z</time>
      </trkpt>
      <trkpt lat="48.70246" lon="1.90478">
        <ele>182</ele>
        <time>2025-07-04T14:09:00.480Z</time>
      </trkpt>
      <trkpt lat="48.70246" lon="1.9047">
        <ele>182</ele>
        <time>2025-07-04T14:09:04.994Z</time>
      </trkpt>
      <trkpt lat="48.70249" lon="1.90461">
        <ele>182</ele>
        <time>2025-07-04T14:09:09.440Z</time>
      </trkpt>
      <trkpt lat="48.70252" lon="1.90454">
        <ele>181</ele>
        <time>2025-07-04T14:09:13.877Z</time>
      </trkpt>
      <trkpt lat="48.70253" lon="1.90445">
        <ele>181</ele>
        <time>2025-07-04T14:09:18.495Z</time>
      </trkpt>
      <trkpt lat="48.70254" lon="1.90442">
        <ele>181</ele>
        <time>2025-07-04T14:09:23.280Z</time>
      </trkpt>
      <trkpt lat="48.70254" lon="1.90439">
        <ele>181</ele>
        <time>2025-07-04T14:09:27.300Z</time>
      </trkpt>
      <trkpt lat="48.70256" lon="1.90435">
        <ele>181</ele>
        <time>2025-07-04T14:09:31.378Z</time>
      </trkpt>
      <trkpt lat="48.70259" lon="1.90431">
        <ele>181</ele>
        <time>2025-07-04T14:09:36.437Z</time>
      </trkpt>
      <trkpt lat="48.7026" lon="1.90418">
        <ele>181</ele>
        <time>2025-07-04T14:09:41.080Z</time>
      </trkpt>
      <trkpt lat="48.70264" lon="1.90409">
        <ele>181</ele>
        <time>2025-07-04T14:09:45.799Z</time>
      </trkpt>
      <trkpt lat="48.70264" lon="1.90401">
        <ele>182</ele>
        <time>2025-07-04T14:09:50.056Z</time>
      </trkpt>
      <trkpt lat="48.70262" lon="1.90391">
        <ele>181</ele>
        <time>2025-07-04T14:09:54.359Z</time>
      </trkpt>
      <trkpt lat="48.70264" lon="1.90385">
        <ele>181</ele>
        <time>2025-07-04T14:09:58.505Z</time>
      </trkpt>
      <trkpt lat="48.70267" lon="1.90377">
        <ele>182</ele>
        <time>2025-07-04T14:10:03.200Z</time>
      </trkpt>
      <trkpt lat="48.70271" lon="1.9037">
        <ele>182</ele>
        <time>2025-07-04T14:10:07.259Z</time>
      </trkpt>
      <trkpt lat="48.70274" lon="1.90365">
        <ele>182</ele>
        <time>2025-07-04T14:10:11.489Z</time>
      </trkpt>
      <trkpt lat="48.70279" lon="1.90357">
        <ele>182</ele>
        <time>2025-07-04T14:10:15.982Z</time>
      </trkpt>
      <trkpt lat="48.7028" lon="1.90348">
        <ele>182</ele>
        <time>2025-07-04T14:10:20.402Z</time>
      </trkpt>
      <trkpt lat="48.70282" lon="1.90339">
        <ele>181</ele>
        <time>2025-07-04T14:10:24.491Z</time>
      </trkpt>
      <trkpt lat="48.70284" lon="1.90331">
        <ele>181</ele>
        <time>2025-07-04T14:10:28.662Z</time>
      </trkpt>
      <trkpt lat="48.70287" lon="1.90322">
        <ele>181</ele>
        <time>2025-07-04T14:10:33.200Z</time>
      </trkpt>
      <trkpt lat="48.70289" lon="1.90314">
        <ele>180</ele>
        <time>2025-07-04T14:10:37.219Z</time>
      </trkpt>
      <trkpt lat="48.70288" lon="1.90305">
        <ele>180</ele>
        <time>2025-07-04T14:10:41.492Z</time>
      </trkpt>
      <trkpt lat="48.70292" lon="1.90298">
        <ele>180</ele>
        <time>2025-07-04T14:10:46.179Z</time>
      </trkpt>
      <trkpt lat="48.70294" lon="1.9029">
        <ele>178</ele>
        <time>2025-07-04T14:10:50.491Z</time>
      </trkpt>
      <trkpt lat="48.70294" lon="1.90284">
        <ele>178</ele>
        <time>2025-07-04T14:10:54.489Z</time>
      </trkpt>
      <trkpt lat="48.70293" lon="1.90284">
        <ele>178</ele>
        <time>2025-07-04T14:10:59.499Z</time>
      </trkpt>
      <trkpt lat="48.70292" lon="1.90284">
        <ele>178</ele>
        <time>2025-07-04T14:11:04.489Z</time>
      </trkpt>
      <trkpt lat="48.70291" lon="1.90284">
        <ele>179</ele>
        <time>2025-07-04T14:11:09.338Z</time>
      </trkpt>
      <trkpt lat="48.70284" lon="1.9028">
        <ele>179</ele>
        <time>2025-07-04T14:11:13.489Z</time>
      </trkpt>
      <trkpt lat="48.70278" lon="1.90274">
        <ele>179</ele>
        <time>2025-07-04T14:11:17.854Z</time>
      </trkpt>
      <trkpt lat="48.70273" lon="1.90267">
        <ele>179</ele>
        <time>2025-07-04T14:11:22.334Z</time>
      </trkpt>
      <trkpt lat="48.70269" lon="1.90261">
        <ele>179</ele>
        <time>2025-07-04T14:11:26.800Z</time>
      </trkpt>
      <trkpt lat="48.70264" lon="1.90256">
        <ele>180</ele>
        <time>2025-07-04T14:11:31.022Z</time>
      </trkpt>
      <trkpt lat="48.70259" lon="1.90252">
        <ele>180</ele>
        <time>2025-07-04T14:11:35.040Z</time>
      </trkpt>
      <trkpt lat="48.70254" lon="1.90249">
        <ele>180</ele>
        <time>2025-07-04T14:11:39.460Z</time>
      </trkpt>
      <trkpt lat="48.7025" lon="1.90243">
        <ele>180</ele>
        <time>2025-07-04T14:11:43.785Z</time>
      </trkpt>
      <trkpt lat="48.70245" lon="1.90236">
        <ele>180</ele>
        <time>2025-07-04T14:11:48.138Z</time>
      </trkpt>
      <trkpt lat="48.7024" lon="1.90231">
        <ele>180</ele>
        <time>2025-07-04T14:11:52.166Z</time>
      </trkpt>
      <trkpt lat="48.70235" lon="1.90226">
        <ele>180</ele>
        <time>2025-07-04T14:11:56.339Z</time>
      </trkpt>
      <trkpt lat="48.7023" lon="1.90222">
        <ele>180</ele>
        <time>2025-07-04T14:12:00.614Z</time>
      </trkpt>
      <trkpt lat="48.70224" lon="1.90218">
        <ele>180</ele>
        <time>2025-07-04T14:12:05.409Z</time>
      </trkpt>
      <trkpt lat="48.7022" lon="1.90213">
        <ele>180</ele>
        <time>2025-07-04T14:12:09.781Z</time>
      </trkpt>
      <trkpt lat="48.70215" lon="1.90207">
        <ele>180</ele>
        <time>2025-07-04T14:12:14.036Z</time>
      </trkpt>
      <trkpt lat="48.70208" lon="1.90201">
        <ele>180</ele>
        <time>2025-07-04T14:12:18.474Z</time>
      </trkpt>
      <trkpt lat="48.70204" lon="1.90196">
        <ele>178</ele>
        <time>2025-07-04T14:12:22.490Z</time>
      </trkpt>
      <trkpt lat="48.70198" lon="1.90193">
        <ele>178</ele>
        <time>2025-07-04T14:12:26.955Z</time>
      </trkpt>
      <trkpt lat="48.70193" lon="1.90188">
        <ele>178</ele>
        <time>2025-07-04T14:12:31.418Z</time>
      </trkpt>
      <trkpt lat="48.70186" lon="1.90181">
        <ele>178</ele>
        <time>2025-07-04T14:12:35.778Z</time>
      </trkpt>
      <trkpt lat="48.70179" lon="1.9018">
        <ele>174</ele>
        <time>2025-07-04T14:12:40.497Z</time>
      </trkpt>
      <trkpt lat="48.70172" lon="1.9018">
        <ele>174</ele>
        <time>2025-07-04T14:12:44.678Z</time>
      </trkpt>
      <trkpt lat="48.70167" lon="1.90182">
        <ele>173</ele>
        <time>2025-07-04T14:12:49.337Z</time>
      </trkpt>
      <trkpt lat="48.70162" lon="1.90179">
        <ele>174</ele>
        <time>2025-07-04T14:12:53.495Z</time>
      </trkpt>
      <trkpt lat="48.70157" lon="1.90179">
        <ele>174</ele>
        <time>2025-07-04T14:12:57.499Z</time>
      </trkpt>
      <trkpt lat="48.70151" lon="1.90182">
        <ele>167</ele>
        <time>2025-07-04T14:13:02.053Z</time>
      </trkpt>
      <trkpt lat="48.70144" lon="1.90188">
        <ele>167</ele>
        <time>2025-07-04T14:13:06.199Z</time>
      </trkpt>
      <trkpt lat="48.70136" lon="1.90194">
        <ele>167</ele>
        <time>2025-07-04T14:13:10.414Z</time>
      </trkpt>
      <trkpt lat="48.7013" lon="1.90196">
        <ele>167</ele>
        <time>2025-07-04T14:13:14.494Z</time>
      </trkpt>
      <trkpt lat="48.70126" lon="1.902">
        <ele>167</ele>
        <time>2025-07-04T14:13:19.118Z</time>
      </trkpt>
      <trkpt lat="48.70124" lon="1.90205">
        <ele>162</ele>
        <time>2025-07-04T14:13:23.299Z</time>
      </trkpt>
      <trkpt lat="48.7012" lon="1.90203">
        <ele>162</ele>
        <time>2025-07-04T14:13:27.491Z</time>
      </trkpt>
      <trkpt lat="48.70116" lon="1.90203">
        <ele>162</ele>
        <time>2025-07-04T14:13:31.490Z</time>
      </trkpt>
      <trkpt lat="48.70112" lon="1.90202">
        <ele>162</ele>
        <time>2025-07-04T14:13:35.614Z</time>
      </trkpt>
      <trkpt lat="48.70108" lon="1.90203">
        <ele>162</ele>
        <time>2025-07-04T14:13:39.735Z</time>
      </trkpt>
      <trkpt lat="48.70103" lon="1.90206">
        <ele>162</ele>
        <time>2025-07-04T14:13:43.915Z</time>
      </trkpt>
      <trkpt lat="48.70098" lon="1.90209">
        <ele>160</ele>
        <time>2025-07-04T14:13:48.054Z</time>
      </trkpt>
      <trkpt lat="48.70094" lon="1.90211">
        <ele>156</ele>
        <time>2025-07-04T14:13:52.101Z</time>
      </trkpt>
      <trkpt lat="48.70089" lon="1.90214">
        <ele>156</ele>
        <time>2025-07-04T14:13:56.221Z</time>
      </trkpt>
      <trkpt lat="48.70083" lon="1.90215">
        <ele>156</ele>
        <time>2025-07-04T14:14:00.316Z</time>
      </trkpt>
      <trkpt lat="48.70078" lon="1.90216">
        <ele>156</ele>
        <time>2025-07-04T14:14:04.413Z</time>
      </trkpt>
      <trkpt lat="48.70072" lon="1.90218">
        <ele>156</ele>
        <time>2025-07-04T14:14:08.713Z</time>
      </trkpt>
      <trkpt lat="48.70067" lon="1.90222">
        <ele>152</ele>
        <time>2025-07-04T14:14:12.818Z</time>
      </trkpt>
      <trkpt lat="48.70062" lon="1.90226">
        <ele>152</ele>
        <time>2025-07-04T14:14:17.074Z</time>
      </trkpt>
      <trkpt lat="48.70057" lon="1.90229">
        <ele>152</ele>
        <time>2025-07-04T14:14:21.376Z</time>
      </trkpt>
      <trkpt lat="48.70051" lon="1.90234">
        <ele>152</ele>
        <time>2025-07-04T14:14:25.677Z</time>
      </trkpt>
      <trkpt lat="48.70048" lon="1.90234">
        <ele>152</ele>
        <time>2025-07-04T14:14:29.858Z</time>
      </trkpt>
      <trkpt lat="48.70043" lon="1.90233">
        <ele>152</ele>
        <time>2025-07-04T14:14:34.099Z</time>
      </trkpt>
      <trkpt lat="48.70037" lon="1.90235">
        <ele>148</ele>
        <time>2025-07-04T14:14:38.282Z</time>
      </trkpt>
      <trkpt lat="48.70031" lon="1.90242">
        <ele>148</ele>
        <time>2025-07-04T14:14:42.761Z</time>
      </trkpt>
      <trkpt lat="48.70025" lon="1.90242">
        <ele>148</ele>
        <time>2025-07-04T14:14:47.111Z</time>
      </trkpt>
      <trkpt lat="48.7002" lon="1.90237">
        <ele>148</ele>
        <time>2025-07-04T14:14:51.319Z</time>
      </trkpt>
      <trkpt lat="48.70015" lon="1.90232">
        <ele>148</ele>
        <time>2025-07-04T14:14:55.578Z</time>
      </trkpt>
      <trkpt lat="48.70004" lon="1.90221">
        <ele>143</ele>
        <time>2025-07-04T14:15:13.494Z</time>
      </trkpt>
      <trkpt lat="48.70004" lon="1.90221">
        <ele>143</ele>
        <time>2025-07-04T14:15:18.499Z</time>
      </trkpt>
      <trkpt lat="48.70002" lon="1.90223">
        <ele>143</ele>
        <time>2025-07-04T14:15:23.489Z</time>
      </trkpt>
      <trkpt lat="48.70002" lon="1.90224">
        <ele>143</ele>
        <time>2025-07-04T14:15:29.491Z</time>
      </trkpt>
      <trkpt lat="48.70002" lon="1.90224">
        <ele>143</ele>
        <time>2025-07-04T14:15:35.487Z</time>
      </trkpt>
      <trkpt lat="48.70007" lon="1.90221">
        <ele>143</ele>
        <time>2025-07-04T14:19:12.491Z</time>
      </trkpt>
      <trkpt lat="48.70007" lon="1.90221">
        <ele>143</ele>
        <time>2025-07-04T14:19:25.486Z</time>
      </trkpt>
      <trkpt lat="48.70008" lon="1.9022">
        <ele>143</ele>
        <time>2025-07-04T14:19:30.493Z</time>
      </trkpt>
      <trkpt lat="48.70006" lon="1.90214">
        <ele>143</ele>
        <time>2025-07-04T14:19:34.491Z</time>
      </trkpt>
      <trkpt lat="48.70007" lon="1.90209">
        <ele>143</ele>
        <time>2025-07-04T14:19:37.489Z</time>
      </trkpt>
      <trkpt lat="48.70009" lon="1.90202">
        <ele>143</ele>
        <time>2025-07-04T14:19:41.977Z</time>
      </trkpt>
      <trkpt lat="48.70012" lon="1.90196">
        <ele>143</ele>
        <time>2025-07-04T14:19:46.150Z</time>
      </trkpt>
      <trkpt lat="48.70014" lon="1.9019">
        <ele>148</ele>
        <time>2025-07-04T14:19:50.333Z</time>
      </trkpt>
      <trkpt lat="48.70015" lon="1.90184">
        <ele>148</ele>
        <time>2025-07-04T14:19:54.475Z</time>
      </trkpt>
      <trkpt lat="48.70016" lon="1.90175">
        <ele>148</ele>
        <time>2025-07-04T14:19:59.014Z</time>
      </trkpt>
      <trkpt lat="48.70016" lon="1.90167">
        <ele>148</ele>
        <time>2025-07-04T14:20:03.074Z</time>
      </trkpt>
      <trkpt lat="48.70016" lon="1.90158">
        <ele>148</ele>
        <time>2025-07-04T14:20:07.691Z</time>
      </trkpt>
      <trkpt lat="48.70016" lon="1.9015">
        <ele>148</ele>
        <time>2025-07-04T14:20:12.154Z</time>
      </trkpt>
      <trkpt lat="48.70015" lon="1.90142">
        <ele>148</ele>
        <time>2025-07-04T14:20:16.294Z</time>
      </trkpt>
      <trkpt lat="48.70015" lon="1.90132">
        <ele>148</ele>
        <time>2025-07-04T14:20:20.731Z</time>
      </trkpt>
      <trkpt lat="48.70015" lon="1.90124">
        <ele>148</ele>
        <time>2025-07-04T14:20:24.873Z</time>
      </trkpt>
      <trkpt lat="48.70017" lon="1.90117">
        <ele>148</ele>
        <time>2025-07-04T14:20:29.514Z</time>
      </trkpt>
      <trkpt lat="48.70017" lon="1.90109">
        <ele>148</ele>
        <time>2025-07-04T14:20:33.978Z</time>
      </trkpt>
      <trkpt lat="48.70016" lon="1.901">
        <ele>148</ele>
        <time>2025-07-04T14:20:38.496Z</time>
      </trkpt>
      <trkpt lat="48.70017" lon="1.90094">
        <ele>147</ele>
        <time>2025-07-04T14:20:43.059Z</time>
      </trkpt>
      <trkpt lat="48.70016" lon="1.90085">
        <ele>147</ele>
        <time>2025-07-04T14:20:47.479Z</time>
      </trkpt>
      <trkpt lat="48.70013" lon="1.90076">
        <ele>142</ele>
        <time>2025-07-04T14:20:51.738Z</time>
      </trkpt>
      <trkpt lat="48.70011" lon="1.90068">
        <ele>142</ele>
        <time>2025-07-04T14:20:56.251Z</time>
      </trkpt>
      <trkpt lat="48.7001" lon="1.90059">
        <ele>142</ele>
        <time>2025-07-04T14:21:00.796Z</time>
      </trkpt>
      <trkpt lat="48.70008" lon="1.90049">
        <ele>142</ele>
        <time>2025-07-04T14:21:05.239Z</time>
      </trkpt>
      <trkpt lat="48.70008" lon="1.90042">
        <ele>142</ele>
        <time>2025-07-04T14:21:09.258Z</time>
      </trkpt>
      <trkpt lat="48.70008" lon="1.90033">
        <ele>142</ele>
        <time>2025-07-04T14:21:13.738Z</time>
      </trkpt>
      <trkpt lat="48.70007" lon="1.90024">
        <ele>142</ele>
        <time>2025-07-04T14:21:18.186Z</time>
      </trkpt>
      <trkpt lat="48.70006" lon="1.90014">
        <ele>142</ele>
        <time>2025-07-04T14:21:23.194Z</time>
      </trkpt>
      <trkpt lat="48.70006" lon="1.90005">
        <ele>142</ele>
        <time>2025-07-04T14:21:27.658Z</time>
      </trkpt>
      <trkpt lat="48.70006" lon="1.89995">
        <ele>142</ele>
        <time>2025-07-04T14:21:32.036Z</time>
      </trkpt>
      <trkpt lat="48.70006" lon="1.89986">
        <ele>142</ele>
        <time>2025-07-04T14:21:36.396Z</time>
      </trkpt>
      <trkpt lat="48.70007" lon="1.89977">
        <ele>142</ele>
        <time>2025-07-04T14:21:40.996Z</time>
      </trkpt>
      <trkpt lat="48.70008" lon="1.89968">
        <ele>142</ele>
        <time>2025-07-04T14:21:45.330Z</time>
      </trkpt>
      <trkpt lat="48.7001" lon="1.8996">
        <ele>142</ele>
        <time>2025-07-04T14:21:49.873Z</time>
      </trkpt>
      <trkpt lat="48.7001" lon="1.89951">
        <ele>142</ele>
        <time>2025-07-04T14:21:54.036Z</time>
      </trkpt>
      <trkpt lat="48.70011" lon="1.89943">
        <ele>142</ele>
        <time>2025-07-04T14:21:58.056Z</time>
      </trkpt>
      <trkpt lat="48.70013" lon="1.89935">
        <ele>142</ele>
        <time>2025-07-04T14:22:02.417Z</time>
      </trkpt>
      <trkpt lat="48.70011" lon="1.89926">
        <ele>142</ele>
        <time>2025-07-04T14:22:06.793Z</time>
      </trkpt>
      <trkpt lat="48.7001" lon="1.89917">
        <ele>142</ele>
        <time>2025-07-04T14:22:11.198Z</time>
      </trkpt>
      <trkpt lat="48.7001" lon="1.89907">
        <ele>142</ele>
        <time>2025-07-04T14:22:15.507Z</time>
      </trkpt>
      <trkpt lat="48.70013" lon="1.89899">
        <ele>140</ele>
        <time>2025-07-04T14:22:20.013Z</time>
      </trkpt>
      <trkpt lat="48.70017" lon="1.89892">
        <ele>142</ele>
        <time>2025-07-04T14:22:24.358Z</time>
      </trkpt>
      <trkpt lat="48.70022" lon="1.89888">
        <ele>142</ele>
        <time>2025-07-04T14:22:28.788Z</time>
      </trkpt>
      <trkpt lat="48.70027" lon="1.89885">
        <ele>142</ele>
        <time>2025-07-04T14:22:33.112Z</time>
      </trkpt>
      <trkpt lat="48.70033" lon="1.89883">
        <ele>142</ele>
        <time>2025-07-04T14:22:37.488Z</time>
      </trkpt>
      <trkpt lat="48.70038" lon="1.8988">
        <ele>142</ele>
        <time>2025-07-04T14:22:41.657Z</time>
      </trkpt>
      <trkpt lat="48.70044" lon="1.89878">
        <ele>145</ele>
        <time>2025-07-04T14:22:45.956Z</time>
      </trkpt>
      <trkpt lat="48.7005" lon="1.89876">
        <ele>145</ele>
        <time>2025-07-04T14:22:50.198Z</time>
      </trkpt>
      <trkpt lat="48.70056" lon="1.89873">
        <ele>144</ele>
        <time>2025-07-04T14:22:54.473Z</time>
      </trkpt>
      <trkpt lat="48.70062" lon="1.89869">
        <ele>144</ele>
        <time>2025-07-04T14:22:59.296Z</time>
      </trkpt>
      <trkpt lat="48.70068" lon="1.89864">
        <ele>144</ele>
        <time>2025-07-04T14:23:03.489Z</time>
      </trkpt>
      <trkpt lat="48.70074" lon="1.89859">
        <ele>147</ele>
        <time>2025-07-04T14:23:07.810Z</time>
      </trkpt>
      <trkpt lat="48.70079" lon="1.89854">
        <ele>147</ele>
        <time>2025-07-04T14:23:12.096Z</time>
      </trkpt>
      <trkpt lat="48.70084" lon="1.89849">
        <ele>147</ele>
        <time>2025-07-04T14:23:16.378Z</time>
      </trkpt>
      <trkpt lat="48.70089" lon="1.89843">
        <ele>146</ele>
        <time>2025-07-04T14:23:20.817Z</time>
      </trkpt>
      <trkpt lat="48.70091" lon="1.89836">
        <ele>146</ele>
        <time>2025-07-04T14:23:24.878Z</time>
      </trkpt>
      <trkpt lat="48.70094" lon="1.89826">
        <ele>146</ele>
        <time>2025-07-04T14:23:29.436Z</time>
      </trkpt>
      <trkpt lat="48.70095" lon="1.89817">
        <ele>146</ele>
        <time>2025-07-04T14:23:33.492Z</time>
      </trkpt>
      <trkpt lat="48.70095" lon="1.89807">
        <ele>146</ele>
        <time>2025-07-04T14:23:37.832Z</time>
      </trkpt>
      <trkpt lat="48.70096" lon="1.89798">
        <ele>146</ele>
        <time>2025-07-04T14:23:42.177Z</time>
      </trkpt>
      <trkpt lat="48.70097" lon="1.89788">
        <ele>147</ele>
        <time>2025-07-04T14:23:46.488Z</time>
      </trkpt>
      <trkpt lat="48.70099" lon="1.89778">
        <ele>149</ele>
        <time>2025-07-04T14:23:50.872Z</time>
      </trkpt>
      <trkpt lat="48.70101" lon="1.8977">
        <ele>149</ele>
        <time>2025-07-04T14:23:55.174Z</time>
      </trkpt>
      <trkpt lat="48.70105" lon="1.89762">
        <ele>148</ele>
        <time>2025-07-04T14:23:59.430Z</time>
      </trkpt>
      <trkpt lat="48.70109" lon="1.89756">
        <ele>148</ele>
        <time>2025-07-04T14:24:03.758Z</time>
      </trkpt>
      <trkpt lat="48.70114" lon="1.8975">
        <ele>148</ele>
        <time>2025-07-04T14:24:08.019Z</time>
      </trkpt>
      <trkpt lat="48.7012" lon="1.89746">
        <ele>148</ele>
        <time>2025-07-04T14:24:12.276Z</time>
      </trkpt>
      <trkpt lat="48.70125" lon="1.89743">
        <ele>149</ele>
        <time>2025-07-04T14:24:16.491Z</time>
      </trkpt>
      <trkpt lat="48.70131" lon="1.89742">
        <ele>149</ele>
        <time>2025-07-04T14:24:20.797Z</time>
      </trkpt>
      <trkpt lat="48.70137" lon="1.89741">
        <ele>149</ele>
        <time>2025-07-04T14:24:25.196Z</time>
      </trkpt>
      <trkpt lat="48.70143" lon="1.89741">
        <ele>149</ele>
        <time>2025-07-04T14:24:29.478Z</time>
      </trkpt>
      <trkpt lat="48.70149" lon="1.8974">
        <ele>149</ele>
        <time>2025-07-04T14:24:33.815Z</time>
      </trkpt>
      <trkpt lat="48.70155" lon="1.89739">
        <ele>149</ele>
        <time>2025-07-04T14:24:38.098Z</time>
      </trkpt>
      <trkpt lat="48.70161" lon="1.89738">
        <ele>149</ele>
        <time>2025-07-04T14:24:42.374Z</time>
      </trkpt>
      <trkpt lat="48.70168" lon="1.89736">
        <ele>147</ele>
        <time>2025-07-04T14:24:46.691Z</time>
      </trkpt>
      <trkpt lat="48.70174" lon="1.89734">
        <ele>147</ele>
        <time>2025-07-04T14:24:51.231Z</time>
      </trkpt>
      <trkpt lat="48.70186" lon="1.89726">
        <ele>148</ele>
        <time>2025-07-04T14:25:25.489Z</time>
      </trkpt>
      <trkpt lat="48.70186" lon="1.89725">
        <ele>148</ele>
        <time>2025-07-04T14:25:29.489Z</time>
      </trkpt>
      <trkpt lat="48.70192" lon="1.89717">
        <ele>148</ele>
        <time>2025-07-04T14:25:34.489Z</time>
      </trkpt>
      <trkpt lat="48.70199" lon="1.89712">
        <ele>148</ele>
        <time>2025-07-04T14:25:38.717Z</time>
      </trkpt>
      <trkpt lat="48.70204" lon="1.8971">
        <ele>148</ele>
        <time>2025-07-04T14:25:43.114Z</time>
      </trkpt>
      <trkpt lat="48.70209" lon="1.89705">
        <ele>149</ele>
        <time>2025-07-04T14:25:47.457Z</time>
      </trkpt>
      <trkpt lat="48.70212" lon="1.89698">
        <ele>149</ele>
        <time>2025-07-04T14:25:51.787Z</time>
      </trkpt>
      <trkpt lat="48.70215" lon="1.89693">
        <ele>149</ele>
        <time>2025-07-04T14:25:55.878Z</time>
      </trkpt>
      <trkpt lat="48.70219" lon="1.89685">
        <ele>149</ele>
        <time>2025-07-04T14:26:00.392Z</time>
      </trkpt>
      <trkpt lat="48.70222" lon="1.89679">
        <ele>148</ele>
        <time>2025-07-04T14:26:04.677Z</time>
      </trkpt>
      <trkpt lat="48.70225" lon="1.89673">
        <ele>148</ele>
        <time>2025-07-04T14:26:08.978Z</time>
      </trkpt>
      <trkpt lat="48.70229" lon="1.89665">
        <ele>148</ele>
        <time>2025-07-04T14:26:13.297Z</time>
      </trkpt>
      <trkpt lat="48.70232" lon="1.89658">
        <ele>148</ele>
        <time>2025-07-04T14:26:17.433Z</time>
      </trkpt>
      <trkpt lat="48.70236" lon="1.89652">
        <ele>147</ele>
        <time>2025-07-04T14:26:21.717Z</time>
      </trkpt>
      <trkpt lat="48.7024" lon="1.89646">
        <ele>149</ele>
        <time>2025-07-04T14:26:25.978Z</time>
      </trkpt>
      <trkpt lat="48.70243" lon="1.89638">
        <ele>149</ele>
        <time>2025-07-04T14:26:30.277Z</time>
      </trkpt>
      <trkpt lat="48.70247" lon="1.89631">
        <ele>149</ele>
        <time>2025-07-04T14:26:34.488Z</time>
      </trkpt>
      <trkpt lat="48.70252" lon="1.89625">
        <ele>147</ele>
        <time>2025-07-04T14:26:38.879Z</time>
      </trkpt>
      <trkpt lat="48.70256" lon="1.89617">
        <ele>147</ele>
        <time>2025-07-04T14:26:43.197Z</time>
      </trkpt>
      <trkpt lat="48.7026" lon="1.89611">
        <ele>147</ele>
        <time>2025-07-04T14:26:47.492Z</time>
      </trkpt>
      <trkpt lat="48.70265" lon="1.89609">
        <ele>151</ele>
        <time>2025-07-04T14:26:52.016Z</time>
      </trkpt>
      <trkpt lat="48.7027" lon="1.89604">
        <ele>151</ele>
        <time>2025-07-04T14:26:56.418Z</time>
      </trkpt>
      <trkpt lat="48.70276" lon="1.89596">
        <ele>148</ele>
        <time>2025-07-04T14:27:01.258Z</time>
      </trkpt>
      <trkpt lat="48.70279" lon="1.89587">
        <ele>148</ele>
        <time>2025-07-04T14:27:05.486Z</time>
      </trkpt>
      <trkpt lat="48.70282" lon="1.89579">
        <ele>148</ele>
        <time>2025-07-04T14:27:09.808Z</time>
      </trkpt>
      <trkpt lat="48.70287" lon="1.89573">
        <ele>148</ele>
        <time>2025-07-04T14:27:14.486Z</time>
      </trkpt>
      <trkpt lat="48.70294" lon="1.89574">
        <ele>152</ele>
        <time>2025-07-04T14:27:18.707Z</time>
      </trkpt>
      <trkpt lat="48.70299" lon="1.89574">
        <ele>152</ele>
        <time>2025-07-04T14:27:22.830Z</time>
      </trkpt>
      <trkpt lat="48.70305" lon="1.89573">
        <ele>152</ele>
        <time>2025-07-04T14:27:27.013Z</time>
      </trkpt>
      <trkpt lat="48.70311" lon="1.8957">
        <ele>152</ele>
        <time>2025-07-04T14:27:31.229Z</time>
      </trkpt>
      <trkpt lat="48.70315" lon="1.89565">
        <ele>149</ele>
        <time>2025-07-04T14:27:35.452Z</time>
      </trkpt>
      <trkpt lat="48.70317" lon="1.89557">
        <ele>149</ele>
        <time>2025-07-04T14:27:39.566Z</time>
      </trkpt>
      <trkpt lat="48.7032" lon="1.89548">
        <ele>154</ele>
        <time>2025-07-04T14:27:44.312Z</time>
      </trkpt>
      <trkpt lat="48.70326" lon="1.89542">
        <ele>154</ele>
        <time>2025-07-04T14:27:49.126Z</time>
      </trkpt>
      <trkpt lat="48.70332" lon="1.89537">
        <ele>152</ele>
        <time>2025-07-04T14:27:53.453Z</time>
      </trkpt>
      <trkpt lat="48.70337" lon="1.8953">
        <ele>152</ele>
        <time>2025-07-04T14:27:58.087Z</time>
      </trkpt>
      <trkpt lat="48.70341" lon="1.89522">
        <ele>152</ele>
        <time>2025-07-04T14:28:02.390Z</time>
      </trkpt>
      <trkpt lat="48.70343" lon="1.89514">
        <ele>152</ele>
        <time>2025-07-04T14:28:06.489Z</time>
      </trkpt>
      <trkpt lat="48.70343" lon="1.89503">
        <ele>151</ele>
        <time>2025-07-04T14:28:11.153Z</time>
      </trkpt>
      <trkpt lat="48.70342" lon="1.89493">
        <ele>151</ele>
        <time>2025-07-04T14:28:15.447Z</time>
      </trkpt>
      <trkpt lat="48.70338" lon="1.89483">
        <ele>150</ele>
        <time>2025-07-04T14:28:19.910Z</time>
      </trkpt>
      <trkpt lat="48.70334" lon="1.89473">
        <ele>150</ele>
        <time>2025-07-04T14:28:24.210Z</time>
      </trkpt>
      <trkpt lat="48.70329" lon="1.89465">
        <ele>150</ele>
        <time>2025-07-04T14:28:28.365Z</time>
      </trkpt>
      <trkpt lat="48.70324" lon="1.89458">
        <ele>151</ele>
        <time>2025-07-04T14:28:32.486Z</time>
      </trkpt>
      <trkpt lat="48.70319" lon="1.89451">
        <ele>148</ele>
        <time>2025-07-04T14:28:36.487Z</time>
      </trkpt>
      <trkpt lat="48.70314" lon="1.89444">
        <ele>148</ele>
        <time>2025-07-04T14:28:40.946Z</time>
      </trkpt>
      <trkpt lat="48.70309" lon="1.89436">
        <ele>148</ele>
        <time>2025-07-04T14:28:45.212Z</time>
      </trkpt>
      <trkpt lat="48.70305" lon="1.89429">
        <ele>148</ele>
        <time>2025-07-04T14:28:49.486Z</time>
      </trkpt>
      <trkpt lat="48.70301" lon="1.89424">
        <ele>148</ele>
        <time>2025-07-04T14:28:53.967Z</time>
      </trkpt>
      <trkpt lat="48.70297" lon="1.89416">
        <ele>148</ele>
        <time>2025-07-04T14:28:58.346Z</time>
      </trkpt>
      <trkpt lat="48.70295" lon="1.89409">
        <ele>148</ele>
        <time>2025-07-04T14:29:02.365Z</time>
      </trkpt>
      <trkpt lat="48.70294" lon="1.89401">
        <ele>147</ele>
        <time>2025-07-04T14:29:06.751Z</time>
      </trkpt>
      <trkpt lat="48.70293" lon="1.89392">
        <ele>147</ele>
        <time>2025-07-04T14:29:11.147Z</time>
      </trkpt>
      <trkpt lat="48.70293" lon="1.89383">
        <ele>147</ele>
        <time>2025-07-04T14:29:15.485Z</time>
      </trkpt>
      <trkpt lat="48.70294" lon="1.89374">
        <ele>146</ele>
        <time>2025-07-04T14:29:19.851Z</time>
      </trkpt>
      <trkpt lat="48.70294" lon="1.89365">
        <ele>146</ele>
        <time>2025-07-04T14:29:24.247Z</time>
      </trkpt>
      <trkpt lat="48.70295" lon="1.89356">
        <ele>146</ele>
        <time>2025-07-04T14:29:28.453Z</time>
      </trkpt>
      <trkpt lat="48.70295" lon="1.8935">
        <ele>146</ele>
        <time>2025-07-04T14:29:32.486Z</time>
      </trkpt>
      <trkpt lat="48.70293" lon="1.89343">
        <ele>147</ele>
        <time>2025-07-04T14:29:36.491Z</time>
      </trkpt>
      <trkpt lat="48.7029" lon="1.89336">
        <ele>143</ele>
        <time>2025-07-04T14:29:40.589Z</time>
      </trkpt>
      <trkpt lat="48.70285" lon="1.89329">
        <ele>143</ele>
        <time>2025-07-04T14:29:44.906Z</time>
      </trkpt>
      <trkpt lat="48.70281" lon="1.89322">
        <ele>143</ele>
        <time>2025-07-04T14:29:49.029Z</time>
      </trkpt>
      <trkpt lat="48.70277" lon="1.89315">
        <ele>143</ele>
        <time>2025-07-04T14:29:53.328Z</time>
      </trkpt>
      <trkpt lat="48.70273" lon="1.89309">
        <ele>143</ele>
        <time>2025-07-04T14:29:57.490Z</time>
      </trkpt>
      <trkpt lat="48.70269" lon="1.89302">
        <ele>143</ele>
        <time>2025-07-04T14:30:01.801Z</time>
      </trkpt>
      <trkpt lat="48.70264" lon="1.89295">
        <ele>142</ele>
        <time>2025-07-04T14:30:06.386Z</time>
      </trkpt>
      <trkpt lat="48.70259" lon="1.89289">
        <ele>141</ele>
        <time>2025-07-04T14:30:10.489Z</time>
      </trkpt>
      <trkpt lat="48.70254" lon="1.89283">
        <ele>141</ele>
        <time>2025-07-04T14:30:14.793Z</time>
      </trkpt>
      <trkpt lat="48.7025" lon="1.89276">
        <ele>141</ele>
        <time>2025-07-04T14:30:19.050Z</time>
      </trkpt>
      <trkpt lat="48.70245" lon="1.89269">
        <ele>141</ele>
        <time>2025-07-04T14:30:23.395Z</time>
      </trkpt>
      <trkpt lat="48.70241" lon="1.89262">
        <ele>140</ele>
        <time>2025-07-04T14:30:27.626Z</time>
      </trkpt>
      <trkpt lat="48.70237" lon="1.89256">
        <ele>140</ele>
        <time>2025-07-04T14:30:32.486Z</time>
      </trkpt>
      <trkpt lat="48.70238" lon="1.89252">
        <ele>140</ele>
        <time>2025-07-04T14:30:37.209Z</time>
      </trkpt>
      <trkpt lat="48.70235" lon="1.89254">
        <ele>140</ele>
        <time>2025-07-04T14:31:10.970Z</time>
      </trkpt>
      <trkpt lat="48.70235" lon="1.89246">
        <ele>140</ele>
        <time>2025-07-04T14:31:15.391Z</time>
      </trkpt>
      <trkpt lat="48.70233" lon="1.89239">
        <ele>140</ele>
        <time>2025-07-04T14:31:19.451Z</time>
      </trkpt>
      <trkpt lat="48.70231" lon="1.8923">
        <ele>139</ele>
        <time>2025-07-04T14:31:23.966Z</time>
      </trkpt>
      <trkpt lat="48.70229" lon="1.89222">
        <ele>139</ele>
        <time>2025-07-04T14:31:28.495Z</time>
      </trkpt>
      <trkpt lat="48.70225" lon="1.89214">
        <ele>139</ele>
        <time>2025-07-04T14:31:33.149Z</time>
      </trkpt>
      <trkpt lat="48.70221" lon="1.89207">
        <ele>140</ele>
        <time>2025-07-04T14:31:37.194Z</time>
      </trkpt>
      <trkpt lat="48.70219" lon="1.892">
        <ele>140</ele>
        <time>2025-07-04T14:31:41.349Z</time>
      </trkpt>
      <trkpt lat="48.70217" lon="1.89192">
        <ele>140</ele>
        <time>2025-07-04T14:31:45.411Z</time>
      </trkpt>
      <trkpt lat="48.70213" lon="1.89187">
        <ele>140</ele>
        <time>2025-07-04T14:31:49.969Z</time>
      </trkpt>
      <trkpt lat="48.7021" lon="1.89179">
        <ele>140</ele>
        <time>2025-07-04T14:31:54.488Z</time>
      </trkpt>
      <trkpt lat="48.70208" lon="1.89172">
        <ele>142</ele>
        <time>2025-07-04T14:31:58.989Z</time>
      </trkpt>
      <trkpt lat="48.70206" lon="1.89164">
        <ele>142</ele>
        <time>2025-07-04T14:32:03.350Z</time>
      </trkpt>
      <trkpt lat="48.70205" lon="1.89156">
        <ele>142</ele>
        <time>2025-07-04T14:32:07.488Z</time>
      </trkpt>
      <trkpt lat="48.70205" lon="1.89147">
        <ele>142</ele>
        <time>2025-07-04T14:32:12.356Z</time>
      </trkpt>
      <trkpt lat="48.70201" lon="1.89141">
        <ele>142</ele>
        <time>2025-07-04T14:32:16.432Z</time>
      </trkpt>
      <trkpt lat="48.70197" lon="1.89135">
        <ele>142</ele>
        <time>2025-07-04T14:32:20.810Z</time>
      </trkpt>
      <trkpt lat="48.702" lon="1.89127">
        <ele>142</ele>
        <time>2025-07-04T14:32:25.393Z</time>
      </trkpt>
      <trkpt lat="48.70203" lon="1.89118">
        <ele>142</ele>
        <time>2025-07-04T14:32:30.249Z</time>
      </trkpt>
      <trkpt lat="48.70206" lon="1.89111">
        <ele>142</ele>
        <time>2025-07-04T14:32:34.269Z</time>
      </trkpt>
      <trkpt lat="48.70208" lon="1.89102">
        <ele>142</ele>
        <time>2025-07-04T14:32:38.493Z</time>
      </trkpt>
      <trkpt lat="48.7021" lon="1.89093">
        <ele>142</ele>
        <time>2025-07-04T14:32:42.793Z</time>
      </trkpt>
      <trkpt lat="48.70212" lon="1.89083">
        <ele>142</ele>
        <time>2025-07-04T14:32:47.052Z</time>
      </trkpt>
      <trkpt lat="48.70213" lon="1.89073">
        <ele>142</ele>
        <time>2025-07-04T14:32:51.488Z</time>
      </trkpt>
      <trkpt lat="48.70216" lon="1.89063">
        <ele>142</ele>
        <time>2025-07-04T14:32:56.486Z</time>
      </trkpt>
      <trkpt lat="48.70219" lon="1.89054">
        <ele>142</ele>
        <time>2025-07-04T14:33:00.896Z</time>
      </trkpt>
      <trkpt lat="48.70222" lon="1.89045">
        <ele>142</ele>
        <time>2025-07-04T14:33:05.151Z</time>
      </trkpt>
      <trkpt lat="48.70224" lon="1.89037">
        <ele>143</ele>
        <time>2025-07-04T14:33:09.491Z</time>
      </trkpt>
      <trkpt lat="48.70228" lon="1.89029">
        <ele>143</ele>
        <time>2025-07-04T14:33:13.933Z</time>
      </trkpt>
      <trkpt lat="48.70228" lon="1.89034">
        <ele>143</ele>
        <time>2025-07-04T14:33:59.493Z</time>
      </trkpt>
      <trkpt lat="48.70224" lon="1.8903">
        <ele>143</ele>
        <time>2025-07-04T14:34:03.749Z</time>
      </trkpt>
      <trkpt lat="48.7022" lon="1.89019">
        <ele>143</ele>
        <time>2025-07-04T14:34:08.232Z</time>
      </trkpt>
      <trkpt lat="48.70218" lon="1.8901">
        <ele>144</ele>
        <time>2025-07-04T14:34:12.992Z</time>
      </trkpt>
      <trkpt lat="48.70235" lon="1.88993">
        <ele>144</ele>
        <time>2025-07-04T14:34:17.327Z</time>
      </trkpt>
      <trkpt lat="48.70237" lon="1.88984">
        <ele>143</ele>
        <time>2025-07-04T14:34:21.485Z</time>
      </trkpt>
      <trkpt lat="48.70239" lon="1.88976">
        <ele>143</ele>
        <time>2025-07-04T14:34:25.589Z</time>
      </trkpt>
      <trkpt lat="48.70245" lon="1.88975">
        <ele>143</ele>
        <time>2025-07-04T14:34:29.782Z</time>
      </trkpt>
      <trkpt lat="48.7025" lon="1.88981">
        <ele>143</ele>
        <time>2025-07-04T14:34:34.071Z</time>
      </trkpt>
      <trkpt lat="48.70252" lon="1.8899">
        <ele>143</ele>
        <time>2025-07-04T14:34:38.451Z</time>
      </trkpt>
      <trkpt lat="48.70256" lon="1.88997">
        <ele>143</ele>
        <time>2025-07-04T14:34:42.691Z</time>
      </trkpt>
      <trkpt lat="48.70262" lon="1.89002">
        <ele>143</ele>
        <time>2025-07-04T14:34:47.230Z</time>
      </trkpt>
      <trkpt lat="48.70267" lon="1.88996">
        <ele>142</ele>
        <time>2025-07-04T14:34:51.757Z</time>
      </trkpt>
      <trkpt lat="48.70271" lon="1.88991">
        <ele>142</ele>
        <time>2025-07-04T14:34:55.909Z</time>
      </trkpt>
      <trkpt lat="48.70276" lon="1.8899">
        <ele>142</ele>
        <time>2025-07-04T14:35:00.329Z</time>
      </trkpt>
      <trkpt lat="48.7028" lon="1.88985">
        <ele>143</ele>
        <time>2025-07-04T14:35:04.487Z</time>
      </trkpt>
      <trkpt lat="48.70284" lon="1.88978">
        <ele>143</ele>
        <time>2025-07-04T14:35:09.453Z</time>
      </trkpt>
      <trkpt lat="48.70287" lon="1.88972">
        <ele>143</ele>
        <time>2025-07-04T14:35:13.493Z</time>
      </trkpt>
      <trkpt lat="48.70291" lon="1.88965">
        <ele>143</ele>
        <time>2025-07-04T14:35:18.447Z</time>
      </trkpt>
      <trkpt lat="48.70295" lon="1.88958">
        <ele>144</ele>
        <time>2025-07-04T14:35:22.688Z</time>
      </trkpt>
      <trkpt lat="48.70298" lon="1.8895">
        <ele>144</ele>
        <time>2025-07-04T14:35:27.246Z</time>
      </trkpt>
      <trkpt lat="48.703" lon="1.88943">
        <ele>144</ele>
        <time>2025-07-04T14:35:31.266Z</time>
      </trkpt>
      <trkpt lat="48.70303" lon="1.88935">
        <ele>144</ele>
        <time>2025-07-04T14:35:35.830Z</time>
      </trkpt>
      <trkpt lat="48.70306" lon="1.88929">
        <ele>144</ele>
        <time>2025-07-04T14:35:39.927Z</time>
      </trkpt>
      <trkpt lat="48.70308" lon="1.88922">
        <ele>144</ele>
        <time>2025-07-04T14:35:44.432Z</time>
      </trkpt>
      <trkpt lat="48.7031" lon="1.88915">
        <ele>144</ele>
        <time>2025-07-04T14:35:48.452Z</time>
      </trkpt>
      <trkpt lat="48.70313" lon="1.88909">
        <ele>144</ele>
        <time>2025-07-04T14:35:52.493Z</time>
      </trkpt>
      <trkpt lat="48.70317" lon="1.88902">
        <ele>145</ele>
        <time>2025-07-04T14:35:57.267Z</time>
      </trkpt>
      <trkpt lat="48.70321" lon="1.88898">
        <ele>145</ele>
        <time>2025-07-04T14:36:01.645Z</time>
      </trkpt>
      <trkpt lat="48.70326" lon="1.88892">
        <ele>145</ele>
        <time>2025-07-04T14:36:06.168Z</time>
      </trkpt>
      <trkpt lat="48.70329" lon="1.88885">
        <ele>145</ele>
        <time>2025-07-04T14:36:10.631Z</time>
      </trkpt>
      <trkpt lat="48.70334" lon="1.88879">
        <ele>145</ele>
        <time>2025-07-04T14:36:15.189Z</time>
      </trkpt>
      <trkpt lat="48.70337" lon="1.88873">
        <ele>146</ele>
        <time>2025-07-04T14:36:19.250Z</time>
      </trkpt>
      <trkpt lat="48.7034" lon="1.88867">
        <ele>146</ele>
        <time>2025-07-04T14:36:23.485Z</time>
      </trkpt>
      <trkpt lat="48.70345" lon="1.88865">
        <ele>146</ele>
        <time>2025-07-04T14:36:28.485Z</time>
      </trkpt>
      <trkpt lat="48.70349" lon="1.88869">
        <ele>147</ele>
        <time>2025-07-04T14:36:33.092Z</time>
      </trkpt>
      <trkpt lat="48.70355" lon="1.88868">
        <ele>147</ele>
        <time>2025-07-04T14:36:37.487Z</time>
      </trkpt>
      <trkpt lat="48.70359" lon="1.88863">
        <ele>147</ele>
        <time>2025-07-04T14:36:42.010Z</time>
      </trkpt>
      <trkpt lat="48.70363" lon="1.88856">
        <ele>147</ele>
        <time>2025-07-04T14:36:46.473Z</time>
      </trkpt>
      <trkpt lat="48.70366" lon="1.88851">
        <ele>147</ele>
        <time>2025-07-04T14:36:50.488Z</time>
      </trkpt>
      <trkpt lat="48.7037" lon="1.88844">
        <ele>148</ele>
        <time>2025-07-04T14:36:54.989Z</time>
      </trkpt>
      <trkpt lat="48.70373" lon="1.88838">
        <ele>148</ele>
        <time>2025-07-04T14:36:59.485Z</time>
      </trkpt>
      <trkpt lat="48.70377" lon="1.88831">
        <ele>150</ele>
        <time>2025-07-04T14:37:04.129Z</time>
      </trkpt>
      <trkpt lat="48.7038" lon="1.88825">
        <ele>150</ele>
        <time>2025-07-04T14:37:08.191Z</time>
      </trkpt>
      <trkpt lat="48.70382" lon="1.88817">
        <ele>150</ele>
        <time>2025-07-04T14:37:12.313Z</time>
      </trkpt>
      <trkpt lat="48.70384" lon="1.8881">
        <ele>150</ele>
        <time>2025-07-04T14:37:16.351Z</time>
      </trkpt>
      <trkpt lat="48.70387" lon="1.88802">
        <ele>150</ele>
        <time>2025-07-04T14:37:20.799Z</time>
      </trkpt>
      <trkpt lat="48.7039" lon="1.88796">
        <ele>150</ele>
        <time>2025-07-04T14:37:24.807Z</time>
      </trkpt>
      <trkpt lat="48.70392" lon="1.88788">
        <ele>151</ele>
        <time>2025-07-04T14:37:29.015Z</time>
      </trkpt>
      <trkpt lat="48.70395" lon="1.88781">
        <ele>151</ele>
        <time>2025-07-04T14:37:33.187Z</time>
      </trkpt>
      <trkpt lat="48.70397" lon="1.88774">
        <ele>151</ele>
        <time>2025-07-04T14:37:37.353Z</time>
      </trkpt>
      <trkpt lat="48.704" lon="1.88768">
        <ele>151</ele>
        <time>2025-07-04T14:37:41.486Z</time>
      </trkpt>
      <trkpt lat="48.70402" lon="1.88761">
        <ele>152</ele>
        <time>2025-07-04T14:37:45.987Z</time>
      </trkpt>
      <trkpt lat="48.70399" lon="1.88756">
        <ele>152</ele>
        <time>2025-07-04T14:37:50.270Z</time>
      </trkpt>
      <trkpt lat="48.70398" lon="1.88747">
        <ele>152</ele>
        <time>2025-07-04T14:37:54.485Z</time>
      </trkpt>
      <trkpt lat="48.70398" lon="1.88739">
        <ele>152</ele>
        <time>2025-07-04T14:37:58.695Z</time>
      </trkpt>
      <trkpt lat="48.70398" lon="1.8873">
        <ele>153</ele>
        <time>2025-07-04T14:38:03.130Z</time>
      </trkpt>
      <trkpt lat="48.70399" lon="1.88722">
        <ele>153</ele>
        <time>2025-07-04T14:38:07.389Z</time>
      </trkpt>
      <trkpt lat="48.704" lon="1.88713">
        <ele>153</ele>
        <time>2025-07-04T14:38:11.827Z</time>
      </trkpt>
      <trkpt lat="48.704" lon="1.88704">
        <ele>154</ele>
        <time>2025-07-04T14:38:16.427Z</time>
      </trkpt>
      <trkpt lat="48.704" lon="1.88695">
        <ele>154</ele>
        <time>2025-07-04T14:38:20.932Z</time>
      </trkpt>
      <trkpt lat="48.704" lon="1.88686">
        <ele>154</ele>
        <time>2025-07-04T14:38:25.492Z</time>
      </trkpt>
      <trkpt lat="48.70399" lon="1.88677">
        <ele>155</ele>
        <time>2025-07-04T14:38:29.927Z</time>
      </trkpt>
      <trkpt lat="48.70399" lon="1.88668">
        <ele>155</ele>
        <time>2025-07-04T14:38:34.253Z</time>
      </trkpt>
      <trkpt lat="48.70399" lon="1.88659">
        <ele>155</ele>
        <time>2025-07-04T14:38:38.869Z</time>
      </trkpt>
      <trkpt lat="48.70399" lon="1.88649">
        <ele>155</ele>
        <time>2025-07-04T14:38:43.349Z</time>
      </trkpt>
      <trkpt lat="48.70399" lon="1.88642">
        <ele>155</ele>
        <time>2025-07-04T14:38:47.829Z</time>
      </trkpt>
      <trkpt lat="48.70399" lon="1.88633">
        <ele>155</ele>
        <time>2025-07-04T14:38:52.445Z</time>
      </trkpt>
      <trkpt lat="48.704" lon="1.88624">
        <ele>153</ele>
        <time>2025-07-04T14:38:56.790Z</time>
      </trkpt>
      <trkpt lat="48.70399" lon="1.88615">
        <ele>153</ele>
        <time>2025-07-04T14:39:01.138Z</time>
      </trkpt>
      <trkpt lat="48.70402" lon="1.88611">
        <ele>153</ele>
        <time>2025-07-04T14:39:05.792Z</time>
      </trkpt>
      <trkpt lat="48.70404" lon="1.886">
        <ele>153</ele>
        <time>2025-07-04T14:39:10.452Z</time>
      </trkpt>
      <trkpt lat="48.70405" lon="1.8859">
        <ele>152</ele>
        <time>2025-07-04T14:39:14.829Z</time>
      </trkpt>
      <trkpt lat="48.70405" lon="1.8858">
        <ele>152</ele>
        <time>2025-07-04T14:39:19.371Z</time>
      </trkpt>
      <trkpt lat="48.70404" lon="1.88571">
        <ele>152</ele>
        <time>2025-07-04T14:39:23.913Z</time>
      </trkpt>
      <trkpt lat="48.70404" lon="1.88564">
        <ele>151</ele>
        <time>2025-07-04T14:39:28.031Z</time>
      </trkpt>
      <trkpt lat="48.70404" lon="1.88557">
        <ele>151</ele>
        <time>2025-07-04T14:39:32.145Z</time>
      </trkpt>
      <trkpt lat="48.70405" lon="1.8855">
        <ele>151</ele>
        <time>2025-07-04T14:39:36.486Z</time>
      </trkpt>
      <trkpt lat="48.70405" lon="1.88543">
        <ele>151</ele>
        <time>2025-07-04T14:39:41.492Z</time>
      </trkpt>
      <trkpt lat="48.70405" lon="1.88538">
        <ele>151</ele>
        <time>2025-07-04T14:39:45.612Z</time>
      </trkpt>
      <trkpt lat="48.704" lon="1.88535">
        <ele>150</ele>
        <time>2025-07-04T14:39:50.493Z</time>
      </trkpt>
      <trkpt lat="48.70394" lon="1.88534">
        <ele>150</ele>
        <time>2025-07-04T14:39:54.913Z</time>
      </trkpt>
      <trkpt lat="48.70388" lon="1.88535">
        <ele>150</ele>
        <time>2025-07-04T14:39:59.453Z</time>
      </trkpt>
      <trkpt lat="48.70383" lon="1.88536">
        <ele>150</ele>
        <time>2025-07-04T14:40:03.830Z</time>
      </trkpt>
      <trkpt lat="48.70377" lon="1.88537">
        <ele>150</ele>
        <time>2025-07-04T14:40:08.210Z</time>
      </trkpt>
      <trkpt lat="48.70369" lon="1.88539">
        <ele>149</ele>
        <time>2025-07-04T14:40:12.615Z</time>
      </trkpt>
      <trkpt lat="48.70364" lon="1.88544">
        <ele>150</ele>
        <time>2025-07-04T14:40:17.426Z</time>
      </trkpt>
      <trkpt lat="48.70358" lon="1.88542">
        <ele>150</ele>
        <time>2025-07-04T14:40:21.728Z</time>
      </trkpt>
      <trkpt lat="48.70352" lon="1.88541">
        <ele>149</ele>
        <time>2025-07-04T14:40:26.028Z</time>
      </trkpt>
      <trkpt lat="48.70346" lon="1.8854">
        <ele>148</ele>
        <time>2025-07-04T14:40:30.312Z</time>
      </trkpt>
      <trkpt lat="48.7034" lon="1.88539">
        <ele>148</ele>
        <time>2025-07-04T14:40:34.487Z</time>
      </trkpt>
      <trkpt lat="48.70334" lon="1.88538">
        <ele>148</ele>
        <time>2025-07-04T14:40:38.871Z</time>
      </trkpt>
      <trkpt lat="48.70327" lon="1.88538">
        <ele>148</ele>
        <time>2025-07-04T14:40:43.292Z</time>
      </trkpt>
      <trkpt lat="48.70321" lon="1.88537">
        <ele>148</ele>
        <time>2025-07-04T14:40:47.628Z</time>
      </trkpt>
      <trkpt lat="48.70315" lon="1.88538">
        <ele>148</ele>
        <time>2025-07-04T14:40:51.971Z</time>
      </trkpt>
      <trkpt lat="48.70309" lon="1.88539">
        <ele>148</ele>
        <time>2025-07-04T14:40:56.425Z</time>
      </trkpt>
      <trkpt lat="48.70303" lon="1.88538">
        <ele>148</ele>
        <time>2025-07-04T14:41:00.829Z</time>
      </trkpt>
      <trkpt lat="48.70297" lon="1.88539">
        <ele>148</ele>
        <time>2025-07-04T14:41:05.250Z</time>
      </trkpt>
      <trkpt lat="48.70291" lon="1.88538">
        <ele>149</ele>
        <time>2025-07-04T14:41:09.833Z</time>
      </trkpt>
      <trkpt lat="48.70286" lon="1.88537">
        <ele>149</ele>
        <time>2025-07-04T14:41:14.032Z</time>
      </trkpt>
      <trkpt lat="48.70279" lon="1.88536">
        <ele>149</ele>
        <time>2025-07-04T14:41:18.487Z</time>
      </trkpt>
      <trkpt lat="48.70273" lon="1.88534">
        <ele>149</ele>
        <time>2025-07-04T14:41:23.230Z</time>
      </trkpt>
      <trkpt lat="48.70269" lon="1.88529">
        <ele>149</ele>
        <time>2025-07-04T14:41:27.486Z</time>
      </trkpt>
      <trkpt lat="48.70265" lon="1.88524">
        <ele>149</ele>
        <time>2025-07-04T14:41:31.788Z</time>
      </trkpt>
      <trkpt lat="48.70261" lon="1.8852">
        <ele>150</ele>
        <time>2025-07-04T14:41:35.851Z</time>
      </trkpt>
      <trkpt lat="48.70258" lon="1.88512">
        <ele>151</ele>
        <time>2025-07-04T14:41:40.093Z</time>
      </trkpt>
      <trkpt lat="48.70257" lon="1.88509">
        <ele>151</ele>
        <time>2025-07-04T14:41:43.293Z</time>
      </trkpt>
      <trkpt lat="48.70254" lon="1.88499">
        <ele>151</ele>
        <time>2025-07-04T14:41:52.483Z</time>
      </trkpt>
      <trkpt lat="48.70255" lon="1.88496">
        <ele>151</ele>
        <time>2025-07-04T14:41:57.494Z</time>
      </trkpt>
      <trkpt lat="48.70254" lon="1.88499">
        <ele>151</ele>
        <time>2025-07-04T14:42:02.190Z</time>
      </trkpt>
      <trkpt lat="48.70251" lon="1.88506">
        <ele>151</ele>
        <time>2025-07-04T14:42:06.438Z</time>
      </trkpt>
      <trkpt lat="48.70246" lon="1.88502">
        <ele>151</ele>
        <time>2025-07-04T14:42:11.421Z</time>
      </trkpt>
      <trkpt lat="48.70244" lon="1.88497">
        <ele>151</ele>
        <time>2025-07-04T14:42:15.728Z</time>
      </trkpt>
      <trkpt lat="48.70238" lon="1.88485">
        <ele>151</ele>
        <time>2025-07-04T14:42:28.494Z</time>
      </trkpt>
      <trkpt lat="48.70236" lon="1.88484">
        <ele>151</ele>
        <time>2025-07-04T14:42:32.495Z</time>
      </trkpt>
      <trkpt lat="48.70227" lon="1.88486">
        <ele>152</ele>
        <time>2025-07-04T14:42:37.139Z</time>
      </trkpt>
      <trkpt lat="48.70218" lon="1.88482">
        <ele>152</ele>
        <time>2025-07-04T14:42:41.486Z</time>
      </trkpt>
      <trkpt lat="48.7021" lon="1.88477">
        <ele>152</ele>
        <time>2025-07-04T14:42:46.459Z</time>
      </trkpt>
      <trkpt lat="48.70203" lon="1.88469">
        <ele>151</ele>
        <time>2025-07-04T14:42:50.718Z</time>
      </trkpt>
      <trkpt lat="48.70198" lon="1.8846">
        <ele>151</ele>
        <time>2025-07-04T14:42:54.975Z</time>
      </trkpt>
      <trkpt lat="48.70191" lon="1.88462">
        <ele>151</ele>
        <time>2025-07-04T14:42:59.484Z</time>
      </trkpt>
      <trkpt lat="48.70185" lon="1.88457">
        <ele>151</ele>
        <time>2025-07-04T14:43:04.253Z</time>
      </trkpt>
      <trkpt lat="48.70188" lon="1.88453">
        <ele>151</ele>
        <time>2025-07-04T14:43:08.484Z</time>
      </trkpt>
      <trkpt lat="48.70189" lon="1.88453">
        <ele>151</ele>
        <time>2025-07-04T14:43:15.238Z</time>
      </trkpt>
      <trkpt lat="48.7019" lon="1.88455">
        <ele>151</ele>
        <time>2025-07-04T14:43:19.484Z</time>
      </trkpt>
      <trkpt lat="48.70194" lon="1.88458">
        <ele>151</ele>
        <time>2025-07-04T14:43:24.484Z</time>
      </trkpt>
      <trkpt lat="48.70199" lon="1.88459">
        <ele>151</ele>
        <time>2025-07-04T14:43:28.979Z</time>
      </trkpt>
      <trkpt lat="48.70206" lon="1.88468">
        <ele>151</ele>
        <time>2025-07-04T14:44:35.114Z</time>
      </trkpt>
      <trkpt lat="48.70207" lon="1.88469">
        <ele>151</ele>
        <time>2025-07-04T14:44:39.484Z</time>
      </trkpt>
      <trkpt lat="48.70207" lon="1.88469">
        <ele>151</ele>
        <time>2025-07-04T14:44:44.486Z</time>
      </trkpt>
      <trkpt lat="48.70207" lon="1.88469">
        <ele>151</ele>
        <time>2025-07-04T14:44:49.486Z</time>
      </trkpt>
      <trkpt lat="48.70207" lon="1.8847">
        <ele>151</ele>
        <time>2025-07-04T14:44:53.417Z</time>
      </trkpt>
      <trkpt lat="48.70205" lon="1.88473">
        <ele>151</ele>
        <time>2025-07-04T14:45:43.484Z</time>
      </trkpt>
      <trkpt lat="48.70205" lon="1.88474">
        <ele>151</ele>
        <time>2025-07-04T14:45:48.492Z</time>
      </trkpt>
      <trkpt lat="48.70204" lon="1.88476">
        <ele>151</ele>
        <time>2025-07-04T14:45:52.797Z</time>
      </trkpt>
      <trkpt lat="48.70201" lon="1.8848">
        <ele>151</ele>
        <time>2025-07-04T14:45:56.953Z</time>
      </trkpt>
      <trkpt lat="48.70196" lon="1.88478">
        <ele>151</ele>
        <time>2025-07-04T14:46:01.075Z</time>
      </trkpt>
      <trkpt lat="48.70192" lon="1.88473">
        <ele>151</ele>
        <time>2025-07-04T14:46:05.486Z</time>
      </trkpt>
      <trkpt lat="48.70188" lon="1.88469">
        <ele>151</ele>
        <time>2025-07-04T14:46:09.677Z</time>
      </trkpt>
      <trkpt lat="48.70183" lon="1.88466">
        <ele>151</ele>
        <time>2025-07-04T14:46:14.158Z</time>
      </trkpt>
      <trkpt lat="48.70179" lon="1.88464">
        <ele>150</ele>
        <time>2025-07-04T14:46:18.513Z</time>
      </trkpt>
      <trkpt lat="48.70175" lon="1.88462">
        <ele>150</ele>
        <time>2025-07-04T14:46:22.897Z</time>
      </trkpt>
      <trkpt lat="48.70171" lon="1.88459">
        <ele>150</ele>
        <time>2025-07-04T14:46:27.317Z</time>
      </trkpt>
      <trkpt lat="48.70166" lon="1.88454">
        <ele>150</ele>
        <time>2025-07-04T14:46:32.097Z</time>
      </trkpt>
      <trkpt lat="48.70162" lon="1.8845">
        <ele>150</ele>
        <time>2025-07-04T14:46:36.278Z</time>
      </trkpt>
      <trkpt lat="48.70157" lon="1.88447">
        <ele>150</ele>
        <time>2025-07-04T14:46:40.486Z</time>
      </trkpt>
      <trkpt lat="48.70151" lon="1.88444">
        <ele>150</ele>
        <time>2025-07-04T14:46:44.855Z</time>
      </trkpt>
      <trkpt lat="48.70146" lon="1.88443">
        <ele>150</ele>
        <time>2025-07-04T14:46:49.199Z</time>
      </trkpt>
      <trkpt lat="48.70139" lon="1.88442">
        <ele>150</ele>
        <time>2025-07-04T14:46:53.713Z</time>
      </trkpt>
      <trkpt lat="48.70134" lon="1.88439">
        <ele>150</ele>
        <time>2025-07-04T14:46:58.296Z</time>
      </trkpt>
      <trkpt lat="48.70129" lon="1.88437">
        <ele>150</ele>
        <time>2025-07-04T14:47:02.452Z</time>
      </trkpt>
      <trkpt lat="48.70123" lon="1.88434">
        <ele>151</ele>
        <time>2025-07-04T14:47:07.487Z</time>
      </trkpt>
      <trkpt lat="48.70117" lon="1.88436">
        <ele>151</ele>
        <time>2025-07-04T14:47:12.053Z</time>
      </trkpt>
      <trkpt lat="48.70113" lon="1.88439">
        <ele>151</ele>
        <time>2025-07-04T14:47:16.073Z</time>
      </trkpt>
      <trkpt lat="48.70108" lon="1.88442">
        <ele>151</ele>
        <time>2025-07-04T14:47:20.117Z</time>
      </trkpt>
      <trkpt lat="48.70105" lon="1.88446">
        <ele>151</ele>
        <time>2025-07-04T14:47:23.482Z</time>
      </trkpt>
      <trkpt lat="48.70107" lon="1.88454">
        <ele>151</ele>
        <time>2025-07-04T14:47:32.483Z</time>
      </trkpt>
      <trkpt lat="48.70105" lon="1.88456">
        <ele>151</ele>
        <time>2025-07-04T14:47:37.193Z</time>
      </trkpt>
      <trkpt lat="48.701" lon="1.88446">
        <ele>151</ele>
        <time>2025-07-04T14:47:41.393Z</time>
      </trkpt>
      <trkpt lat="48.70095" lon="1.88436">
        <ele>150</ele>
        <time>2025-07-04T14:47:45.484Z</time>
      </trkpt>
      <trkpt lat="48.70086" lon="1.88427">
        <ele>150</ele>
        <time>2025-07-04T14:47:50.174Z</time>
      </trkpt>
      <trkpt lat="48.70081" lon="1.88415">
        <ele>150</ele>
        <time>2025-07-04T14:47:54.638Z</time>
      </trkpt>
      <trkpt lat="48.70078" lon="1.88405">
        <ele>150</ele>
        <time>2025-07-04T14:47:59.093Z</time>
      </trkpt>
      <trkpt lat="48.70075" lon="1.88397">
        <ele>149</ele>
        <time>2025-07-04T14:48:03.487Z</time>
      </trkpt>
      <trkpt lat="48.70071" lon="1.88388">
        <ele>149</ele>
        <time>2025-07-04T14:48:07.994Z</time>
      </trkpt>
      <trkpt lat="48.70067" lon="1.8838">
        <ele>149</ele>
        <time>2025-07-04T14:48:12.177Z</time>
      </trkpt>
      <trkpt lat="48.70063" lon="1.88372">
        <ele>148</ele>
        <time>2025-07-04T14:48:16.750Z</time>
      </trkpt>
      <trkpt lat="48.70059" lon="1.88364">
        <ele>148</ele>
        <time>2025-07-04T14:48:21.274Z</time>
      </trkpt>
      <trkpt lat="48.70056" lon="1.88355">
        <ele>148</ele>
        <time>2025-07-04T14:48:25.472Z</time>
      </trkpt>
      <trkpt lat="48.70054" lon="1.88348">
        <ele>148</ele>
        <time>2025-07-04T14:48:29.637Z</time>
      </trkpt>
      <trkpt lat="48.70051" lon="1.88339">
        <ele>146</ele>
        <time>2025-07-04T14:48:34.486Z</time>
      </trkpt>
      <trkpt lat="48.70049" lon="1.88331">
        <ele>146</ele>
        <time>2025-07-04T14:48:38.812Z</time>
      </trkpt>
      <trkpt lat="48.70046" lon="1.88323">
        <ele>146</ele>
        <time>2025-07-04T14:48:43.275Z</time>
      </trkpt>
      <trkpt lat="48.70043" lon="1.88316">
        <ele>146</ele>
        <time>2025-07-04T14:48:47.493Z</time>
      </trkpt>
      <trkpt lat="48.70041" lon="1.88307">
        <ele>145</ele>
        <time>2025-07-04T14:48:51.937Z</time>
      </trkpt>
      <trkpt lat="48.70039" lon="1.88299">
        <ele>145</ele>
        <time>2025-07-04T14:48:56.434Z</time>
      </trkpt>
      <trkpt lat="48.70036" lon="1.88291">
        <ele>146</ele>
        <time>2025-07-04T14:49:00.795Z</time>
      </trkpt>
      <trkpt lat="48.70034" lon="1.88283">
        <ele>146</ele>
        <time>2025-07-04T14:49:05.337Z</time>
      </trkpt>
      <trkpt lat="48.70033" lon="1.88275">
        <ele>146</ele>
        <time>2025-07-04T14:49:09.697Z</time>
      </trkpt>
      <trkpt lat="48.70031" lon="1.88268">
        <ele>146</ele>
        <time>2025-07-04T14:49:13.809Z</time>
      </trkpt>
      <trkpt lat="48.70031" lon="1.88263">
        <ele>147</ele>
        <time>2025-07-04T14:49:17.974Z</time>
      </trkpt>
      <trkpt lat="48.70028" lon="1.88253">
        <ele>147</ele>
        <time>2025-07-04T14:49:22.471Z</time>
      </trkpt>
      <trkpt lat="48.70025" lon="1.88246">
        <ele>147</ele>
        <time>2025-07-04T14:49:26.483Z</time>
      </trkpt>
      <trkpt lat="48.70023" lon="1.88239">
        <ele>147</ele>
        <time>2025-07-04T14:49:30.716Z</time>
      </trkpt>
      <trkpt lat="48.70021" lon="1.88231">
        <ele>147</ele>
        <time>2025-07-04T14:49:35.278Z</time>
      </trkpt>
      <trkpt lat="48.70019" lon="1.88224">
        <ele>147</ele>
        <time>2025-07-04T14:49:39.336Z</time>
      </trkpt>
      <trkpt lat="48.70016" lon="1.88217">
        <ele>147</ele>
        <time>2025-07-04T14:49:43.815Z</time>
      </trkpt>
      <trkpt lat="48.70013" lon="1.88209">
        <ele>149</ele>
        <time>2025-07-04T14:49:48.371Z</time>
      </trkpt>
      <trkpt lat="48.70016" lon="1.88204">
        <ele>147</ele>
        <time>2025-07-04T14:49:52.451Z</time>
      </trkpt>
      <trkpt lat="48.70012" lon="1.88196">
        <ele>148</ele>
        <time>2025-07-04T14:49:57.410Z</time>
      </trkpt>
      <trkpt lat="48.70007" lon="1.88188">
        <ele>148</ele>
        <time>2025-07-04T14:50:01.917Z</time>
      </trkpt>
      <trkpt lat="48.70005" lon="1.88179">
        <ele>146</ele>
        <time>2025-07-04T14:50:06.354Z</time>
      </trkpt>
      <trkpt lat="48.70003" lon="1.88169">
        <ele>146</ele>
        <time>2025-07-04T14:50:10.877Z</time>
      </trkpt>
      <trkpt lat="48.7" lon="1.88162">
        <ele>146</ele>
        <time>2025-07-04T14:50:14.930Z</time>
      </trkpt>
      <trkpt lat="48.69996" lon="1.88156">
        <ele>146</ele>
        <time>2025-07-04T14:50:19.258Z</time>
      </trkpt>
      <trkpt lat="48.69992" lon="1.88152">
        <ele>145</ele>
        <time>2025-07-04T14:50:23.483Z</time>
      </trkpt>
      <trkpt lat="48.69987" lon="1.88148">
        <ele>145</ele>
        <time>2025-07-04T14:50:27.790Z</time>
      </trkpt>
      <trkpt lat="48.69982" lon="1.88143">
        <ele>146</ele>
        <time>2025-07-04T14:50:32.178Z</time>
      </trkpt>
      <trkpt lat="48.69977" lon="1.88139">
        <ele>146</ele>
        <time>2025-07-04T14:50:36.437Z</time>
      </trkpt>
      <trkpt lat="48.69972" lon="1.88135">
        <ele>146</ele>
        <time>2025-07-04T14:50:40.797Z</time>
      </trkpt>
      <trkpt lat="48.69967" lon="1.8813">
        <ele>146</ele>
        <time>2025-07-04T14:50:45.217Z</time>
      </trkpt>
      <trkpt lat="48.69962" lon="1.88125">
        <ele>146</ele>
        <time>2025-07-04T14:50:49.671Z</time>
      </trkpt>
      <trkpt lat="48.69957" lon="1.88121">
        <ele>147</ele>
        <time>2025-07-04T14:50:54.050Z</time>
      </trkpt>
      <trkpt lat="48.69952" lon="1.88116">
        <ele>147</ele>
        <time>2025-07-04T14:50:58.486Z</time>
      </trkpt>
      <trkpt lat="48.69947" lon="1.88112">
        <ele>147</ele>
        <time>2025-07-04T14:51:02.759Z</time>
      </trkpt>
      <trkpt lat="48.69942" lon="1.88108">
        <ele>147</ele>
        <time>2025-07-04T14:51:07.149Z</time>
      </trkpt>
      <trkpt lat="48.69936" lon="1.88102">
        <ele>147</ele>
        <time>2025-07-04T14:51:11.484Z</time>
      </trkpt>
      <trkpt lat="48.69931" lon="1.88097">
        <ele>145</ele>
        <time>2025-07-04T14:51:15.914Z</time>
      </trkpt>
      <trkpt lat="48.69927" lon="1.88092">
        <ele>148</ele>
        <time>2025-07-04T14:51:20.274Z</time>
      </trkpt>
      <trkpt lat="48.69922" lon="1.88086">
        <ele>148</ele>
        <time>2025-07-04T14:51:24.669Z</time>
      </trkpt>
      <trkpt lat="48.69918" lon="1.8808">
        <ele>148</ele>
        <time>2025-07-04T14:51:29.237Z</time>
      </trkpt>
      <trkpt lat="48.69914" lon="1.88073">
        <ele>148</ele>
        <time>2025-07-04T14:51:33.657Z</time>
      </trkpt>
      <trkpt lat="48.6991" lon="1.88065">
        <ele>146</ele>
        <time>2025-07-04T14:51:38.138Z</time>
      </trkpt>
      <trkpt lat="48.69907" lon="1.88058">
        <ele>146</ele>
        <time>2025-07-04T14:51:42.484Z</time>
      </trkpt>
      <trkpt lat="48.69904" lon="1.88051">
        <ele>146</ele>
        <time>2025-07-04T14:51:46.934Z</time>
      </trkpt>
      <trkpt lat="48.69901" lon="1.88042">
        <ele>152</ele>
        <time>2025-07-04T14:51:51.356Z</time>
      </trkpt>
      <trkpt lat="48.69899" lon="1.88036">
        <ele>151</ele>
        <time>2025-07-04T14:51:55.733Z</time>
      </trkpt>
      <trkpt lat="48.69895" lon="1.88028">
        <ele>151</ele>
        <time>2025-07-04T14:52:00.076Z</time>
      </trkpt>
      <trkpt lat="48.69892" lon="1.88021">
        <ele>151</ele>
        <time>2025-07-04T14:52:04.278Z</time>
      </trkpt>
      <trkpt lat="48.69888" lon="1.88014">
        <ele>151</ele>
        <time>2025-07-04T14:52:08.671Z</time>
      </trkpt>
      <trkpt lat="48.69886" lon="1.88006">
        <ele>150</ele>
        <time>2025-07-04T14:52:13.074Z</time>
      </trkpt>
      <trkpt lat="48.69884" lon="1.87997">
        <ele>150</ele>
        <time>2025-07-04T14:52:17.410Z</time>
      </trkpt>
      <trkpt lat="48.69881" lon="1.8799">
        <ele>150</ele>
        <time>2025-07-04T14:52:21.693Z</time>
      </trkpt>
      <trkpt lat="48.69875" lon="1.87985">
        <ele>149</ele>
        <time>2025-07-04T14:52:25.995Z</time>
      </trkpt>
      <trkpt lat="48.69869" lon="1.87982">
        <ele>151</ele>
        <time>2025-07-04T14:52:30.313Z</time>
      </trkpt>
      <trkpt lat="48.69863" lon="1.8798">
        <ele>151</ele>
        <time>2025-07-04T14:52:34.657Z</time>
      </trkpt>
      <trkpt lat="48.69857" lon="1.87976">
        <ele>151</ele>
        <time>2025-07-04T14:52:39.094Z</time>
      </trkpt>
      <trkpt lat="48.69852" lon="1.87972">
        <ele>151</ele>
        <time>2025-07-04T14:52:43.293Z</time>
      </trkpt>
      <trkpt lat="48.69848" lon="1.87965">
        <ele>151</ele>
        <time>2025-07-04T14:52:47.698Z</time>
      </trkpt>
      <trkpt lat="48.69847" lon="1.87957">
        <ele>152</ele>
        <time>2025-07-04T14:52:51.837Z</time>
      </trkpt>
      <trkpt lat="48.69846" lon="1.8795">
        <ele>152</ele>
        <time>2025-07-04T14:52:55.889Z</time>
      </trkpt>
      <trkpt lat="48.69845" lon="1.87942">
        <ele>152</ele>
        <time>2025-07-04T14:53:00.337Z</time>
      </trkpt>
      <trkpt lat="48.69843" lon="1.87935">
        <ele>152</ele>
        <time>2025-07-04T14:53:04.450Z</time>
      </trkpt>
      <trkpt lat="48.69842" lon="1.87928">
        <ele>153</ele>
        <time>2025-07-04T14:53:08.486Z</time>
      </trkpt>
      <trkpt lat="48.69841" lon="1.8792">
        <ele>153</ele>
        <time>2025-07-04T14:53:12.485Z</time>
      </trkpt>
      <trkpt lat="48.6984" lon="1.87911">
        <ele>153</ele>
        <time>2025-07-04T14:53:17.011Z</time>
      </trkpt>
      <trkpt lat="48.6984" lon="1.87902">
        <ele>154</ele>
        <time>2025-07-04T14:53:21.482Z</time>
      </trkpt>
      <trkpt lat="48.6984" lon="1.87894">
        <ele>154</ele>
        <time>2025-07-04T14:53:25.487Z</time>
      </trkpt>
      <trkpt lat="48.69839" lon="1.87886">
        <ele>154</ele>
        <time>2025-07-04T14:53:30.317Z</time>
      </trkpt>
      <trkpt lat="48.69838" lon="1.87877">
        <ele>154</ele>
        <time>2025-07-04T14:53:34.618Z</time>
      </trkpt>
      <trkpt lat="48.69837" lon="1.87868">
        <ele>155</ele>
        <time>2025-07-04T14:53:38.952Z</time>
      </trkpt>
      <trkpt lat="48.69837" lon="1.87858">
        <ele>155</ele>
        <time>2025-07-04T14:53:43.357Z</time>
      </trkpt>
      <trkpt lat="48.69837" lon="1.87849">
        <ele>155</ele>
        <time>2025-07-04T14:53:47.691Z</time>
      </trkpt>
      <trkpt lat="48.69837" lon="1.8784">
        <ele>155</ele>
        <time>2025-07-04T14:53:52.068Z</time>
      </trkpt>
      <trkpt lat="48.69837" lon="1.87831">
        <ele>155</ele>
        <time>2025-07-04T14:53:56.485Z</time>
      </trkpt>
      <trkpt lat="48.69836" lon="1.87823">
        <ele>155</ele>
        <time>2025-07-04T14:54:00.952Z</time>
      </trkpt>
      <trkpt lat="48.69832" lon="1.87816">
        <ele>155</ele>
        <time>2025-07-04T14:54:05.488Z</time>
      </trkpt>
      <trkpt lat="48.6983" lon="1.87825">
        <ele>155</ele>
        <time>2025-07-04T14:54:10.483Z</time>
      </trkpt>
      <trkpt lat="48.69825" lon="1.87819">
        <ele>155</ele>
        <time>2025-07-04T14:54:14.677Z</time>
      </trkpt>
      <trkpt lat="48.69824" lon="1.87817">
        <ele>155</ele>
        <time>2025-07-04T14:55:00.482Z</time>
      </trkpt>
      <trkpt lat="48.69824" lon="1.87817">
        <ele>155</ele>
        <time>2025-07-04T14:55:07.492Z</time>
      </trkpt>
      <trkpt lat="48.69826" lon="1.87818">
        <ele>155</ele>
        <time>2025-07-04T14:55:12.482Z</time>
      </trkpt>
      <trkpt lat="48.69828" lon="1.87813">
        <ele>155</ele>
        <time>2025-07-04T14:55:17.316Z</time>
      </trkpt>
      <trkpt lat="48.69831" lon="1.87805">
        <ele>155</ele>
        <time>2025-07-04T14:55:21.634Z</time>
      </trkpt>
      <trkpt lat="48.69833" lon="1.878">
        <ele>155</ele>
        <time>2025-07-04T14:55:26.054Z</time>
      </trkpt>
      <trkpt lat="48.69833" lon="1.87808">
        <ele>155</ele>
        <time>2025-07-04T14:55:30.195Z</time>
      </trkpt>
      <trkpt lat="48.69826" lon="1.87773">
        <ele>154</ele>
        <time>2025-07-04T14:55:35.015Z</time>
      </trkpt>
      <trkpt lat="48.69825" lon="1.87762">
        <ele>154</ele>
        <time>2025-07-04T14:55:39.434Z</time>
      </trkpt>
      <trkpt lat="48.69824" lon="1.87749">
        <ele>154</ele>
        <time>2025-07-04T14:55:44.292Z</time>
      </trkpt>
      <trkpt lat="48.69821" lon="1.87738">
        <ele>154</ele>
        <time>2025-07-04T14:55:48.795Z</time>
      </trkpt>
      <trkpt lat="48.69819" lon="1.87727">
        <ele>161</ele>
        <time>2025-07-04T14:55:53.209Z</time>
      </trkpt>
      <trkpt lat="48.69817" lon="1.87717">
        <ele>161</ele>
        <time>2025-07-04T14:55:58.154Z</time>
      </trkpt>
      <trkpt lat="48.69816" lon="1.87707">
        <ele>160</ele>
        <time>2025-07-04T14:56:02.256Z</time>
      </trkpt>
      <trkpt lat="48.69814" lon="1.87698">
        <ele>160</ele>
        <time>2025-07-04T14:56:06.616Z</time>
      </trkpt>
      <trkpt lat="48.69812" lon="1.87688">
        <ele>160</ele>
        <time>2025-07-04T14:56:11.353Z</time>
      </trkpt>
      <trkpt lat="48.6981" lon="1.87678">
        <ele>160</ele>
        <time>2025-07-04T14:56:15.793Z</time>
      </trkpt>
      <trkpt lat="48.69809" lon="1.87669">
        <ele>160</ele>
        <time>2025-07-04T14:56:19.972Z</time>
      </trkpt>
      <trkpt lat="48.69808" lon="1.8766">
        <ele>160</ele>
        <time>2025-07-04T14:56:24.076Z</time>
      </trkpt>
      <trkpt lat="48.69806" lon="1.8765">
        <ele>158</ele>
        <time>2025-07-04T14:56:28.335Z</time>
      </trkpt>
      <trkpt lat="48.69804" lon="1.87641">
        <ele>158</ele>
        <time>2025-07-04T14:56:32.796Z</time>
      </trkpt>
      <trkpt lat="48.69802" lon="1.87631">
        <ele>158</ele>
        <time>2025-07-04T14:56:37.313Z</time>
      </trkpt>
      <trkpt lat="48.69799" lon="1.87623">
        <ele>155</ele>
        <time>2025-07-04T14:56:41.392Z</time>
      </trkpt>
      <trkpt lat="48.69795" lon="1.87617">
        <ele>155</ele>
        <time>2025-07-04T14:56:45.472Z</time>
      </trkpt>
      <trkpt lat="48.6979" lon="1.8761">
        <ele>164</ele>
        <time>2025-07-04T14:56:49.952Z</time>
      </trkpt>
      <trkpt lat="48.69785" lon="1.87602">
        <ele>164</ele>
        <time>2025-07-04T14:56:54.432Z</time>
      </trkpt>
      <trkpt lat="48.6978" lon="1.87595">
        <ele>160</ele>
        <time>2025-07-04T14:56:58.452Z</time>
      </trkpt>
      <trkpt lat="48.69777" lon="1.87588">
        <ele>160</ele>
        <time>2025-07-04T14:57:02.483Z</time>
      </trkpt>
      <trkpt lat="48.69772" lon="1.8758">
        <ele>160</ele>
        <time>2025-07-04T14:57:07.011Z</time>
      </trkpt>
      <trkpt lat="48.69766" lon="1.87574">
        <ele>160</ele>
        <time>2025-07-04T14:57:11.073Z</time>
      </trkpt>
      <trkpt lat="48.69761" lon="1.87568">
        <ele>163</ele>
        <time>2025-07-04T14:57:15.152Z</time>
      </trkpt>
      <trkpt lat="48.69757" lon="1.87561">
        <ele>163</ele>
        <time>2025-07-04T14:57:19.231Z</time>
      </trkpt>
      <trkpt lat="48.69753" lon="1.87554">
        <ele>163</ele>
        <time>2025-07-04T14:57:23.242Z</time>
      </trkpt>
      <trkpt lat="48.69749" lon="1.87546">
        <ele>163</ele>
        <time>2025-07-04T14:57:27.484Z</time>
      </trkpt>
      <trkpt lat="48.69745" lon="1.87537">
        <ele>160</ele>
        <time>2025-07-04T14:57:31.997Z</time>
      </trkpt>
      <trkpt lat="48.69742" lon="1.87527">
        <ele>160</ele>
        <time>2025-07-04T14:57:36.103Z</time>
      </trkpt>
      <trkpt lat="48.69739" lon="1.87519">
        <ele>160</ele>
        <time>2025-07-04T14:57:40.198Z</time>
      </trkpt>
      <trkpt lat="48.69736" lon="1.87511">
        <ele>155</ele>
        <time>2025-07-04T14:57:44.321Z</time>
      </trkpt>
      <trkpt lat="48.69732" lon="1.87502">
        <ele>161</ele>
        <time>2025-07-04T14:57:48.945Z</time>
      </trkpt>
      <trkpt lat="48.69729" lon="1.87494">
        <ele>161</ele>
        <time>2025-07-04T14:57:52.998Z</time>
      </trkpt>
      <trkpt lat="48.69726" lon="1.87485">
        <ele>159</ele>
        <time>2025-07-04T14:57:57.104Z</time>
      </trkpt>
      <trkpt lat="48.69723" lon="1.87476">
        <ele>159</ele>
        <time>2025-07-04T14:58:01.303Z</time>
      </trkpt>
      <trkpt lat="48.69722" lon="1.87467">
        <ele>159</ele>
        <time>2025-07-04T14:58:05.424Z</time>
      </trkpt>
      <trkpt lat="48.69721" lon="1.87458">
        <ele>159</ele>
        <time>2025-07-04T14:58:09.582Z</time>
      </trkpt>
      <trkpt lat="48.69719" lon="1.87448">
        <ele>159</ele>
        <time>2025-07-04T14:58:14.265Z</time>
      </trkpt>
      <trkpt lat="48.69717" lon="1.87439">
        <ele>159</ele>
        <time>2025-07-04T14:58:18.362Z</time>
      </trkpt>
      <trkpt lat="48.69716" lon="1.8743">
        <ele>159</ele>
        <time>2025-07-04T14:58:22.457Z</time>
      </trkpt>
      <trkpt lat="48.69715" lon="1.87421">
        <ele>159</ele>
        <time>2025-07-04T14:58:26.605Z</time>
      </trkpt>
      <trkpt lat="48.69713" lon="1.87412">
        <ele>159</ele>
        <time>2025-07-04T14:58:30.762Z</time>
      </trkpt>
      <trkpt lat="48.69713" lon="1.87403">
        <ele>159</ele>
        <time>2025-07-04T14:58:34.925Z</time>
      </trkpt>
      <trkpt lat="48.69713" lon="1.87393">
        <ele>159</ele>
        <time>2025-07-04T14:58:39.124Z</time>
      </trkpt>
      <trkpt lat="48.69712" lon="1.87384">
        <ele>159</ele>
        <time>2025-07-04T14:58:43.264Z</time>
      </trkpt>
      <trkpt lat="48.69711" lon="1.87375">
        <ele>159</ele>
        <time>2025-07-04T14:58:47.358Z</time>
      </trkpt>
      <trkpt lat="48.6971" lon="1.87366">
        <ele>159</ele>
        <time>2025-07-04T14:58:51.482Z</time>
      </trkpt>
      <trkpt lat="48.69708" lon="1.87356">
        <ele>164</ele>
        <time>2025-07-04T14:58:55.788Z</time>
      </trkpt>
      <trkpt lat="48.69706" lon="1.87348">
        <ele>164</ele>
        <time>2025-07-04T14:58:59.982Z</time>
      </trkpt>
      <trkpt lat="48.69705" lon="1.87339">
        <ele>161</ele>
        <time>2025-07-04T14:59:04.204Z</time>
      </trkpt>
      <trkpt lat="48.69703" lon="1.8733">
        <ele>161</ele>
        <time>2025-07-04T14:59:08.463Z</time>
      </trkpt>
      <trkpt lat="48.69701" lon="1.87321">
        <ele>161</ele>
        <time>2025-07-04T14:59:12.842Z</time>
      </trkpt>
      <trkpt lat="48.69698" lon="1.87311">
        <ele>162</ele>
        <time>2025-07-04T14:59:17.381Z</time>
      </trkpt>
      <trkpt lat="48.69697" lon="1.87304">
        <ele>162</ele>
        <time>2025-07-04T14:59:21.431Z</time>
      </trkpt>
      <trkpt lat="48.69696" lon="1.87296">
        <ele>162</ele>
        <time>2025-07-04T14:59:25.484Z</time>
      </trkpt>
      <trkpt lat="48.69693" lon="1.87287">
        <ele>162</ele>
        <time>2025-07-04T14:59:30.078Z</time>
      </trkpt>
      <trkpt lat="48.69691" lon="1.87279">
        <ele>162</ele>
        <time>2025-07-04T14:59:34.480Z</time>
      </trkpt>
      <trkpt lat="48.69688" lon="1.8727">
        <ele>162</ele>
        <time>2025-07-04T14:59:38.944Z</time>
      </trkpt>
      <trkpt lat="48.69686" lon="1.87263">
        <ele>162</ele>
        <time>2025-07-04T14:59:43.483Z</time>
      </trkpt>
      <trkpt lat="48.69684" lon="1.87256">
        <ele>162</ele>
        <time>2025-07-04T14:59:47.624Z</time>
      </trkpt>
      <trkpt lat="48.69682" lon="1.87248">
        <ele>162</ele>
        <time>2025-07-04T14:59:51.659Z</time>
      </trkpt>
      <trkpt lat="48.69681" lon="1.87241">
        <ele>162</ele>
        <time>2025-07-04T14:59:55.704Z</time>
      </trkpt>
      <trkpt lat="48.69678" lon="1.87233">
        <ele>171</ele>
        <time>2025-07-04T15:00:00.278Z</time>
      </trkpt>
      <trkpt lat="48.69675" lon="1.87226">
        <ele>171</ele>
        <time>2025-07-04T15:00:04.282Z</time>
      </trkpt>
      <trkpt lat="48.69674" lon="1.87219">
        <ele>171</ele>
        <time>2025-07-04T15:00:08.301Z</time>
      </trkpt>
      <trkpt lat="48.69673" lon="1.87212">
        <ele>171</ele>
        <time>2025-07-04T15:00:12.883Z</time>
      </trkpt>
      <trkpt lat="48.6967" lon="1.87204">
        <ele>168</ele>
        <time>2025-07-04T15:00:17.262Z</time>
      </trkpt>
      <trkpt lat="48.69667" lon="1.87196">
        <ele>168</ele>
        <time>2025-07-04T15:00:21.698Z</time>
      </trkpt>
      <trkpt lat="48.69666" lon="1.87188">
        <ele>168</ele>
        <time>2025-07-04T15:00:26.264Z</time>
      </trkpt>
      <trkpt lat="48.69664" lon="1.8718">
        <ele>166</ele>
        <time>2025-07-04T15:00:30.485Z</time>
      </trkpt>
      <trkpt lat="48.69663" lon="1.87172">
        <ele>166</ele>
        <time>2025-07-04T15:00:34.985Z</time>
      </trkpt>
      <trkpt lat="48.69661" lon="1.87164">
        <ele>166</ele>
        <time>2025-07-04T15:00:39.124Z</time>
      </trkpt>
      <trkpt lat="48.69659" lon="1.87155">
        <ele>166</ele>
        <time>2025-07-04T15:00:43.742Z</time>
      </trkpt>
      <trkpt lat="48.69658" lon="1.87148">
        <ele>165</ele>
        <time>2025-07-04T15:00:47.878Z</time>
      </trkpt>
      <trkpt lat="48.69656" lon="1.87141">
        <ele>165</ele>
        <time>2025-07-04T15:00:52.104Z</time>
      </trkpt>
      <trkpt lat="48.69654" lon="1.87134">
        <ele>165</ele>
        <time>2025-07-04T15:00:56.482Z</time>
      </trkpt>
      <trkpt lat="48.69652" lon="1.87125">
        <ele>172</ele>
        <time>2025-07-04T15:01:01.003Z</time>
      </trkpt>
      <trkpt lat="48.69651" lon="1.87116">
        <ele>171</ele>
        <time>2025-07-04T15:01:05.482Z</time>
      </trkpt>
      <trkpt lat="48.69649" lon="1.87108">
        <ele>171</ele>
        <time>2025-07-04T15:01:10.144Z</time>
      </trkpt>
      <trkpt lat="48.69648" lon="1.87101">
        <ele>171</ele>
        <time>2025-07-04T15:01:14.484Z</time>
      </trkpt>
      <trkpt lat="48.69646" lon="1.87094">
        <ele>169</ele>
        <time>2025-07-04T15:01:18.838Z</time>
      </trkpt>
      <trkpt lat="48.69643" lon="1.87087">
        <ele>169</ele>
        <time>2025-07-04T15:01:23.318Z</time>
      </trkpt>
      <trkpt lat="48.69641" lon="1.8708">
        <ele>169</ele>
        <time>2025-07-04T15:01:27.397Z</time>
      </trkpt>
      <trkpt lat="48.69636" lon="1.87074">
        <ele>169</ele>
        <time>2025-07-04T15:01:31.982Z</time>
      </trkpt>
      <trkpt lat="48.69633" lon="1.87067">
        <ele>167</ele>
        <time>2025-07-04T15:01:36.357Z</time>
      </trkpt>
      <trkpt lat="48.69628" lon="1.87059">
        <ele>167</ele>
        <time>2025-07-04T15:01:41.043Z</time>
      </trkpt>
      <trkpt lat="48.69624" lon="1.87053">
        <ele>171</ele>
        <time>2025-07-04T15:01:45.480Z</time>
      </trkpt>
      <trkpt lat="48.69622" lon="1.87046">
        <ele>171</ele>
        <time>2025-07-04T15:01:50.122Z</time>
      </trkpt>
      <trkpt lat="48.69617" lon="1.8704">
        <ele>167</ele>
        <time>2025-07-04T15:01:54.423Z</time>
      </trkpt>
      <trkpt lat="48.69613" lon="1.87036">
        <ele>167</ele>
        <time>2025-07-04T15:01:58.923Z</time>
      </trkpt>
      <trkpt lat="48.69608" lon="1.87031">
        <ele>167</ele>
        <time>2025-07-04T15:02:03.204Z</time>
      </trkpt>
      <trkpt lat="48.69604" lon="1.87025">
        <ele>167</ele>
        <time>2025-07-04T15:02:07.582Z</time>
      </trkpt>
      <trkpt lat="48.696" lon="1.87019">
        <ele>167</ele>
        <time>2025-07-04T15:02:11.959Z</time>
      </trkpt>
      <trkpt lat="48.69595" lon="1.87014">
        <ele>173</ele>
        <time>2025-07-04T15:02:16.466Z</time>
      </trkpt>
      <trkpt lat="48.69591" lon="1.87008">
        <ele>168</ele>
        <time>2025-07-04T15:02:20.945Z</time>
      </trkpt>
      <trkpt lat="48.69586" lon="1.87004">
        <ele>168</ele>
        <time>2025-07-04T15:02:25.383Z</time>
      </trkpt>
      <trkpt lat="48.6958" lon="1.87001">
        <ele>168</ele>
        <time>2025-07-04T15:02:29.802Z</time>
      </trkpt>
      <trkpt lat="48.69574" lon="1.86998">
        <ele>168</ele>
        <time>2025-07-04T15:02:34.165Z</time>
      </trkpt>
      <trkpt lat="48.69569" lon="1.86994">
        <ele>172</ele>
        <time>2025-07-04T15:02:38.404Z</time>
      </trkpt>
      <trkpt lat="48.69563" lon="1.86991">
        <ele>172</ele>
        <time>2025-07-04T15:02:42.603Z</time>
      </trkpt>
      <trkpt lat="48.69558" lon="1.86988">
        <ele>172</ele>
        <time>2025-07-04T15:02:46.699Z</time>
      </trkpt>
      <trkpt lat="48.69552" lon="1.86985">
        <ele>167</ele>
        <time>2025-07-04T15:02:50.780Z</time>
      </trkpt>
      <trkpt lat="48.69545" lon="1.86983">
        <ele>167</ele>
        <time>2025-07-04T15:02:55.004Z</time>
      </trkpt>
      <trkpt lat="48.69538" lon="1.86981">
        <ele>171</ele>
        <time>2025-07-04T15:02:59.465Z</time>
      </trkpt>
      <trkpt lat="48.69533" lon="1.86977">
        <ele>171</ele>
        <time>2025-07-04T15:03:03.491Z</time>
      </trkpt>
      <trkpt lat="48.69529" lon="1.86969">
        <ele>171</ele>
        <time>2025-07-04T15:03:07.640Z</time>
      </trkpt>
      <trkpt lat="48.69522" lon="1.86967">
        <ele>171</ele>
        <time>2025-07-04T15:03:11.718Z</time>
      </trkpt>
      <trkpt lat="48.69516" lon="1.86965">
        <ele>171</ele>
        <time>2025-07-04T15:03:15.841Z</time>
      </trkpt>
      <trkpt lat="48.69509" lon="1.86968">
        <ele>177</ele>
        <time>2025-07-04T15:03:20.398Z</time>
      </trkpt>
      <trkpt lat="48.69502" lon="1.8696">
        <ele>177</ele>
        <time>2025-07-04T15:03:24.938Z</time>
      </trkpt>
      <trkpt lat="48.69497" lon="1.86955">
        <ele>172</ele>
        <time>2025-07-04T15:03:29.324Z</time>
      </trkpt>
      <trkpt lat="48.69491" lon="1.86952">
        <ele>172</ele>
        <time>2025-07-04T15:03:33.745Z</time>
      </trkpt>
      <trkpt lat="48.69485" lon="1.8695">
        <ele>175</ele>
        <time>2025-07-04T15:03:37.945Z</time>
      </trkpt>
      <trkpt lat="48.69479" lon="1.86946">
        <ele>175</ele>
        <time>2025-07-04T15:03:42.247Z</time>
      </trkpt>
      <trkpt lat="48.69475" lon="1.8694">
        <ele>175</ele>
        <time>2025-07-04T15:03:46.578Z</time>
      </trkpt>
      <trkpt lat="48.69472" lon="1.86928">
        <ele>172</ele>
        <time>2025-07-04T15:03:51.399Z</time>
      </trkpt>
      <trkpt lat="48.69467" lon="1.86924">
        <ele>172</ele>
        <time>2025-07-04T15:03:55.483Z</time>
      </trkpt>
      <trkpt lat="48.69465" lon="1.86914">
        <ele>172</ele>
        <time>2025-07-04T15:03:59.882Z</time>
      </trkpt>
      <trkpt lat="48.69463" lon="1.86906">
        <ele>172</ele>
        <time>2025-07-04T15:04:04.199Z</time>
      </trkpt>
      <trkpt lat="48.69463" lon="1.86896">
        <ele>169</ele>
        <time>2025-07-04T15:04:08.486Z</time>
      </trkpt>
      <trkpt lat="48.69463" lon="1.86887">
        <ele>169</ele>
        <time>2025-07-04T15:04:12.864Z</time>
      </trkpt>
      <trkpt lat="48.69461" lon="1.86879">
        <ele>169</ele>
        <time>2025-07-04T15:04:17.266Z</time>
      </trkpt>
      <trkpt lat="48.69457" lon="1.86872">
        <ele>173</ele>
        <time>2025-07-04T15:04:21.482Z</time>
      </trkpt>
      <trkpt lat="48.69453" lon="1.86865">
        <ele>173</ele>
        <time>2025-07-04T15:04:25.962Z</time>
      </trkpt>
      <trkpt lat="48.69449" lon="1.86859">
        <ele>173</ele>
        <time>2025-07-04T15:04:30.397Z</time>
      </trkpt>
      <trkpt lat="48.69445" lon="1.86857">
        <ele>173</ele>
        <time>2025-07-04T15:04:34.545Z</time>
      </trkpt>
      <trkpt lat="48.69443" lon="1.86848">
        <ele>173</ele>
        <time>2025-07-04T15:04:38.844Z</time>
      </trkpt>
      <trkpt lat="48.6944" lon="1.8684">
        <ele>171</ele>
        <time>2025-07-04T15:04:43.162Z</time>
      </trkpt>
      <trkpt lat="48.69438" lon="1.86832">
        <ele>171</ele>
        <time>2025-07-04T15:04:47.482Z</time>
      </trkpt>
      <trkpt lat="48.69436" lon="1.86823">
        <ele>171</ele>
        <time>2025-07-04T15:04:51.825Z</time>
      </trkpt>
      <trkpt lat="48.69432" lon="1.86816">
        <ele>170</ele>
        <time>2025-07-04T15:04:56.143Z</time>
      </trkpt>
      <trkpt lat="48.69429" lon="1.86807">
        <ele>171</ele>
        <time>2025-07-04T15:05:01.025Z</time>
      </trkpt>
      <trkpt lat="48.69431" lon="1.868">
        <ele>170</ele>
        <time>2025-07-04T15:05:05.418Z</time>
      </trkpt>
      <trkpt lat="48.69429" lon="1.8679">
        <ele>171</ele>
        <time>2025-07-04T15:05:09.771Z</time>
      </trkpt>
      <trkpt lat="48.69426" lon="1.86779">
        <ele>171</ele>
        <time>2025-07-04T15:05:14.378Z</time>
      </trkpt>
      <trkpt lat="48.69419" lon="1.86777">
        <ele>171</ele>
        <time>2025-07-04T15:05:18.944Z</time>
      </trkpt>
      <trkpt lat="48.69415" lon="1.86769">
        <ele>171</ele>
        <time>2025-07-04T15:05:23.482Z</time>
      </trkpt>
      <trkpt lat="48.69413" lon="1.86764">
        <ele>172</ele>
        <time>2025-07-04T15:05:28.030Z</time>
      </trkpt>
      <trkpt lat="48.69409" lon="1.8676">
        <ele>172</ele>
        <time>2025-07-04T15:05:32.145Z</time>
      </trkpt>
      <trkpt lat="48.69407" lon="1.86755">
        <ele>172</ele>
        <time>2025-07-04T15:05:36.485Z</time>
      </trkpt>
      <trkpt lat="48.69409" lon="1.86748">
        <ele>172</ele>
        <time>2025-07-04T15:05:41.302Z</time>
      </trkpt>
      <trkpt lat="48.69412" lon="1.86744">
        <ele>172</ele>
        <time>2025-07-04T15:05:45.816Z</time>
      </trkpt>
      <trkpt lat="48.6942" lon="1.86731">
        <ele>173</ele>
        <time>2025-07-04T15:05:54.997Z</time>
      </trkpt>
      <trkpt lat="48.69419" lon="1.86726">
        <ele>173</ele>
        <time>2025-07-04T15:05:59.483Z</time>
      </trkpt>
      <trkpt lat="48.69419" lon="1.86725">
        <ele>173</ele>
        <time>2025-07-04T15:06:10.488Z</time>
      </trkpt>
      <trkpt lat="48.69419" lon="1.86724">
        <ele>173</ele>
        <time>2025-07-04T15:06:15.479Z</time>
      </trkpt>
      <trkpt lat="48.6942" lon="1.86725">
        <ele>173</ele>
        <time>2025-07-04T15:06:20.484Z</time>
      </trkpt>
      <trkpt lat="48.6942" lon="1.86724">
        <ele>173</ele>
        <time>2025-07-04T15:06:32.481Z</time>
      </trkpt>
      <trkpt lat="48.6942" lon="1.86723">
        <ele>173</ele>
        <time>2025-07-04T15:06:37.279Z</time>
      </trkpt>
      <trkpt lat="48.69425" lon="1.86717">
        <ele>173</ele>
        <time>2025-07-04T15:06:42.239Z</time>
      </trkpt>
      <trkpt lat="48.69427" lon="1.86706">
        <ele>174</ele>
        <time>2025-07-04T15:06:46.718Z</time>
      </trkpt>
      <trkpt lat="48.69428" lon="1.86697">
        <ele>174</ele>
        <time>2025-07-04T15:06:50.867Z</time>
      </trkpt>
      <trkpt lat="48.69429" lon="1.86688">
        <ele>174</ele>
        <time>2025-07-04T15:06:55.344Z</time>
      </trkpt>
      <trkpt lat="48.69431" lon="1.86678">
        <ele>173</ele>
        <time>2025-07-04T15:06:59.482Z</time>
      </trkpt>
      <trkpt lat="48.69432" lon="1.8667">
        <ele>173</ele>
        <time>2025-07-04T15:07:03.843Z</time>
      </trkpt>
      <trkpt lat="48.69434" lon="1.86662">
        <ele>173</ele>
        <time>2025-07-04T15:07:08.204Z</time>
      </trkpt>
      <trkpt lat="48.69436" lon="1.86653">
        <ele>173</ele>
        <time>2025-07-04T15:07:12.482Z</time>
      </trkpt>
      <trkpt lat="48.69438" lon="1.86644">
        <ele>173</ele>
        <time>2025-07-04T15:07:17.062Z</time>
      </trkpt>
      <trkpt lat="48.6944" lon="1.86636">
        <ele>173</ele>
        <time>2025-07-04T15:07:21.124Z</time>
      </trkpt>
      <trkpt lat="48.69442" lon="1.86628">
        <ele>173</ele>
        <time>2025-07-04T15:07:25.486Z</time>
      </trkpt>
      <trkpt lat="48.69445" lon="1.86621">
        <ele>172</ele>
        <time>2025-07-04T15:07:29.939Z</time>
      </trkpt>
      <trkpt lat="48.69448" lon="1.86612">
        <ele>172</ele>
        <time>2025-07-04T15:07:34.482Z</time>
      </trkpt>
      <trkpt lat="48.69451" lon="1.86606">
        <ele>172</ele>
        <time>2025-07-04T15:07:38.967Z</time>
      </trkpt>
      <trkpt lat="48.69455" lon="1.86598">
        <ele>172</ele>
        <time>2025-07-04T15:07:43.464Z</time>
      </trkpt>
      <trkpt lat="48.69458" lon="1.8659">
        <ele>171</ele>
        <time>2025-07-04T15:07:47.483Z</time>
      </trkpt>
      <trkpt lat="48.69461" lon="1.86583">
        <ele>170</ele>
        <time>2025-07-04T15:07:51.843Z</time>
      </trkpt>
      <trkpt lat="48.69465" lon="1.86576">
        <ele>170</ele>
        <time>2025-07-04T15:07:56.480Z</time>
      </trkpt>
      <trkpt lat="48.69468" lon="1.86568">
        <ele>169</ele>
        <time>2025-07-04T15:08:00.793Z</time>
      </trkpt>
      <trkpt lat="48.69471" lon="1.8656">
        <ele>169</ele>
        <time>2025-07-04T15:08:05.480Z</time>
      </trkpt>
      <trkpt lat="48.69475" lon="1.86551">
        <ele>169</ele>
        <time>2025-07-04T15:08:10.054Z</time>
      </trkpt>
      <trkpt lat="48.69477" lon="1.86544">
        <ele>169</ele>
        <time>2025-07-04T15:08:14.089Z</time>
      </trkpt>
      <trkpt lat="48.6948" lon="1.86538">
        <ele>170</ele>
        <time>2025-07-04T15:08:18.288Z</time>
      </trkpt>
      <trkpt lat="48.69485" lon="1.86532">
        <ele>170</ele>
        <time>2025-07-04T15:08:22.674Z</time>
      </trkpt>
      <trkpt lat="48.69489" lon="1.86527">
        <ele>170</ele>
        <time>2025-07-04T15:08:27.291Z</time>
      </trkpt>
      <trkpt lat="48.69495" lon="1.86524">
        <ele>170</ele>
        <time>2025-07-04T15:08:31.848Z</time>
      </trkpt>
      <trkpt lat="48.69497" lon="1.86525">
        <ele>170</ele>
        <time>2025-07-04T15:08:35.408Z</time>
      </trkpt>
      <trkpt lat="48.69506" lon="1.86517">
        <ele>170</ele>
        <time>2025-07-04T15:08:43.954Z</time>
      </trkpt>
      <trkpt lat="48.69513" lon="1.8652">
        <ele>170</ele>
        <time>2025-07-04T15:08:48.317Z</time>
      </trkpt>
      <trkpt lat="48.6952" lon="1.86525">
        <ele>169</ele>
        <time>2025-07-04T15:08:52.693Z</time>
      </trkpt>
      <trkpt lat="48.69526" lon="1.86527">
        <ele>169</ele>
        <time>2025-07-04T15:08:57.195Z</time>
      </trkpt>
      <trkpt lat="48.69533" lon="1.8653">
        <ele>169</ele>
        <time>2025-07-04T15:09:01.653Z</time>
      </trkpt>
      <trkpt lat="48.69539" lon="1.8653">
        <ele>169</ele>
        <time>2025-07-04T15:09:06.149Z</time>
      </trkpt>
      <trkpt lat="48.69544" lon="1.86526">
        <ele>171</ele>
        <time>2025-07-04T15:09:10.484Z</time>
      </trkpt>
      <trkpt lat="48.69547" lon="1.86517">
        <ele>171</ele>
        <time>2025-07-04T15:09:15.251Z</time>
      </trkpt>
      <trkpt lat="48.69552" lon="1.86514">
        <ele>172</ele>
        <time>2025-07-04T15:09:19.437Z</time>
      </trkpt>
      <trkpt lat="48.69557" lon="1.8651">
        <ele>172</ele>
        <time>2025-07-04T15:09:23.970Z</time>
      </trkpt>
      <trkpt lat="48.69561" lon="1.86506">
        <ele>172</ele>
        <time>2025-07-04T15:09:28.481Z</time>
      </trkpt>
      <trkpt lat="48.69557" lon="1.86497">
        <ele>172</ele>
        <time>2025-07-04T15:09:32.483Z</time>
      </trkpt>
      <trkpt lat="48.69552" lon="1.86493">
        <ele>172</ele>
        <time>2025-07-04T15:09:36.514Z</time>
      </trkpt>
      <trkpt lat="48.69546" lon="1.8649">
        <ele>172</ele>
        <time>2025-07-04T15:09:40.989Z</time>
      </trkpt>
      <trkpt lat="48.69541" lon="1.8649">
        <ele>170</ele>
        <time>2025-07-04T15:09:45.309Z</time>
      </trkpt>
      <trkpt lat="48.69534" lon="1.8649">
        <ele>170</ele>
        <time>2025-07-04T15:09:49.900Z</time>
      </trkpt>
      <trkpt lat="48.69528" lon="1.86489">
        <ele>170</ele>
        <time>2025-07-04T15:09:54.050Z</time>
      </trkpt>
      <trkpt lat="48.69523" lon="1.86487">
        <ele>170</ele>
        <time>2025-07-04T15:09:58.482Z</time>
      </trkpt>
      <trkpt lat="48.69518" lon="1.86482">
        <ele>172</ele>
        <time>2025-07-04T15:10:03.014Z</time>
      </trkpt>
      <trkpt lat="48.69515" lon="1.86477">
        <ele>172</ele>
        <time>2025-07-04T15:10:07.194Z</time>
      </trkpt>
      <trkpt lat="48.69514" lon="1.86473">
        <ele>172</ele>
        <time>2025-07-04T15:10:11.480Z</time>
      </trkpt>
      <trkpt lat="48.69514" lon="1.86471">
        <ele>172</ele>
        <time>2025-07-04T15:10:15.476Z</time>
      </trkpt>
      <trkpt lat="48.69517" lon="1.86466">
        <ele>172</ele>
        <time>2025-07-04T15:10:20.356Z</time>
      </trkpt>
      <trkpt lat="48.69519" lon="1.86463">
        <ele>172</ele>
        <time>2025-07-04T15:10:25.158Z</time>
      </trkpt>
      <trkpt lat="48.69516" lon="1.8646">
        <ele>172</ele>
        <time>2025-07-04T15:10:29.854Z</time>
      </trkpt>
      <trkpt lat="48.69509" lon="1.86458">
        <ele>173</ele>
        <time>2025-07-04T15:10:34.134Z</time>
      </trkpt>
      <trkpt lat="48.69502" lon="1.8646">
        <ele>173</ele>
        <time>2025-07-04T15:10:38.587Z</time>
      </trkpt>
      <trkpt lat="48.69497" lon="1.86458">
        <ele>173</ele>
        <time>2025-07-04T15:10:42.667Z</time>
      </trkpt>
      <trkpt lat="48.69495" lon="1.86452">
        <ele>173</ele>
        <time>2025-07-04T15:10:46.777Z</time>
      </trkpt>
      <trkpt lat="48.69491" lon="1.86448">
        <ele>173</ele>
        <time>2025-07-04T15:10:51.407Z</time>
      </trkpt>
      <trkpt lat="48.69486" lon="1.86448">
        <ele>172</ele>
        <time>2025-07-04T15:10:55.427Z</time>
      </trkpt>
      <trkpt lat="48.6948" lon="1.86447">
        <ele>172</ele>
        <time>2025-07-04T15:10:59.950Z</time>
      </trkpt>
      <trkpt lat="48.69475" lon="1.86445">
        <ele>172</ele>
        <time>2025-07-04T15:11:03.988Z</time>
      </trkpt>
      <trkpt lat="48.69469" lon="1.86444">
        <ele>172</ele>
        <time>2025-07-04T15:11:08.486Z</time>
      </trkpt>
      <trkpt lat="48.69464" lon="1.86442">
        <ele>172</ele>
        <time>2025-07-04T15:11:12.633Z</time>
      </trkpt>
      <trkpt lat="48.69458" lon="1.86441">
        <ele>171</ele>
        <time>2025-07-04T15:11:17.174Z</time>
      </trkpt>
      <trkpt lat="48.69453" lon="1.8644">
        <ele>171</ele>
        <time>2025-07-04T15:11:21.270Z</time>
      </trkpt>
      <trkpt lat="48.69448" lon="1.86439">
        <ele>171</ele>
        <time>2025-07-04T15:11:25.728Z</time>
      </trkpt>
      <trkpt lat="48.69442" lon="1.86436">
        <ele>171</ele>
        <time>2025-07-04T15:11:29.848Z</time>
      </trkpt>
      <trkpt lat="48.69436" lon="1.86433">
        <ele>171</ele>
        <time>2025-07-04T15:11:34.481Z</time>
      </trkpt>
      <trkpt lat="48.6943" lon="1.86431">
        <ele>172</ele>
        <time>2025-07-04T15:11:39.074Z</time>
      </trkpt>
      <trkpt lat="48.69425" lon="1.86428">
        <ele>172</ele>
        <time>2025-07-04T15:11:43.478Z</time>
      </trkpt>
      <trkpt lat="48.6942" lon="1.86426">
        <ele>172</ele>
        <time>2025-07-04T15:11:47.694Z</time>
      </trkpt>
      <trkpt lat="48.69415" lon="1.86424">
        <ele>172</ele>
        <time>2025-07-04T15:11:51.713Z</time>
      </trkpt>
      <trkpt lat="48.6941" lon="1.86423">
        <ele>172</ele>
        <time>2025-07-04T15:11:55.913Z</time>
      </trkpt>
      <trkpt lat="48.69406" lon="1.86424">
        <ele>172</ele>
        <time>2025-07-04T15:12:00.426Z</time>
      </trkpt>
      <trkpt lat="48.694" lon="1.86425">
        <ele>172</ele>
        <time>2025-07-04T15:12:05.009Z</time>
      </trkpt>
      <trkpt lat="48.69395" lon="1.86427">
        <ele>172</ele>
        <time>2025-07-04T15:12:09.413Z</time>
      </trkpt>
      <trkpt lat="48.69389" lon="1.86428">
        <ele>172</ele>
        <time>2025-07-04T15:12:13.478Z</time>
      </trkpt>
      <trkpt lat="48.69384" lon="1.86428">
        <ele>172</ele>
        <time>2025-07-04T15:12:17.484Z</time>
      </trkpt>
      <trkpt lat="48.69379" lon="1.86427">
        <ele>172</ele>
        <time>2025-07-04T15:12:21.685Z</time>
      </trkpt>
      <trkpt lat="48.69378" lon="1.8642">
        <ele>172</ele>
        <time>2025-07-04T15:12:25.893Z</time>
      </trkpt>
      <trkpt lat="48.69381" lon="1.86414">
        <ele>172</ele>
        <time>2025-07-04T15:12:30.288Z</time>
      </trkpt>
      <trkpt lat="48.69385" lon="1.86408">
        <ele>172</ele>
        <time>2025-07-04T15:12:34.470Z</time>
      </trkpt>
      <trkpt lat="48.6939" lon="1.86406">
        <ele>172</ele>
        <time>2025-07-04T15:12:38.485Z</time>
      </trkpt>
      <trkpt lat="48.69394" lon="1.86402">
        <ele>172</ele>
        <time>2025-07-04T15:12:42.973Z</time>
      </trkpt>
      <trkpt lat="48.69399" lon="1.86398">
        <ele>172</ele>
        <time>2025-07-04T15:12:47.094Z</time>
      </trkpt>
      <trkpt lat="48.69402" lon="1.86393">
        <ele>172</ele>
        <time>2025-07-04T15:12:51.324Z</time>
      </trkpt>
      <trkpt lat="48.69403" lon="1.86385">
        <ele>172</ele>
        <time>2025-07-04T15:12:55.479Z</time>
      </trkpt>
      <trkpt lat="48.69401" lon="1.86377">
        <ele>172</ele>
        <time>2025-07-04T15:12:59.945Z</time>
      </trkpt>
      <trkpt lat="48.694" lon="1.86369">
        <ele>171</ele>
        <time>2025-07-04T15:13:04.093Z</time>
      </trkpt>
      <trkpt lat="48.69399" lon="1.86362">
        <ele>171</ele>
        <time>2025-07-04T15:13:08.129Z</time>
      </trkpt>
      <trkpt lat="48.69398" lon="1.86354">
        <ele>171</ele>
        <time>2025-07-04T15:13:12.253Z</time>
      </trkpt>
      <trkpt lat="48.69398" lon="1.86346">
        <ele>172</ele>
        <time>2025-07-04T15:13:16.689Z</time>
      </trkpt>
      <trkpt lat="48.69397" lon="1.86338">
        <ele>172</ele>
        <time>2025-07-04T15:13:20.695Z</time>
      </trkpt>
      <trkpt lat="48.69398" lon="1.8633">
        <ele>172</ele>
        <time>2025-07-04T15:13:24.832Z</time>
      </trkpt>
      <trkpt lat="48.69398" lon="1.86323">
        <ele>172</ele>
        <time>2025-07-04T15:13:28.910Z</time>
      </trkpt>
      <trkpt lat="48.69398" lon="1.86315">
        <ele>173</ele>
        <time>2025-07-04T15:13:33.066Z</time>
      </trkpt>
      <trkpt lat="48.69399" lon="1.86307">
        <ele>173</ele>
        <time>2025-07-04T15:13:37.480Z</time>
      </trkpt>
      <trkpt lat="48.69403" lon="1.86302">
        <ele>173</ele>
        <time>2025-07-04T15:13:42.105Z</time>
      </trkpt>
      <trkpt lat="48.69407" lon="1.86295">
        <ele>173</ele>
        <time>2025-07-04T15:13:46.479Z</time>
      </trkpt>
      <trkpt lat="48.69409" lon="1.86287">
        <ele>174</ele>
        <time>2025-07-04T15:13:51.093Z</time>
      </trkpt>
      <trkpt lat="48.69414" lon="1.8628">
        <ele>174</ele>
        <time>2025-07-04T15:13:55.810Z</time>
      </trkpt>
      <trkpt lat="48.69418" lon="1.86276">
        <ele>174</ele>
        <time>2025-07-04T15:13:59.966Z</time>
      </trkpt>
      <trkpt lat="48.69422" lon="1.86275">
        <ele>174</ele>
        <time>2025-07-04T15:14:04.253Z</time>
      </trkpt>
      <trkpt lat="48.69425" lon="1.86272">
        <ele>174</ele>
        <time>2025-07-04T15:14:08.407Z</time>
      </trkpt>
      <trkpt lat="48.6943" lon="1.86268">
        <ele>174</ele>
        <time>2025-07-04T15:14:12.992Z</time>
      </trkpt>
      <trkpt lat="48.69433" lon="1.86264">
        <ele>175</ele>
        <time>2025-07-04T15:14:17.482Z</time>
      </trkpt>
      <trkpt lat="48.69435" lon="1.86259">
        <ele>175</ele>
        <time>2025-07-04T15:14:21.488Z</time>
      </trkpt>
      <trkpt lat="48.69436" lon="1.86255">
        <ele>175</ele>
        <time>2025-07-04T15:14:25.809Z</time>
      </trkpt>
      <trkpt lat="48.69437" lon="1.86247">
        <ele>175</ele>
        <time>2025-07-04T15:14:30.110Z</time>
      </trkpt>
      <trkpt lat="48.6944" lon="1.86241">
        <ele>175</ele>
        <time>2025-07-04T15:14:34.472Z</time>
      </trkpt>
      <trkpt lat="48.69443" lon="1.86237">
        <ele>175</ele>
        <time>2025-07-04T15:14:38.481Z</time>
      </trkpt>
      <trkpt lat="48.69446" lon="1.86231">
        <ele>175</ele>
        <time>2025-07-04T15:14:43.434Z</time>
      </trkpt>
      <trkpt lat="48.6945" lon="1.86225">
        <ele>175</ele>
        <time>2025-07-04T15:14:47.794Z</time>
      </trkpt>
      <trkpt lat="48.69453" lon="1.86218">
        <ele>175</ele>
        <time>2025-07-04T15:14:52.307Z</time>
      </trkpt>
      <trkpt lat="48.69457" lon="1.86212">
        <ele>175</ele>
        <time>2025-07-04T15:14:56.807Z</time>
      </trkpt>
      <trkpt lat="48.69461" lon="1.86206">
        <ele>174</ele>
        <time>2025-07-04T15:15:00.987Z</time>
      </trkpt>
      <trkpt lat="48.69466" lon="1.86201">
        <ele>174</ele>
        <time>2025-07-04T15:15:05.427Z</time>
      </trkpt>
      <trkpt lat="48.6947" lon="1.86197">
        <ele>174</ele>
        <time>2025-07-04T15:15:09.480Z</time>
      </trkpt>
      <trkpt lat="48.69475" lon="1.86192">
        <ele>174</ele>
        <time>2025-07-04T15:15:13.927Z</time>
      </trkpt>
      <trkpt lat="48.6948" lon="1.86188">
        <ele>174</ele>
        <time>2025-07-04T15:15:18.406Z</time>
      </trkpt>
      <trkpt lat="48.69484" lon="1.86181">
        <ele>174</ele>
        <time>2025-07-04T15:15:23.450Z</time>
      </trkpt>
      <trkpt lat="48.6949" lon="1.86174">
        <ele>173</ele>
        <time>2025-07-04T15:15:28.479Z</time>
      </trkpt>
      <trkpt lat="48.69494" lon="1.86169">
        <ele>173</ele>
        <time>2025-07-04T15:15:32.605Z</time>
      </trkpt>
      <trkpt lat="48.69499" lon="1.86164">
        <ele>173</ele>
        <time>2025-07-04T15:15:37.206Z</time>
      </trkpt>
      <trkpt lat="48.69503" lon="1.86159">
        <ele>173</ele>
        <time>2025-07-04T15:15:41.481Z</time>
      </trkpt>
      <trkpt lat="48.69507" lon="1.86154">
        <ele>173</ele>
        <time>2025-07-04T15:15:45.484Z</time>
      </trkpt>
      <trkpt lat="48.69511" lon="1.86149">
        <ele>173</ele>
        <time>2025-07-04T15:15:49.828Z</time>
      </trkpt>
      <trkpt lat="48.69516" lon="1.86143">
        <ele>173</ele>
        <time>2025-07-04T15:15:54.481Z</time>
      </trkpt>
      <trkpt lat="48.69521" lon="1.86138">
        <ele>173</ele>
        <time>2025-07-04T15:15:58.653Z</time>
      </trkpt>
      <trkpt lat="48.69526" lon="1.86133">
        <ele>173</ele>
        <time>2025-07-04T15:16:03.194Z</time>
      </trkpt>
      <trkpt lat="48.69528" lon="1.86126">
        <ele>173</ele>
        <time>2025-07-04T15:16:07.393Z</time>
      </trkpt>
      <trkpt lat="48.69531" lon="1.86119">
        <ele>173</ele>
        <time>2025-07-04T15:16:11.802Z</time>
      </trkpt>
      <trkpt lat="48.69533" lon="1.86111">
        <ele>173</ele>
        <time>2025-07-04T15:16:16.130Z</time>
      </trkpt>
      <trkpt lat="48.69535" lon="1.86101">
        <ele>173</ele>
        <time>2025-07-04T15:16:20.482Z</time>
      </trkpt>
      <trkpt lat="48.69536" lon="1.86093">
        <ele>173</ele>
        <time>2025-07-04T15:16:24.988Z</time>
      </trkpt>
      <trkpt lat="48.69539" lon="1.86085">
        <ele>173</ele>
        <time>2025-07-04T15:16:29.478Z</time>
      </trkpt>
      <trkpt lat="48.69541" lon="1.8608">
        <ele>173</ele>
        <time>2025-07-04T15:18:09.488Z</time>
      </trkpt>
      <trkpt lat="48.69539" lon="1.86072">
        <ele>173</ele>
        <time>2025-07-04T15:18:13.485Z</time>
      </trkpt>
      <trkpt lat="48.69535" lon="1.86065">
        <ele>173</ele>
        <time>2025-07-04T15:18:17.746Z</time>
      </trkpt>
      <trkpt lat="48.69537" lon="1.86053">
        <ele>173</ele>
        <time>2025-07-04T15:18:22.072Z</time>
      </trkpt>
      <trkpt lat="48.69535" lon="1.86047">
        <ele>173</ele>
        <time>2025-07-04T15:18:26.164Z</time>
      </trkpt>
      <trkpt lat="48.69537" lon="1.86036">
        <ele>173</ele>
        <time>2025-07-04T15:18:30.329Z</time>
      </trkpt>
      <trkpt lat="48.69541" lon="1.86027">
        <ele>173</ele>
        <time>2025-07-04T15:18:34.481Z</time>
      </trkpt>
      <trkpt lat="48.69543" lon="1.86016">
        <ele>172</ele>
        <time>2025-07-04T15:18:39.484Z</time>
      </trkpt>
      <trkpt lat="48.69544" lon="1.86004">
        <ele>173</ele>
        <time>2025-07-04T15:18:44.294Z</time>
      </trkpt>
      <trkpt lat="48.69543" lon="1.85995">
        <ele>173</ele>
        <time>2025-07-04T15:18:48.479Z</time>
      </trkpt>
      <trkpt lat="48.69543" lon="1.85984">
        <ele>173</ele>
        <time>2025-07-04T15:18:53.108Z</time>
      </trkpt>
      <trkpt lat="48.69542" lon="1.85974">
        <ele>174</ele>
        <time>2025-07-04T15:18:57.349Z</time>
      </trkpt>
      <trkpt lat="48.69544" lon="1.85965">
        <ele>173</ele>
        <time>2025-07-04T15:19:01.413Z</time>
      </trkpt>
      <trkpt lat="48.69545" lon="1.85957">
        <ele>173</ele>
        <time>2025-07-04T15:19:05.478Z</time>
      </trkpt>
      <trkpt lat="48.69546" lon="1.85946">
        <ele>173</ele>
        <time>2025-07-04T15:19:10.489Z</time>
      </trkpt>
      <trkpt lat="48.69546" lon="1.85936">
        <ele>173</ele>
        <time>2025-07-04T15:19:14.929Z</time>
      </trkpt>
      <trkpt lat="48.69546" lon="1.85926">
        <ele>173</ele>
        <time>2025-07-04T15:19:19.110Z</time>
      </trkpt>
      <trkpt lat="48.69547" lon="1.85917">
        <ele>173</ele>
        <time>2025-07-04T15:19:23.325Z</time>
      </trkpt>
      <trkpt lat="48.69548" lon="1.85907">
        <ele>173</ele>
        <time>2025-07-04T15:19:27.479Z</time>
      </trkpt>
      <trkpt lat="48.69549" lon="1.85896">
        <ele>172</ele>
        <time>2025-07-04T15:19:32.482Z</time>
      </trkpt>
      <trkpt lat="48.6955" lon="1.85887">
        <ele>172</ele>
        <time>2025-07-04T15:19:36.673Z</time>
      </trkpt>
      <trkpt lat="48.6955" lon="1.85877">
        <ele>172</ele>
        <time>2025-07-04T15:19:40.845Z</time>
      </trkpt>
      <trkpt lat="48.6955" lon="1.85866">
        <ele>172</ele>
        <time>2025-07-04T15:19:45.479Z</time>
      </trkpt>
      <trkpt lat="48.69551" lon="1.85857">
        <ele>172</ele>
        <time>2025-07-04T15:19:49.484Z</time>
      </trkpt>
      <trkpt lat="48.6955" lon="1.85847">
        <ele>172</ele>
        <time>2025-07-04T15:19:53.748Z</time>
      </trkpt>
      <trkpt lat="48.69547" lon="1.85837">
        <ele>172</ele>
        <time>2025-07-04T15:19:58.128Z</time>
      </trkpt>
      <trkpt lat="48.69546" lon="1.85828">
        <ele>172</ele>
        <time>2025-07-04T15:20:02.188Z</time>
      </trkpt>
      <trkpt lat="48.69545" lon="1.85818">
        <ele>171</ele>
        <time>2025-07-04T15:20:06.482Z</time>
      </trkpt>
      <trkpt lat="48.69543" lon="1.85808">
        <ele>171</ele>
        <time>2025-07-04T15:20:10.612Z</time>
      </trkpt>
      <trkpt lat="48.69541" lon="1.85797">
        <ele>172</ele>
        <time>2025-07-04T15:20:15.479Z</time>
      </trkpt>
      <trkpt lat="48.69541" lon="1.85786">
        <ele>171</ele>
        <time>2025-07-04T15:20:20.486Z</time>
      </trkpt>
      <trkpt lat="48.69537" lon="1.85776">
        <ele>171</ele>
        <time>2025-07-04T15:20:24.872Z</time>
      </trkpt>
      <trkpt lat="48.69535" lon="1.85766">
        <ele>171</ele>
        <time>2025-07-04T15:20:28.952Z</time>
      </trkpt>
      <trkpt lat="48.69528" lon="1.85754">
        <ele>172</ele>
        <time>2025-07-04T15:20:46.481Z</time>
      </trkpt>
      <trkpt lat="48.69528" lon="1.85754">
        <ele>172</ele>
        <time>2025-07-04T15:20:51.350Z</time>
      </trkpt>
      <trkpt lat="48.69523" lon="1.85754">
        <ele>172</ele>
        <time>2025-07-04T15:20:55.711Z</time>
      </trkpt>
      <trkpt lat="48.69515" lon="1.85749">
        <ele>172</ele>
        <time>2025-07-04T15:20:59.928Z</time>
      </trkpt>
      <trkpt lat="48.6951" lon="1.85746">
        <ele>173</ele>
        <time>2025-07-04T15:21:04.244Z</time>
      </trkpt>
      <trkpt lat="48.69505" lon="1.85741">
        <ele>173</ele>
        <time>2025-07-04T15:21:08.572Z</time>
      </trkpt>
      <trkpt lat="48.695" lon="1.85738">
        <ele>173</ele>
        <time>2025-07-04T15:21:12.931Z</time>
      </trkpt>
      <trkpt lat="48.69496" lon="1.8574">
        <ele>173</ele>
        <time>2025-07-04T15:21:17.211Z</time>
      </trkpt>
      <trkpt lat="48.69489" lon="1.85738">
        <ele>173</ele>
        <time>2025-07-04T15:21:21.429Z</time>
      </trkpt>
      <trkpt lat="48.69484" lon="1.85736">
        <ele>174</ele>
        <time>2025-07-04T15:21:25.728Z</time>
      </trkpt>
      <trkpt lat="48.69478" lon="1.85735">
        <ele>174</ele>
        <time>2025-07-04T15:21:29.892Z</time>
      </trkpt>
      <trkpt lat="48.69472" lon="1.85734">
        <ele>174</ele>
        <time>2025-07-04T15:21:34.184Z</time>
      </trkpt>
      <trkpt lat="48.69467" lon="1.85735">
        <ele>174</ele>
        <time>2025-07-04T15:21:38.290Z</time>
      </trkpt>
      <trkpt lat="48.6946" lon="1.85729">
        <ele>174</ele>
        <time>2025-07-04T15:21:42.608Z</time>
      </trkpt>
      <trkpt lat="48.69454" lon="1.85726">
        <ele>175</ele>
        <time>2025-07-04T15:21:47.293Z</time>
      </trkpt>
      <trkpt lat="48.69448" lon="1.85724">
        <ele>175</ele>
        <time>2025-07-04T15:21:51.390Z</time>
      </trkpt>
      <trkpt lat="48.69442" lon="1.85722">
        <ele>175</ele>
        <time>2025-07-04T15:21:55.589Z</time>
      </trkpt>
      <trkpt lat="48.69436" lon="1.85721">
        <ele>175</ele>
        <time>2025-07-04T15:21:59.845Z</time>
      </trkpt>
      <trkpt lat="48.6943" lon="1.85717">
        <ele>175</ele>
        <time>2025-07-04T15:22:04.029Z</time>
      </trkpt>
      <trkpt lat="48.69425" lon="1.85713">
        <ele>175</ele>
        <time>2025-07-04T15:22:08.192Z</time>
      </trkpt>
      <trkpt lat="48.69419" lon="1.85711">
        <ele>175</ele>
        <time>2025-07-04T15:22:12.364Z</time>
      </trkpt>
      <trkpt lat="48.69414" lon="1.85708">
        <ele>175</ele>
        <time>2025-07-04T15:22:16.605Z</time>
      </trkpt>
      <trkpt lat="48.69407" lon="1.85706">
        <ele>175</ele>
        <time>2025-07-04T15:22:20.829Z</time>
      </trkpt>
      <trkpt lat="48.69401" lon="1.85705">
        <ele>176</ele>
        <time>2025-07-04T15:22:25.191Z</time>
      </trkpt>
      <trkpt lat="48.69395" lon="1.85702">
        <ele>176</ele>
        <time>2025-07-04T15:22:29.407Z</time>
      </trkpt>
      <trkpt lat="48.69389" lon="1.85701">
        <ele>176</ele>
        <time>2025-07-04T15:22:33.632Z</time>
      </trkpt>
      <trkpt lat="48.69383" lon="1.857">
        <ele>176</ele>
        <time>2025-07-04T15:22:37.872Z</time>
      </trkpt>
      <trkpt lat="48.69377" lon="1.85698">
        <ele>176</ele>
        <time>2025-07-04T15:22:42.190Z</time>
      </trkpt>
      <trkpt lat="48.69374" lon="1.85691">
        <ele>175</ele>
        <time>2025-07-04T15:22:46.490Z</time>
      </trkpt>
      <trkpt lat="48.6937" lon="1.85685">
        <ele>175</ele>
        <time>2025-07-04T15:22:51.091Z</time>
      </trkpt>
      <trkpt lat="48.69364" lon="1.85684">
        <ele>175</ele>
        <time>2025-07-04T15:22:55.451Z</time>
      </trkpt>
      <trkpt lat="48.69361" lon="1.85683">
        <ele>175</ele>
        <time>2025-07-04T15:22:59.932Z</time>
      </trkpt>
      <trkpt lat="48.69356" lon="1.85684">
        <ele>175</ele>
        <time>2025-07-04T15:23:04.369Z</time>
      </trkpt>
    </trkseg>
  </trk>
</gpx>